<?xml version="1.0" encoding="UTF-8" standalone="no" ?>
<gpx xmlns="http://www.topografix.com/GPX/1/1" xmlns:xsi="http://www.w3.org/2001/XMLSchema-instance" xsi:schemaLocation="http://www.topografix.com/GPX/1/1 http://www.topografix.com/GPX/1/1/gpx.xsd" version="1.1" creator="VisuGPX - https://www.visugpx.com">
  <metadata>
    <name>Marche de la gym de Marsannay du jeudi 29 Nov 2108</name>
    <desc><![CDATA[un petit aller/retour de Fixey à Gevrey]]></desc>
  </metadata>
  <trk>
    <name><![CDATA[Track]]></name>
    <trkseg>
      <trkpt lat="47.24996" lon="4.96889">
        <ele>325.98348999023</ele>
        <time>2018-11-29T08:59:49+0100</time>
      </trkpt>
      <trkpt lat="47.24996" lon="4.96889">
        <ele>325.17660522461</ele>
        <time>2018-11-29T08:59:57+0100</time>
      </trkpt>
      <trkpt lat="47.24996" lon="4.96889">
        <ele>325.21176147461</ele>
        <time>2018-11-29T09:00:00+0100</time>
      </trkpt>
      <trkpt lat="47.24996" lon="4.96889">
        <ele>325.25830078125</ele>
        <time>2018-11-29T09:00:03+0100</time>
      </trkpt>
      <trkpt lat="47.24996" lon="4.96889">
        <ele>325.25686645508</ele>
        <time>2018-11-29T09:00:06+0100</time>
      </trkpt>
      <trkpt lat="47.24996" lon="4.96889">
        <ele>325.25256347656</ele>
        <time>2018-11-29T09:00:09+0100</time>
      </trkpt>
      <trkpt lat="47.24996" lon="4.96889">
        <ele>325.21603393555</ele>
        <time>2018-11-29T09:00:12+0100</time>
      </trkpt>
      <trkpt lat="47.24996" lon="4.96889">
        <ele>325.21057128906</ele>
        <time>2018-11-29T09:00:15+0100</time>
      </trkpt>
      <trkpt lat="47.24996" lon="4.96889">
        <ele>325.19125366211</ele>
        <time>2018-11-29T09:00:18+0100</time>
      </trkpt>
      <trkpt lat="47.24996" lon="4.96889">
        <ele>325.2038269043</ele>
        <time>2018-11-29T09:00:21+0100</time>
      </trkpt>
      <trkpt lat="47.24996" lon="4.96889">
        <ele>325.21533203125</ele>
        <time>2018-11-29T09:00:24+0100</time>
      </trkpt>
      <trkpt lat="47.24996" lon="4.96889">
        <ele>325.23901367188</ele>
        <time>2018-11-29T09:00:27+0100</time>
      </trkpt>
      <trkpt lat="47.24996" lon="4.96889">
        <ele>325.27319335938</ele>
        <time>2018-11-29T09:00:30+0100</time>
      </trkpt>
      <trkpt lat="47.24996" lon="4.96889">
        <ele>325.31716918945</ele>
        <time>2018-11-29T09:00:33+0100</time>
      </trkpt>
      <trkpt lat="47.24996" lon="4.96889">
        <ele>325.36514282227</ele>
        <time>2018-11-29T09:00:36+0100</time>
      </trkpt>
      <trkpt lat="47.24996" lon="4.96889">
        <ele>325.41732788086</ele>
        <time>2018-11-29T09:00:39+0100</time>
      </trkpt>
      <trkpt lat="47.24996" lon="4.96889">
        <ele>325.47094726562</ele>
        <time>2018-11-29T09:00:42+0100</time>
      </trkpt>
      <trkpt lat="47.24996" lon="4.96889">
        <ele>325.52438354492</ele>
        <time>2018-11-29T09:00:45+0100</time>
      </trkpt>
      <trkpt lat="47.24996" lon="4.96889">
        <ele>325.73498535156</ele>
        <time>2018-11-29T09:00:48+0100</time>
      </trkpt>
      <trkpt lat="47.24996" lon="4.96889">
        <ele>325.91723632812</ele>
        <time>2018-11-29T09:00:51+0100</time>
      </trkpt>
      <trkpt lat="47.24996" lon="4.96889">
        <ele>325.96038818359</ele>
        <time>2018-11-29T09:00:54+0100</time>
      </trkpt>
      <trkpt lat="47.24996" lon="4.96889">
        <ele>326.00247192383</ele>
        <time>2018-11-29T09:00:57+0100</time>
      </trkpt>
      <trkpt lat="47.24998" lon="4.96895">
        <ele>326.27001953125</ele>
        <time>2018-11-29T09:01:00+0100</time>
      </trkpt>
      <trkpt lat="47.24998" lon="4.96895">
        <ele>326.49792480469</ele>
        <time>2018-11-29T09:01:03+0100</time>
      </trkpt>
      <trkpt lat="47.24998" lon="4.96895">
        <ele>326.609375</ele>
        <time>2018-11-29T09:01:06+0100</time>
      </trkpt>
      <trkpt lat="47.24998" lon="4.96895">
        <ele>326.63339233398</ele>
        <time>2018-11-29T09:01:09+0100</time>
      </trkpt>
      <trkpt lat="47.24998" lon="4.96895">
        <ele>326.83499145508</ele>
        <time>2018-11-29T09:01:12+0100</time>
      </trkpt>
      <trkpt lat="47.24998" lon="4.96895">
        <ele>326.85202026367</ele>
        <time>2018-11-29T09:01:15+0100</time>
      </trkpt>
      <trkpt lat="47.24998" lon="4.96895">
        <ele>326.86880493164</ele>
        <time>2018-11-29T09:01:18+0100</time>
      </trkpt>
      <trkpt lat="47.24998" lon="4.96895">
        <ele>326.98077392578</ele>
        <time>2018-11-29T09:01:21+0100</time>
      </trkpt>
      <trkpt lat="47.24998" lon="4.96895">
        <ele>327.04275512695</ele>
        <time>2018-11-29T09:01:24+0100</time>
      </trkpt>
      <trkpt lat="47.24998" lon="4.96895">
        <ele>327.05923461914</ele>
        <time>2018-11-29T09:01:27+0100</time>
      </trkpt>
      <trkpt lat="47.24998" lon="4.96895">
        <ele>327.07794189453</ele>
        <time>2018-11-29T09:01:30+0100</time>
      </trkpt>
      <trkpt lat="47.24998" lon="4.96895">
        <ele>327.09878540039</ele>
        <time>2018-11-29T09:01:33+0100</time>
      </trkpt>
      <trkpt lat="47.24997" lon="4.96902">
        <ele>327.12246704102</ele>
        <time>2018-11-29T09:01:36+0100</time>
      </trkpt>
      <trkpt lat="47.24997" lon="4.96902">
        <ele>327.14581298828</ele>
        <time>2018-11-29T09:01:39+0100</time>
      </trkpt>
      <trkpt lat="47.24997" lon="4.96902">
        <ele>327.16546630859</ele>
        <time>2018-11-29T09:01:42+0100</time>
      </trkpt>
      <trkpt lat="47.24997" lon="4.96902">
        <ele>327.18084716797</ele>
        <time>2018-11-29T09:01:45+0100</time>
      </trkpt>
      <trkpt lat="47.24997" lon="4.96902">
        <ele>327.19720458984</ele>
        <time>2018-11-29T09:01:48+0100</time>
      </trkpt>
      <trkpt lat="47.24997" lon="4.96902">
        <ele>327.21203613281</ele>
        <time>2018-11-29T09:01:51+0100</time>
      </trkpt>
      <trkpt lat="47.24997" lon="4.96902">
        <ele>327.2233581543</ele>
        <time>2018-11-29T09:01:54+0100</time>
      </trkpt>
      <trkpt lat="47.24997" lon="4.96902">
        <ele>327.23110961914</ele>
        <time>2018-11-29T09:01:57+0100</time>
      </trkpt>
      <trkpt lat="47.24997" lon="4.96902">
        <ele>327.240234375</ele>
        <time>2018-11-29T09:02:00+0100</time>
      </trkpt>
      <trkpt lat="47.24997" lon="4.96902">
        <ele>327.25057983398</ele>
        <time>2018-11-29T09:02:03+0100</time>
      </trkpt>
      <trkpt lat="47.24997" lon="4.96902">
        <ele>327.26028442383</ele>
        <time>2018-11-29T09:02:06+0100</time>
      </trkpt>
      <trkpt lat="47.24997" lon="4.96902">
        <ele>327.27087402344</ele>
        <time>2018-11-29T09:02:09+0100</time>
      </trkpt>
      <trkpt lat="47.24997" lon="4.96902">
        <ele>327.28762817383</ele>
        <time>2018-11-29T09:02:12+0100</time>
      </trkpt>
      <trkpt lat="47.24997" lon="4.96902">
        <ele>327.30157470703</ele>
        <time>2018-11-29T09:02:15+0100</time>
      </trkpt>
      <trkpt lat="47.24997" lon="4.96902">
        <ele>327.31369018555</ele>
        <time>2018-11-29T09:02:18+0100</time>
      </trkpt>
      <trkpt lat="47.24997" lon="4.96902">
        <ele>327.32342529297</ele>
        <time>2018-11-29T09:02:21+0100</time>
      </trkpt>
      <trkpt lat="47.24997" lon="4.96902">
        <ele>327.33416748047</ele>
        <time>2018-11-29T09:02:24+0100</time>
      </trkpt>
      <trkpt lat="47.24997" lon="4.96902">
        <ele>327.34405517578</ele>
        <time>2018-11-29T09:02:27+0100</time>
      </trkpt>
      <trkpt lat="47.24997" lon="4.96902">
        <ele>327.35241699219</ele>
        <time>2018-11-29T09:02:30+0100</time>
      </trkpt>
      <trkpt lat="47.24997" lon="4.96902">
        <ele>327.35717773438</ele>
        <time>2018-11-29T09:02:33+0100</time>
      </trkpt>
      <trkpt lat="47.24997" lon="4.96902">
        <ele>327.36099243164</ele>
        <time>2018-11-29T09:02:36+0100</time>
      </trkpt>
      <trkpt lat="47.24997" lon="4.96902">
        <ele>327.36981201172</ele>
        <time>2018-11-29T09:02:39+0100</time>
      </trkpt>
      <trkpt lat="47.24997" lon="4.96902">
        <ele>327.37948608398</ele>
        <time>2018-11-29T09:02:42+0100</time>
      </trkpt>
      <trkpt lat="47.24997" lon="4.96902">
        <ele>327.38851928711</ele>
        <time>2018-11-29T09:02:45+0100</time>
      </trkpt>
      <trkpt lat="47.24997" lon="4.96902">
        <ele>327.39660644531</ele>
        <time>2018-11-29T09:02:48+0100</time>
      </trkpt>
      <trkpt lat="47.24997" lon="4.96902">
        <ele>327.41738891602</ele>
        <time>2018-11-29T09:02:51+0100</time>
      </trkpt>
      <trkpt lat="47.24996" lon="4.96902">
        <ele>327.48281860352</ele>
        <time>2018-11-29T09:02:54+0100</time>
      </trkpt>
      <trkpt lat="47.24995" lon="4.96904">
        <ele>327.54266357422</ele>
        <time>2018-11-29T09:02:57+0100</time>
      </trkpt>
      <trkpt lat="47.24994" lon="4.96904">
        <ele>327.54327392578</ele>
        <time>2018-11-29T09:03:00+0100</time>
      </trkpt>
      <trkpt lat="47.24995" lon="4.96905">
        <ele>327.53256225586</ele>
        <time>2018-11-29T09:03:03+0100</time>
      </trkpt>
      <trkpt lat="47.24995" lon="4.9691">
        <ele>327.50946044922</ele>
        <time>2018-11-29T09:03:06+0100</time>
      </trkpt>
      <trkpt lat="47.24996" lon="4.96913">
        <ele>327.50588989258</ele>
        <time>2018-11-29T09:03:09+0100</time>
      </trkpt>
      <trkpt lat="47.24998" lon="4.96915">
        <ele>327.52337646484</ele>
        <time>2018-11-29T09:03:12+0100</time>
      </trkpt>
      <trkpt lat="47.24999" lon="4.96917">
        <ele>327.54946899414</ele>
        <time>2018-11-29T09:03:15+0100</time>
      </trkpt>
      <trkpt lat="47.24998" lon="4.96919">
        <ele>327.58020019531</ele>
        <time>2018-11-29T09:03:18+0100</time>
      </trkpt>
      <trkpt lat="47.24998" lon="4.96919">
        <ele>327.60754394531</ele>
        <time>2018-11-29T09:03:21+0100</time>
      </trkpt>
      <trkpt lat="47.24998" lon="4.96919">
        <ele>327.62307739258</ele>
        <time>2018-11-29T09:03:24+0100</time>
      </trkpt>
      <trkpt lat="47.24999" lon="4.96918">
        <ele>327.63931274414</ele>
        <time>2018-11-29T09:03:27+0100</time>
      </trkpt>
      <trkpt lat="47.24999" lon="4.96919">
        <ele>327.66946411133</ele>
        <time>2018-11-29T09:03:30+0100</time>
      </trkpt>
      <trkpt lat="47.24999" lon="4.96919">
        <ele>327.70663452148</ele>
        <time>2018-11-29T09:03:33+0100</time>
      </trkpt>
      <trkpt lat="47.24999" lon="4.96919">
        <ele>327.75311279297</ele>
        <time>2018-11-29T09:03:36+0100</time>
      </trkpt>
      <trkpt lat="47.24998" lon="4.96919">
        <ele>327.79724121094</ele>
        <time>2018-11-29T09:03:39+0100</time>
      </trkpt>
      <trkpt lat="47.24998" lon="4.96919">
        <ele>327.84124755859</ele>
        <time>2018-11-29T09:03:42+0100</time>
      </trkpt>
      <trkpt lat="47.24998" lon="4.96919">
        <ele>327.87899780273</ele>
        <time>2018-11-29T09:03:45+0100</time>
      </trkpt>
      <trkpt lat="47.24998" lon="4.96919">
        <ele>327.91186523438</ele>
        <time>2018-11-29T09:03:48+0100</time>
      </trkpt>
      <trkpt lat="47.24998" lon="4.96919">
        <ele>327.93585205078</ele>
        <time>2018-11-29T09:03:51+0100</time>
      </trkpt>
      <trkpt lat="47.24998" lon="4.9692">
        <ele>327.96319580078</ele>
        <time>2018-11-29T09:03:54+0100</time>
      </trkpt>
      <trkpt lat="47.24998" lon="4.9692">
        <ele>327.99200439453</ele>
        <time>2018-11-29T09:03:57+0100</time>
      </trkpt>
      <trkpt lat="47.24997" lon="4.9692">
        <ele>328.0202331543</ele>
        <time>2018-11-29T09:04:00+0100</time>
      </trkpt>
      <trkpt lat="47.24997" lon="4.9692">
        <ele>328.05032348633</ele>
        <time>2018-11-29T09:04:03+0100</time>
      </trkpt>
      <trkpt lat="47.24997" lon="4.9692">
        <ele>328.08279418945</ele>
        <time>2018-11-29T09:04:06+0100</time>
      </trkpt>
      <trkpt lat="47.24997" lon="4.9692">
        <ele>328.11676025391</ele>
        <time>2018-11-29T09:04:09+0100</time>
      </trkpt>
      <trkpt lat="47.24997" lon="4.9692">
        <ele>328.14654541016</ele>
        <time>2018-11-29T09:04:12+0100</time>
      </trkpt>
      <trkpt lat="47.24995" lon="4.96921">
        <ele>328.17819213867</ele>
        <time>2018-11-29T09:04:15+0100</time>
      </trkpt>
      <trkpt lat="47.24995" lon="4.9692">
        <ele>328.19549560547</ele>
        <time>2018-11-29T09:04:18+0100</time>
      </trkpt>
      <trkpt lat="47.24993" lon="4.96921">
        <ele>328.30078125</ele>
        <time>2018-11-29T09:04:21+0100</time>
      </trkpt>
      <trkpt lat="47.24992" lon="4.96919">
        <ele>328.37475585938</ele>
        <time>2018-11-29T09:04:24+0100</time>
      </trkpt>
      <trkpt lat="47.24992" lon="4.96918">
        <ele>328.44067382812</ele>
        <time>2018-11-29T09:04:27+0100</time>
      </trkpt>
      <trkpt lat="47.24992" lon="4.96918">
        <ele>328.44924926758</ele>
        <time>2018-11-29T09:04:30+0100</time>
      </trkpt>
      <trkpt lat="47.24992" lon="4.96918">
        <ele>328.45654296875</ele>
        <time>2018-11-29T09:04:33+0100</time>
      </trkpt>
      <trkpt lat="47.24993" lon="4.96917">
        <ele>328.45693969727</ele>
        <time>2018-11-29T09:04:36+0100</time>
      </trkpt>
      <trkpt lat="47.24993" lon="4.96916">
        <ele>328.44711303711</ele>
        <time>2018-11-29T09:04:39+0100</time>
      </trkpt>
      <trkpt lat="47.24993" lon="4.96916">
        <ele>328.42681884766</ele>
        <time>2018-11-29T09:04:42+0100</time>
      </trkpt>
      <trkpt lat="47.24993" lon="4.96915">
        <ele>328.39361572266</ele>
        <time>2018-11-29T09:04:45+0100</time>
      </trkpt>
      <trkpt lat="47.24994" lon="4.96915">
        <ele>328.35879516602</ele>
        <time>2018-11-29T09:04:48+0100</time>
      </trkpt>
      <trkpt lat="47.24995" lon="4.96913">
        <ele>328.24627685547</ele>
        <time>2018-11-29T09:04:51+0100</time>
      </trkpt>
      <trkpt lat="47.24996" lon="4.96913">
        <ele>328.22842407227</ele>
        <time>2018-11-29T09:04:54+0100</time>
      </trkpt>
      <trkpt lat="47.24996" lon="4.96912">
        <ele>328.21383666992</ele>
        <time>2018-11-29T09:04:57+0100</time>
      </trkpt>
      <trkpt lat="47.24996" lon="4.96912">
        <ele>328.20153808594</ele>
        <time>2018-11-29T09:05:00+0100</time>
      </trkpt>
      <trkpt lat="47.24996" lon="4.96912">
        <ele>328.1979675293</ele>
        <time>2018-11-29T09:05:03+0100</time>
      </trkpt>
      <trkpt lat="47.24996" lon="4.96912">
        <ele>328.19729614258</ele>
        <time>2018-11-29T09:05:06+0100</time>
      </trkpt>
      <trkpt lat="47.24996" lon="4.96912">
        <ele>328.18975830078</ele>
        <time>2018-11-29T09:05:09+0100</time>
      </trkpt>
      <trkpt lat="47.24996" lon="4.96911">
        <ele>328.17672729492</ele>
        <time>2018-11-29T09:05:12+0100</time>
      </trkpt>
      <trkpt lat="47.24996" lon="4.96911">
        <ele>328.15841674805</ele>
        <time>2018-11-29T09:05:15+0100</time>
      </trkpt>
      <trkpt lat="47.24996" lon="4.96911">
        <ele>328.13638305664</ele>
        <time>2018-11-29T09:05:18+0100</time>
      </trkpt>
      <trkpt lat="47.24996" lon="4.96911">
        <ele>328.11996459961</ele>
        <time>2018-11-29T09:05:21+0100</time>
      </trkpt>
      <trkpt lat="47.24996" lon="4.96911">
        <ele>328.1032409668</ele>
        <time>2018-11-29T09:05:24+0100</time>
      </trkpt>
      <trkpt lat="47.24996" lon="4.96911">
        <ele>328.08404541016</ele>
        <time>2018-11-29T09:05:27+0100</time>
      </trkpt>
      <trkpt lat="47.24996" lon="4.96911">
        <ele>328.06176757812</ele>
        <time>2018-11-29T09:05:30+0100</time>
      </trkpt>
      <trkpt lat="47.24997" lon="4.9691">
        <ele>328.0436706543</ele>
        <time>2018-11-29T09:05:33+0100</time>
      </trkpt>
      <trkpt lat="47.24996" lon="4.96911">
        <ele>328.03005981445</ele>
        <time>2018-11-29T09:05:36+0100</time>
      </trkpt>
      <trkpt lat="47.24996" lon="4.96911">
        <ele>328.01190185547</ele>
        <time>2018-11-29T09:05:39+0100</time>
      </trkpt>
      <trkpt lat="47.24996" lon="4.96911">
        <ele>327.98385620117</ele>
        <time>2018-11-29T09:05:42+0100</time>
      </trkpt>
      <trkpt lat="47.24996" lon="4.96911">
        <ele>327.958984375</ele>
        <time>2018-11-29T09:05:45+0100</time>
      </trkpt>
      <trkpt lat="47.24996" lon="4.96912">
        <ele>327.95614624023</ele>
        <time>2018-11-29T09:05:48+0100</time>
      </trkpt>
      <trkpt lat="47.24996" lon="4.96912">
        <ele>327.96221923828</ele>
        <time>2018-11-29T09:05:51+0100</time>
      </trkpt>
      <trkpt lat="47.24996" lon="4.96913">
        <ele>327.99276733398</ele>
        <time>2018-11-29T09:05:54+0100</time>
      </trkpt>
      <trkpt lat="47.24994" lon="4.96916">
        <ele>328.00527954102</ele>
        <time>2018-11-29T09:05:57+0100</time>
      </trkpt>
      <trkpt lat="47.24995" lon="4.96916">
        <ele>328.00692749023</ele>
        <time>2018-11-29T09:06:00+0100</time>
      </trkpt>
      <trkpt lat="47.24995" lon="4.96916">
        <ele>328.01434326172</ele>
        <time>2018-11-29T09:06:03+0100</time>
      </trkpt>
      <trkpt lat="47.24995" lon="4.96917">
        <ele>328.0280456543</ele>
        <time>2018-11-29T09:06:06+0100</time>
      </trkpt>
      <trkpt lat="47.24995" lon="4.96917">
        <ele>328.0466003418</ele>
        <time>2018-11-29T09:06:09+0100</time>
      </trkpt>
      <trkpt lat="47.24995" lon="4.96917">
        <ele>328.07287597656</ele>
        <time>2018-11-29T09:06:12+0100</time>
      </trkpt>
      <trkpt lat="47.24995" lon="4.96917">
        <ele>328.10784912109</ele>
        <time>2018-11-29T09:06:15+0100</time>
      </trkpt>
      <trkpt lat="47.24995" lon="4.96917">
        <ele>328.14944458008</ele>
        <time>2018-11-29T09:06:18+0100</time>
      </trkpt>
      <trkpt lat="47.24995" lon="4.96918">
        <ele>328.19912719727</ele>
        <time>2018-11-29T09:06:21+0100</time>
      </trkpt>
      <trkpt lat="47.24994" lon="4.9692">
        <ele>328.23614501953</ele>
        <time>2018-11-29T09:06:24+0100</time>
      </trkpt>
      <trkpt lat="47.24993" lon="4.96921">
        <ele>328.25048828125</ele>
        <time>2018-11-29T09:06:27+0100</time>
      </trkpt>
      <trkpt lat="47.24993" lon="4.96921">
        <ele>328.26303100586</ele>
        <time>2018-11-29T09:06:30+0100</time>
      </trkpt>
      <trkpt lat="47.24993" lon="4.96921">
        <ele>328.26794433594</ele>
        <time>2018-11-29T09:06:33+0100</time>
      </trkpt>
      <trkpt lat="47.24993" lon="4.96921">
        <ele>328.27517700195</ele>
        <time>2018-11-29T09:06:36+0100</time>
      </trkpt>
      <trkpt lat="47.24993" lon="4.96921">
        <ele>328.28555297852</ele>
        <time>2018-11-29T09:06:39+0100</time>
      </trkpt>
      <trkpt lat="47.24993" lon="4.96921">
        <ele>328.29275512695</ele>
        <time>2018-11-29T09:06:42+0100</time>
      </trkpt>
      <trkpt lat="47.24994" lon="4.96921">
        <ele>328.29495239258</ele>
        <time>2018-11-29T09:06:45+0100</time>
      </trkpt>
      <trkpt lat="47.24994" lon="4.96921">
        <ele>328.29403686523</ele>
        <time>2018-11-29T09:06:48+0100</time>
      </trkpt>
      <trkpt lat="47.24994" lon="4.96921">
        <ele>328.29159545898</ele>
        <time>2018-11-29T09:06:51+0100</time>
      </trkpt>
      <trkpt lat="47.24994" lon="4.96921">
        <ele>328.29183959961</ele>
        <time>2018-11-29T09:06:54+0100</time>
      </trkpt>
      <trkpt lat="47.24994" lon="4.96921">
        <ele>328.29483032227</ele>
        <time>2018-11-29T09:06:57+0100</time>
      </trkpt>
      <trkpt lat="47.24994" lon="4.96921">
        <ele>328.29925537109</ele>
        <time>2018-11-29T09:07:00+0100</time>
      </trkpt>
      <trkpt lat="47.24994" lon="4.96921">
        <ele>328.30480957031</ele>
        <time>2018-11-29T09:07:03+0100</time>
      </trkpt>
      <trkpt lat="47.24994" lon="4.9692">
        <ele>328.30810546875</ele>
        <time>2018-11-29T09:07:06+0100</time>
      </trkpt>
      <trkpt lat="47.24994" lon="4.9692">
        <ele>328.30844116211</ele>
        <time>2018-11-29T09:07:09+0100</time>
      </trkpt>
      <trkpt lat="47.24994" lon="4.9692">
        <ele>328.30758666992</ele>
        <time>2018-11-29T09:07:12+0100</time>
      </trkpt>
      <trkpt lat="47.24994" lon="4.9692">
        <ele>328.30718994141</ele>
        <time>2018-11-29T09:07:15+0100</time>
      </trkpt>
      <trkpt lat="47.24994" lon="4.9692">
        <ele>328.30856323242</ele>
        <time>2018-11-29T09:07:18+0100</time>
      </trkpt>
      <trkpt lat="47.24994" lon="4.9692">
        <ele>328.31231689453</ele>
        <time>2018-11-29T09:07:21+0100</time>
      </trkpt>
      <trkpt lat="47.24994" lon="4.9692">
        <ele>328.31768798828</ele>
        <time>2018-11-29T09:07:24+0100</time>
      </trkpt>
      <trkpt lat="47.24994" lon="4.9692">
        <ele>328.32125854492</ele>
        <time>2018-11-29T09:07:27+0100</time>
      </trkpt>
      <trkpt lat="47.24994" lon="4.9692">
        <ele>328.32440185547</ele>
        <time>2018-11-29T09:07:30+0100</time>
      </trkpt>
      <trkpt lat="47.24995" lon="4.9692">
        <ele>328.32757568359</ele>
        <time>2018-11-29T09:07:33+0100</time>
      </trkpt>
      <trkpt lat="47.24995" lon="4.9692">
        <ele>328.33050537109</ele>
        <time>2018-11-29T09:07:36+0100</time>
      </trkpt>
      <trkpt lat="47.24995" lon="4.9692">
        <ele>328.33364868164</ele>
        <time>2018-11-29T09:07:40+0100</time>
      </trkpt>
      <trkpt lat="47.24995" lon="4.96919">
        <ele>328.3327331543</ele>
        <time>2018-11-29T09:07:43+0100</time>
      </trkpt>
      <trkpt lat="47.24995" lon="4.96919">
        <ele>328.3310546875</ele>
        <time>2018-11-29T09:07:46+0100</time>
      </trkpt>
      <trkpt lat="47.24995" lon="4.96919">
        <ele>328.32318115234</ele>
        <time>2018-11-29T09:07:49+0100</time>
      </trkpt>
      <trkpt lat="47.24995" lon="4.96919">
        <ele>328.3157043457</ele>
        <time>2018-11-29T09:07:52+0100</time>
      </trkpt>
      <trkpt lat="47.24995" lon="4.96919">
        <ele>328.30911254883</ele>
        <time>2018-11-29T09:07:55+0100</time>
      </trkpt>
      <trkpt lat="47.24994" lon="4.96919">
        <ele>328.29287719727</ele>
        <time>2018-11-29T09:07:58+0100</time>
      </trkpt>
      <trkpt lat="47.24995" lon="4.96918">
        <ele>328.29901123047</ele>
        <time>2018-11-29T09:08:01+0100</time>
      </trkpt>
      <trkpt lat="47.24995" lon="4.96918">
        <ele>328.3157043457</ele>
        <time>2018-11-29T09:08:04+0100</time>
      </trkpt>
      <trkpt lat="47.24995" lon="4.96918">
        <ele>328.34118652344</ele>
        <time>2018-11-29T09:08:07+0100</time>
      </trkpt>
      <trkpt lat="47.24995" lon="4.96918">
        <ele>328.43185424805</ele>
        <time>2018-11-29T09:08:10+0100</time>
      </trkpt>
      <trkpt lat="47.24995" lon="4.96918">
        <ele>328.43347167969</ele>
        <time>2018-11-29T09:08:13+0100</time>
      </trkpt>
      <trkpt lat="47.24995" lon="4.96918">
        <ele>328.42468261719</ele>
        <time>2018-11-29T09:08:16+0100</time>
      </trkpt>
      <trkpt lat="47.24995" lon="4.96918">
        <ele>328.41326904297</ele>
        <time>2018-11-29T09:08:19+0100</time>
      </trkpt>
      <trkpt lat="47.24995" lon="4.96918">
        <ele>328.39901733398</ele>
        <time>2018-11-29T09:08:22+0100</time>
      </trkpt>
      <trkpt lat="47.24995" lon="4.96918">
        <ele>328.38793945312</ele>
        <time>2018-11-29T09:08:25+0100</time>
      </trkpt>
      <trkpt lat="47.24995" lon="4.96918">
        <ele>328.38037109375</ele>
        <time>2018-11-29T09:08:28+0100</time>
      </trkpt>
      <trkpt lat="47.24995" lon="4.96918">
        <ele>328.37399291992</ele>
        <time>2018-11-29T09:08:31+0100</time>
      </trkpt>
      <trkpt lat="47.24995" lon="4.96918">
        <ele>328.36990356445</ele>
        <time>2018-11-29T09:08:34+0100</time>
      </trkpt>
      <trkpt lat="47.24995" lon="4.96918">
        <ele>328.36911010742</ele>
        <time>2018-11-29T09:08:37+0100</time>
      </trkpt>
      <trkpt lat="47.24995" lon="4.96918">
        <ele>328.36642456055</ele>
        <time>2018-11-29T09:08:40+0100</time>
      </trkpt>
      <trkpt lat="47.24995" lon="4.96918">
        <ele>328.36639404297</ele>
        <time>2018-11-29T09:08:43+0100</time>
      </trkpt>
      <trkpt lat="47.24995" lon="4.96919">
        <ele>328.37020874023</ele>
        <time>2018-11-29T09:08:46+0100</time>
      </trkpt>
      <trkpt lat="47.24995" lon="4.96919">
        <ele>328.37557983398</ele>
        <time>2018-11-29T09:08:49+0100</time>
      </trkpt>
      <trkpt lat="47.24995" lon="4.96919">
        <ele>328.37680053711</ele>
        <time>2018-11-29T09:08:52+0100</time>
      </trkpt>
      <trkpt lat="47.24995" lon="4.96919">
        <ele>328.37493896484</ele>
        <time>2018-11-29T09:08:55+0100</time>
      </trkpt>
      <trkpt lat="47.24996" lon="4.9692">
        <ele>328.37823486328</ele>
        <time>2018-11-29T09:08:58+0100</time>
      </trkpt>
      <trkpt lat="47.24996" lon="4.9692">
        <ele>328.38748168945</ele>
        <time>2018-11-29T09:09:01+0100</time>
      </trkpt>
      <trkpt lat="47.24996" lon="4.9692">
        <ele>328.38858032227</ele>
        <time>2018-11-29T09:09:04+0100</time>
      </trkpt>
      <trkpt lat="47.24996" lon="4.9692">
        <ele>328.36856079102</ele>
        <time>2018-11-29T09:09:07+0100</time>
      </trkpt>
      <trkpt lat="47.24997" lon="4.96919">
        <ele>328.34228515625</ele>
        <time>2018-11-29T09:09:10+0100</time>
      </trkpt>
      <trkpt lat="47.24997" lon="4.96919">
        <ele>328.31097412109</ele>
        <time>2018-11-29T09:09:13+0100</time>
      </trkpt>
      <trkpt lat="47.24997" lon="4.96919">
        <ele>328.27923583984</ele>
        <time>2018-11-29T09:09:16+0100</time>
      </trkpt>
      <trkpt lat="47.24998" lon="4.96919">
        <ele>328.25259399414</ele>
        <time>2018-11-29T09:09:19+0100</time>
      </trkpt>
      <trkpt lat="47.24998" lon="4.96918">
        <ele>328.22790527344</ele>
        <time>2018-11-29T09:09:22+0100</time>
      </trkpt>
      <trkpt lat="47.24998" lon="4.96918">
        <ele>328.19967651367</ele>
        <time>2018-11-29T09:09:25+0100</time>
      </trkpt>
      <trkpt lat="47.24998" lon="4.96918">
        <ele>328.16729736328</ele>
        <time>2018-11-29T09:09:28+0100</time>
      </trkpt>
      <trkpt lat="47.24999" lon="4.96917">
        <ele>328.13128662109</ele>
        <time>2018-11-29T09:09:31+0100</time>
      </trkpt>
      <trkpt lat="47.24999" lon="4.96917">
        <ele>328.09326171875</ele>
        <time>2018-11-29T09:09:34+0100</time>
      </trkpt>
      <trkpt lat="47.24999" lon="4.96916">
        <ele>328.05429077148</ele>
        <time>2018-11-29T09:09:37+0100</time>
      </trkpt>
      <trkpt lat="47.24999" lon="4.96915">
        <ele>328.01626586914</ele>
        <time>2018-11-29T09:09:40+0100</time>
      </trkpt>
      <trkpt lat="47.24999" lon="4.96915">
        <ele>327.98696899414</ele>
        <time>2018-11-29T09:09:43+0100</time>
      </trkpt>
      <trkpt lat="47.24999" lon="4.96915">
        <ele>327.97119140625</ele>
        <time>2018-11-29T09:09:46+0100</time>
      </trkpt>
      <trkpt lat="47.24999" lon="4.96916">
        <ele>327.97698974609</ele>
        <time>2018-11-29T09:09:49+0100</time>
      </trkpt>
      <trkpt lat="47.24999" lon="4.96916">
        <ele>328.00482177734</ele>
        <time>2018-11-29T09:09:52+0100</time>
      </trkpt>
      <trkpt lat="47.24999" lon="4.96916">
        <ele>328.02056884766</ele>
        <time>2018-11-29T09:09:55+0100</time>
      </trkpt>
      <trkpt lat="47.24999" lon="4.96917">
        <ele>328.03503417969</ele>
        <time>2018-11-29T09:09:58+0100</time>
      </trkpt>
      <trkpt lat="47.24999" lon="4.96917">
        <ele>328.06912231445</ele>
        <time>2018-11-29T09:10:01+0100</time>
      </trkpt>
      <trkpt lat="47.24999" lon="4.96918">
        <ele>328.11322021484</ele>
        <time>2018-11-29T09:10:04+0100</time>
      </trkpt>
      <trkpt lat="47.24998" lon="4.96919">
        <ele>328.16677856445</ele>
        <time>2018-11-29T09:10:07+0100</time>
      </trkpt>
      <trkpt lat="47.24998" lon="4.96919">
        <ele>328.22323608398</ele>
        <time>2018-11-29T09:10:10+0100</time>
      </trkpt>
      <trkpt lat="47.24998" lon="4.96919">
        <ele>328.27557373047</ele>
        <time>2018-11-29T09:10:13+0100</time>
      </trkpt>
      <trkpt lat="47.24998" lon="4.96919">
        <ele>328.32333374023</ele>
        <time>2018-11-29T09:10:16+0100</time>
      </trkpt>
      <trkpt lat="47.24999" lon="4.9692">
        <ele>328.36422729492</ele>
        <time>2018-11-29T09:10:19+0100</time>
      </trkpt>
      <trkpt lat="47.24999" lon="4.96921">
        <ele>328.42568969727</ele>
        <time>2018-11-29T09:10:22+0100</time>
      </trkpt>
      <trkpt lat="47.25" lon="4.96921">
        <ele>328.51715087891</ele>
        <time>2018-11-29T09:10:25+0100</time>
      </trkpt>
      <trkpt lat="47.25" lon="4.96921">
        <ele>328.59643554688</ele>
        <time>2018-11-29T09:10:28+0100</time>
      </trkpt>
      <trkpt lat="47.25" lon="4.9692">
        <ele>328.63674926758</ele>
        <time>2018-11-29T09:10:31+0100</time>
      </trkpt>
      <trkpt lat="47.25" lon="4.96919">
        <ele>328.65191650391</ele>
        <time>2018-11-29T09:10:34+0100</time>
      </trkpt>
      <trkpt lat="47.25" lon="4.96919">
        <ele>328.66165161133</ele>
        <time>2018-11-29T09:10:37+0100</time>
      </trkpt>
      <trkpt lat="47.25" lon="4.96919">
        <ele>328.68884277344</ele>
        <time>2018-11-29T09:10:40+0100</time>
      </trkpt>
      <trkpt lat="47.25" lon="4.96919">
        <ele>328.73187255859</ele>
        <time>2018-11-29T09:10:43+0100</time>
      </trkpt>
      <trkpt lat="47.25001" lon="4.96918">
        <ele>328.77697753906</ele>
        <time>2018-11-29T09:10:46+0100</time>
      </trkpt>
      <trkpt lat="47.25001" lon="4.96918">
        <ele>328.81930541992</ele>
        <time>2018-11-29T09:10:49+0100</time>
      </trkpt>
      <trkpt lat="47.25001" lon="4.96918">
        <ele>328.86138916016</ele>
        <time>2018-11-29T09:10:52+0100</time>
      </trkpt>
      <trkpt lat="47.25001" lon="4.96918">
        <ele>328.90335083008</ele>
        <time>2018-11-29T09:10:55+0100</time>
      </trkpt>
      <trkpt lat="47.25002" lon="4.96918">
        <ele>328.94378662109</ele>
        <time>2018-11-29T09:10:58+0100</time>
      </trkpt>
      <trkpt lat="47.25002" lon="4.96918">
        <ele>328.99703979492</ele>
        <time>2018-11-29T09:11:01+0100</time>
      </trkpt>
      <trkpt lat="47.25003" lon="4.96918">
        <ele>329.05947875977</ele>
        <time>2018-11-29T09:11:04+0100</time>
      </trkpt>
      <trkpt lat="47.25003" lon="4.96919">
        <ele>329.12051391602</ele>
        <time>2018-11-29T09:11:07+0100</time>
      </trkpt>
      <trkpt lat="47.25004" lon="4.96919">
        <ele>329.18081665039</ele>
        <time>2018-11-29T09:11:10+0100</time>
      </trkpt>
      <trkpt lat="47.25004" lon="4.96919">
        <ele>329.24081420898</ele>
        <time>2018-11-29T09:11:13+0100</time>
      </trkpt>
      <trkpt lat="47.25004" lon="4.96919">
        <ele>329.26779174805</ele>
        <time>2018-11-29T09:11:16+0100</time>
      </trkpt>
      <trkpt lat="47.25002" lon="4.96917">
        <ele>329.25442504883</ele>
        <time>2018-11-29T09:11:19+0100</time>
      </trkpt>
      <trkpt lat="47.25002" lon="4.96913">
        <ele>329.21618652344</ele>
        <time>2018-11-29T09:11:22+0100</time>
      </trkpt>
      <trkpt lat="47.25002" lon="4.96912">
        <ele>329.22082519531</ele>
        <time>2018-11-29T09:11:25+0100</time>
      </trkpt>
      <trkpt lat="47.25003" lon="4.96911">
        <ele>329.2307434082</ele>
        <time>2018-11-29T09:11:28+0100</time>
      </trkpt>
      <trkpt lat="47.25002" lon="4.96909">
        <ele>329.23355102539</ele>
        <time>2018-11-29T09:11:31+0100</time>
      </trkpt>
      <trkpt lat="47.25002" lon="4.96909">
        <ele>329.24221801758</ele>
        <time>2018-11-29T09:11:34+0100</time>
      </trkpt>
      <trkpt lat="47.25002" lon="4.9691">
        <ele>329.2653503418</ele>
        <time>2018-11-29T09:11:37+0100</time>
      </trkpt>
      <trkpt lat="47.25003" lon="4.9691">
        <ele>329.2946472168</ele>
        <time>2018-11-29T09:11:40+0100</time>
      </trkpt>
      <trkpt lat="47.25002" lon="4.96911">
        <ele>329.30603027344</ele>
        <time>2018-11-29T09:11:43+0100</time>
      </trkpt>
      <trkpt lat="47.25" lon="4.96916">
        <ele>329.31198120117</ele>
        <time>2018-11-29T09:11:46+0100</time>
      </trkpt>
      <trkpt lat="47.24999" lon="4.96917">
        <ele>329.36743164062</ele>
        <time>2018-11-29T09:11:49+0100</time>
      </trkpt>
      <trkpt lat="47.24998" lon="4.96917">
        <ele>329.3874206543</ele>
        <time>2018-11-29T09:11:52+0100</time>
      </trkpt>
      <trkpt lat="47.24998" lon="4.96917">
        <ele>329.41519165039</ele>
        <time>2018-11-29T09:11:55+0100</time>
      </trkpt>
      <trkpt lat="47.24998" lon="4.96917">
        <ele>329.44226074219</ele>
        <time>2018-11-29T09:11:58+0100</time>
      </trkpt>
      <trkpt lat="47.24998" lon="4.96916">
        <ele>329.57482910156</ele>
        <time>2018-11-29T09:12:01+0100</time>
      </trkpt>
      <trkpt lat="47.24998" lon="4.96916">
        <ele>329.60913085938</ele>
        <time>2018-11-29T09:12:04+0100</time>
      </trkpt>
      <trkpt lat="47.24998" lon="4.96916">
        <ele>329.64852905273</ele>
        <time>2018-11-29T09:12:07+0100</time>
      </trkpt>
      <trkpt lat="47.24997" lon="4.96916">
        <ele>329.69375610352</ele>
        <time>2018-11-29T09:12:10+0100</time>
      </trkpt>
      <trkpt lat="47.24997" lon="4.96916">
        <ele>329.73791503906</ele>
        <time>2018-11-29T09:12:13+0100</time>
      </trkpt>
      <trkpt lat="47.24997" lon="4.96913">
        <ele>329.88766479492</ele>
        <time>2018-11-29T09:12:16+0100</time>
      </trkpt>
      <trkpt lat="47.24996" lon="4.9691">
        <ele>330.17114257812</ele>
        <time>2018-11-29T09:12:19+0100</time>
      </trkpt>
      <trkpt lat="47.24996" lon="4.96907">
        <ele>330.59683227539</ele>
        <time>2018-11-29T09:12:22+0100</time>
      </trkpt>
      <trkpt lat="47.24998" lon="4.96896">
        <ele>330.986328125</ele>
        <time>2018-11-29T09:12:25+0100</time>
      </trkpt>
      <trkpt lat="47.24998" lon="4.96894">
        <ele>331.13681030273</ele>
        <time>2018-11-29T09:12:28+0100</time>
      </trkpt>
      <trkpt lat="47.24998" lon="4.9689">
        <ele>331.37118530273</ele>
        <time>2018-11-29T09:12:31+0100</time>
      </trkpt>
      <trkpt lat="47.25" lon="4.96885">
        <ele>331.52914428711</ele>
        <time>2018-11-29T09:12:34+0100</time>
      </trkpt>
      <trkpt lat="47.25" lon="4.96882">
        <ele>331.63119506836</ele>
        <time>2018-11-29T09:12:37+0100</time>
      </trkpt>
      <trkpt lat="47.25001" lon="4.96878">
        <ele>331.70532226562</ele>
        <time>2018-11-29T09:12:40+0100</time>
      </trkpt>
      <trkpt lat="47.25002" lon="4.96875">
        <ele>331.73513793945</ele>
        <time>2018-11-29T09:12:43+0100</time>
      </trkpt>
      <trkpt lat="47.25002" lon="4.96874">
        <ele>331.77188110352</ele>
        <time>2018-11-29T09:12:46+0100</time>
      </trkpt>
      <trkpt lat="47.25001" lon="4.96876">
        <ele>331.90789794922</ele>
        <time>2018-11-29T09:12:49+0100</time>
      </trkpt>
      <trkpt lat="47.25001" lon="4.96871">
        <ele>332.16711425781</ele>
        <time>2018-11-29T09:12:52+0100</time>
      </trkpt>
      <trkpt lat="47.25001" lon="4.96867">
        <ele>332.42575073242</ele>
        <time>2018-11-29T09:12:55+0100</time>
      </trkpt>
      <trkpt lat="47.25001" lon="4.96864">
        <ele>332.69085693359</ele>
        <time>2018-11-29T09:12:58+0100</time>
      </trkpt>
      <trkpt lat="47.25001" lon="4.9686">
        <ele>332.99099731445</ele>
        <time>2018-11-29T09:13:01+0100</time>
      </trkpt>
      <trkpt lat="47.25001" lon="4.96857">
        <ele>333.32501220703</ele>
        <time>2018-11-29T09:13:04+0100</time>
      </trkpt>
      <trkpt lat="47.25002" lon="4.96853">
        <ele>333.67965698242</ele>
        <time>2018-11-29T09:13:07+0100</time>
      </trkpt>
      <trkpt lat="47.25003" lon="4.96848">
        <ele>333.99465942383</ele>
        <time>2018-11-29T09:13:10+0100</time>
      </trkpt>
      <trkpt lat="47.25003" lon="4.96842">
        <ele>334.25735473633</ele>
        <time>2018-11-29T09:13:13+0100</time>
      </trkpt>
      <trkpt lat="47.25005" lon="4.96835">
        <ele>334.49960327148</ele>
        <time>2018-11-29T09:13:16+0100</time>
      </trkpt>
      <trkpt lat="47.25007" lon="4.96832">
        <ele>334.81091308594</ele>
        <time>2018-11-29T09:13:19+0100</time>
      </trkpt>
      <trkpt lat="47.25004" lon="4.96828">
        <ele>335.0500793457</ele>
        <time>2018-11-29T09:13:22+0100</time>
      </trkpt>
      <trkpt lat="47.25001" lon="4.96826">
        <ele>335.17126464844</ele>
        <time>2018-11-29T09:13:25+0100</time>
      </trkpt>
      <trkpt lat="47.24999" lon="4.96824">
        <ele>335.3112487793</ele>
        <time>2018-11-29T09:13:28+0100</time>
      </trkpt>
      <trkpt lat="47.24998" lon="4.9682">
        <ele>335.49017333984</ele>
        <time>2018-11-29T09:13:31+0100</time>
      </trkpt>
      <trkpt lat="47.24998" lon="4.96813">
        <ele>335.7336730957</ele>
        <time>2018-11-29T09:13:34+0100</time>
      </trkpt>
      <trkpt lat="47.24998" lon="4.9681">
        <ele>336.02072143555</ele>
        <time>2018-11-29T09:13:37+0100</time>
      </trkpt>
      <trkpt lat="47.24996" lon="4.96807">
        <ele>336.30569458008</ele>
        <time>2018-11-29T09:13:40+0100</time>
      </trkpt>
      <trkpt lat="47.24993" lon="4.96804">
        <ele>336.53869628906</ele>
        <time>2018-11-29T09:13:43+0100</time>
      </trkpt>
      <trkpt lat="47.24992" lon="4.96801">
        <ele>336.61318969727</ele>
        <time>2018-11-29T09:13:46+0100</time>
      </trkpt>
      <trkpt lat="47.24991" lon="4.96798">
        <ele>336.63958740234</ele>
        <time>2018-11-29T09:13:49+0100</time>
      </trkpt>
      <trkpt lat="47.2499" lon="4.96796">
        <ele>336.70367431641</ele>
        <time>2018-11-29T09:13:52+0100</time>
      </trkpt>
      <trkpt lat="47.2499" lon="4.96793">
        <ele>336.78775024414</ele>
        <time>2018-11-29T09:13:55+0100</time>
      </trkpt>
      <trkpt lat="47.2499" lon="4.96792">
        <ele>336.92425537109</ele>
        <time>2018-11-29T09:13:58+0100</time>
      </trkpt>
      <trkpt lat="47.24989" lon="4.96788">
        <ele>337.14950561523</ele>
        <time>2018-11-29T09:14:01+0100</time>
      </trkpt>
      <trkpt lat="47.24988" lon="4.96786">
        <ele>337.45986938477</ele>
        <time>2018-11-29T09:14:04+0100</time>
      </trkpt>
      <trkpt lat="47.24988" lon="4.96784">
        <ele>337.83554077148</ele>
        <time>2018-11-29T09:14:07+0100</time>
      </trkpt>
      <trkpt lat="47.24987" lon="4.96782">
        <ele>338.31503295898</ele>
        <time>2018-11-29T09:14:10+0100</time>
      </trkpt>
      <trkpt lat="47.24985" lon="4.96779">
        <ele>338.80160522461</ele>
        <time>2018-11-29T09:14:13+0100</time>
      </trkpt>
      <trkpt lat="47.24985" lon="4.96776">
        <ele>339.30926513672</ele>
        <time>2018-11-29T09:14:16+0100</time>
      </trkpt>
      <trkpt lat="47.24983" lon="4.96774">
        <ele>339.83996582031</ele>
        <time>2018-11-29T09:14:19+0100</time>
      </trkpt>
      <trkpt lat="47.2498" lon="4.96771">
        <ele>340.37707519531</ele>
        <time>2018-11-29T09:14:22+0100</time>
      </trkpt>
      <trkpt lat="47.24979" lon="4.96769">
        <ele>340.93280029297</ele>
        <time>2018-11-29T09:14:25+0100</time>
      </trkpt>
      <trkpt lat="47.24979" lon="4.96764">
        <ele>341.44644165039</ele>
        <time>2018-11-29T09:14:28+0100</time>
      </trkpt>
      <trkpt lat="47.24978" lon="4.96759">
        <ele>341.88882446289</ele>
        <time>2018-11-29T09:14:31+0100</time>
      </trkpt>
      <trkpt lat="47.24974" lon="4.96759">
        <ele>342.22521972656</ele>
        <time>2018-11-29T09:14:34+0100</time>
      </trkpt>
      <trkpt lat="47.24971" lon="4.96758">
        <ele>342.54418945312</ele>
        <time>2018-11-29T09:14:37+0100</time>
      </trkpt>
      <trkpt lat="47.24969" lon="4.96757">
        <ele>343.02084350586</ele>
        <time>2018-11-29T09:14:40+0100</time>
      </trkpt>
      <trkpt lat="47.24967" lon="4.96751">
        <ele>343.62588500977</ele>
        <time>2018-11-29T09:14:43+0100</time>
      </trkpt>
      <trkpt lat="47.24964" lon="4.96745">
        <ele>343.97442626953</ele>
        <time>2018-11-29T09:14:46+0100</time>
      </trkpt>
      <trkpt lat="47.2496" lon="4.96741">
        <ele>343.87454223633</ele>
        <time>2018-11-29T09:14:49+0100</time>
      </trkpt>
      <trkpt lat="47.24959" lon="4.9674">
        <ele>343.76400756836</ele>
        <time>2018-11-29T09:14:52+0100</time>
      </trkpt>
      <trkpt lat="47.24958" lon="4.96739">
        <ele>343.7995300293</ele>
        <time>2018-11-29T09:14:55+0100</time>
      </trkpt>
      <trkpt lat="47.24956" lon="4.96738">
        <ele>344.03326416016</ele>
        <time>2018-11-29T09:14:58+0100</time>
      </trkpt>
      <trkpt lat="47.24954" lon="4.96736">
        <ele>344.38531494141</ele>
        <time>2018-11-29T09:15:01+0100</time>
      </trkpt>
      <trkpt lat="47.24953" lon="4.96732">
        <ele>344.69229125977</ele>
        <time>2018-11-29T09:15:04+0100</time>
      </trkpt>
      <trkpt lat="47.24952" lon="4.9673">
        <ele>345.22714233398</ele>
        <time>2018-11-29T09:15:07+0100</time>
      </trkpt>
      <trkpt lat="47.24952" lon="4.96729">
        <ele>345.79541015625</ele>
        <time>2018-11-29T09:15:10+0100</time>
      </trkpt>
      <trkpt lat="47.24952" lon="4.96728">
        <ele>346.50765991211</ele>
        <time>2018-11-29T09:15:13+0100</time>
      </trkpt>
      <trkpt lat="47.24951" lon="4.96729">
        <ele>347.40219116211</ele>
        <time>2018-11-29T09:15:16+0100</time>
      </trkpt>
      <trkpt lat="47.2495" lon="4.96723">
        <ele>348.10165405273</ele>
        <time>2018-11-29T09:15:19+0100</time>
      </trkpt>
      <trkpt lat="47.24951" lon="4.9672">
        <ele>348.64642333984</ele>
        <time>2018-11-29T09:15:22+0100</time>
      </trkpt>
      <trkpt lat="47.24951" lon="4.96712">
        <ele>348.80197143555</ele>
        <time>2018-11-29T09:15:25+0100</time>
      </trkpt>
      <trkpt lat="47.24952" lon="4.96706">
        <ele>349.03228759766</ele>
        <time>2018-11-29T09:15:28+0100</time>
      </trkpt>
      <trkpt lat="47.24951" lon="4.967">
        <ele>349.20492553711</ele>
        <time>2018-11-29T09:15:31+0100</time>
      </trkpt>
      <trkpt lat="47.24951" lon="4.96702">
        <ele>349.43362426758</ele>
        <time>2018-11-29T09:15:34+0100</time>
      </trkpt>
      <trkpt lat="47.2495" lon="4.96698">
        <ele>349.67169189453</ele>
        <time>2018-11-29T09:15:37+0100</time>
      </trkpt>
      <trkpt lat="47.24948" lon="4.96691">
        <ele>349.83596801758</ele>
        <time>2018-11-29T09:15:40+0100</time>
      </trkpt>
      <trkpt lat="47.24947" lon="4.9669">
        <ele>349.91400146484</ele>
        <time>2018-11-29T09:15:43+0100</time>
      </trkpt>
      <trkpt lat="47.24946" lon="4.96689">
        <ele>350.01034545898</ele>
        <time>2018-11-29T09:15:46+0100</time>
      </trkpt>
      <trkpt lat="47.24946" lon="4.96686">
        <ele>350.28170776367</ele>
        <time>2018-11-29T09:15:49+0100</time>
      </trkpt>
      <trkpt lat="47.24946" lon="4.96684">
        <ele>350.62780761719</ele>
        <time>2018-11-29T09:15:52+0100</time>
      </trkpt>
      <trkpt lat="47.24946" lon="4.96682">
        <ele>350.98452758789</ele>
        <time>2018-11-29T09:15:55+0100</time>
      </trkpt>
      <trkpt lat="47.24947" lon="4.96676">
        <ele>351.40438842773</ele>
        <time>2018-11-29T09:15:58+0100</time>
      </trkpt>
      <trkpt lat="47.24948" lon="4.96668">
        <ele>351.89868164062</ele>
        <time>2018-11-29T09:16:01+0100</time>
      </trkpt>
      <trkpt lat="47.24949" lon="4.96663">
        <ele>352.41052246094</ele>
        <time>2018-11-29T09:16:04+0100</time>
      </trkpt>
      <trkpt lat="47.2495" lon="4.9666">
        <ele>353.02383422852</ele>
        <time>2018-11-29T09:16:07+0100</time>
      </trkpt>
      <trkpt lat="47.24949" lon="4.96661">
        <ele>353.53579711914</ele>
        <time>2018-11-29T09:16:10+0100</time>
      </trkpt>
      <trkpt lat="47.24948" lon="4.96657">
        <ele>354.29641723633</ele>
        <time>2018-11-29T09:16:13+0100</time>
      </trkpt>
      <trkpt lat="47.24947" lon="4.96655">
        <ele>355.07592773438</ele>
        <time>2018-11-29T09:16:16+0100</time>
      </trkpt>
      <trkpt lat="47.24947" lon="4.96653">
        <ele>355.89572143555</ele>
        <time>2018-11-29T09:16:19+0100</time>
      </trkpt>
      <trkpt lat="47.24946" lon="4.96644">
        <ele>356.63159179688</ele>
        <time>2018-11-29T09:16:22+0100</time>
      </trkpt>
      <trkpt lat="47.24943" lon="4.9664">
        <ele>357.15216064453</ele>
        <time>2018-11-29T09:16:25+0100</time>
      </trkpt>
      <trkpt lat="47.2494" lon="4.96637">
        <ele>357.62957763672</ele>
        <time>2018-11-29T09:16:28+0100</time>
      </trkpt>
      <trkpt lat="47.24937" lon="4.96635">
        <ele>358.10546875</ele>
        <time>2018-11-29T09:16:31+0100</time>
      </trkpt>
      <trkpt lat="47.24936" lon="4.96635">
        <ele>358.63623046875</ele>
        <time>2018-11-29T09:16:34+0100</time>
      </trkpt>
      <trkpt lat="47.24934" lon="4.96633">
        <ele>359.14367675781</ele>
        <time>2018-11-29T09:16:37+0100</time>
      </trkpt>
      <trkpt lat="47.24934" lon="4.96633">
        <ele>359.50991821289</ele>
        <time>2018-11-29T09:16:40+0100</time>
      </trkpt>
      <trkpt lat="47.24931" lon="4.9663">
        <ele>360.07794189453</ele>
        <time>2018-11-29T09:16:43+0100</time>
      </trkpt>
      <trkpt lat="47.24926" lon="4.96629">
        <ele>360.63687133789</ele>
        <time>2018-11-29T09:16:46+0100</time>
      </trkpt>
      <trkpt lat="47.24923" lon="4.96629">
        <ele>361.14627075195</ele>
        <time>2018-11-29T09:16:49+0100</time>
      </trkpt>
      <trkpt lat="47.24921" lon="4.96629">
        <ele>361.67474365234</ele>
        <time>2018-11-29T09:16:52+0100</time>
      </trkpt>
      <trkpt lat="47.24917" lon="4.96628">
        <ele>362.19021606445</ele>
        <time>2018-11-29T09:16:55+0100</time>
      </trkpt>
      <trkpt lat="47.24914" lon="4.96627">
        <ele>362.74047851562</ele>
        <time>2018-11-29T09:16:58+0100</time>
      </trkpt>
      <trkpt lat="47.24912" lon="4.96625">
        <ele>363.25921630859</ele>
        <time>2018-11-29T09:17:01+0100</time>
      </trkpt>
      <trkpt lat="47.2491" lon="4.96625">
        <ele>363.76553344727</ele>
        <time>2018-11-29T09:17:04+0100</time>
      </trkpt>
      <trkpt lat="47.24906" lon="4.96622">
        <ele>364.21078491211</ele>
        <time>2018-11-29T09:17:07+0100</time>
      </trkpt>
      <trkpt lat="47.24904" lon="4.9662">
        <ele>364.73495483398</ele>
        <time>2018-11-29T09:17:10+0100</time>
      </trkpt>
      <trkpt lat="47.24903" lon="4.9662">
        <ele>365.00820922852</ele>
        <time>2018-11-29T09:17:13+0100</time>
      </trkpt>
      <trkpt lat="47.24901" lon="4.96616">
        <ele>365.35171508789</ele>
        <time>2018-11-29T09:17:16+0100</time>
      </trkpt>
      <trkpt lat="47.24901" lon="4.96612">
        <ele>365.79876708984</ele>
        <time>2018-11-29T09:17:19+0100</time>
      </trkpt>
      <trkpt lat="47.24901" lon="4.9661">
        <ele>366.54815673828</ele>
        <time>2018-11-29T09:17:22+0100</time>
      </trkpt>
      <trkpt lat="47.249" lon="4.96604">
        <ele>367.07608032227</ele>
        <time>2018-11-29T09:17:25+0100</time>
      </trkpt>
      <trkpt lat="47.249" lon="4.96597">
        <ele>367.58950805664</ele>
        <time>2018-11-29T09:17:28+0100</time>
      </trkpt>
      <trkpt lat="47.24899" lon="4.96589">
        <ele>367.85678100586</ele>
        <time>2018-11-29T09:17:31+0100</time>
      </trkpt>
      <trkpt lat="47.24899" lon="4.96584">
        <ele>367.97076416016</ele>
        <time>2018-11-29T09:17:34+0100</time>
      </trkpt>
      <trkpt lat="47.249" lon="4.96578">
        <ele>368.05194091797</ele>
        <time>2018-11-29T09:17:37+0100</time>
      </trkpt>
      <trkpt lat="47.249" lon="4.96577">
        <ele>368.16143798828</ele>
        <time>2018-11-29T09:17:40+0100</time>
      </trkpt>
      <trkpt lat="47.24899" lon="4.96573">
        <ele>368.30899047852</ele>
        <time>2018-11-29T09:17:43+0100</time>
      </trkpt>
      <trkpt lat="47.24899" lon="4.96572">
        <ele>368.38543701172</ele>
        <time>2018-11-29T09:17:46+0100</time>
      </trkpt>
      <trkpt lat="47.24897" lon="4.96569">
        <ele>368.58261108398</ele>
        <time>2018-11-29T09:17:49+0100</time>
      </trkpt>
      <trkpt lat="47.24895" lon="4.96565">
        <ele>368.79806518555</ele>
        <time>2018-11-29T09:17:52+0100</time>
      </trkpt>
      <trkpt lat="47.24895" lon="4.96564">
        <ele>369.00833129883</ele>
        <time>2018-11-29T09:17:55+0100</time>
      </trkpt>
      <trkpt lat="47.24894" lon="4.96562">
        <ele>369.43127441406</ele>
        <time>2018-11-29T09:17:58+0100</time>
      </trkpt>
      <trkpt lat="47.24893" lon="4.96561">
        <ele>369.98788452148</ele>
        <time>2018-11-29T09:18:01+0100</time>
      </trkpt>
      <trkpt lat="47.24892" lon="4.96558">
        <ele>370.69775390625</ele>
        <time>2018-11-29T09:18:04+0100</time>
      </trkpt>
      <trkpt lat="47.24891" lon="4.96553">
        <ele>371.20764160156</ele>
        <time>2018-11-29T09:18:07+0100</time>
      </trkpt>
      <trkpt lat="47.24888" lon="4.96547">
        <ele>371.74911499023</ele>
        <time>2018-11-29T09:18:10+0100</time>
      </trkpt>
      <trkpt lat="47.24886" lon="4.96542">
        <ele>371.93615722656</ele>
        <time>2018-11-29T09:18:13+0100</time>
      </trkpt>
      <trkpt lat="47.24885" lon="4.96538">
        <ele>372.0539855957</ele>
        <time>2018-11-29T09:18:16+0100</time>
      </trkpt>
      <trkpt lat="47.24885" lon="4.96535">
        <ele>372.11776733398</ele>
        <time>2018-11-29T09:18:19+0100</time>
      </trkpt>
      <trkpt lat="47.24884" lon="4.96531">
        <ele>372.17730712891</ele>
        <time>2018-11-29T09:18:22+0100</time>
      </trkpt>
      <trkpt lat="47.24883" lon="4.9653">
        <ele>372.39321899414</ele>
        <time>2018-11-29T09:18:25+0100</time>
      </trkpt>
      <trkpt lat="47.24882" lon="4.96528">
        <ele>372.80587768555</ele>
        <time>2018-11-29T09:18:28+0100</time>
      </trkpt>
      <trkpt lat="47.24881" lon="4.96527">
        <ele>373.32052612305</ele>
        <time>2018-11-29T09:18:31+0100</time>
      </trkpt>
      <trkpt lat="47.2488" lon="4.96525">
        <ele>373.81289672852</ele>
        <time>2018-11-29T09:18:34+0100</time>
      </trkpt>
      <trkpt lat="47.24876" lon="4.96524">
        <ele>374.19546508789</ele>
        <time>2018-11-29T09:18:37+0100</time>
      </trkpt>
      <trkpt lat="47.24875" lon="4.96522">
        <ele>374.57330322266</ele>
        <time>2018-11-29T09:18:40+0100</time>
      </trkpt>
      <trkpt lat="47.24874" lon="4.96519">
        <ele>374.93521118164</ele>
        <time>2018-11-29T09:18:43+0100</time>
      </trkpt>
      <trkpt lat="47.24875" lon="4.96515">
        <ele>375.34777832031</ele>
        <time>2018-11-29T09:18:46+0100</time>
      </trkpt>
      <trkpt lat="47.24872" lon="4.96515">
        <ele>375.66912841797</ele>
        <time>2018-11-29T09:18:49+0100</time>
      </trkpt>
      <trkpt lat="47.24872" lon="4.96509">
        <ele>375.74209594727</ele>
        <time>2018-11-29T09:18:52+0100</time>
      </trkpt>
      <trkpt lat="47.24872" lon="4.96504">
        <ele>375.91812133789</ele>
        <time>2018-11-29T09:18:55+0100</time>
      </trkpt>
      <trkpt lat="47.24871" lon="4.96504">
        <ele>376.14981079102</ele>
        <time>2018-11-29T09:18:58+0100</time>
      </trkpt>
      <trkpt lat="47.24871" lon="4.96503">
        <ele>376.52081298828</ele>
        <time>2018-11-29T09:19:01+0100</time>
      </trkpt>
      <trkpt lat="47.2487" lon="4.96503">
        <ele>377.05694580078</ele>
        <time>2018-11-29T09:19:04+0100</time>
      </trkpt>
      <trkpt lat="47.24871" lon="4.965">
        <ele>377.63092041016</ele>
        <time>2018-11-29T09:19:07+0100</time>
      </trkpt>
      <trkpt lat="47.24869" lon="4.96496">
        <ele>378.16632080078</ele>
        <time>2018-11-29T09:19:10+0100</time>
      </trkpt>
      <trkpt lat="47.24868" lon="4.9649">
        <ele>378.68753051758</ele>
        <time>2018-11-29T09:19:13+0100</time>
      </trkpt>
      <trkpt lat="47.24867" lon="4.96488">
        <ele>379.29486083984</ele>
        <time>2018-11-29T09:19:16+0100</time>
      </trkpt>
      <trkpt lat="47.24867" lon="4.96479">
        <ele>379.88864135742</ele>
        <time>2018-11-29T09:19:19+0100</time>
      </trkpt>
      <trkpt lat="47.24864" lon="4.96471">
        <ele>380.04418945312</ele>
        <time>2018-11-29T09:19:22+0100</time>
      </trkpt>
      <trkpt lat="47.24863" lon="4.96469">
        <ele>380.02642822266</ele>
        <time>2018-11-29T09:19:25+0100</time>
      </trkpt>
      <trkpt lat="47.24863" lon="4.96469">
        <ele>380.00128173828</ele>
        <time>2018-11-29T09:19:28+0100</time>
      </trkpt>
      <trkpt lat="47.24862" lon="4.96467">
        <ele>379.96896362305</ele>
        <time>2018-11-29T09:19:31+0100</time>
      </trkpt>
      <trkpt lat="47.24865" lon="4.96463">
        <ele>380.02200317383</ele>
        <time>2018-11-29T09:19:34+0100</time>
      </trkpt>
      <trkpt lat="47.24866" lon="4.96461">
        <ele>380.19067382812</ele>
        <time>2018-11-29T09:19:37+0100</time>
      </trkpt>
      <trkpt lat="47.24865" lon="4.96461">
        <ele>380.39624023438</ele>
        <time>2018-11-29T09:19:40+0100</time>
      </trkpt>
      <trkpt lat="47.24866" lon="4.96454">
        <ele>380.6467590332</ele>
        <time>2018-11-29T09:19:43+0100</time>
      </trkpt>
      <trkpt lat="47.24867" lon="4.96452">
        <ele>380.90252685547</ele>
        <time>2018-11-29T09:19:46+0100</time>
      </trkpt>
      <trkpt lat="47.24867" lon="4.96448">
        <ele>381.36611938477</ele>
        <time>2018-11-29T09:19:49+0100</time>
      </trkpt>
      <trkpt lat="47.24869" lon="4.96448">
        <ele>381.8528137207</ele>
        <time>2018-11-29T09:19:52+0100</time>
      </trkpt>
      <trkpt lat="47.24869" lon="4.96446">
        <ele>382.27944946289</ele>
        <time>2018-11-29T09:19:55+0100</time>
      </trkpt>
      <trkpt lat="47.24871" lon="4.96441">
        <ele>382.66329956055</ele>
        <time>2018-11-29T09:19:58+0100</time>
      </trkpt>
      <trkpt lat="47.24872" lon="4.96437">
        <ele>382.97073364258</ele>
        <time>2018-11-29T09:20:01+0100</time>
      </trkpt>
      <trkpt lat="47.24867" lon="4.96437">
        <ele>383.12124633789</ele>
        <time>2018-11-29T09:20:04+0100</time>
      </trkpt>
      <trkpt lat="47.24867" lon="4.96433">
        <ele>383.0158996582</ele>
        <time>2018-11-29T09:20:07+0100</time>
      </trkpt>
      <trkpt lat="47.24868" lon="4.96427">
        <ele>382.90170288086</ele>
        <time>2018-11-29T09:20:10+0100</time>
      </trkpt>
      <trkpt lat="47.2487" lon="4.96424">
        <ele>382.81591796875</ele>
        <time>2018-11-29T09:20:13+0100</time>
      </trkpt>
      <trkpt lat="47.24872" lon="4.96419">
        <ele>382.81787109375</ele>
        <time>2018-11-29T09:20:16+0100</time>
      </trkpt>
      <trkpt lat="47.24874" lon="4.96416">
        <ele>382.74298095703</ele>
        <time>2018-11-29T09:20:19+0100</time>
      </trkpt>
      <trkpt lat="47.24874" lon="4.96412">
        <ele>382.61734008789</ele>
        <time>2018-11-29T09:20:22+0100</time>
      </trkpt>
      <trkpt lat="47.24872" lon="4.96409">
        <ele>382.58255004883</ele>
        <time>2018-11-29T09:20:25+0100</time>
      </trkpt>
      <trkpt lat="47.24872" lon="4.96409">
        <ele>382.52734375</ele>
        <time>2018-11-29T09:20:28+0100</time>
      </trkpt>
      <trkpt lat="47.24873" lon="4.96407">
        <ele>382.33074951172</ele>
        <time>2018-11-29T09:20:31+0100</time>
      </trkpt>
      <trkpt lat="47.24874" lon="4.96402">
        <ele>382.1418762207</ele>
        <time>2018-11-29T09:20:34+0100</time>
      </trkpt>
      <trkpt lat="47.24876" lon="4.96396">
        <ele>381.9592590332</ele>
        <time>2018-11-29T09:20:37+0100</time>
      </trkpt>
      <trkpt lat="47.24876" lon="4.96394">
        <ele>381.71673583984</ele>
        <time>2018-11-29T09:20:40+0100</time>
      </trkpt>
      <trkpt lat="47.24877" lon="4.96392">
        <ele>381.6540222168</ele>
        <time>2018-11-29T09:20:43+0100</time>
      </trkpt>
      <trkpt lat="47.24879" lon="4.96385">
        <ele>381.5491027832</ele>
        <time>2018-11-29T09:20:46+0100</time>
      </trkpt>
      <trkpt lat="47.2488" lon="4.96384">
        <ele>381.53701782227</ele>
        <time>2018-11-29T09:20:49+0100</time>
      </trkpt>
      <trkpt lat="47.2488" lon="4.96384">
        <ele>381.5276184082</ele>
        <time>2018-11-29T09:20:52+0100</time>
      </trkpt>
      <trkpt lat="47.24882" lon="4.96383">
        <ele>381.51803588867</ele>
        <time>2018-11-29T09:20:55+0100</time>
      </trkpt>
      <trkpt lat="47.24883" lon="4.9638">
        <ele>381.51107788086</ele>
        <time>2018-11-29T09:20:58+0100</time>
      </trkpt>
      <trkpt lat="47.24887" lon="4.96374">
        <ele>381.45892333984</ele>
        <time>2018-11-29T09:21:01+0100</time>
      </trkpt>
      <trkpt lat="47.24887" lon="4.96373">
        <ele>381.51684570312</ele>
        <time>2018-11-29T09:21:04+0100</time>
      </trkpt>
      <trkpt lat="47.24887" lon="4.96373">
        <ele>381.54330444336</ele>
        <time>2018-11-29T09:21:07+0100</time>
      </trkpt>
      <trkpt lat="47.24886" lon="4.96374">
        <ele>381.58059692383</ele>
        <time>2018-11-29T09:21:09+0100</time>
      </trkpt>
      <trkpt lat="47.24885" lon="4.96373">
        <ele>381.76507568359</ele>
        <time>2018-11-29T09:21:12+0100</time>
      </trkpt>
      <trkpt lat="47.24883" lon="4.96373">
        <ele>382.28298950195</ele>
        <time>2018-11-29T09:21:15+0100</time>
      </trkpt>
      <trkpt lat="47.24881" lon="4.96372">
        <ele>382.79159545898</ele>
        <time>2018-11-29T09:21:18+0100</time>
      </trkpt>
      <trkpt lat="47.24881" lon="4.96371">
        <ele>383.2028503418</ele>
        <time>2018-11-29T09:21:21+0100</time>
      </trkpt>
      <trkpt lat="47.2488" lon="4.96369">
        <ele>383.61639404297</ele>
        <time>2018-11-29T09:21:24+0100</time>
      </trkpt>
      <trkpt lat="47.24879" lon="4.96369">
        <ele>383.66619873047</ele>
        <time>2018-11-29T09:21:27+0100</time>
      </trkpt>
      <trkpt lat="47.24878" lon="4.96368">
        <ele>384.19616699219</ele>
        <time>2018-11-29T09:21:30+0100</time>
      </trkpt>
      <trkpt lat="47.24877" lon="4.96367">
        <ele>384.38565063477</ele>
        <time>2018-11-29T09:21:33+0100</time>
      </trkpt>
      <trkpt lat="47.24874" lon="4.96368">
        <ele>384.43664550781</ele>
        <time>2018-11-29T09:21:36+0100</time>
      </trkpt>
      <trkpt lat="47.24872" lon="4.96369">
        <ele>384.60852050781</ele>
        <time>2018-11-29T09:21:39+0100</time>
      </trkpt>
      <trkpt lat="47.2487" lon="4.96369">
        <ele>384.81072998047</ele>
        <time>2018-11-29T09:21:42+0100</time>
      </trkpt>
      <trkpt lat="47.24867" lon="4.96365">
        <ele>384.85568237305</ele>
        <time>2018-11-29T09:21:45+0100</time>
      </trkpt>
      <trkpt lat="47.24864" lon="4.96362">
        <ele>385.28634643555</ele>
        <time>2018-11-29T09:21:48+0100</time>
      </trkpt>
      <trkpt lat="47.24863" lon="4.96366">
        <ele>385.47299194336</ele>
        <time>2018-11-29T09:21:51+0100</time>
      </trkpt>
      <trkpt lat="47.24861" lon="4.96366">
        <ele>385.80072021484</ele>
        <time>2018-11-29T09:21:54+0100</time>
      </trkpt>
      <trkpt lat="47.2486" lon="4.96366">
        <ele>385.94839477539</ele>
        <time>2018-11-29T09:21:57+0100</time>
      </trkpt>
      <trkpt lat="47.24854" lon="4.96365">
        <ele>386.25692749023</ele>
        <time>2018-11-29T09:22:00+0100</time>
      </trkpt>
      <trkpt lat="47.24849" lon="4.96366">
        <ele>386.38635253906</ele>
        <time>2018-11-29T09:22:03+0100</time>
      </trkpt>
      <trkpt lat="47.24845" lon="4.96367">
        <ele>386.39660644531</ele>
        <time>2018-11-29T09:22:06+0100</time>
      </trkpt>
      <trkpt lat="47.24844" lon="4.96367">
        <ele>386.40896606445</ele>
        <time>2018-11-29T09:22:09+0100</time>
      </trkpt>
      <trkpt lat="47.24839" lon="4.96366">
        <ele>386.39950561523</ele>
        <time>2018-11-29T09:22:12+0100</time>
      </trkpt>
      <trkpt lat="47.24833" lon="4.96363">
        <ele>386.345703125</ele>
        <time>2018-11-29T09:22:15+0100</time>
      </trkpt>
      <trkpt lat="47.2483" lon="4.96359">
        <ele>386.14224243164</ele>
        <time>2018-11-29T09:22:18+0100</time>
      </trkpt>
      <trkpt lat="47.24828" lon="4.9636">
        <ele>386.01467895508</ele>
        <time>2018-11-29T09:22:21+0100</time>
      </trkpt>
      <trkpt lat="47.24824" lon="4.96359">
        <ele>385.87646484375</ele>
        <time>2018-11-29T09:22:24+0100</time>
      </trkpt>
      <trkpt lat="47.24824" lon="4.96358">
        <ele>385.6357421875</ele>
        <time>2018-11-29T09:22:27+0100</time>
      </trkpt>
      <trkpt lat="47.24822" lon="4.9636">
        <ele>385.21118164062</ele>
        <time>2018-11-29T09:22:30+0100</time>
      </trkpt>
      <trkpt lat="47.24816" lon="4.9636">
        <ele>384.84762573242</ele>
        <time>2018-11-29T09:22:33+0100</time>
      </trkpt>
      <trkpt lat="47.24815" lon="4.9636">
        <ele>384.47283935547</ele>
        <time>2018-11-29T09:22:36+0100</time>
      </trkpt>
      <trkpt lat="47.24813" lon="4.96359">
        <ele>384.12091064453</ele>
        <time>2018-11-29T09:22:39+0100</time>
      </trkpt>
      <trkpt lat="47.24807" lon="4.96357">
        <ele>383.73956298828</ele>
        <time>2018-11-29T09:22:42+0100</time>
      </trkpt>
      <trkpt lat="47.24804" lon="4.96358">
        <ele>383.48873901367</ele>
        <time>2018-11-29T09:22:45+0100</time>
      </trkpt>
      <trkpt lat="47.24802" lon="4.96358">
        <ele>383.14669799805</ele>
        <time>2018-11-29T09:22:48+0100</time>
      </trkpt>
      <trkpt lat="47.24801" lon="4.96357">
        <ele>382.82867431641</ele>
        <time>2018-11-29T09:22:51+0100</time>
      </trkpt>
      <trkpt lat="47.24797" lon="4.96354">
        <ele>382.36932373047</ele>
        <time>2018-11-29T09:22:54+0100</time>
      </trkpt>
      <trkpt lat="47.24796" lon="4.96352">
        <ele>382.16082763672</ele>
        <time>2018-11-29T09:22:57+0100</time>
      </trkpt>
      <trkpt lat="47.24794" lon="4.96348">
        <ele>382.16000366211</ele>
        <time>2018-11-29T09:23:00+0100</time>
      </trkpt>
      <trkpt lat="47.24795" lon="4.96351">
        <ele>382.21737670898</ele>
        <time>2018-11-29T09:23:03+0100</time>
      </trkpt>
      <trkpt lat="47.24793" lon="4.96349">
        <ele>382.38946533203</ele>
        <time>2018-11-29T09:23:06+0100</time>
      </trkpt>
      <trkpt lat="47.24791" lon="4.96343">
        <ele>382.48886108398</ele>
        <time>2018-11-29T09:23:09+0100</time>
      </trkpt>
      <trkpt lat="47.24789" lon="4.96337">
        <ele>382.46215820312</ele>
        <time>2018-11-29T09:23:12+0100</time>
      </trkpt>
      <trkpt lat="47.24787" lon="4.96331">
        <ele>382.2126159668</ele>
        <time>2018-11-29T09:23:15+0100</time>
      </trkpt>
      <trkpt lat="47.24785" lon="4.96327">
        <ele>381.8874206543</ele>
        <time>2018-11-29T09:23:18+0100</time>
      </trkpt>
      <trkpt lat="47.24782" lon="4.96322">
        <ele>381.51300048828</ele>
        <time>2018-11-29T09:23:21+0100</time>
      </trkpt>
      <trkpt lat="47.24781" lon="4.96317">
        <ele>381.04653930664</ele>
        <time>2018-11-29T09:23:24+0100</time>
      </trkpt>
      <trkpt lat="47.24779" lon="4.96315">
        <ele>380.45907592773</ele>
        <time>2018-11-29T09:23:27+0100</time>
      </trkpt>
      <trkpt lat="47.24776" lon="4.96314">
        <ele>379.93701171875</ele>
        <time>2018-11-29T09:23:30+0100</time>
      </trkpt>
      <trkpt lat="47.24774" lon="4.96314">
        <ele>379.61154174805</ele>
        <time>2018-11-29T09:23:33+0100</time>
      </trkpt>
      <trkpt lat="47.24772" lon="4.96312">
        <ele>379.43835449219</ele>
        <time>2018-11-29T09:23:36+0100</time>
      </trkpt>
      <trkpt lat="47.24771" lon="4.96311">
        <ele>379.34826660156</ele>
        <time>2018-11-29T09:23:39+0100</time>
      </trkpt>
      <trkpt lat="47.24771" lon="4.96305">
        <ele>379.24536132812</ele>
        <time>2018-11-29T09:23:42+0100</time>
      </trkpt>
      <trkpt lat="47.24769" lon="4.96302">
        <ele>379.16577148438</ele>
        <time>2018-11-29T09:23:45+0100</time>
      </trkpt>
      <trkpt lat="47.24767" lon="4.96302">
        <ele>379.0426940918</ele>
        <time>2018-11-29T09:23:48+0100</time>
      </trkpt>
      <trkpt lat="47.24759" lon="4.96299">
        <ele>378.53594970703</ele>
        <time>2018-11-29T09:23:51+0100</time>
      </trkpt>
      <trkpt lat="47.24754" lon="4.96299">
        <ele>377.93487548828</ele>
        <time>2018-11-29T09:23:54+0100</time>
      </trkpt>
      <trkpt lat="47.24748" lon="4.96303">
        <ele>377.15747070312</ele>
        <time>2018-11-29T09:23:57+0100</time>
      </trkpt>
      <trkpt lat="47.2475" lon="4.96305">
        <ele>376.89059448242</ele>
        <time>2018-11-29T09:24:00+0100</time>
      </trkpt>
      <trkpt lat="47.2475" lon="4.96306">
        <ele>376.38830566406</ele>
        <time>2018-11-29T09:24:03+0100</time>
      </trkpt>
      <trkpt lat="47.24747" lon="4.96309">
        <ele>375.90078735352</ele>
        <time>2018-11-29T09:24:06+0100</time>
      </trkpt>
      <trkpt lat="47.24747" lon="4.96311">
        <ele>375.56253051758</ele>
        <time>2018-11-29T09:24:09+0100</time>
      </trkpt>
      <trkpt lat="47.24744" lon="4.96315">
        <ele>374.92327880859</ele>
        <time>2018-11-29T09:24:12+0100</time>
      </trkpt>
      <trkpt lat="47.24743" lon="4.96318">
        <ele>374.33172607422</ele>
        <time>2018-11-29T09:24:15+0100</time>
      </trkpt>
      <trkpt lat="47.24741" lon="4.96322">
        <ele>373.58087158203</ele>
        <time>2018-11-29T09:24:18+0100</time>
      </trkpt>
      <trkpt lat="47.24741" lon="4.96325">
        <ele>373.17672729492</ele>
        <time>2018-11-29T09:24:21+0100</time>
      </trkpt>
      <trkpt lat="47.24742" lon="4.96328">
        <ele>372.27770996094</ele>
        <time>2018-11-29T09:24:24+0100</time>
      </trkpt>
      <trkpt lat="47.2474" lon="4.96333">
        <ele>371.8039855957</ele>
        <time>2018-11-29T09:24:27+0100</time>
      </trkpt>
      <trkpt lat="47.2474" lon="4.96338">
        <ele>371.37747192383</ele>
        <time>2018-11-29T09:24:30+0100</time>
      </trkpt>
      <trkpt lat="47.2474" lon="4.96343">
        <ele>370.99542236328</ele>
        <time>2018-11-29T09:24:33+0100</time>
      </trkpt>
      <trkpt lat="47.24739" lon="4.96346">
        <ele>370.51947021484</ele>
        <time>2018-11-29T09:24:36+0100</time>
      </trkpt>
      <trkpt lat="47.24739" lon="4.9635">
        <ele>370.20910644531</ele>
        <time>2018-11-29T09:24:39+0100</time>
      </trkpt>
      <trkpt lat="47.24739" lon="4.96354">
        <ele>369.92514038086</ele>
        <time>2018-11-29T09:24:42+0100</time>
      </trkpt>
      <trkpt lat="47.24737" lon="4.96358">
        <ele>369.755859375</ele>
        <time>2018-11-29T09:24:45+0100</time>
      </trkpt>
      <trkpt lat="47.24736" lon="4.96363">
        <ele>369.13568115234</ele>
        <time>2018-11-29T09:24:48+0100</time>
      </trkpt>
      <trkpt lat="47.24736" lon="4.96366">
        <ele>368.88977050781</ele>
        <time>2018-11-29T09:24:51+0100</time>
      </trkpt>
      <trkpt lat="47.24736" lon="4.96372">
        <ele>368.29736328125</ele>
        <time>2018-11-29T09:24:54+0100</time>
      </trkpt>
      <trkpt lat="47.24737" lon="4.96376">
        <ele>367.9716796875</ele>
        <time>2018-11-29T09:24:57+0100</time>
      </trkpt>
      <trkpt lat="47.24736" lon="4.96381">
        <ele>367.50686645508</ele>
        <time>2018-11-29T09:25:00+0100</time>
      </trkpt>
      <trkpt lat="47.24735" lon="4.96387">
        <ele>367.03991699219</ele>
        <time>2018-11-29T09:25:03+0100</time>
      </trkpt>
      <trkpt lat="47.24735" lon="4.96392">
        <ele>366.39651489258</ele>
        <time>2018-11-29T09:25:06+0100</time>
      </trkpt>
      <trkpt lat="47.24734" lon="4.96395">
        <ele>365.68524169922</ele>
        <time>2018-11-29T09:25:09+0100</time>
      </trkpt>
      <trkpt lat="47.24733" lon="4.96398">
        <ele>365.00961303711</ele>
        <time>2018-11-29T09:25:12+0100</time>
      </trkpt>
      <trkpt lat="47.24732" lon="4.96402">
        <ele>364.32006835938</ele>
        <time>2018-11-29T09:25:15+0100</time>
      </trkpt>
      <trkpt lat="47.24732" lon="4.96406">
        <ele>363.67456054688</ele>
        <time>2018-11-29T09:25:18+0100</time>
      </trkpt>
      <trkpt lat="47.2473" lon="4.9641">
        <ele>363.26770019531</ele>
        <time>2018-11-29T09:25:21+0100</time>
      </trkpt>
      <trkpt lat="47.2473" lon="4.96412">
        <ele>362.77990722656</ele>
        <time>2018-11-29T09:25:24+0100</time>
      </trkpt>
      <trkpt lat="47.2473" lon="4.96418">
        <ele>362.3349609375</ele>
        <time>2018-11-29T09:25:27+0100</time>
      </trkpt>
      <trkpt lat="47.2473" lon="4.96422">
        <ele>361.87866210938</ele>
        <time>2018-11-29T09:25:30+0100</time>
      </trkpt>
      <trkpt lat="47.24731" lon="4.96426">
        <ele>361.52877807617</ele>
        <time>2018-11-29T09:25:33+0100</time>
      </trkpt>
      <trkpt lat="47.24729" lon="4.9643">
        <ele>361.28582763672</ele>
        <time>2018-11-29T09:25:36+0100</time>
      </trkpt>
      <trkpt lat="47.24728" lon="4.96434">
        <ele>360.92333984375</ele>
        <time>2018-11-29T09:25:39+0100</time>
      </trkpt>
      <trkpt lat="47.24727" lon="4.96439">
        <ele>360.67031860352</ele>
        <time>2018-11-29T09:25:42+0100</time>
      </trkpt>
      <trkpt lat="47.24727" lon="4.96441">
        <ele>360.41278076172</ele>
        <time>2018-11-29T09:25:45+0100</time>
      </trkpt>
      <trkpt lat="47.24727" lon="4.96445">
        <ele>359.83776855469</ele>
        <time>2018-11-29T09:25:48+0100</time>
      </trkpt>
      <trkpt lat="47.24727" lon="4.96447">
        <ele>359.28588867188</ele>
        <time>2018-11-29T09:25:51+0100</time>
      </trkpt>
      <trkpt lat="47.24727" lon="4.96451">
        <ele>358.72027587891</ele>
        <time>2018-11-29T09:25:54+0100</time>
      </trkpt>
      <trkpt lat="47.24727" lon="4.96454">
        <ele>358.38754272461</ele>
        <time>2018-11-29T09:25:57+0100</time>
      </trkpt>
      <trkpt lat="47.24725" lon="4.9646">
        <ele>357.91003417969</ele>
        <time>2018-11-29T09:26:00+0100</time>
      </trkpt>
      <trkpt lat="47.24725" lon="4.96464">
        <ele>357.37356567383</ele>
        <time>2018-11-29T09:26:03+0100</time>
      </trkpt>
      <trkpt lat="47.24725" lon="4.96469">
        <ele>356.83499145508</ele>
        <time>2018-11-29T09:26:06+0100</time>
      </trkpt>
      <trkpt lat="47.24726" lon="4.96472">
        <ele>356.10110473633</ele>
        <time>2018-11-29T09:26:09+0100</time>
      </trkpt>
      <trkpt lat="47.24727" lon="4.96476">
        <ele>355.58850097656</ele>
        <time>2018-11-29T09:26:12+0100</time>
      </trkpt>
      <trkpt lat="47.24728" lon="4.96482">
        <ele>354.80270385742</ele>
        <time>2018-11-29T09:26:15+0100</time>
      </trkpt>
      <trkpt lat="47.24728" lon="4.96486">
        <ele>353.98599243164</ele>
        <time>2018-11-29T09:26:18+0100</time>
      </trkpt>
      <trkpt lat="47.24728" lon="4.96491">
        <ele>353.17129516602</ele>
        <time>2018-11-29T09:26:21+0100</time>
      </trkpt>
      <trkpt lat="47.24728" lon="4.96495">
        <ele>352.49081420898</ele>
        <time>2018-11-29T09:26:24+0100</time>
      </trkpt>
      <trkpt lat="47.24728" lon="4.96499">
        <ele>351.93389892578</ele>
        <time>2018-11-29T09:26:27+0100</time>
      </trkpt>
      <trkpt lat="47.2473" lon="4.96507">
        <ele>351.34158325195</ele>
        <time>2018-11-29T09:26:30+0100</time>
      </trkpt>
      <trkpt lat="47.24734" lon="4.96517">
        <ele>350.49948120117</ele>
        <time>2018-11-29T09:26:33+0100</time>
      </trkpt>
      <trkpt lat="47.24734" lon="4.96525">
        <ele>349.59777832031</ele>
        <time>2018-11-29T09:26:36+0100</time>
      </trkpt>
      <trkpt lat="47.24735" lon="4.96531">
        <ele>348.71005249023</ele>
        <time>2018-11-29T09:26:39+0100</time>
      </trkpt>
      <trkpt lat="47.24734" lon="4.96535">
        <ele>347.8586730957</ele>
        <time>2018-11-29T09:26:42+0100</time>
      </trkpt>
      <trkpt lat="47.24734" lon="4.96537">
        <ele>347.03952026367</ele>
        <time>2018-11-29T09:26:45+0100</time>
      </trkpt>
      <trkpt lat="47.24735" lon="4.9654">
        <ele>346.19467163086</ele>
        <time>2018-11-29T09:26:48+0100</time>
      </trkpt>
      <trkpt lat="47.24734" lon="4.96548">
        <ele>345.39633178711</ele>
        <time>2018-11-29T09:26:51+0100</time>
      </trkpt>
      <trkpt lat="47.24735" lon="4.96552">
        <ele>344.65533447266</ele>
        <time>2018-11-29T09:26:54+0100</time>
      </trkpt>
      <trkpt lat="47.24734" lon="4.96556">
        <ele>343.978515625</ele>
        <time>2018-11-29T09:26:57+0100</time>
      </trkpt>
      <trkpt lat="47.24734" lon="4.96561">
        <ele>343.31976318359</ele>
        <time>2018-11-29T09:27:00+0100</time>
      </trkpt>
      <trkpt lat="47.24734" lon="4.96567">
        <ele>342.70248413086</ele>
        <time>2018-11-29T09:27:03+0100</time>
      </trkpt>
      <trkpt lat="47.24734" lon="4.9657">
        <ele>342.06307983398</ele>
        <time>2018-11-29T09:27:06+0100</time>
      </trkpt>
      <trkpt lat="47.24735" lon="4.96573">
        <ele>341.50234985352</ele>
        <time>2018-11-29T09:27:09+0100</time>
      </trkpt>
      <trkpt lat="47.24737" lon="4.96575">
        <ele>341.08474731445</ele>
        <time>2018-11-29T09:27:12+0100</time>
      </trkpt>
      <trkpt lat="47.24736" lon="4.9658">
        <ele>340.72930908203</ele>
        <time>2018-11-29T09:27:15+0100</time>
      </trkpt>
      <trkpt lat="47.24733" lon="4.96584">
        <ele>340.31396484375</ele>
        <time>2018-11-29T09:27:18+0100</time>
      </trkpt>
      <trkpt lat="47.24732" lon="4.9659">
        <ele>339.76614379883</ele>
        <time>2018-11-29T09:27:21+0100</time>
      </trkpt>
      <trkpt lat="47.24732" lon="4.96595">
        <ele>339.24279785156</ele>
        <time>2018-11-29T09:27:24+0100</time>
      </trkpt>
      <trkpt lat="47.24732" lon="4.96601">
        <ele>338.76837158203</ele>
        <time>2018-11-29T09:27:27+0100</time>
      </trkpt>
      <trkpt lat="47.24732" lon="4.96606">
        <ele>338.30844116211</ele>
        <time>2018-11-29T09:27:30+0100</time>
      </trkpt>
      <trkpt lat="47.24733" lon="4.96612">
        <ele>337.85211181641</ele>
        <time>2018-11-29T09:27:33+0100</time>
      </trkpt>
      <trkpt lat="47.24735" lon="4.9662">
        <ele>337.36264038086</ele>
        <time>2018-11-29T09:27:36+0100</time>
      </trkpt>
      <trkpt lat="47.24736" lon="4.96624">
        <ele>336.84902954102</ele>
        <time>2018-11-29T09:27:39+0100</time>
      </trkpt>
      <trkpt lat="47.24736" lon="4.96628">
        <ele>336.29873657227</ele>
        <time>2018-11-29T09:27:42+0100</time>
      </trkpt>
      <trkpt lat="47.24736" lon="4.96632">
        <ele>335.78564453125</ele>
        <time>2018-11-29T09:27:45+0100</time>
      </trkpt>
      <trkpt lat="47.24736" lon="4.96635">
        <ele>335.30114746094</ele>
        <time>2018-11-29T09:27:48+0100</time>
      </trkpt>
      <trkpt lat="47.24736" lon="4.9664">
        <ele>334.8430480957</ele>
        <time>2018-11-29T09:27:51+0100</time>
      </trkpt>
      <trkpt lat="47.24736" lon="4.96645">
        <ele>334.40139770508</ele>
        <time>2018-11-29T09:27:54+0100</time>
      </trkpt>
      <trkpt lat="47.24736" lon="4.96649">
        <ele>333.99224853516</ele>
        <time>2018-11-29T09:27:57+0100</time>
      </trkpt>
      <trkpt lat="47.24737" lon="4.96656">
        <ele>333.56350708008</ele>
        <time>2018-11-29T09:28:00+0100</time>
      </trkpt>
      <trkpt lat="47.24737" lon="4.96661">
        <ele>333.08575439453</ele>
        <time>2018-11-29T09:28:03+0100</time>
      </trkpt>
      <trkpt lat="47.24737" lon="4.96665">
        <ele>332.61447143555</ele>
        <time>2018-11-29T09:28:06+0100</time>
      </trkpt>
      <trkpt lat="47.24738" lon="4.9667">
        <ele>332.12548828125</ele>
        <time>2018-11-29T09:28:09+0100</time>
      </trkpt>
      <trkpt lat="47.24738" lon="4.96675">
        <ele>331.63507080078</ele>
        <time>2018-11-29T09:28:12+0100</time>
      </trkpt>
      <trkpt lat="47.24738" lon="4.96679">
        <ele>331.14447021484</ele>
        <time>2018-11-29T09:28:15+0100</time>
      </trkpt>
      <trkpt lat="47.24739" lon="4.96683">
        <ele>330.66717529297</ele>
        <time>2018-11-29T09:28:18+0100</time>
      </trkpt>
      <trkpt lat="47.24739" lon="4.96688">
        <ele>330.20385742188</ele>
        <time>2018-11-29T09:28:21+0100</time>
      </trkpt>
      <trkpt lat="47.2474" lon="4.96694">
        <ele>329.77523803711</ele>
        <time>2018-11-29T09:28:24+0100</time>
      </trkpt>
      <trkpt lat="47.24741" lon="4.96698">
        <ele>329.40863037109</ele>
        <time>2018-11-29T09:28:27+0100</time>
      </trkpt>
      <trkpt lat="47.24741" lon="4.967">
        <ele>329.08612060547</ele>
        <time>2018-11-29T09:28:30+0100</time>
      </trkpt>
      <trkpt lat="47.24739" lon="4.96705">
        <ele>328.67446899414</ele>
        <time>2018-11-29T09:28:33+0100</time>
      </trkpt>
      <trkpt lat="47.2474" lon="4.96708">
        <ele>328.19604492188</ele>
        <time>2018-11-29T09:28:36+0100</time>
      </trkpt>
      <trkpt lat="47.24741" lon="4.96712">
        <ele>327.76138305664</ele>
        <time>2018-11-29T09:28:39+0100</time>
      </trkpt>
      <trkpt lat="47.24741" lon="4.96719">
        <ele>327.36932373047</ele>
        <time>2018-11-29T09:28:42+0100</time>
      </trkpt>
      <trkpt lat="47.24742" lon="4.96724">
        <ele>327.02447509766</ele>
        <time>2018-11-29T09:28:45+0100</time>
      </trkpt>
      <trkpt lat="47.24743" lon="4.96728">
        <ele>326.76409912109</ele>
        <time>2018-11-29T09:28:48+0100</time>
      </trkpt>
      <trkpt lat="47.24743" lon="4.96732">
        <ele>326.46499633789</ele>
        <time>2018-11-29T09:28:51+0100</time>
      </trkpt>
      <trkpt lat="47.24741" lon="4.96736">
        <ele>326.05578613281</ele>
        <time>2018-11-29T09:28:54+0100</time>
      </trkpt>
      <trkpt lat="47.24741" lon="4.96741">
        <ele>325.6448059082</ele>
        <time>2018-11-29T09:28:57+0100</time>
      </trkpt>
      <trkpt lat="47.24742" lon="4.96746">
        <ele>325.20098876953</ele>
        <time>2018-11-29T09:29:00+0100</time>
      </trkpt>
      <trkpt lat="47.24742" lon="4.96749">
        <ele>324.77914428711</ele>
        <time>2018-11-29T09:29:03+0100</time>
      </trkpt>
      <trkpt lat="47.24741" lon="4.96754">
        <ele>324.39312744141</ele>
        <time>2018-11-29T09:29:06+0100</time>
      </trkpt>
      <trkpt lat="47.24741" lon="4.96761">
        <ele>324.03884887695</ele>
        <time>2018-11-29T09:29:09+0100</time>
      </trkpt>
      <trkpt lat="47.2474" lon="4.96765">
        <ele>323.69479370117</ele>
        <time>2018-11-29T09:29:12+0100</time>
      </trkpt>
      <trkpt lat="47.24739" lon="4.9677">
        <ele>323.3874206543</ele>
        <time>2018-11-29T09:29:15+0100</time>
      </trkpt>
      <trkpt lat="47.24738" lon="4.96774">
        <ele>323.1022644043</ele>
        <time>2018-11-29T09:29:18+0100</time>
      </trkpt>
      <trkpt lat="47.24737" lon="4.96777">
        <ele>322.83456420898</ele>
        <time>2018-11-29T09:29:21+0100</time>
      </trkpt>
      <trkpt lat="47.24735" lon="4.96784">
        <ele>322.49203491211</ele>
        <time>2018-11-29T09:29:24+0100</time>
      </trkpt>
      <trkpt lat="47.24733" lon="4.96786">
        <ele>322.08999633789</ele>
        <time>2018-11-29T09:29:27+0100</time>
      </trkpt>
      <trkpt lat="47.2473" lon="4.96787">
        <ele>321.69122314453</ele>
        <time>2018-11-29T09:29:30+0100</time>
      </trkpt>
      <trkpt lat="47.24728" lon="4.96789">
        <ele>321.28775024414</ele>
        <time>2018-11-29T09:29:33+0100</time>
      </trkpt>
      <trkpt lat="47.24726" lon="4.9679">
        <ele>320.94641113281</ele>
        <time>2018-11-29T09:29:36+0100</time>
      </trkpt>
      <trkpt lat="47.24724" lon="4.96791">
        <ele>320.70910644531</ele>
        <time>2018-11-29T09:29:39+0100</time>
      </trkpt>
      <trkpt lat="47.24721" lon="4.96791">
        <ele>320.49621582031</ele>
        <time>2018-11-29T09:29:42+0100</time>
      </trkpt>
      <trkpt lat="47.2472" lon="4.96792">
        <ele>320.32565307617</ele>
        <time>2018-11-29T09:29:45+0100</time>
      </trkpt>
      <trkpt lat="47.2472" lon="4.96792">
        <ele>320.31018066406</ele>
        <time>2018-11-29T09:29:48+0100</time>
      </trkpt>
      <trkpt lat="47.2472" lon="4.96792">
        <ele>320.29934692383</ele>
        <time>2018-11-29T09:29:51+0100</time>
      </trkpt>
      <trkpt lat="47.2472" lon="4.96792">
        <ele>320.27917480469</ele>
        <time>2018-11-29T09:29:54+0100</time>
      </trkpt>
      <trkpt lat="47.2472" lon="4.96792">
        <ele>320.25454711914</ele>
        <time>2018-11-29T09:29:57+0100</time>
      </trkpt>
      <trkpt lat="47.24717" lon="4.96792">
        <ele>320.22189331055</ele>
        <time>2018-11-29T09:30:00+0100</time>
      </trkpt>
      <trkpt lat="47.24717" lon="4.96792">
        <ele>320.18713378906</ele>
        <time>2018-11-29T09:30:03+0100</time>
      </trkpt>
      <trkpt lat="47.24717" lon="4.96792">
        <ele>320.14749145508</ele>
        <time>2018-11-29T09:30:06+0100</time>
      </trkpt>
      <trkpt lat="47.24717" lon="4.96792">
        <ele>320.10693359375</ele>
        <time>2018-11-29T09:30:09+0100</time>
      </trkpt>
      <trkpt lat="47.24717" lon="4.96792">
        <ele>320.07080078125</ele>
        <time>2018-11-29T09:30:12+0100</time>
      </trkpt>
      <trkpt lat="47.24717" lon="4.96792">
        <ele>320.04791259766</ele>
        <time>2018-11-29T09:30:15+0100</time>
      </trkpt>
      <trkpt lat="47.24716" lon="4.96793">
        <ele>320.00814819336</ele>
        <time>2018-11-29T09:30:18+0100</time>
      </trkpt>
      <trkpt lat="47.24716" lon="4.96793">
        <ele>319.95581054688</ele>
        <time>2018-11-29T09:30:21+0100</time>
      </trkpt>
      <trkpt lat="47.24716" lon="4.96793">
        <ele>319.9114074707</ele>
        <time>2018-11-29T09:30:24+0100</time>
      </trkpt>
      <trkpt lat="47.24715" lon="4.96793">
        <ele>319.87008666992</ele>
        <time>2018-11-29T09:30:27+0100</time>
      </trkpt>
      <trkpt lat="47.24715" lon="4.96793">
        <ele>319.82113647461</ele>
        <time>2018-11-29T09:30:30+0100</time>
      </trkpt>
      <trkpt lat="47.24715" lon="4.96793">
        <ele>319.77133178711</ele>
        <time>2018-11-29T09:30:33+0100</time>
      </trkpt>
      <trkpt lat="47.24716" lon="4.96793">
        <ele>319.7184753418</ele>
        <time>2018-11-29T09:30:36+0100</time>
      </trkpt>
      <trkpt lat="47.24716" lon="4.96793">
        <ele>319.66973876953</ele>
        <time>2018-11-29T09:30:39+0100</time>
      </trkpt>
      <trkpt lat="47.24716" lon="4.96793">
        <ele>319.62316894531</ele>
        <time>2018-11-29T09:30:42+0100</time>
      </trkpt>
      <trkpt lat="47.24716" lon="4.96793">
        <ele>319.58142089844</ele>
        <time>2018-11-29T09:30:45+0100</time>
      </trkpt>
      <trkpt lat="47.24716" lon="4.96793">
        <ele>319.53912353516</ele>
        <time>2018-11-29T09:30:48+0100</time>
      </trkpt>
      <trkpt lat="47.24716" lon="4.96793">
        <ele>319.49523925781</ele>
        <time>2018-11-29T09:30:51+0100</time>
      </trkpt>
      <trkpt lat="47.24716" lon="4.96794">
        <ele>319.4533996582</ele>
        <time>2018-11-29T09:30:54+0100</time>
      </trkpt>
      <trkpt lat="47.24716" lon="4.96794">
        <ele>319.41525268555</ele>
        <time>2018-11-29T09:30:57+0100</time>
      </trkpt>
      <trkpt lat="47.24717" lon="4.96794">
        <ele>319.38128662109</ele>
        <time>2018-11-29T09:31:00+0100</time>
      </trkpt>
      <trkpt lat="47.24717" lon="4.96794">
        <ele>319.3493347168</ele>
        <time>2018-11-29T09:31:03+0100</time>
      </trkpt>
      <trkpt lat="47.24717" lon="4.96794">
        <ele>319.31851196289</ele>
        <time>2018-11-29T09:31:06+0100</time>
      </trkpt>
      <trkpt lat="47.24717" lon="4.96794">
        <ele>319.28689575195</ele>
        <time>2018-11-29T09:31:09+0100</time>
      </trkpt>
      <trkpt lat="47.24717" lon="4.96794">
        <ele>319.25549316406</ele>
        <time>2018-11-29T09:31:12+0100</time>
      </trkpt>
      <trkpt lat="47.24717" lon="4.96794">
        <ele>319.22467041016</ele>
        <time>2018-11-29T09:31:15+0100</time>
      </trkpt>
      <trkpt lat="47.24716" lon="4.96793">
        <ele>319.19799804688</ele>
        <time>2018-11-29T09:31:18+0100</time>
      </trkpt>
      <trkpt lat="47.24716" lon="4.96793">
        <ele>319.17361450195</ele>
        <time>2018-11-29T09:31:21+0100</time>
      </trkpt>
      <trkpt lat="47.24716" lon="4.96793">
        <ele>319.15682983398</ele>
        <time>2018-11-29T09:31:24+0100</time>
      </trkpt>
      <trkpt lat="47.24716" lon="4.96793">
        <ele>319.13879394531</ele>
        <time>2018-11-29T09:31:27+0100</time>
      </trkpt>
      <trkpt lat="47.24715" lon="4.96795">
        <ele>319.10729980469</ele>
        <time>2018-11-29T09:31:30+0100</time>
      </trkpt>
      <trkpt lat="47.24711" lon="4.96794">
        <ele>318.98587036133</ele>
        <time>2018-11-29T09:31:33+0100</time>
      </trkpt>
      <trkpt lat="47.24709" lon="4.96791">
        <ele>318.78692626953</ele>
        <time>2018-11-29T09:31:36+0100</time>
      </trkpt>
      <trkpt lat="47.2471" lon="4.96789">
        <ele>318.67932128906</ele>
        <time>2018-11-29T09:31:39+0100</time>
      </trkpt>
      <trkpt lat="47.2471" lon="4.96786">
        <ele>318.73541259766</ele>
        <time>2018-11-29T09:31:42+0100</time>
      </trkpt>
      <trkpt lat="47.24709" lon="4.96783">
        <ele>318.90463256836</ele>
        <time>2018-11-29T09:31:45+0100</time>
      </trkpt>
      <trkpt lat="47.24708" lon="4.96777">
        <ele>319.02502441406</ele>
        <time>2018-11-29T09:31:48+0100</time>
      </trkpt>
      <trkpt lat="47.24709" lon="4.96774">
        <ele>319.13604736328</ele>
        <time>2018-11-29T09:31:51+0100</time>
      </trkpt>
      <trkpt lat="47.24707" lon="4.96766">
        <ele>319.15524291992</ele>
        <time>2018-11-29T09:31:54+0100</time>
      </trkpt>
      <trkpt lat="47.24706" lon="4.96761">
        <ele>319.01690673828</ele>
        <time>2018-11-29T09:31:57+0100</time>
      </trkpt>
      <trkpt lat="47.24706" lon="4.96757">
        <ele>318.91314697266</ele>
        <time>2018-11-29T09:32:00+0100</time>
      </trkpt>
      <trkpt lat="47.24706" lon="4.96753">
        <ele>318.84005737305</ele>
        <time>2018-11-29T09:32:03+0100</time>
      </trkpt>
      <trkpt lat="47.24705" lon="4.96746">
        <ele>318.70050048828</ele>
        <time>2018-11-29T09:32:06+0100</time>
      </trkpt>
      <trkpt lat="47.24705" lon="4.96744">
        <ele>318.5588684082</ele>
        <time>2018-11-29T09:32:09+0100</time>
      </trkpt>
      <trkpt lat="47.24705" lon="4.9674">
        <ele>318.47106933594</ele>
        <time>2018-11-29T09:32:12+0100</time>
      </trkpt>
      <trkpt lat="47.24704" lon="4.96738">
        <ele>318.50634765625</ele>
        <time>2018-11-29T09:32:15+0100</time>
      </trkpt>
      <trkpt lat="47.24704" lon="4.96731">
        <ele>318.64099121094</ele>
        <time>2018-11-29T09:32:18+0100</time>
      </trkpt>
      <trkpt lat="47.24703" lon="4.96724">
        <ele>318.74765014648</ele>
        <time>2018-11-29T09:32:21+0100</time>
      </trkpt>
      <trkpt lat="47.24704" lon="4.96719">
        <ele>318.86599731445</ele>
        <time>2018-11-29T09:32:24+0100</time>
      </trkpt>
      <trkpt lat="47.24704" lon="4.96716">
        <ele>319.04437255859</ele>
        <time>2018-11-29T09:32:27+0100</time>
      </trkpt>
      <trkpt lat="47.24704" lon="4.96713">
        <ele>319.31701660156</ele>
        <time>2018-11-29T09:32:30+0100</time>
      </trkpt>
      <trkpt lat="47.24703" lon="4.96709">
        <ele>319.65921020508</ele>
        <time>2018-11-29T09:32:33+0100</time>
      </trkpt>
      <trkpt lat="47.24702" lon="4.96704">
        <ele>320.04327392578</ele>
        <time>2018-11-29T09:32:36+0100</time>
      </trkpt>
      <trkpt lat="47.247" lon="4.96701">
        <ele>320.43533325195</ele>
        <time>2018-11-29T09:32:39+0100</time>
      </trkpt>
      <trkpt lat="47.24699" lon="4.96695">
        <ele>320.75686645508</ele>
        <time>2018-11-29T09:32:42+0100</time>
      </trkpt>
      <trkpt lat="47.24698" lon="4.96689">
        <ele>321.05596923828</ele>
        <time>2018-11-29T09:32:45+0100</time>
      </trkpt>
      <trkpt lat="47.24697" lon="4.96684">
        <ele>321.21896362305</ele>
        <time>2018-11-29T09:32:48+0100</time>
      </trkpt>
      <trkpt lat="47.24696" lon="4.96679">
        <ele>321.33142089844</ele>
        <time>2018-11-29T09:32:51+0100</time>
      </trkpt>
      <trkpt lat="47.24694" lon="4.96675">
        <ele>321.4743347168</ele>
        <time>2018-11-29T09:32:54+0100</time>
      </trkpt>
      <trkpt lat="47.24694" lon="4.96671">
        <ele>321.66366577148</ele>
        <time>2018-11-29T09:32:57+0100</time>
      </trkpt>
      <trkpt lat="47.24693" lon="4.96669">
        <ele>321.9111328125</ele>
        <time>2018-11-29T09:33:00+0100</time>
      </trkpt>
      <trkpt lat="47.24692" lon="4.96667">
        <ele>322.2326965332</ele>
        <time>2018-11-29T09:33:03+0100</time>
      </trkpt>
      <trkpt lat="47.24691" lon="4.96664">
        <ele>322.6442565918</ele>
        <time>2018-11-29T09:33:06+0100</time>
      </trkpt>
      <trkpt lat="47.24689" lon="4.96657">
        <ele>323.07269287109</ele>
        <time>2018-11-29T09:33:09+0100</time>
      </trkpt>
      <trkpt lat="47.24688" lon="4.96654">
        <ele>323.4953918457</ele>
        <time>2018-11-29T09:33:12+0100</time>
      </trkpt>
      <trkpt lat="47.24686" lon="4.96648">
        <ele>323.90182495117</ele>
        <time>2018-11-29T09:33:15+0100</time>
      </trkpt>
      <trkpt lat="47.24686" lon="4.96642">
        <ele>324.23767089844</ele>
        <time>2018-11-29T09:33:18+0100</time>
      </trkpt>
      <trkpt lat="47.24685" lon="4.96636">
        <ele>324.49111938477</ele>
        <time>2018-11-29T09:33:21+0100</time>
      </trkpt>
      <trkpt lat="47.24684" lon="4.96632">
        <ele>324.69567871094</ele>
        <time>2018-11-29T09:33:24+0100</time>
      </trkpt>
      <trkpt lat="47.24683" lon="4.96629">
        <ele>324.88067626953</ele>
        <time>2018-11-29T09:33:27+0100</time>
      </trkpt>
      <trkpt lat="47.24682" lon="4.96626">
        <ele>325.099609375</ele>
        <time>2018-11-29T09:33:30+0100</time>
      </trkpt>
      <trkpt lat="47.24681" lon="4.96623">
        <ele>325.36352539062</ele>
        <time>2018-11-29T09:33:33+0100</time>
      </trkpt>
      <trkpt lat="47.24679" lon="4.96618">
        <ele>325.56427001953</ele>
        <time>2018-11-29T09:33:36+0100</time>
      </trkpt>
      <trkpt lat="47.24677" lon="4.96616">
        <ele>325.81735229492</ele>
        <time>2018-11-29T09:33:39+0100</time>
      </trkpt>
      <trkpt lat="47.24675" lon="4.9661">
        <ele>326.02938842773</ele>
        <time>2018-11-29T09:33:42+0100</time>
      </trkpt>
      <trkpt lat="47.24674" lon="4.96604">
        <ele>326.22906494141</ele>
        <time>2018-11-29T09:33:45+0100</time>
      </trkpt>
      <trkpt lat="47.24672" lon="4.96597">
        <ele>326.30718994141</ele>
        <time>2018-11-29T09:33:48+0100</time>
      </trkpt>
      <trkpt lat="47.24671" lon="4.96592">
        <ele>326.21636962891</ele>
        <time>2018-11-29T09:33:51+0100</time>
      </trkpt>
      <trkpt lat="47.24669" lon="4.96589">
        <ele>326.05795288086</ele>
        <time>2018-11-29T09:33:54+0100</time>
      </trkpt>
      <trkpt lat="47.24667" lon="4.96588">
        <ele>325.88177490234</ele>
        <time>2018-11-29T09:33:57+0100</time>
      </trkpt>
      <trkpt lat="47.24665" lon="4.96588">
        <ele>325.82186889648</ele>
        <time>2018-11-29T09:34:00+0100</time>
      </trkpt>
      <trkpt lat="47.24663" lon="4.96589">
        <ele>325.9797668457</ele>
        <time>2018-11-29T09:34:03+0100</time>
      </trkpt>
      <trkpt lat="47.24664" lon="4.96589">
        <ele>326.07690429688</ele>
        <time>2018-11-29T09:34:06+0100</time>
      </trkpt>
      <trkpt lat="47.24661" lon="4.96589">
        <ele>326.21786499023</ele>
        <time>2018-11-29T09:34:09+0100</time>
      </trkpt>
      <trkpt lat="47.24656" lon="4.96593">
        <ele>326.22409057617</ele>
        <time>2018-11-29T09:34:12+0100</time>
      </trkpt>
      <trkpt lat="47.24653" lon="4.96595">
        <ele>326.03701782227</ele>
        <time>2018-11-29T09:34:15+0100</time>
      </trkpt>
      <trkpt lat="47.24649" lon="4.96596">
        <ele>325.84625244141</ele>
        <time>2018-11-29T09:34:18+0100</time>
      </trkpt>
      <trkpt lat="47.24647" lon="4.96597">
        <ele>325.68493652344</ele>
        <time>2018-11-29T09:34:21+0100</time>
      </trkpt>
      <trkpt lat="47.24647" lon="4.96597">
        <ele>325.69909667969</ele>
        <time>2018-11-29T09:34:24+0100</time>
      </trkpt>
      <trkpt lat="47.24643" lon="4.96598">
        <ele>325.74667358398</ele>
        <time>2018-11-29T09:34:27+0100</time>
      </trkpt>
      <trkpt lat="47.24639" lon="4.966">
        <ele>325.76577758789</ele>
        <time>2018-11-29T09:34:30+0100</time>
      </trkpt>
      <trkpt lat="47.24637" lon="4.966">
        <ele>325.79046630859</ele>
        <time>2018-11-29T09:34:34+0100</time>
      </trkpt>
      <trkpt lat="47.24634" lon="4.966">
        <ele>325.83538818359</ele>
        <time>2018-11-29T09:34:37+0100</time>
      </trkpt>
      <trkpt lat="47.24632" lon="4.96599">
        <ele>325.8505859375</ele>
        <time>2018-11-29T09:34:40+0100</time>
      </trkpt>
      <trkpt lat="47.24631" lon="4.96599">
        <ele>325.85675048828</ele>
        <time>2018-11-29T09:34:43+0100</time>
      </trkpt>
      <trkpt lat="47.2463" lon="4.96599">
        <ele>325.91552734375</ele>
        <time>2018-11-29T09:34:46+0100</time>
      </trkpt>
      <trkpt lat="47.24628" lon="4.96599">
        <ele>326.03210449219</ele>
        <time>2018-11-29T09:34:49+0100</time>
      </trkpt>
      <trkpt lat="47.24625" lon="4.96598">
        <ele>326.15539550781</ele>
        <time>2018-11-29T09:34:52+0100</time>
      </trkpt>
      <trkpt lat="47.24623" lon="4.96596">
        <ele>326.25646972656</ele>
        <time>2018-11-29T09:34:55+0100</time>
      </trkpt>
      <trkpt lat="47.24622" lon="4.96595">
        <ele>326.33560180664</ele>
        <time>2018-11-29T09:34:58+0100</time>
      </trkpt>
      <trkpt lat="47.24621" lon="4.96596">
        <ele>326.41015625</ele>
        <time>2018-11-29T09:35:01+0100</time>
      </trkpt>
      <trkpt lat="47.24619" lon="4.96598">
        <ele>326.50360107422</ele>
        <time>2018-11-29T09:35:04+0100</time>
      </trkpt>
      <trkpt lat="47.24618" lon="4.966">
        <ele>326.62191772461</ele>
        <time>2018-11-29T09:35:07+0100</time>
      </trkpt>
      <trkpt lat="47.24615" lon="4.96603">
        <ele>326.8830871582</ele>
        <time>2018-11-29T09:35:10+0100</time>
      </trkpt>
      <trkpt lat="47.24613" lon="4.96606">
        <ele>327.09603881836</ele>
        <time>2018-11-29T09:35:13+0100</time>
      </trkpt>
      <trkpt lat="47.24609" lon="4.96609">
        <ele>327.28228759766</ele>
        <time>2018-11-29T09:35:16+0100</time>
      </trkpt>
      <trkpt lat="47.24606" lon="4.96613">
        <ele>327.37356567383</ele>
        <time>2018-11-29T09:35:19+0100</time>
      </trkpt>
      <trkpt lat="47.24604" lon="4.96617">
        <ele>327.43182373047</ele>
        <time>2018-11-29T09:35:22+0100</time>
      </trkpt>
      <trkpt lat="47.24603" lon="4.9662">
        <ele>327.48812866211</ele>
        <time>2018-11-29T09:35:25+0100</time>
      </trkpt>
      <trkpt lat="47.24601" lon="4.96624">
        <ele>327.55212402344</ele>
        <time>2018-11-29T09:35:28+0100</time>
      </trkpt>
      <trkpt lat="47.246" lon="4.96626">
        <ele>327.68859863281</ele>
        <time>2018-11-29T09:35:31+0100</time>
      </trkpt>
      <trkpt lat="47.24598" lon="4.96628">
        <ele>327.84170532227</ele>
        <time>2018-11-29T09:35:34+0100</time>
      </trkpt>
      <trkpt lat="47.24596" lon="4.96629">
        <ele>328.03576660156</ele>
        <time>2018-11-29T09:35:37+0100</time>
      </trkpt>
      <trkpt lat="47.24594" lon="4.96631">
        <ele>328.22702026367</ele>
        <time>2018-11-29T09:35:40+0100</time>
      </trkpt>
      <trkpt lat="47.24592" lon="4.96632">
        <ele>328.45071411133</ele>
        <time>2018-11-29T09:35:43+0100</time>
      </trkpt>
      <trkpt lat="47.24591" lon="4.96632">
        <ele>328.67541503906</ele>
        <time>2018-11-29T09:35:46+0100</time>
      </trkpt>
      <trkpt lat="47.24588" lon="4.96631">
        <ele>328.97479248047</ele>
        <time>2018-11-29T09:35:49+0100</time>
      </trkpt>
      <trkpt lat="47.24586" lon="4.9663">
        <ele>329.26831054688</ele>
        <time>2018-11-29T09:35:52+0100</time>
      </trkpt>
      <trkpt lat="47.24583" lon="4.96629">
        <ele>329.51708984375</ele>
        <time>2018-11-29T09:35:55+0100</time>
      </trkpt>
      <trkpt lat="47.24582" lon="4.96628">
        <ele>329.75598144531</ele>
        <time>2018-11-29T09:35:58+0100</time>
      </trkpt>
      <trkpt lat="47.2458" lon="4.96625">
        <ele>329.9831237793</ele>
        <time>2018-11-29T09:36:01+0100</time>
      </trkpt>
      <trkpt lat="47.24579" lon="4.96624">
        <ele>330.23251342773</ele>
        <time>2018-11-29T09:36:04+0100</time>
      </trkpt>
      <trkpt lat="47.24578" lon="4.9662">
        <ele>330.4909362793</ele>
        <time>2018-11-29T09:36:07+0100</time>
      </trkpt>
      <trkpt lat="47.24578" lon="4.96616">
        <ele>330.73333740234</ele>
        <time>2018-11-29T09:36:10+0100</time>
      </trkpt>
      <trkpt lat="47.24577" lon="4.96611">
        <ele>330.94030761719</ele>
        <time>2018-11-29T09:36:13+0100</time>
      </trkpt>
      <trkpt lat="47.24577" lon="4.96612">
        <ele>331.19390869141</ele>
        <time>2018-11-29T09:36:16+0100</time>
      </trkpt>
      <trkpt lat="47.24577" lon="4.96608">
        <ele>331.45764160156</ele>
        <time>2018-11-29T09:36:19+0100</time>
      </trkpt>
      <trkpt lat="47.24577" lon="4.9661">
        <ele>331.49542236328</ele>
        <time>2018-11-29T09:36:22+0100</time>
      </trkpt>
      <trkpt lat="47.24578" lon="4.9661">
        <ele>331.52786254883</ele>
        <time>2018-11-29T09:36:25+0100</time>
      </trkpt>
      <trkpt lat="47.24578" lon="4.96609">
        <ele>331.55838012695</ele>
        <time>2018-11-29T09:36:28+0100</time>
      </trkpt>
      <trkpt lat="47.24578" lon="4.96609">
        <ele>331.58493041992</ele>
        <time>2018-11-29T09:36:31+0100</time>
      </trkpt>
      <trkpt lat="47.24578" lon="4.9661">
        <ele>331.61798095703</ele>
        <time>2018-11-29T09:36:34+0100</time>
      </trkpt>
      <trkpt lat="47.24578" lon="4.9661">
        <ele>331.66082763672</ele>
        <time>2018-11-29T09:36:37+0100</time>
      </trkpt>
      <trkpt lat="47.24579" lon="4.9661">
        <ele>331.70401000977</ele>
        <time>2018-11-29T09:36:40+0100</time>
      </trkpt>
      <trkpt lat="47.24579" lon="4.9661">
        <ele>331.75372314453</ele>
        <time>2018-11-29T09:36:43+0100</time>
      </trkpt>
      <trkpt lat="47.24579" lon="4.9661">
        <ele>331.8037109375</ele>
        <time>2018-11-29T09:36:46+0100</time>
      </trkpt>
      <trkpt lat="47.24579" lon="4.9661">
        <ele>331.85464477539</ele>
        <time>2018-11-29T09:36:49+0100</time>
      </trkpt>
      <trkpt lat="47.24579" lon="4.96609">
        <ele>332.07461547852</ele>
        <time>2018-11-29T09:36:52+0100</time>
      </trkpt>
      <trkpt lat="47.24579" lon="4.96606">
        <ele>332.64660644531</ele>
        <time>2018-11-29T09:36:55+0100</time>
      </trkpt>
      <trkpt lat="47.24577" lon="4.96603">
        <ele>333.14352416992</ele>
        <time>2018-11-29T09:36:58+0100</time>
      </trkpt>
      <trkpt lat="47.24574" lon="4.96601">
        <ele>333.56842041016</ele>
        <time>2018-11-29T09:37:01+0100</time>
      </trkpt>
      <trkpt lat="47.24572" lon="4.96597">
        <ele>333.98391723633</ele>
        <time>2018-11-29T09:37:04+0100</time>
      </trkpt>
      <trkpt lat="47.2457" lon="4.96597">
        <ele>334.36636352539</ele>
        <time>2018-11-29T09:37:07+0100</time>
      </trkpt>
      <trkpt lat="47.24568" lon="4.96595">
        <ele>334.73196411133</ele>
        <time>2018-11-29T09:37:10+0100</time>
      </trkpt>
      <trkpt lat="47.24566" lon="4.96594">
        <ele>335.11688232422</ele>
        <time>2018-11-29T09:37:13+0100</time>
      </trkpt>
      <trkpt lat="47.24565" lon="4.96592">
        <ele>335.53549194336</ele>
        <time>2018-11-29T09:37:16+0100</time>
      </trkpt>
      <trkpt lat="47.24565" lon="4.96589">
        <ele>336.05142211914</ele>
        <time>2018-11-29T09:37:19+0100</time>
      </trkpt>
      <trkpt lat="47.24565" lon="4.96589">
        <ele>336.67535400391</ele>
        <time>2018-11-29T09:37:22+0100</time>
      </trkpt>
      <trkpt lat="47.24565" lon="4.96586">
        <ele>337.40347290039</ele>
        <time>2018-11-29T09:37:25+0100</time>
      </trkpt>
      <trkpt lat="47.24566" lon="4.96586">
        <ele>338.29473876953</ele>
        <time>2018-11-29T09:37:28+0100</time>
      </trkpt>
      <trkpt lat="47.24565" lon="4.96584">
        <ele>339.23776245117</ele>
        <time>2018-11-29T09:37:31+0100</time>
      </trkpt>
      <trkpt lat="47.24565" lon="4.96582">
        <ele>340.17138671875</ele>
        <time>2018-11-29T09:37:34+0100</time>
      </trkpt>
      <trkpt lat="47.24564" lon="4.96568">
        <ele>340.97207641602</ele>
        <time>2018-11-29T09:37:37+0100</time>
      </trkpt>
      <trkpt lat="47.24563" lon="4.9656">
        <ele>341.54913330078</ele>
        <time>2018-11-29T09:37:40+0100</time>
      </trkpt>
      <trkpt lat="47.24561" lon="4.96552">
        <ele>341.83953857422</ele>
        <time>2018-11-29T09:37:43+0100</time>
      </trkpt>
      <trkpt lat="47.24559" lon="4.96546">
        <ele>341.93435668945</ele>
        <time>2018-11-29T09:37:46+0100</time>
      </trkpt>
      <trkpt lat="47.24558" lon="4.96541">
        <ele>342.0046081543</ele>
        <time>2018-11-29T09:37:49+0100</time>
      </trkpt>
      <trkpt lat="47.24557" lon="4.96538">
        <ele>342.02032470703</ele>
        <time>2018-11-29T09:37:52+0100</time>
      </trkpt>
      <trkpt lat="47.24556" lon="4.96533">
        <ele>342.07244873047</ele>
        <time>2018-11-29T09:37:55+0100</time>
      </trkpt>
      <trkpt lat="47.24556" lon="4.96529">
        <ele>342.14617919922</ele>
        <time>2018-11-29T09:37:58+0100</time>
      </trkpt>
      <trkpt lat="47.24556" lon="4.96524">
        <ele>342.36276245117</ele>
        <time>2018-11-29T09:38:01+0100</time>
      </trkpt>
      <trkpt lat="47.24555" lon="4.9652">
        <ele>342.65200805664</ele>
        <time>2018-11-29T09:38:04+0100</time>
      </trkpt>
      <trkpt lat="47.24554" lon="4.96515">
        <ele>342.93371582031</ele>
        <time>2018-11-29T09:38:07+0100</time>
      </trkpt>
      <trkpt lat="47.24554" lon="4.96512">
        <ele>343.24194335938</ele>
        <time>2018-11-29T09:38:10+0100</time>
      </trkpt>
      <trkpt lat="47.24553" lon="4.96508">
        <ele>343.66546630859</ele>
        <time>2018-11-29T09:38:13+0100</time>
      </trkpt>
      <trkpt lat="47.24551" lon="4.96503">
        <ele>344.01635742188</ele>
        <time>2018-11-29T09:38:16+0100</time>
      </trkpt>
      <trkpt lat="47.24549" lon="4.96499">
        <ele>344.30346679688</ele>
        <time>2018-11-29T09:38:19+0100</time>
      </trkpt>
      <trkpt lat="47.24548" lon="4.96497">
        <ele>344.60845947266</ele>
        <time>2018-11-29T09:38:22+0100</time>
      </trkpt>
      <trkpt lat="47.24548" lon="4.96495">
        <ele>344.98611450195</ele>
        <time>2018-11-29T09:38:25+0100</time>
      </trkpt>
      <trkpt lat="47.24549" lon="4.96494">
        <ele>345.48413085938</ele>
        <time>2018-11-29T09:38:28+0100</time>
      </trkpt>
      <trkpt lat="47.24547" lon="4.96494">
        <ele>346.06610107422</ele>
        <time>2018-11-29T09:38:31+0100</time>
      </trkpt>
      <trkpt lat="47.24546" lon="4.96495">
        <ele>346.67980957031</ele>
        <time>2018-11-29T09:38:34+0100</time>
      </trkpt>
      <trkpt lat="47.24547" lon="4.96492">
        <ele>347.44021606445</ele>
        <time>2018-11-29T09:38:37+0100</time>
      </trkpt>
      <trkpt lat="47.24543" lon="4.9649">
        <ele>348.40731811523</ele>
        <time>2018-11-29T09:38:40+0100</time>
      </trkpt>
      <trkpt lat="47.24541" lon="4.96492">
        <ele>349.32788085938</ele>
        <time>2018-11-29T09:38:43+0100</time>
      </trkpt>
      <trkpt lat="47.24538" lon="4.96491">
        <ele>350.09329223633</ele>
        <time>2018-11-29T09:38:46+0100</time>
      </trkpt>
      <trkpt lat="47.24534" lon="4.96493">
        <ele>350.61566162109</ele>
        <time>2018-11-29T09:38:49+0100</time>
      </trkpt>
      <trkpt lat="47.24531" lon="4.96494">
        <ele>351.11944580078</ele>
        <time>2018-11-29T09:38:52+0100</time>
      </trkpt>
      <trkpt lat="47.24529" lon="4.96495">
        <ele>351.80413818359</ele>
        <time>2018-11-29T09:38:55+0100</time>
      </trkpt>
      <trkpt lat="47.24526" lon="4.96498">
        <ele>352.51702880859</ele>
        <time>2018-11-29T09:38:58+0100</time>
      </trkpt>
      <trkpt lat="47.24527" lon="4.965">
        <ele>353.31903076172</ele>
        <time>2018-11-29T09:39:01+0100</time>
      </trkpt>
      <trkpt lat="47.24526" lon="4.96503">
        <ele>354.16290283203</ele>
        <time>2018-11-29T09:39:04+0100</time>
      </trkpt>
      <trkpt lat="47.24525" lon="4.96501">
        <ele>355.14556884766</ele>
        <time>2018-11-29T09:39:07+0100</time>
      </trkpt>
      <trkpt lat="47.2452" lon="4.96503">
        <ele>356.12838745117</ele>
        <time>2018-11-29T09:39:10+0100</time>
      </trkpt>
      <trkpt lat="47.24517" lon="4.96504">
        <ele>357.01779174805</ele>
        <time>2018-11-29T09:39:13+0100</time>
      </trkpt>
      <trkpt lat="47.24512" lon="4.96505">
        <ele>357.74588012695</ele>
        <time>2018-11-29T09:39:16+0100</time>
      </trkpt>
      <trkpt lat="47.24508" lon="4.96506">
        <ele>358.12738037109</ele>
        <time>2018-11-29T09:39:19+0100</time>
      </trkpt>
      <trkpt lat="47.24503" lon="4.96507">
        <ele>358.44012451172</ele>
        <time>2018-11-29T09:39:22+0100</time>
      </trkpt>
      <trkpt lat="47.24499" lon="4.96505">
        <ele>358.84677124023</ele>
        <time>2018-11-29T09:39:25+0100</time>
      </trkpt>
      <trkpt lat="47.24496" lon="4.96505">
        <ele>358.99664306641</ele>
        <time>2018-11-29T09:39:28+0100</time>
      </trkpt>
      <trkpt lat="47.24495" lon="4.96505">
        <ele>359.36590576172</ele>
        <time>2018-11-29T09:39:31+0100</time>
      </trkpt>
      <trkpt lat="47.24492" lon="4.96507">
        <ele>359.82153320312</ele>
        <time>2018-11-29T09:39:34+0100</time>
      </trkpt>
      <trkpt lat="47.24489" lon="4.96509">
        <ele>360.38711547852</ele>
        <time>2018-11-29T09:39:37+0100</time>
      </trkpt>
      <trkpt lat="47.24487" lon="4.96513">
        <ele>360.98434448242</ele>
        <time>2018-11-29T09:39:40+0100</time>
      </trkpt>
      <trkpt lat="47.24485" lon="4.96516">
        <ele>361.47766113281</ele>
        <time>2018-11-29T09:39:43+0100</time>
      </trkpt>
      <trkpt lat="47.24482" lon="4.96519">
        <ele>361.89855957031</ele>
        <time>2018-11-29T09:39:46+0100</time>
      </trkpt>
      <trkpt lat="47.2448" lon="4.9652">
        <ele>362.07153320312</ele>
        <time>2018-11-29T09:39:49+0100</time>
      </trkpt>
      <trkpt lat="47.24477" lon="4.9652">
        <ele>362.15689086914</ele>
        <time>2018-11-29T09:39:52+0100</time>
      </trkpt>
      <trkpt lat="47.24475" lon="4.9652">
        <ele>362.20169067383</ele>
        <time>2018-11-29T09:39:55+0100</time>
      </trkpt>
      <trkpt lat="47.24474" lon="4.96522">
        <ele>362.35534667969</ele>
        <time>2018-11-29T09:39:58+0100</time>
      </trkpt>
      <trkpt lat="47.24473" lon="4.96523">
        <ele>362.49081420898</ele>
        <time>2018-11-29T09:40:01+0100</time>
      </trkpt>
      <trkpt lat="47.24467" lon="4.96525">
        <ele>362.60760498047</ele>
        <time>2018-11-29T09:40:04+0100</time>
      </trkpt>
      <trkpt lat="47.24462" lon="4.96525">
        <ele>362.55624389648</ele>
        <time>2018-11-29T09:40:07+0100</time>
      </trkpt>
      <trkpt lat="47.24458" lon="4.96528">
        <ele>362.40823364258</ele>
        <time>2018-11-29T09:40:10+0100</time>
      </trkpt>
      <trkpt lat="47.24453" lon="4.96528">
        <ele>362.24273681641</ele>
        <time>2018-11-29T09:40:13+0100</time>
      </trkpt>
      <trkpt lat="47.24449" lon="4.96529">
        <ele>362.11624145508</ele>
        <time>2018-11-29T09:40:16+0100</time>
      </trkpt>
      <trkpt lat="47.24443" lon="4.96528">
        <ele>361.88165283203</ele>
        <time>2018-11-29T09:40:19+0100</time>
      </trkpt>
      <trkpt lat="47.24441" lon="4.96527">
        <ele>361.74938964844</ele>
        <time>2018-11-29T09:40:22+0100</time>
      </trkpt>
      <trkpt lat="47.2444" lon="4.96525">
        <ele>361.45269775391</ele>
        <time>2018-11-29T09:40:25+0100</time>
      </trkpt>
      <trkpt lat="47.24439" lon="4.96524">
        <ele>361.27606201172</ele>
        <time>2018-11-29T09:40:28+0100</time>
      </trkpt>
      <trkpt lat="47.24436" lon="4.96524">
        <ele>361.16827392578</ele>
        <time>2018-11-29T09:40:31+0100</time>
      </trkpt>
      <trkpt lat="47.2443" lon="4.96522">
        <ele>361.02307128906</ele>
        <time>2018-11-29T09:40:34+0100</time>
      </trkpt>
      <trkpt lat="47.24427" lon="4.96521">
        <ele>360.85363769531</ele>
        <time>2018-11-29T09:40:37+0100</time>
      </trkpt>
      <trkpt lat="47.24425" lon="4.9652">
        <ele>360.70428466797</ele>
        <time>2018-11-29T09:40:40+0100</time>
      </trkpt>
      <trkpt lat="47.24423" lon="4.96521">
        <ele>360.63302612305</ele>
        <time>2018-11-29T09:40:43+0100</time>
      </trkpt>
      <trkpt lat="47.24423" lon="4.9652">
        <ele>360.68359375</ele>
        <time>2018-11-29T09:40:46+0100</time>
      </trkpt>
      <trkpt lat="47.24423" lon="4.96519">
        <ele>360.70883178711</ele>
        <time>2018-11-29T09:40:49+0100</time>
      </trkpt>
      <trkpt lat="47.24423" lon="4.96519">
        <ele>360.7399597168</ele>
        <time>2018-11-29T09:40:52+0100</time>
      </trkpt>
      <trkpt lat="47.24423" lon="4.96518">
        <ele>360.76916503906</ele>
        <time>2018-11-29T09:40:55+0100</time>
      </trkpt>
      <trkpt lat="47.24423" lon="4.96518">
        <ele>360.79708862305</ele>
        <time>2018-11-29T09:40:58+0100</time>
      </trkpt>
      <trkpt lat="47.24423" lon="4.96518">
        <ele>360.81539916992</ele>
        <time>2018-11-29T09:41:01+0100</time>
      </trkpt>
      <trkpt lat="47.24423" lon="4.96518">
        <ele>360.82229614258</ele>
        <time>2018-11-29T09:41:04+0100</time>
      </trkpt>
      <trkpt lat="47.24422" lon="4.96517">
        <ele>360.81280517578</ele>
        <time>2018-11-29T09:41:07+0100</time>
      </trkpt>
      <trkpt lat="47.24422" lon="4.96516">
        <ele>360.80615234375</ele>
        <time>2018-11-29T09:41:10+0100</time>
      </trkpt>
      <trkpt lat="47.24421" lon="4.96515">
        <ele>360.7922668457</ele>
        <time>2018-11-29T09:41:13+0100</time>
      </trkpt>
      <trkpt lat="47.24421" lon="4.96511">
        <ele>360.70303344727</ele>
        <time>2018-11-29T09:41:16+0100</time>
      </trkpt>
      <trkpt lat="47.24422" lon="4.9651">
        <ele>360.70693969727</ele>
        <time>2018-11-29T09:41:19+0100</time>
      </trkpt>
      <trkpt lat="47.24422" lon="4.9651">
        <ele>360.70971679688</ele>
        <time>2018-11-29T09:41:22+0100</time>
      </trkpt>
      <trkpt lat="47.24422" lon="4.9651">
        <ele>360.69250488281</ele>
        <time>2018-11-29T09:41:25+0100</time>
      </trkpt>
      <trkpt lat="47.24422" lon="4.9651">
        <ele>360.66329956055</ele>
        <time>2018-11-29T09:41:28+0100</time>
      </trkpt>
      <trkpt lat="47.24422" lon="4.96509">
        <ele>360.64727783203</ele>
        <time>2018-11-29T09:41:31+0100</time>
      </trkpt>
      <trkpt lat="47.24422" lon="4.96509">
        <ele>360.64727783203</ele>
        <time>2018-11-29T09:41:34+0100</time>
      </trkpt>
      <trkpt lat="47.24421" lon="4.96508">
        <ele>360.64532470703</ele>
        <time>2018-11-29T09:41:37+0100</time>
      </trkpt>
      <trkpt lat="47.2442" lon="4.96506">
        <ele>360.63128662109</ele>
        <time>2018-11-29T09:41:40+0100</time>
      </trkpt>
      <trkpt lat="47.24417" lon="4.96506">
        <ele>360.59188842773</ele>
        <time>2018-11-29T09:41:43+0100</time>
      </trkpt>
      <trkpt lat="47.24415" lon="4.96504">
        <ele>360.5436706543</ele>
        <time>2018-11-29T09:41:46+0100</time>
      </trkpt>
      <trkpt lat="47.24413" lon="4.96503">
        <ele>360.50360107422</ele>
        <time>2018-11-29T09:41:49+0100</time>
      </trkpt>
      <trkpt lat="47.24409" lon="4.96501">
        <ele>360.49365234375</ele>
        <time>2018-11-29T09:41:52+0100</time>
      </trkpt>
      <trkpt lat="47.24407" lon="4.96499">
        <ele>360.47741699219</ele>
        <time>2018-11-29T09:41:55+0100</time>
      </trkpt>
      <trkpt lat="47.24406" lon="4.96496">
        <ele>360.47094726562</ele>
        <time>2018-11-29T09:41:58+0100</time>
      </trkpt>
      <trkpt lat="47.24406" lon="4.96494">
        <ele>360.52502441406</ele>
        <time>2018-11-29T09:42:01+0100</time>
      </trkpt>
      <trkpt lat="47.24401" lon="4.9649">
        <ele>360.40573120117</ele>
        <time>2018-11-29T09:42:04+0100</time>
      </trkpt>
      <trkpt lat="47.244" lon="4.96488">
        <ele>360.29800415039</ele>
        <time>2018-11-29T09:42:07+0100</time>
      </trkpt>
      <trkpt lat="47.24397" lon="4.96487">
        <ele>360.22598266602</ele>
        <time>2018-11-29T09:42:10+0100</time>
      </trkpt>
      <trkpt lat="47.24394" lon="4.96485">
        <ele>360.08657836914</ele>
        <time>2018-11-29T09:42:13+0100</time>
      </trkpt>
      <trkpt lat="47.24393" lon="4.96484">
        <ele>359.966796875</ele>
        <time>2018-11-29T09:42:16+0100</time>
      </trkpt>
      <trkpt lat="47.2439" lon="4.96481">
        <ele>359.91427612305</ele>
        <time>2018-11-29T09:42:19+0100</time>
      </trkpt>
      <trkpt lat="47.24388" lon="4.9648">
        <ele>359.87979125977</ele>
        <time>2018-11-29T09:42:22+0100</time>
      </trkpt>
      <trkpt lat="47.24386" lon="4.96481">
        <ele>359.94808959961</ele>
        <time>2018-11-29T09:42:25+0100</time>
      </trkpt>
      <trkpt lat="47.24384" lon="4.96479">
        <ele>360.07485961914</ele>
        <time>2018-11-29T09:42:28+0100</time>
      </trkpt>
      <trkpt lat="47.24381" lon="4.96476">
        <ele>360.1828918457</ele>
        <time>2018-11-29T09:42:31+0100</time>
      </trkpt>
      <trkpt lat="47.24378" lon="4.96475">
        <ele>360.2321472168</ele>
        <time>2018-11-29T09:42:34+0100</time>
      </trkpt>
      <trkpt lat="47.24376" lon="4.96473">
        <ele>360.25579833984</ele>
        <time>2018-11-29T09:42:37+0100</time>
      </trkpt>
      <trkpt lat="47.24373" lon="4.96469">
        <ele>360.20013427734</ele>
        <time>2018-11-29T09:42:40+0100</time>
      </trkpt>
      <trkpt lat="47.24371" lon="4.96468">
        <ele>360.08795166016</ele>
        <time>2018-11-29T09:42:43+0100</time>
      </trkpt>
      <trkpt lat="47.2437" lon="4.96466">
        <ele>360.04876708984</ele>
        <time>2018-11-29T09:42:46+0100</time>
      </trkpt>
      <trkpt lat="47.24368" lon="4.96463">
        <ele>360.1296081543</ele>
        <time>2018-11-29T09:42:49+0100</time>
      </trkpt>
      <trkpt lat="47.24368" lon="4.96462">
        <ele>360.34573364258</ele>
        <time>2018-11-29T09:42:52+0100</time>
      </trkpt>
      <trkpt lat="47.24366" lon="4.96458">
        <ele>360.6321105957</ele>
        <time>2018-11-29T09:42:55+0100</time>
      </trkpt>
      <trkpt lat="47.24363" lon="4.96455">
        <ele>360.83740234375</ele>
        <time>2018-11-29T09:42:58+0100</time>
      </trkpt>
      <trkpt lat="47.24362" lon="4.96453">
        <ele>361.04431152344</ele>
        <time>2018-11-29T09:43:01+0100</time>
      </trkpt>
      <trkpt lat="47.24361" lon="4.96452">
        <ele>361.36447143555</ele>
        <time>2018-11-29T09:43:04+0100</time>
      </trkpt>
      <trkpt lat="47.2436" lon="4.96448">
        <ele>361.77893066406</ele>
        <time>2018-11-29T09:43:07+0100</time>
      </trkpt>
      <trkpt lat="47.24359" lon="4.96444">
        <ele>362.18414306641</ele>
        <time>2018-11-29T09:43:10+0100</time>
      </trkpt>
      <trkpt lat="47.24357" lon="4.9644">
        <ele>362.58676147461</ele>
        <time>2018-11-29T09:43:13+0100</time>
      </trkpt>
      <trkpt lat="47.24354" lon="4.96434">
        <ele>362.8459777832</ele>
        <time>2018-11-29T09:43:16+0100</time>
      </trkpt>
      <trkpt lat="47.24354" lon="4.96431">
        <ele>363.01480102539</ele>
        <time>2018-11-29T09:43:19+0100</time>
      </trkpt>
      <trkpt lat="47.24353" lon="4.96425">
        <ele>363.21704101562</ele>
        <time>2018-11-29T09:43:22+0100</time>
      </trkpt>
      <trkpt lat="47.24352" lon="4.9642">
        <ele>363.35052490234</ele>
        <time>2018-11-29T09:43:25+0100</time>
      </trkpt>
      <trkpt lat="47.24351" lon="4.96417">
        <ele>363.37512207031</ele>
        <time>2018-11-29T09:43:28+0100</time>
      </trkpt>
      <trkpt lat="47.24349" lon="4.96415">
        <ele>363.51556396484</ele>
        <time>2018-11-29T09:43:31+0100</time>
      </trkpt>
      <trkpt lat="47.24348" lon="4.96413">
        <ele>363.71459960938</ele>
        <time>2018-11-29T09:43:34+0100</time>
      </trkpt>
      <trkpt lat="47.24346" lon="4.96411">
        <ele>363.97497558594</ele>
        <time>2018-11-29T09:43:37+0100</time>
      </trkpt>
      <trkpt lat="47.24345" lon="4.9641">
        <ele>364.30841064453</ele>
        <time>2018-11-29T09:43:40+0100</time>
      </trkpt>
      <trkpt lat="47.24343" lon="4.96411">
        <ele>364.82412719727</ele>
        <time>2018-11-29T09:43:43+0100</time>
      </trkpt>
      <trkpt lat="47.24342" lon="4.9641">
        <ele>365.38772583008</ele>
        <time>2018-11-29T09:43:46+0100</time>
      </trkpt>
      <trkpt lat="47.24342" lon="4.9641">
        <ele>365.75888061523</ele>
        <time>2018-11-29T09:43:49+0100</time>
      </trkpt>
      <trkpt lat="47.24342" lon="4.96409">
        <ele>365.81939697266</ele>
        <time>2018-11-29T09:43:52+0100</time>
      </trkpt>
      <trkpt lat="47.24343" lon="4.96409">
        <ele>365.87799072266</ele>
        <time>2018-11-29T09:43:55+0100</time>
      </trkpt>
      <trkpt lat="47.24343" lon="4.96408">
        <ele>365.9289855957</ele>
        <time>2018-11-29T09:43:58+0100</time>
      </trkpt>
      <trkpt lat="47.24343" lon="4.96408">
        <ele>365.96838378906</ele>
        <time>2018-11-29T09:44:01+0100</time>
      </trkpt>
      <trkpt lat="47.24343" lon="4.96408">
        <ele>366.00036621094</ele>
        <time>2018-11-29T09:44:04+0100</time>
      </trkpt>
      <trkpt lat="47.24343" lon="4.96407">
        <ele>366.02865600586</ele>
        <time>2018-11-29T09:44:07+0100</time>
      </trkpt>
      <trkpt lat="47.24344" lon="4.96407">
        <ele>366.05981445312</ele>
        <time>2018-11-29T09:44:10+0100</time>
      </trkpt>
      <trkpt lat="47.24344" lon="4.96407">
        <ele>366.28079223633</ele>
        <time>2018-11-29T09:44:13+0100</time>
      </trkpt>
      <trkpt lat="47.24343" lon="4.96406">
        <ele>366.71005249023</ele>
        <time>2018-11-29T09:44:16+0100</time>
      </trkpt>
      <trkpt lat="47.24339" lon="4.96403">
        <ele>367.22338867188</ele>
        <time>2018-11-29T09:44:19+0100</time>
      </trkpt>
      <trkpt lat="47.24336" lon="4.96402">
        <ele>367.59008789062</ele>
        <time>2018-11-29T09:44:22+0100</time>
      </trkpt>
      <trkpt lat="47.24334" lon="4.96402">
        <ele>367.94338989258</ele>
        <time>2018-11-29T09:44:25+0100</time>
      </trkpt>
      <trkpt lat="47.24332" lon="4.96401">
        <ele>368.31369018555</ele>
        <time>2018-11-29T09:44:28+0100</time>
      </trkpt>
      <trkpt lat="47.2433" lon="4.96398">
        <ele>368.63470458984</ele>
        <time>2018-11-29T09:44:31+0100</time>
      </trkpt>
      <trkpt lat="47.24328" lon="4.96394">
        <ele>368.81298828125</ele>
        <time>2018-11-29T09:44:34+0100</time>
      </trkpt>
      <trkpt lat="47.24327" lon="4.96391">
        <ele>368.93124389648</ele>
        <time>2018-11-29T09:44:37+0100</time>
      </trkpt>
      <trkpt lat="47.24326" lon="4.96391">
        <ele>369.08544921875</ele>
        <time>2018-11-29T09:44:40+0100</time>
      </trkpt>
      <trkpt lat="47.24324" lon="4.96384">
        <ele>369.19763183594</ele>
        <time>2018-11-29T09:44:43+0100</time>
      </trkpt>
      <trkpt lat="47.24321" lon="4.96382">
        <ele>369.26651000977</ele>
        <time>2018-11-29T09:44:46+0100</time>
      </trkpt>
      <trkpt lat="47.24318" lon="4.96379">
        <ele>369.33056640625</ele>
        <time>2018-11-29T09:44:49+0100</time>
      </trkpt>
      <trkpt lat="47.24317" lon="4.96376">
        <ele>369.50152587891</ele>
        <time>2018-11-29T09:44:52+0100</time>
      </trkpt>
      <trkpt lat="47.24315" lon="4.96373">
        <ele>369.69879150391</ele>
        <time>2018-11-29T09:44:55+0100</time>
      </trkpt>
      <trkpt lat="47.24314" lon="4.9637">
        <ele>369.91101074219</ele>
        <time>2018-11-29T09:44:58+0100</time>
      </trkpt>
      <trkpt lat="47.24312" lon="4.96367">
        <ele>370.13534545898</ele>
        <time>2018-11-29T09:45:01+0100</time>
      </trkpt>
      <trkpt lat="47.2431" lon="4.96363">
        <ele>370.35925292969</ele>
        <time>2018-11-29T09:45:04+0100</time>
      </trkpt>
      <trkpt lat="47.24309" lon="4.96362">
        <ele>370.57083129883</ele>
        <time>2018-11-29T09:45:07+0100</time>
      </trkpt>
      <trkpt lat="47.24309" lon="4.96361">
        <ele>370.82647705078</ele>
        <time>2018-11-29T09:45:10+0100</time>
      </trkpt>
      <trkpt lat="47.24308" lon="4.96361">
        <ele>371.18438720703</ele>
        <time>2018-11-29T09:45:13+0100</time>
      </trkpt>
      <trkpt lat="47.24308" lon="4.96358">
        <ele>371.57290649414</ele>
        <time>2018-11-29T09:45:16+0100</time>
      </trkpt>
      <trkpt lat="47.24308" lon="4.96356">
        <ele>371.71881103516</ele>
        <time>2018-11-29T09:45:19+0100</time>
      </trkpt>
      <trkpt lat="47.24306" lon="4.96354">
        <ele>371.86663818359</ele>
        <time>2018-11-29T09:45:22+0100</time>
      </trkpt>
      <trkpt lat="47.24304" lon="4.96354">
        <ele>372.02490234375</ele>
        <time>2018-11-29T09:45:25+0100</time>
      </trkpt>
      <trkpt lat="47.24301" lon="4.96352">
        <ele>372.06567382812</ele>
        <time>2018-11-29T09:45:28+0100</time>
      </trkpt>
      <trkpt lat="47.243" lon="4.96351">
        <ele>372.14099121094</ele>
        <time>2018-11-29T09:45:31+0100</time>
      </trkpt>
      <trkpt lat="47.24298" lon="4.96351">
        <ele>372.24822998047</ele>
        <time>2018-11-29T09:45:34+0100</time>
      </trkpt>
      <trkpt lat="47.24296" lon="4.96354">
        <ele>372.47589111328</ele>
        <time>2018-11-29T09:45:37+0100</time>
      </trkpt>
      <trkpt lat="47.24291" lon="4.96354">
        <ele>372.69052124023</ele>
        <time>2018-11-29T09:45:40+0100</time>
      </trkpt>
      <trkpt lat="47.24287" lon="4.96355">
        <ele>372.74954223633</ele>
        <time>2018-11-29T09:45:43+0100</time>
      </trkpt>
      <trkpt lat="47.24285" lon="4.96354">
        <ele>372.68768310547</ele>
        <time>2018-11-29T09:45:46+0100</time>
      </trkpt>
      <trkpt lat="47.24283" lon="4.96355">
        <ele>372.60272216797</ele>
        <time>2018-11-29T09:45:49+0100</time>
      </trkpt>
      <trkpt lat="47.24282" lon="4.96356">
        <ele>372.54080200195</ele>
        <time>2018-11-29T09:45:52+0100</time>
      </trkpt>
      <trkpt lat="47.24279" lon="4.96356">
        <ele>372.46255493164</ele>
        <time>2018-11-29T09:45:55+0100</time>
      </trkpt>
      <trkpt lat="47.24278" lon="4.96356">
        <ele>372.33135986328</ele>
        <time>2018-11-29T09:45:58+0100</time>
      </trkpt>
      <trkpt lat="47.24275" lon="4.96356">
        <ele>372.16540527344</ele>
        <time>2018-11-29T09:46:01+0100</time>
      </trkpt>
      <trkpt lat="47.24273" lon="4.96358">
        <ele>371.95251464844</ele>
        <time>2018-11-29T09:46:04+0100</time>
      </trkpt>
      <trkpt lat="47.24272" lon="4.96358">
        <ele>371.83309936523</ele>
        <time>2018-11-29T09:46:07+0100</time>
      </trkpt>
      <trkpt lat="47.2427" lon="4.9636">
        <ele>371.60498046875</ele>
        <time>2018-11-29T09:46:10+0100</time>
      </trkpt>
      <trkpt lat="47.24263" lon="4.96362">
        <ele>371.2414855957</ele>
        <time>2018-11-29T09:46:13+0100</time>
      </trkpt>
      <trkpt lat="47.24259" lon="4.96363">
        <ele>370.77606201172</ele>
        <time>2018-11-29T09:46:16+0100</time>
      </trkpt>
      <trkpt lat="47.24256" lon="4.9636">
        <ele>370.32214355469</ele>
        <time>2018-11-29T09:46:19+0100</time>
      </trkpt>
      <trkpt lat="47.24255" lon="4.96358">
        <ele>369.86871337891</ele>
        <time>2018-11-29T09:46:22+0100</time>
      </trkpt>
      <trkpt lat="47.24253" lon="4.96356">
        <ele>369.5022277832</ele>
        <time>2018-11-29T09:46:25+0100</time>
      </trkpt>
      <trkpt lat="47.24248" lon="4.96354">
        <ele>369.20126342773</ele>
        <time>2018-11-29T09:46:28+0100</time>
      </trkpt>
      <trkpt lat="47.24245" lon="4.96352">
        <ele>368.87719726562</ele>
        <time>2018-11-29T09:46:31+0100</time>
      </trkpt>
      <trkpt lat="47.24242" lon="4.96351">
        <ele>368.58493041992</ele>
        <time>2018-11-29T09:46:34+0100</time>
      </trkpt>
      <trkpt lat="47.2424" lon="4.96351">
        <ele>368.35568237305</ele>
        <time>2018-11-29T09:46:37+0100</time>
      </trkpt>
      <trkpt lat="47.24238" lon="4.9635">
        <ele>368.17098999023</ele>
        <time>2018-11-29T09:46:40+0100</time>
      </trkpt>
      <trkpt lat="47.24236" lon="4.96349">
        <ele>368.07055664062</ele>
        <time>2018-11-29T09:46:43+0100</time>
      </trkpt>
      <trkpt lat="47.24234" lon="4.96345">
        <ele>368.04397583008</ele>
        <time>2018-11-29T09:46:46+0100</time>
      </trkpt>
      <trkpt lat="47.24235" lon="4.96345">
        <ele>368.01361083984</ele>
        <time>2018-11-29T09:46:49+0100</time>
      </trkpt>
      <trkpt lat="47.24233" lon="4.96344">
        <ele>368.00128173828</ele>
        <time>2018-11-29T09:46:52+0100</time>
      </trkpt>
      <trkpt lat="47.24232" lon="4.96344">
        <ele>367.98052978516</ele>
        <time>2018-11-29T09:46:55+0100</time>
      </trkpt>
      <trkpt lat="47.2423" lon="4.96344">
        <ele>367.87844848633</ele>
        <time>2018-11-29T09:46:58+0100</time>
      </trkpt>
      <trkpt lat="47.24228" lon="4.96345">
        <ele>367.83624267578</ele>
        <time>2018-11-29T09:47:01+0100</time>
      </trkpt>
      <trkpt lat="47.24227" lon="4.96344">
        <ele>367.79537963867</ele>
        <time>2018-11-29T09:47:04+0100</time>
      </trkpt>
      <trkpt lat="47.24225" lon="4.96343">
        <ele>367.77813720703</ele>
        <time>2018-11-29T09:47:07+0100</time>
      </trkpt>
      <trkpt lat="47.24224" lon="4.96342">
        <ele>367.75119018555</ele>
        <time>2018-11-29T09:47:10+0100</time>
      </trkpt>
      <trkpt lat="47.24222" lon="4.96338">
        <ele>367.75643920898</ele>
        <time>2018-11-29T09:47:13+0100</time>
      </trkpt>
      <trkpt lat="47.24219" lon="4.96336">
        <ele>367.74136352539</ele>
        <time>2018-11-29T09:47:16+0100</time>
      </trkpt>
      <trkpt lat="47.24218" lon="4.96334">
        <ele>367.70471191406</ele>
        <time>2018-11-29T09:47:19+0100</time>
      </trkpt>
      <trkpt lat="47.24214" lon="4.96332">
        <ele>367.65390014648</ele>
        <time>2018-11-29T09:47:22+0100</time>
      </trkpt>
      <trkpt lat="47.24209" lon="4.96331">
        <ele>367.47271728516</ele>
        <time>2018-11-29T09:47:25+0100</time>
      </trkpt>
      <trkpt lat="47.24206" lon="4.96331">
        <ele>367.20571899414</ele>
        <time>2018-11-29T09:47:28+0100</time>
      </trkpt>
      <trkpt lat="47.24203" lon="4.96333">
        <ele>366.99478149414</ele>
        <time>2018-11-29T09:47:31+0100</time>
      </trkpt>
      <trkpt lat="47.24201" lon="4.96334">
        <ele>367.00881958008</ele>
        <time>2018-11-29T09:47:34+0100</time>
      </trkpt>
      <trkpt lat="47.24197" lon="4.96335">
        <ele>367.09671020508</ele>
        <time>2018-11-29T09:47:37+0100</time>
      </trkpt>
      <trkpt lat="47.24193" lon="4.96335">
        <ele>367.19155883789</ele>
        <time>2018-11-29T09:47:40+0100</time>
      </trkpt>
      <trkpt lat="47.24192" lon="4.96333">
        <ele>367.30224609375</ele>
        <time>2018-11-29T09:47:43+0100</time>
      </trkpt>
      <trkpt lat="47.24187" lon="4.96331">
        <ele>367.32086181641</ele>
        <time>2018-11-29T09:47:46+0100</time>
      </trkpt>
      <trkpt lat="47.24182" lon="4.96328">
        <ele>367.23907470703</ele>
        <time>2018-11-29T09:47:48+0100</time>
      </trkpt>
      <trkpt lat="47.24178" lon="4.96325">
        <ele>366.9748840332</ele>
        <time>2018-11-29T09:47:51+0100</time>
      </trkpt>
      <trkpt lat="47.24176" lon="4.96324">
        <ele>366.73275756836</ele>
        <time>2018-11-29T09:47:54+0100</time>
      </trkpt>
      <trkpt lat="47.24172" lon="4.96324">
        <ele>366.45837402344</ele>
        <time>2018-11-29T09:47:57+0100</time>
      </trkpt>
      <trkpt lat="47.24168" lon="4.96323">
        <ele>366.17300415039</ele>
        <time>2018-11-29T09:48:00+0100</time>
      </trkpt>
      <trkpt lat="47.24165" lon="4.96322">
        <ele>365.93963623047</ele>
        <time>2018-11-29T09:48:03+0100</time>
      </trkpt>
      <trkpt lat="47.24161" lon="4.96321">
        <ele>365.64559936523</ele>
        <time>2018-11-29T09:48:06+0100</time>
      </trkpt>
      <trkpt lat="47.24157" lon="4.96319">
        <ele>365.4065246582</ele>
        <time>2018-11-29T09:48:09+0100</time>
      </trkpt>
      <trkpt lat="47.24157" lon="4.96319">
        <ele>365.30410766602</ele>
        <time>2018-11-29T09:48:12+0100</time>
      </trkpt>
      <trkpt lat="47.24156" lon="4.96315">
        <ele>365.25408935547</ele>
        <time>2018-11-29T09:48:15+0100</time>
      </trkpt>
      <trkpt lat="47.24153" lon="4.96311">
        <ele>365.00372314453</ele>
        <time>2018-11-29T09:48:18+0100</time>
      </trkpt>
      <trkpt lat="47.24151" lon="4.96309">
        <ele>364.72689819336</ele>
        <time>2018-11-29T09:48:21+0100</time>
      </trkpt>
      <trkpt lat="47.24151" lon="4.96307">
        <ele>364.62759399414</ele>
        <time>2018-11-29T09:48:24+0100</time>
      </trkpt>
      <trkpt lat="47.24151" lon="4.96306">
        <ele>364.56524658203</ele>
        <time>2018-11-29T09:48:27+0100</time>
      </trkpt>
      <trkpt lat="47.24152" lon="4.96305">
        <ele>364.44570922852</ele>
        <time>2018-11-29T09:48:30+0100</time>
      </trkpt>
      <trkpt lat="47.24152" lon="4.96303">
        <ele>364.37319946289</ele>
        <time>2018-11-29T09:48:33+0100</time>
      </trkpt>
      <trkpt lat="47.24151" lon="4.96302">
        <ele>364.45666503906</ele>
        <time>2018-11-29T09:48:36+0100</time>
      </trkpt>
      <trkpt lat="47.2415" lon="4.96299">
        <ele>364.64276123047</ele>
        <time>2018-11-29T09:48:39+0100</time>
      </trkpt>
      <trkpt lat="47.24149" lon="4.96298">
        <ele>364.90588378906</ele>
        <time>2018-11-29T09:48:42+0100</time>
      </trkpt>
      <trkpt lat="47.24148" lon="4.96294">
        <ele>365.15982055664</ele>
        <time>2018-11-29T09:48:45+0100</time>
      </trkpt>
      <trkpt lat="47.24147" lon="4.96293">
        <ele>365.4384765625</ele>
        <time>2018-11-29T09:48:48+0100</time>
      </trkpt>
      <trkpt lat="47.24145" lon="4.96291">
        <ele>365.75231933594</ele>
        <time>2018-11-29T09:48:51+0100</time>
      </trkpt>
      <trkpt lat="47.24144" lon="4.96289">
        <ele>366.17095947266</ele>
        <time>2018-11-29T09:48:54+0100</time>
      </trkpt>
      <trkpt lat="47.24143" lon="4.96287">
        <ele>366.6692199707</ele>
        <time>2018-11-29T09:48:57+0100</time>
      </trkpt>
      <trkpt lat="47.24145" lon="4.96287">
        <ele>367.25262451172</ele>
        <time>2018-11-29T09:49:00+0100</time>
      </trkpt>
      <trkpt lat="47.24144" lon="4.96284">
        <ele>367.66430664062</ele>
        <time>2018-11-29T09:49:03+0100</time>
      </trkpt>
      <trkpt lat="47.24142" lon="4.96281">
        <ele>368.18173217773</ele>
        <time>2018-11-29T09:49:06+0100</time>
      </trkpt>
      <trkpt lat="47.2414" lon="4.96275">
        <ele>368.58258056641</ele>
        <time>2018-11-29T09:49:09+0100</time>
      </trkpt>
      <trkpt lat="47.24139" lon="4.9627">
        <ele>368.97436523438</ele>
        <time>2018-11-29T09:49:12+0100</time>
      </trkpt>
      <trkpt lat="47.24139" lon="4.96262">
        <ele>369.28399658203</ele>
        <time>2018-11-29T09:49:15+0100</time>
      </trkpt>
      <trkpt lat="47.24138" lon="4.96258">
        <ele>369.45642089844</ele>
        <time>2018-11-29T09:49:18+0100</time>
      </trkpt>
      <trkpt lat="47.24137" lon="4.96253">
        <ele>369.48880004883</ele>
        <time>2018-11-29T09:49:21+0100</time>
      </trkpt>
      <trkpt lat="47.24135" lon="4.96249">
        <ele>369.35977172852</ele>
        <time>2018-11-29T09:49:24+0100</time>
      </trkpt>
      <trkpt lat="47.24133" lon="4.96247">
        <ele>369.2265625</ele>
        <time>2018-11-29T09:49:27+0100</time>
      </trkpt>
      <trkpt lat="47.24133" lon="4.96246">
        <ele>369.12310791016</ele>
        <time>2018-11-29T09:49:30+0100</time>
      </trkpt>
      <trkpt lat="47.24133" lon="4.96243">
        <ele>369.14984130859</ele>
        <time>2018-11-29T09:49:33+0100</time>
      </trkpt>
      <trkpt lat="47.24133" lon="4.96241">
        <ele>369.25765991211</ele>
        <time>2018-11-29T09:49:36+0100</time>
      </trkpt>
      <trkpt lat="47.24133" lon="4.9624">
        <ele>369.55975341797</ele>
        <time>2018-11-29T09:49:39+0100</time>
      </trkpt>
      <trkpt lat="47.24133" lon="4.96239">
        <ele>369.60647583008</ele>
        <time>2018-11-29T09:49:42+0100</time>
      </trkpt>
      <trkpt lat="47.24134" lon="4.96236">
        <ele>370.17398071289</ele>
        <time>2018-11-29T09:49:45+0100</time>
      </trkpt>
      <trkpt lat="47.24135" lon="4.96235">
        <ele>370.82009887695</ele>
        <time>2018-11-29T09:49:48+0100</time>
      </trkpt>
      <trkpt lat="47.24135" lon="4.96231">
        <ele>371.25482177734</ele>
        <time>2018-11-29T09:49:51+0100</time>
      </trkpt>
      <trkpt lat="47.24135" lon="4.9623">
        <ele>371.69137573242</ele>
        <time>2018-11-29T09:49:54+0100</time>
      </trkpt>
      <trkpt lat="47.24135" lon="4.96225">
        <ele>372.07595825195</ele>
        <time>2018-11-29T09:49:57+0100</time>
      </trkpt>
      <trkpt lat="47.24136" lon="4.96216">
        <ele>372.44906616211</ele>
        <time>2018-11-29T09:50:00+0100</time>
      </trkpt>
      <trkpt lat="47.24136" lon="4.96204">
        <ele>372.58645629883</ele>
        <time>2018-11-29T09:50:03+0100</time>
      </trkpt>
      <trkpt lat="47.24134" lon="4.96207">
        <ele>372.58651733398</ele>
        <time>2018-11-29T09:50:06+0100</time>
      </trkpt>
      <trkpt lat="47.24133" lon="4.96199">
        <ele>372.54400634766</ele>
        <time>2018-11-29T09:50:09+0100</time>
      </trkpt>
      <trkpt lat="47.24129" lon="4.9619">
        <ele>372.21319580078</ele>
        <time>2018-11-29T09:50:12+0100</time>
      </trkpt>
      <trkpt lat="47.24126" lon="4.9618">
        <ele>371.5915222168</ele>
        <time>2018-11-29T09:50:15+0100</time>
      </trkpt>
      <trkpt lat="47.24128" lon="4.96181">
        <ele>371.2353515625</ele>
        <time>2018-11-29T09:50:18+0100</time>
      </trkpt>
      <trkpt lat="47.24128" lon="4.96183">
        <ele>371.00936889648</ele>
        <time>2018-11-29T09:50:21+0100</time>
      </trkpt>
      <trkpt lat="47.24127" lon="4.96185">
        <ele>370.91555786133</ele>
        <time>2018-11-29T09:50:24+0100</time>
      </trkpt>
      <trkpt lat="47.24126" lon="4.96184">
        <ele>370.8362121582</ele>
        <time>2018-11-29T09:50:27+0100</time>
      </trkpt>
      <trkpt lat="47.24125" lon="4.9618">
        <ele>370.89123535156</ele>
        <time>2018-11-29T09:50:30+0100</time>
      </trkpt>
      <trkpt lat="47.24125" lon="4.96179">
        <ele>370.9306640625</ele>
        <time>2018-11-29T09:50:33+0100</time>
      </trkpt>
      <trkpt lat="47.24124" lon="4.96174">
        <ele>370.94903564453</ele>
        <time>2018-11-29T09:50:36+0100</time>
      </trkpt>
      <trkpt lat="47.24121" lon="4.96168">
        <ele>370.8235168457</ele>
        <time>2018-11-29T09:50:39+0100</time>
      </trkpt>
      <trkpt lat="47.2412" lon="4.96165">
        <ele>370.64099121094</ele>
        <time>2018-11-29T09:50:42+0100</time>
      </trkpt>
      <trkpt lat="47.24118" lon="4.96159">
        <ele>370.46801757812</ele>
        <time>2018-11-29T09:50:45+0100</time>
      </trkpt>
      <trkpt lat="47.24117" lon="4.96153">
        <ele>370.41024780273</ele>
        <time>2018-11-29T09:50:48+0100</time>
      </trkpt>
      <trkpt lat="47.24117" lon="4.96152">
        <ele>370.36764526367</ele>
        <time>2018-11-29T09:50:51+0100</time>
      </trkpt>
      <trkpt lat="47.24117" lon="4.96148">
        <ele>370.29415893555</ele>
        <time>2018-11-29T09:50:54+0100</time>
      </trkpt>
      <trkpt lat="47.24117" lon="4.96147">
        <ele>370.31024169922</ele>
        <time>2018-11-29T09:50:57+0100</time>
      </trkpt>
      <trkpt lat="47.24114" lon="4.96143">
        <ele>370.30407714844</ele>
        <time>2018-11-29T09:51:00+0100</time>
      </trkpt>
      <trkpt lat="47.24114" lon="4.96135">
        <ele>370.24447631836</ele>
        <time>2018-11-29T09:51:03+0100</time>
      </trkpt>
      <trkpt lat="47.24113" lon="4.96131">
        <ele>370.21905517578</ele>
        <time>2018-11-29T09:51:06+0100</time>
      </trkpt>
      <trkpt lat="47.24113" lon="4.96127">
        <ele>370.06881713867</ele>
        <time>2018-11-29T09:51:09+0100</time>
      </trkpt>
      <trkpt lat="47.2411" lon="4.9612">
        <ele>369.82974243164</ele>
        <time>2018-11-29T09:51:12+0100</time>
      </trkpt>
      <trkpt lat="47.24108" lon="4.96117">
        <ele>369.57647705078</ele>
        <time>2018-11-29T09:51:15+0100</time>
      </trkpt>
      <trkpt lat="47.24107" lon="4.96116">
        <ele>369.34423828125</ele>
        <time>2018-11-29T09:51:18+0100</time>
      </trkpt>
      <trkpt lat="47.24103" lon="4.96108">
        <ele>369.16131591797</ele>
        <time>2018-11-29T09:51:21+0100</time>
      </trkpt>
      <trkpt lat="47.24103" lon="4.96105">
        <ele>369.09030151367</ele>
        <time>2018-11-29T09:51:24+0100</time>
      </trkpt>
      <trkpt lat="47.24103" lon="4.96102">
        <ele>368.95648193359</ele>
        <time>2018-11-29T09:51:27+0100</time>
      </trkpt>
      <trkpt lat="47.24102" lon="4.96097">
        <ele>368.90002441406</ele>
        <time>2018-11-29T09:51:30+0100</time>
      </trkpt>
      <trkpt lat="47.24101" lon="4.96093">
        <ele>368.76440429688</ele>
        <time>2018-11-29T09:51:33+0100</time>
      </trkpt>
      <trkpt lat="47.24101" lon="4.96092">
        <ele>368.71325683594</ele>
        <time>2018-11-29T09:51:36+0100</time>
      </trkpt>
      <trkpt lat="47.24101" lon="4.9609">
        <ele>368.76568603516</ele>
        <time>2018-11-29T09:51:39+0100</time>
      </trkpt>
      <trkpt lat="47.241" lon="4.96082">
        <ele>368.78256225586</ele>
        <time>2018-11-29T09:51:42+0100</time>
      </trkpt>
      <trkpt lat="47.24099" lon="4.96078">
        <ele>368.76364135742</ele>
        <time>2018-11-29T09:51:45+0100</time>
      </trkpt>
      <trkpt lat="47.241" lon="4.96073">
        <ele>368.69152832031</ele>
        <time>2018-11-29T09:51:48+0100</time>
      </trkpt>
      <trkpt lat="47.24101" lon="4.96065">
        <ele>368.50680541992</ele>
        <time>2018-11-29T09:51:51+0100</time>
      </trkpt>
      <trkpt lat="47.24101" lon="4.96061">
        <ele>368.28643798828</ele>
        <time>2018-11-29T09:51:54+0100</time>
      </trkpt>
      <trkpt lat="47.24101" lon="4.96058">
        <ele>368.10339355469</ele>
        <time>2018-11-29T09:51:57+0100</time>
      </trkpt>
      <trkpt lat="47.241" lon="4.96057">
        <ele>368.01712036133</ele>
        <time>2018-11-29T09:52:00+0100</time>
      </trkpt>
      <trkpt lat="47.241" lon="4.96054">
        <ele>367.97409057617</ele>
        <time>2018-11-29T09:52:03+0100</time>
      </trkpt>
      <trkpt lat="47.24098" lon="4.9605">
        <ele>367.9938659668</ele>
        <time>2018-11-29T09:52:06+0100</time>
      </trkpt>
      <trkpt lat="47.24097" lon="4.96045">
        <ele>368.04690551758</ele>
        <time>2018-11-29T09:52:09+0100</time>
      </trkpt>
      <trkpt lat="47.24097" lon="4.96038">
        <ele>368.00598144531</ele>
        <time>2018-11-29T09:52:12+0100</time>
      </trkpt>
      <trkpt lat="47.24096" lon="4.96033">
        <ele>367.9612121582</ele>
        <time>2018-11-29T09:52:15+0100</time>
      </trkpt>
      <trkpt lat="47.24095" lon="4.96029">
        <ele>367.87640380859</ele>
        <time>2018-11-29T09:52:18+0100</time>
      </trkpt>
      <trkpt lat="47.24094" lon="4.96024">
        <ele>367.70745849609</ele>
        <time>2018-11-29T09:52:21+0100</time>
      </trkpt>
      <trkpt lat="47.24093" lon="4.9602">
        <ele>367.58731079102</ele>
        <time>2018-11-29T09:52:24+0100</time>
      </trkpt>
      <trkpt lat="47.24091" lon="4.96016">
        <ele>367.4169921875</ele>
        <time>2018-11-29T09:52:27+0100</time>
      </trkpt>
      <trkpt lat="47.24091" lon="4.96012">
        <ele>367.19158935547</ele>
        <time>2018-11-29T09:52:30+0100</time>
      </trkpt>
      <trkpt lat="47.2409" lon="4.96006">
        <ele>366.8551940918</ele>
        <time>2018-11-29T09:52:33+0100</time>
      </trkpt>
      <trkpt lat="47.2409" lon="4.96003">
        <ele>366.61682128906</ele>
        <time>2018-11-29T09:52:36+0100</time>
      </trkpt>
      <trkpt lat="47.24091" lon="4.95997">
        <ele>366.24114990234</ele>
        <time>2018-11-29T09:52:39+0100</time>
      </trkpt>
      <trkpt lat="47.24091" lon="4.95993">
        <ele>365.85171508789</ele>
        <time>2018-11-29T09:52:42+0100</time>
      </trkpt>
      <trkpt lat="47.24092" lon="4.95989">
        <ele>365.49978637695</ele>
        <time>2018-11-29T09:52:45+0100</time>
      </trkpt>
      <trkpt lat="47.24092" lon="4.95987">
        <ele>365.39880371094</ele>
        <time>2018-11-29T09:52:48+0100</time>
      </trkpt>
      <trkpt lat="47.24092" lon="4.95985">
        <ele>365.28750610352</ele>
        <time>2018-11-29T09:52:51+0100</time>
      </trkpt>
      <trkpt lat="47.24092" lon="4.95979">
        <ele>365.23788452148</ele>
        <time>2018-11-29T09:52:54+0100</time>
      </trkpt>
      <trkpt lat="47.2409" lon="4.95973">
        <ele>365.06506347656</ele>
        <time>2018-11-29T09:52:57+0100</time>
      </trkpt>
      <trkpt lat="47.24087" lon="4.95968">
        <ele>364.76498413086</ele>
        <time>2018-11-29T09:53:00+0100</time>
      </trkpt>
      <trkpt lat="47.24088" lon="4.95966">
        <ele>364.54052734375</ele>
        <time>2018-11-29T09:53:03+0100</time>
      </trkpt>
      <trkpt lat="47.24088" lon="4.95966">
        <ele>364.50445556641</ele>
        <time>2018-11-29T09:53:06+0100</time>
      </trkpt>
      <trkpt lat="47.24088" lon="4.95965">
        <ele>364.56610107422</ele>
        <time>2018-11-29T09:53:09+0100</time>
      </trkpt>
      <trkpt lat="47.24088" lon="4.95961">
        <ele>364.8154296875</ele>
        <time>2018-11-29T09:53:12+0100</time>
      </trkpt>
      <trkpt lat="47.24088" lon="4.95958">
        <ele>365.19143676758</ele>
        <time>2018-11-29T09:53:15+0100</time>
      </trkpt>
      <trkpt lat="47.24088" lon="4.95952">
        <ele>365.53338623047</ele>
        <time>2018-11-29T09:53:18+0100</time>
      </trkpt>
      <trkpt lat="47.2409" lon="4.95948">
        <ele>365.84393310547</ele>
        <time>2018-11-29T09:53:21+0100</time>
      </trkpt>
      <trkpt lat="47.24093" lon="4.95946">
        <ele>366.21740722656</ele>
        <time>2018-11-29T09:53:24+0100</time>
      </trkpt>
      <trkpt lat="47.24093" lon="4.95945">
        <ele>366.39144897461</ele>
        <time>2018-11-29T09:53:27+0100</time>
      </trkpt>
      <trkpt lat="47.24095" lon="4.9594">
        <ele>366.43579101562</ele>
        <time>2018-11-29T09:53:30+0100</time>
      </trkpt>
      <trkpt lat="47.24096" lon="4.95933">
        <ele>366.66592407227</ele>
        <time>2018-11-29T09:53:33+0100</time>
      </trkpt>
      <trkpt lat="47.24098" lon="4.95921">
        <ele>366.72705078125</ele>
        <time>2018-11-29T09:53:36+0100</time>
      </trkpt>
      <trkpt lat="47.24099" lon="4.95914">
        <ele>366.72106933594</ele>
        <time>2018-11-29T09:53:39+0100</time>
      </trkpt>
      <trkpt lat="47.24099" lon="4.95914">
        <ele>366.70764160156</ele>
        <time>2018-11-29T09:53:42+0100</time>
      </trkpt>
      <trkpt lat="47.241" lon="4.95914">
        <ele>366.70977783203</ele>
        <time>2018-11-29T09:53:45+0100</time>
      </trkpt>
      <trkpt lat="47.241" lon="4.95914">
        <ele>366.72329711914</ele>
        <time>2018-11-29T09:53:48+0100</time>
      </trkpt>
      <trkpt lat="47.241" lon="4.95914">
        <ele>366.73556518555</ele>
        <time>2018-11-29T09:53:51+0100</time>
      </trkpt>
      <trkpt lat="47.241" lon="4.95914">
        <ele>366.72924804688</ele>
        <time>2018-11-29T09:53:54+0100</time>
      </trkpt>
      <trkpt lat="47.24101" lon="4.95914">
        <ele>366.71334838867</ele>
        <time>2018-11-29T09:53:57+0100</time>
      </trkpt>
      <trkpt lat="47.24101" lon="4.95914">
        <ele>366.71453857422</ele>
        <time>2018-11-29T09:54:00+0100</time>
      </trkpt>
      <trkpt lat="47.24101" lon="4.95913">
        <ele>366.71881103516</ele>
        <time>2018-11-29T09:54:03+0100</time>
      </trkpt>
      <trkpt lat="47.241" lon="4.95911">
        <ele>366.61859130859</ele>
        <time>2018-11-29T09:54:06+0100</time>
      </trkpt>
      <trkpt lat="47.24099" lon="4.95909">
        <ele>366.57116699219</ele>
        <time>2018-11-29T09:54:09+0100</time>
      </trkpt>
      <trkpt lat="47.241" lon="4.95908">
        <ele>366.52691650391</ele>
        <time>2018-11-29T09:54:12+0100</time>
      </trkpt>
      <trkpt lat="47.24101" lon="4.95908">
        <ele>366.47946166992</ele>
        <time>2018-11-29T09:54:15+0100</time>
      </trkpt>
      <trkpt lat="47.24101" lon="4.95907">
        <ele>366.43591308594</ele>
        <time>2018-11-29T09:54:18+0100</time>
      </trkpt>
      <trkpt lat="47.24101" lon="4.95906">
        <ele>366.44393920898</ele>
        <time>2018-11-29T09:54:21+0100</time>
      </trkpt>
      <trkpt lat="47.24101" lon="4.95904">
        <ele>366.55639648438</ele>
        <time>2018-11-29T09:54:24+0100</time>
      </trkpt>
      <trkpt lat="47.241" lon="4.95903">
        <ele>366.63174438477</ele>
        <time>2018-11-29T09:54:27+0100</time>
      </trkpt>
      <trkpt lat="47.241" lon="4.95903">
        <ele>366.69122314453</ele>
        <time>2018-11-29T09:54:30+0100</time>
      </trkpt>
      <trkpt lat="47.241" lon="4.95904">
        <ele>367.0475769043</ele>
        <time>2018-11-29T09:54:33+0100</time>
      </trkpt>
      <trkpt lat="47.24099" lon="4.95903">
        <ele>367.3567199707</ele>
        <time>2018-11-29T09:54:36+0100</time>
      </trkpt>
      <trkpt lat="47.24098" lon="4.95902">
        <ele>367.49337768555</ele>
        <time>2018-11-29T09:54:39+0100</time>
      </trkpt>
      <trkpt lat="47.24097" lon="4.95903">
        <ele>367.75787353516</ele>
        <time>2018-11-29T09:54:42+0100</time>
      </trkpt>
      <trkpt lat="47.24097" lon="4.95906">
        <ele>367.88024902344</ele>
        <time>2018-11-29T09:54:45+0100</time>
      </trkpt>
      <trkpt lat="47.24096" lon="4.95909">
        <ele>367.9453125</ele>
        <time>2018-11-29T09:54:48+0100</time>
      </trkpt>
      <trkpt lat="47.24096" lon="4.95912">
        <ele>368.04354858398</ele>
        <time>2018-11-29T09:54:51+0100</time>
      </trkpt>
      <trkpt lat="47.24095" lon="4.95916">
        <ele>368.16207885742</ele>
        <time>2018-11-29T09:54:54+0100</time>
      </trkpt>
      <trkpt lat="47.24094" lon="4.95919">
        <ele>368.25137329102</ele>
        <time>2018-11-29T09:54:57+0100</time>
      </trkpt>
      <trkpt lat="47.2409" lon="4.95924">
        <ele>368.1545715332</ele>
        <time>2018-11-29T09:55:00+0100</time>
      </trkpt>
      <trkpt lat="47.24089" lon="4.95926">
        <ele>367.79641723633</ele>
        <time>2018-11-29T09:55:03+0100</time>
      </trkpt>
      <trkpt lat="47.24088" lon="4.9593">
        <ele>367.48681640625</ele>
        <time>2018-11-29T09:55:06+0100</time>
      </trkpt>
      <trkpt lat="47.24086" lon="4.95935">
        <ele>367.15371704102</ele>
        <time>2018-11-29T09:55:09+0100</time>
      </trkpt>
      <trkpt lat="47.24084" lon="4.95938">
        <ele>366.95300292969</ele>
        <time>2018-11-29T09:55:12+0100</time>
      </trkpt>
      <trkpt lat="47.24084" lon="4.95944">
        <ele>366.71313476562</ele>
        <time>2018-11-29T09:55:15+0100</time>
      </trkpt>
      <trkpt lat="47.24083" lon="4.9595">
        <ele>366.35366821289</ele>
        <time>2018-11-29T09:55:18+0100</time>
      </trkpt>
      <trkpt lat="47.24083" lon="4.95954">
        <ele>365.81585693359</ele>
        <time>2018-11-29T09:55:21+0100</time>
      </trkpt>
      <trkpt lat="47.24082" lon="4.95954">
        <ele>365.49957275391</ele>
        <time>2018-11-29T09:55:24+0100</time>
      </trkpt>
      <trkpt lat="47.24082" lon="4.95956">
        <ele>365.2321472168</ele>
        <time>2018-11-29T09:55:27+0100</time>
      </trkpt>
      <trkpt lat="47.24082" lon="4.95961">
        <ele>364.80889892578</ele>
        <time>2018-11-29T09:55:30+0100</time>
      </trkpt>
      <trkpt lat="47.24083" lon="4.95966">
        <ele>364.36672973633</ele>
        <time>2018-11-29T09:55:33+0100</time>
      </trkpt>
      <trkpt lat="47.24081" lon="4.95972">
        <ele>363.93923950195</ele>
        <time>2018-11-29T09:55:36+0100</time>
      </trkpt>
      <trkpt lat="47.24078" lon="4.95975">
        <ele>363.6364440918</ele>
        <time>2018-11-29T09:55:39+0100</time>
      </trkpt>
      <trkpt lat="47.24078" lon="4.95979">
        <ele>363.48321533203</ele>
        <time>2018-11-29T09:55:42+0100</time>
      </trkpt>
      <trkpt lat="47.24079" lon="4.95979">
        <ele>363.39306640625</ele>
        <time>2018-11-29T09:55:45+0100</time>
      </trkpt>
      <trkpt lat="47.24079" lon="4.95988">
        <ele>363.23983764648</ele>
        <time>2018-11-29T09:55:48+0100</time>
      </trkpt>
      <trkpt lat="47.24077" lon="4.95994">
        <ele>363.13717651367</ele>
        <time>2018-11-29T09:55:51+0100</time>
      </trkpt>
      <trkpt lat="47.24075" lon="4.95999">
        <ele>362.9606628418</ele>
        <time>2018-11-29T09:55:54+0100</time>
      </trkpt>
      <trkpt lat="47.24074" lon="4.96006">
        <ele>362.67236328125</ele>
        <time>2018-11-29T09:55:57+0100</time>
      </trkpt>
      <trkpt lat="47.24072" lon="4.96008">
        <ele>362.32635498047</ele>
        <time>2018-11-29T09:56:00+0100</time>
      </trkpt>
      <trkpt lat="47.24071" lon="4.9601">
        <ele>362.07434082031</ele>
        <time>2018-11-29T09:56:03+0100</time>
      </trkpt>
      <trkpt lat="47.24069" lon="4.96017">
        <ele>361.51330566406</ele>
        <time>2018-11-29T09:56:06+0100</time>
      </trkpt>
      <trkpt lat="47.2407" lon="4.96018">
        <ele>361.12704467773</ele>
        <time>2018-11-29T09:56:09+0100</time>
      </trkpt>
      <trkpt lat="47.24065" lon="4.96025">
        <ele>360.7585144043</ele>
        <time>2018-11-29T09:56:12+0100</time>
      </trkpt>
      <trkpt lat="47.24062" lon="4.96029">
        <ele>360.59042358398</ele>
        <time>2018-11-29T09:56:15+0100</time>
      </trkpt>
      <trkpt lat="47.24062" lon="4.96032">
        <ele>360.42694091797</ele>
        <time>2018-11-29T09:56:18+0100</time>
      </trkpt>
      <trkpt lat="47.24061" lon="4.96036">
        <ele>360.34353637695</ele>
        <time>2018-11-29T09:56:21+0100</time>
      </trkpt>
      <trkpt lat="47.24059" lon="4.9604">
        <ele>360.23498535156</ele>
        <time>2018-11-29T09:56:24+0100</time>
      </trkpt>
      <trkpt lat="47.24057" lon="4.96047">
        <ele>360.1044921875</ele>
        <time>2018-11-29T09:56:27+0100</time>
      </trkpt>
      <trkpt lat="47.24056" lon="4.96051">
        <ele>359.93746948242</ele>
        <time>2018-11-29T09:56:30+0100</time>
      </trkpt>
      <trkpt lat="47.24057" lon="4.96057">
        <ele>359.87731933594</ele>
        <time>2018-11-29T09:56:33+0100</time>
      </trkpt>
      <trkpt lat="47.24056" lon="4.9606">
        <ele>359.62026977539</ele>
        <time>2018-11-29T09:56:36+0100</time>
      </trkpt>
      <trkpt lat="47.24059" lon="4.9607">
        <ele>359.06912231445</ele>
        <time>2018-11-29T09:56:39+0100</time>
      </trkpt>
      <trkpt lat="47.24055" lon="4.96073">
        <ele>358.88714599609</ele>
        <time>2018-11-29T09:56:42+0100</time>
      </trkpt>
      <trkpt lat="47.24056" lon="4.96076">
        <ele>358.47409057617</ele>
        <time>2018-11-29T09:56:45+0100</time>
      </trkpt>
      <trkpt lat="47.24056" lon="4.96079">
        <ele>358.1852722168</ele>
        <time>2018-11-29T09:56:48+0100</time>
      </trkpt>
      <trkpt lat="47.24054" lon="4.96088">
        <ele>358.15344238281</ele>
        <time>2018-11-29T09:56:51+0100</time>
      </trkpt>
      <trkpt lat="47.24054" lon="4.9609">
        <ele>358.02438354492</ele>
        <time>2018-11-29T09:56:54+0100</time>
      </trkpt>
      <trkpt lat="47.24054" lon="4.96094">
        <ele>357.7375793457</ele>
        <time>2018-11-29T09:56:57+0100</time>
      </trkpt>
      <trkpt lat="47.24049" lon="4.96099">
        <ele>357.62509155273</ele>
        <time>2018-11-29T09:57:00+0100</time>
      </trkpt>
      <trkpt lat="47.24048" lon="4.96102">
        <ele>357.53424072266</ele>
        <time>2018-11-29T09:57:03+0100</time>
      </trkpt>
      <trkpt lat="47.24052" lon="4.96111">
        <ele>357.40353393555</ele>
        <time>2018-11-29T09:57:06+0100</time>
      </trkpt>
      <trkpt lat="47.24055" lon="4.9612">
        <ele>357.244140625</ele>
        <time>2018-11-29T09:57:09+0100</time>
      </trkpt>
      <trkpt lat="47.24052" lon="4.96123">
        <ele>357.11145019531</ele>
        <time>2018-11-29T09:57:12+0100</time>
      </trkpt>
      <trkpt lat="47.24051" lon="4.96129">
        <ele>357.03161621094</ele>
        <time>2018-11-29T09:57:15+0100</time>
      </trkpt>
      <trkpt lat="47.24054" lon="4.96136">
        <ele>356.90072631836</ele>
        <time>2018-11-29T09:57:18+0100</time>
      </trkpt>
      <trkpt lat="47.24056" lon="4.96148">
        <ele>356.82412719727</ele>
        <time>2018-11-29T09:57:21+0100</time>
      </trkpt>
      <trkpt lat="47.24055" lon="4.96153">
        <ele>356.83889770508</ele>
        <time>2018-11-29T09:57:24+0100</time>
      </trkpt>
      <trkpt lat="47.24055" lon="4.96162">
        <ele>356.96279907227</ele>
        <time>2018-11-29T09:57:27+0100</time>
      </trkpt>
      <trkpt lat="47.24056" lon="4.96167">
        <ele>356.97692871094</ele>
        <time>2018-11-29T09:57:30+0100</time>
      </trkpt>
      <trkpt lat="47.24057" lon="4.96172">
        <ele>356.99304199219</ele>
        <time>2018-11-29T09:57:33+0100</time>
      </trkpt>
      <trkpt lat="47.24057" lon="4.96176">
        <ele>357.05389404297</ele>
        <time>2018-11-29T09:57:36+0100</time>
      </trkpt>
      <trkpt lat="47.24057" lon="4.96178">
        <ele>357.03924560547</ele>
        <time>2018-11-29T09:57:39+0100</time>
      </trkpt>
      <trkpt lat="47.24055" lon="4.96185">
        <ele>357.02978515625</ele>
        <time>2018-11-29T09:57:42+0100</time>
      </trkpt>
      <trkpt lat="47.24057" lon="4.96188">
        <ele>356.95971679688</ele>
        <time>2018-11-29T09:57:45+0100</time>
      </trkpt>
      <trkpt lat="47.24057" lon="4.96193">
        <ele>356.58215332031</ele>
        <time>2018-11-29T09:57:48+0100</time>
      </trkpt>
      <trkpt lat="47.24058" lon="4.96197">
        <ele>356.45123291016</ele>
        <time>2018-11-29T09:57:51+0100</time>
      </trkpt>
      <trkpt lat="47.2406" lon="4.96199">
        <ele>356.30087280273</ele>
        <time>2018-11-29T09:57:54+0100</time>
      </trkpt>
      <trkpt lat="47.24062" lon="4.962">
        <ele>355.48886108398</ele>
        <time>2018-11-29T09:57:57+0100</time>
      </trkpt>
      <trkpt lat="47.24062" lon="4.96202">
        <ele>354.55505371094</ele>
        <time>2018-11-29T09:58:00+0100</time>
      </trkpt>
      <trkpt lat="47.24062" lon="4.96203">
        <ele>354.32531738281</ele>
        <time>2018-11-29T09:58:03+0100</time>
      </trkpt>
      <trkpt lat="47.24062" lon="4.96208">
        <ele>353.90582275391</ele>
        <time>2018-11-29T09:58:06+0100</time>
      </trkpt>
      <trkpt lat="47.24063" lon="4.96213">
        <ele>353.66003417969</ele>
        <time>2018-11-29T09:58:09+0100</time>
      </trkpt>
      <trkpt lat="47.24063" lon="4.96214">
        <ele>353.4953918457</ele>
        <time>2018-11-29T09:58:12+0100</time>
      </trkpt>
      <trkpt lat="47.24062" lon="4.96219">
        <ele>353.45666503906</ele>
        <time>2018-11-29T09:58:15+0100</time>
      </trkpt>
      <trkpt lat="47.24062" lon="4.96223">
        <ele>353.44769287109</ele>
        <time>2018-11-29T09:58:18+0100</time>
      </trkpt>
      <trkpt lat="47.24062" lon="4.96224">
        <ele>353.36553955078</ele>
        <time>2018-11-29T09:58:21+0100</time>
      </trkpt>
      <trkpt lat="47.24062" lon="4.96232">
        <ele>352.98596191406</ele>
        <time>2018-11-29T09:58:24+0100</time>
      </trkpt>
      <trkpt lat="47.24063" lon="4.96235">
        <ele>352.66421508789</ele>
        <time>2018-11-29T09:58:27+0100</time>
      </trkpt>
      <trkpt lat="47.24063" lon="4.96239">
        <ele>352.30599975586</ele>
        <time>2018-11-29T09:58:30+0100</time>
      </trkpt>
      <trkpt lat="47.24064" lon="4.96242">
        <ele>352.12176513672</ele>
        <time>2018-11-29T09:58:33+0100</time>
      </trkpt>
      <trkpt lat="47.24066" lon="4.96247">
        <ele>351.88061523438</ele>
        <time>2018-11-29T09:58:36+0100</time>
      </trkpt>
      <trkpt lat="47.24066" lon="4.96254">
        <ele>351.73126220703</ele>
        <time>2018-11-29T09:58:39+0100</time>
      </trkpt>
      <trkpt lat="47.24067" lon="4.9626">
        <ele>351.66073608398</ele>
        <time>2018-11-29T09:58:42+0100</time>
      </trkpt>
      <trkpt lat="47.24067" lon="4.96264">
        <ele>351.33023071289</ele>
        <time>2018-11-29T09:58:45+0100</time>
      </trkpt>
      <trkpt lat="47.24066" lon="4.96265">
        <ele>351.03720092773</ele>
        <time>2018-11-29T09:58:48+0100</time>
      </trkpt>
      <trkpt lat="47.24065" lon="4.96269">
        <ele>350.6696472168</ele>
        <time>2018-11-29T09:58:51+0100</time>
      </trkpt>
      <trkpt lat="47.24064" lon="4.96273">
        <ele>350.11737060547</ele>
        <time>2018-11-29T09:58:54+0100</time>
      </trkpt>
      <trkpt lat="47.24063" lon="4.96276">
        <ele>349.68878173828</ele>
        <time>2018-11-29T09:58:57+0100</time>
      </trkpt>
      <trkpt lat="47.24062" lon="4.96282">
        <ele>349.45233154297</ele>
        <time>2018-11-29T09:59:00+0100</time>
      </trkpt>
      <trkpt lat="47.24062" lon="4.96284">
        <ele>349.42227172852</ele>
        <time>2018-11-29T09:59:03+0100</time>
      </trkpt>
      <trkpt lat="47.24062" lon="4.96288">
        <ele>349.22412109375</ele>
        <time>2018-11-29T09:59:06+0100</time>
      </trkpt>
      <trkpt lat="47.24063" lon="4.96293">
        <ele>348.94464111328</ele>
        <time>2018-11-29T09:59:09+0100</time>
      </trkpt>
      <trkpt lat="47.24065" lon="4.96301">
        <ele>348.66638183594</ele>
        <time>2018-11-29T09:59:12+0100</time>
      </trkpt>
      <trkpt lat="47.24065" lon="4.96303">
        <ele>348.63415527344</ele>
        <time>2018-11-29T09:59:15+0100</time>
      </trkpt>
      <trkpt lat="47.24065" lon="4.96305">
        <ele>348.61251831055</ele>
        <time>2018-11-29T09:59:18+0100</time>
      </trkpt>
      <trkpt lat="47.24067" lon="4.96317">
        <ele>348.37194824219</ele>
        <time>2018-11-29T09:59:21+0100</time>
      </trkpt>
      <trkpt lat="47.24069" lon="4.96335">
        <ele>348.04632568359</ele>
        <time>2018-11-29T09:59:24+0100</time>
      </trkpt>
      <trkpt lat="47.2407" lon="4.96339">
        <ele>347.83923339844</ele>
        <time>2018-11-29T09:59:27+0100</time>
      </trkpt>
      <trkpt lat="47.24071" lon="4.9634">
        <ele>347.32235717773</ele>
        <time>2018-11-29T09:59:30+0100</time>
      </trkpt>
      <trkpt lat="47.24071" lon="4.96342">
        <ele>346.95458984375</ele>
        <time>2018-11-29T09:59:33+0100</time>
      </trkpt>
      <trkpt lat="47.24072" lon="4.96345">
        <ele>346.26873779297</ele>
        <time>2018-11-29T09:59:36+0100</time>
      </trkpt>
      <trkpt lat="47.24071" lon="4.96351">
        <ele>345.31781005859</ele>
        <time>2018-11-29T09:59:39+0100</time>
      </trkpt>
      <trkpt lat="47.2407" lon="4.96355">
        <ele>344.5559387207</ele>
        <time>2018-11-29T09:59:42+0100</time>
      </trkpt>
      <trkpt lat="47.24067" lon="4.96357">
        <ele>344.04333496094</ele>
        <time>2018-11-29T09:59:45+0100</time>
      </trkpt>
      <trkpt lat="47.24066" lon="4.96361">
        <ele>343.68606567383</ele>
        <time>2018-11-29T09:59:48+0100</time>
      </trkpt>
      <trkpt lat="47.24064" lon="4.96366">
        <ele>343.24813842773</ele>
        <time>2018-11-29T09:59:51+0100</time>
      </trkpt>
      <trkpt lat="47.24062" lon="4.96372">
        <ele>342.97933959961</ele>
        <time>2018-11-29T09:59:54+0100</time>
      </trkpt>
      <trkpt lat="47.24061" lon="4.96378">
        <ele>342.62075805664</ele>
        <time>2018-11-29T09:59:57+0100</time>
      </trkpt>
      <trkpt lat="47.2406" lon="4.96384">
        <ele>342.24017333984</ele>
        <time>2018-11-29T10:00:00+0100</time>
      </trkpt>
      <trkpt lat="47.24056" lon="4.96387">
        <ele>341.70596313477</ele>
        <time>2018-11-29T10:00:03+0100</time>
      </trkpt>
      <trkpt lat="47.24051" lon="4.96391">
        <ele>341.06005859375</ele>
        <time>2018-11-29T10:00:06+0100</time>
      </trkpt>
      <trkpt lat="47.24049" lon="4.96392">
        <ele>340.38760375977</ele>
        <time>2018-11-29T10:00:09+0100</time>
      </trkpt>
      <trkpt lat="47.24048" lon="4.96394">
        <ele>339.92108154297</ele>
        <time>2018-11-29T10:00:12+0100</time>
      </trkpt>
      <trkpt lat="47.24048" lon="4.96395">
        <ele>339.64443969727</ele>
        <time>2018-11-29T10:00:15+0100</time>
      </trkpt>
      <trkpt lat="47.24047" lon="4.96398">
        <ele>339.15118408203</ele>
        <time>2018-11-29T10:00:18+0100</time>
      </trkpt>
      <trkpt lat="47.24048" lon="4.96407">
        <ele>338.70932006836</ele>
        <time>2018-11-29T10:00:21+0100</time>
      </trkpt>
      <trkpt lat="47.24048" lon="4.96409">
        <ele>338.31527709961</ele>
        <time>2018-11-29T10:00:24+0100</time>
      </trkpt>
      <trkpt lat="47.24048" lon="4.96411">
        <ele>338.06683349609</ele>
        <time>2018-11-29T10:00:27+0100</time>
      </trkpt>
      <trkpt lat="47.24047" lon="4.96412">
        <ele>337.96072387695</ele>
        <time>2018-11-29T10:00:30+0100</time>
      </trkpt>
      <trkpt lat="47.24045" lon="4.96417">
        <ele>337.5749206543</ele>
        <time>2018-11-29T10:00:33+0100</time>
      </trkpt>
      <trkpt lat="47.24044" lon="4.96418">
        <ele>337.0556640625</ele>
        <time>2018-11-29T10:00:36+0100</time>
      </trkpt>
      <trkpt lat="47.24043" lon="4.96421">
        <ele>336.74136352539</ele>
        <time>2018-11-29T10:00:39+0100</time>
      </trkpt>
      <trkpt lat="47.24042" lon="4.96423">
        <ele>336.58819580078</ele>
        <time>2018-11-29T10:00:42+0100</time>
      </trkpt>
      <trkpt lat="47.24045" lon="4.96431">
        <ele>336.22183227539</ele>
        <time>2018-11-29T10:00:45+0100</time>
      </trkpt>
      <trkpt lat="47.24046" lon="4.96432">
        <ele>335.83303833008</ele>
        <time>2018-11-29T10:00:48+0100</time>
      </trkpt>
      <trkpt lat="47.24047" lon="4.96442">
        <ele>335.46865844727</ele>
        <time>2018-11-29T10:00:51+0100</time>
      </trkpt>
      <trkpt lat="47.24048" lon="4.96447">
        <ele>335.22665405273</ele>
        <time>2018-11-29T10:00:54+0100</time>
      </trkpt>
      <trkpt lat="47.24048" lon="4.9645">
        <ele>334.64944458008</ele>
        <time>2018-11-29T10:00:57+0100</time>
      </trkpt>
      <trkpt lat="47.24048" lon="4.96452">
        <ele>334.5964050293</ele>
        <time>2018-11-29T10:01:00+0100</time>
      </trkpt>
      <trkpt lat="47.24048" lon="4.96457">
        <ele>334.4348449707</ele>
        <time>2018-11-29T10:01:03+0100</time>
      </trkpt>
      <trkpt lat="47.24049" lon="4.96458">
        <ele>334.11273193359</ele>
        <time>2018-11-29T10:01:07+0100</time>
      </trkpt>
      <trkpt lat="47.24049" lon="4.9646">
        <ele>333.8053894043</ele>
        <time>2018-11-29T10:01:10+0100</time>
      </trkpt>
      <trkpt lat="47.24051" lon="4.96465">
        <ele>333.65994262695</ele>
        <time>2018-11-29T10:01:13+0100</time>
      </trkpt>
      <trkpt lat="47.24051" lon="4.96466">
        <ele>333.66708374023</ele>
        <time>2018-11-29T10:01:16+0100</time>
      </trkpt>
      <trkpt lat="47.24053" lon="4.9647">
        <ele>333.67523193359</ele>
        <time>2018-11-29T10:01:19+0100</time>
      </trkpt>
      <trkpt lat="47.24054" lon="4.96476">
        <ele>333.61904907227</ele>
        <time>2018-11-29T10:01:22+0100</time>
      </trkpt>
      <trkpt lat="47.24055" lon="4.96483">
        <ele>333.51873779297</ele>
        <time>2018-11-29T10:01:25+0100</time>
      </trkpt>
      <trkpt lat="47.24055" lon="4.96488">
        <ele>333.43612670898</ele>
        <time>2018-11-29T10:01:28+0100</time>
      </trkpt>
      <trkpt lat="47.24055" lon="4.96493">
        <ele>333.36840820312</ele>
        <time>2018-11-29T10:01:31+0100</time>
      </trkpt>
      <trkpt lat="47.24055" lon="4.96493">
        <ele>333.28930664062</ele>
        <time>2018-11-29T10:01:34+0100</time>
      </trkpt>
      <trkpt lat="47.24054" lon="4.96492">
        <ele>333.25680541992</ele>
        <time>2018-11-29T10:01:37+0100</time>
      </trkpt>
      <trkpt lat="47.24053" lon="4.96496">
        <ele>333.26809692383</ele>
        <time>2018-11-29T10:01:40+0100</time>
      </trkpt>
      <trkpt lat="47.24053" lon="4.96497">
        <ele>333.33880615234</ele>
        <time>2018-11-29T10:01:43+0100</time>
      </trkpt>
      <trkpt lat="47.24054" lon="4.96503">
        <ele>333.48516845703</ele>
        <time>2018-11-29T10:01:46+0100</time>
      </trkpt>
      <trkpt lat="47.24054" lon="4.96504">
        <ele>333.66018676758</ele>
        <time>2018-11-29T10:01:49+0100</time>
      </trkpt>
      <trkpt lat="47.24054" lon="4.96513">
        <ele>333.86486816406</ele>
        <time>2018-11-29T10:01:52+0100</time>
      </trkpt>
      <trkpt lat="47.24054" lon="4.96515">
        <ele>333.98983764648</ele>
        <time>2018-11-29T10:01:55+0100</time>
      </trkpt>
      <trkpt lat="47.24054" lon="4.9652">
        <ele>334.06680297852</ele>
        <time>2018-11-29T10:01:58+0100</time>
      </trkpt>
      <trkpt lat="47.24054" lon="4.96527">
        <ele>334.0182800293</ele>
        <time>2018-11-29T10:02:01+0100</time>
      </trkpt>
      <trkpt lat="47.24053" lon="4.96528">
        <ele>333.8991394043</ele>
        <time>2018-11-29T10:02:04+0100</time>
      </trkpt>
      <trkpt lat="47.24053" lon="4.96535">
        <ele>333.7741394043</ele>
        <time>2018-11-29T10:02:07+0100</time>
      </trkpt>
      <trkpt lat="47.24054" lon="4.96542">
        <ele>333.5754699707</ele>
        <time>2018-11-29T10:02:10+0100</time>
      </trkpt>
      <trkpt lat="47.24054" lon="4.96549">
        <ele>333.21279907227</ele>
        <time>2018-11-29T10:02:13+0100</time>
      </trkpt>
      <trkpt lat="47.24053" lon="4.96553">
        <ele>332.82040405273</ele>
        <time>2018-11-29T10:02:16+0100</time>
      </trkpt>
      <trkpt lat="47.24053" lon="4.9656">
        <ele>332.41641235352</ele>
        <time>2018-11-29T10:02:19+0100</time>
      </trkpt>
      <trkpt lat="47.24052" lon="4.96568">
        <ele>331.93206787109</ele>
        <time>2018-11-29T10:02:22+0100</time>
      </trkpt>
      <trkpt lat="47.24052" lon="4.96575">
        <ele>331.4404296875</ele>
        <time>2018-11-29T10:02:25+0100</time>
      </trkpt>
      <trkpt lat="47.24052" lon="4.96577">
        <ele>330.99450683594</ele>
        <time>2018-11-29T10:02:28+0100</time>
      </trkpt>
      <trkpt lat="47.24051" lon="4.96581">
        <ele>330.82745361328</ele>
        <time>2018-11-29T10:02:31+0100</time>
      </trkpt>
      <trkpt lat="47.24051" lon="4.96581">
        <ele>330.76373291016</ele>
        <time>2018-11-29T10:02:34+0100</time>
      </trkpt>
      <trkpt lat="47.24051" lon="4.96581">
        <ele>330.46926879883</ele>
        <time>2018-11-29T10:02:37+0100</time>
      </trkpt>
      <trkpt lat="47.2405" lon="4.96585">
        <ele>330.00128173828</ele>
        <time>2018-11-29T10:02:40+0100</time>
      </trkpt>
      <trkpt lat="47.2405" lon="4.96585">
        <ele>329.93179321289</ele>
        <time>2018-11-29T10:02:43+0100</time>
      </trkpt>
      <trkpt lat="47.2405" lon="4.96586">
        <ele>329.85629272461</ele>
        <time>2018-11-29T10:02:46+0100</time>
      </trkpt>
      <trkpt lat="47.2405" lon="4.96586">
        <ele>329.77978515625</ele>
        <time>2018-11-29T10:02:49+0100</time>
      </trkpt>
      <trkpt lat="47.2405" lon="4.96586">
        <ele>329.47006225586</ele>
        <time>2018-11-29T10:02:52+0100</time>
      </trkpt>
      <trkpt lat="47.24049" lon="4.96592">
        <ele>328.76278686523</ele>
        <time>2018-11-29T10:02:55+0100</time>
      </trkpt>
      <trkpt lat="47.24048" lon="4.96595">
        <ele>328.18658447266</ele>
        <time>2018-11-29T10:02:58+0100</time>
      </trkpt>
      <trkpt lat="47.24047" lon="4.96598">
        <ele>327.71047973633</ele>
        <time>2018-11-29T10:03:01+0100</time>
      </trkpt>
      <trkpt lat="47.24045" lon="4.966">
        <ele>327.34262084961</ele>
        <time>2018-11-29T10:03:04+0100</time>
      </trkpt>
      <trkpt lat="47.24043" lon="4.96602">
        <ele>327.06039428711</ele>
        <time>2018-11-29T10:03:07+0100</time>
      </trkpt>
      <trkpt lat="47.24041" lon="4.96606">
        <ele>326.73696899414</ele>
        <time>2018-11-29T10:03:10+0100</time>
      </trkpt>
      <trkpt lat="47.24038" lon="4.96608">
        <ele>326.36199951172</ele>
        <time>2018-11-29T10:03:13+0100</time>
      </trkpt>
      <trkpt lat="47.24036" lon="4.9661">
        <ele>325.96398925781</ele>
        <time>2018-11-29T10:03:16+0100</time>
      </trkpt>
      <trkpt lat="47.24033" lon="4.96613">
        <ele>325.59808349609</ele>
        <time>2018-11-29T10:03:19+0100</time>
      </trkpt>
      <trkpt lat="47.24031" lon="4.96616">
        <ele>325.25512695312</ele>
        <time>2018-11-29T10:03:22+0100</time>
      </trkpt>
      <trkpt lat="47.24028" lon="4.96619">
        <ele>324.92916870117</ele>
        <time>2018-11-29T10:03:25+0100</time>
      </trkpt>
      <trkpt lat="47.24025" lon="4.96622">
        <ele>324.64102172852</ele>
        <time>2018-11-29T10:03:28+0100</time>
      </trkpt>
      <trkpt lat="47.24023" lon="4.96625">
        <ele>324.3779296875</ele>
        <time>2018-11-29T10:03:31+0100</time>
      </trkpt>
      <trkpt lat="47.24021" lon="4.96628">
        <ele>324.11285400391</ele>
        <time>2018-11-29T10:03:34+0100</time>
      </trkpt>
      <trkpt lat="47.24017" lon="4.96631">
        <ele>323.90090942383</ele>
        <time>2018-11-29T10:03:37+0100</time>
      </trkpt>
      <trkpt lat="47.24015" lon="4.96634">
        <ele>323.70663452148</ele>
        <time>2018-11-29T10:03:40+0100</time>
      </trkpt>
      <trkpt lat="47.24011" lon="4.96637">
        <ele>323.50476074219</ele>
        <time>2018-11-29T10:03:43+0100</time>
      </trkpt>
      <trkpt lat="47.24007" lon="4.96639">
        <ele>323.26834106445</ele>
        <time>2018-11-29T10:03:46+0100</time>
      </trkpt>
      <trkpt lat="47.24003" lon="4.96639">
        <ele>323.01217651367</ele>
        <time>2018-11-29T10:03:49+0100</time>
      </trkpt>
      <trkpt lat="47.24002" lon="4.96639">
        <ele>322.67431640625</ele>
        <time>2018-11-29T10:03:52+0100</time>
      </trkpt>
      <trkpt lat="47.24001" lon="4.9664">
        <ele>322.2610168457</ele>
        <time>2018-11-29T10:03:55+0100</time>
      </trkpt>
      <trkpt lat="47.24" lon="4.9664">
        <ele>321.80044555664</ele>
        <time>2018-11-29T10:03:58+0100</time>
      </trkpt>
      <trkpt lat="47.23998" lon="4.96642">
        <ele>321.32662963867</ele>
        <time>2018-11-29T10:04:01+0100</time>
      </trkpt>
      <trkpt lat="47.23994" lon="4.96646">
        <ele>320.95443725586</ele>
        <time>2018-11-29T10:04:04+0100</time>
      </trkpt>
      <trkpt lat="47.23992" lon="4.96648">
        <ele>320.7165222168</ele>
        <time>2018-11-29T10:04:07+0100</time>
      </trkpt>
      <trkpt lat="47.23991" lon="4.96651">
        <ele>320.5927734375</ele>
        <time>2018-11-29T10:04:10+0100</time>
      </trkpt>
      <trkpt lat="47.23986" lon="4.96654">
        <ele>320.53973388672</ele>
        <time>2018-11-29T10:04:13+0100</time>
      </trkpt>
      <trkpt lat="47.23982" lon="4.96656">
        <ele>320.43923950195</ele>
        <time>2018-11-29T10:04:16+0100</time>
      </trkpt>
      <trkpt lat="47.23979" lon="4.96658">
        <ele>320.24496459961</ele>
        <time>2018-11-29T10:04:19+0100</time>
      </trkpt>
      <trkpt lat="47.23979" lon="4.9666">
        <ele>320.02618408203</ele>
        <time>2018-11-29T10:04:22+0100</time>
      </trkpt>
      <trkpt lat="47.23977" lon="4.96665">
        <ele>319.91186523438</ele>
        <time>2018-11-29T10:04:25+0100</time>
      </trkpt>
      <trkpt lat="47.23976" lon="4.96667">
        <ele>319.81094360352</ele>
        <time>2018-11-29T10:04:28+0100</time>
      </trkpt>
      <trkpt lat="47.23975" lon="4.9667">
        <ele>319.70889282227</ele>
        <time>2018-11-29T10:04:31+0100</time>
      </trkpt>
      <trkpt lat="47.23971" lon="4.96674">
        <ele>319.51162719727</ele>
        <time>2018-11-29T10:04:34+0100</time>
      </trkpt>
      <trkpt lat="47.23967" lon="4.96676">
        <ele>319.28430175781</ele>
        <time>2018-11-29T10:04:37+0100</time>
      </trkpt>
      <trkpt lat="47.23962" lon="4.96676">
        <ele>319.01446533203</ele>
        <time>2018-11-29T10:04:40+0100</time>
      </trkpt>
      <trkpt lat="47.23958" lon="4.96672">
        <ele>318.64520263672</ele>
        <time>2018-11-29T10:04:43+0100</time>
      </trkpt>
      <trkpt lat="47.23954" lon="4.96669">
        <ele>318.25228881836</ele>
        <time>2018-11-29T10:04:46+0100</time>
      </trkpt>
      <trkpt lat="47.23952" lon="4.96666">
        <ele>317.8610534668</ele>
        <time>2018-11-29T10:04:49+0100</time>
      </trkpt>
      <trkpt lat="47.23948" lon="4.96663">
        <ele>317.48574829102</ele>
        <time>2018-11-29T10:04:52+0100</time>
      </trkpt>
      <trkpt lat="47.23944" lon="4.9666">
        <ele>317.09719848633</ele>
        <time>2018-11-29T10:04:55+0100</time>
      </trkpt>
      <trkpt lat="47.23942" lon="4.96657">
        <ele>316.72970581055</ele>
        <time>2018-11-29T10:04:58+0100</time>
      </trkpt>
      <trkpt lat="47.23939" lon="4.96656">
        <ele>316.47366333008</ele>
        <time>2018-11-29T10:05:01+0100</time>
      </trkpt>
      <trkpt lat="47.23936" lon="4.96656">
        <ele>316.31848144531</ele>
        <time>2018-11-29T10:05:04+0100</time>
      </trkpt>
      <trkpt lat="47.23933" lon="4.96655">
        <ele>316.21026611328</ele>
        <time>2018-11-29T10:05:07+0100</time>
      </trkpt>
      <trkpt lat="47.2393" lon="4.96655">
        <ele>316.21685791016</ele>
        <time>2018-11-29T10:05:10+0100</time>
      </trkpt>
      <trkpt lat="47.23927" lon="4.96655">
        <ele>316.32696533203</ele>
        <time>2018-11-29T10:05:13+0100</time>
      </trkpt>
      <trkpt lat="47.23923" lon="4.96654">
        <ele>316.43811035156</ele>
        <time>2018-11-29T10:05:16+0100</time>
      </trkpt>
      <trkpt lat="47.23921" lon="4.96653">
        <ele>316.53652954102</ele>
        <time>2018-11-29T10:05:19+0100</time>
      </trkpt>
      <trkpt lat="47.23918" lon="4.96651">
        <ele>316.64218139648</ele>
        <time>2018-11-29T10:05:22+0100</time>
      </trkpt>
      <trkpt lat="47.23914" lon="4.96646">
        <ele>316.67150878906</ele>
        <time>2018-11-29T10:05:25+0100</time>
      </trkpt>
      <trkpt lat="47.23912" lon="4.96643">
        <ele>316.66018676758</ele>
        <time>2018-11-29T10:05:28+0100</time>
      </trkpt>
      <trkpt lat="47.23909" lon="4.9664">
        <ele>316.61422729492</ele>
        <time>2018-11-29T10:05:31+0100</time>
      </trkpt>
      <trkpt lat="47.23908" lon="4.96636">
        <ele>316.54650878906</ele>
        <time>2018-11-29T10:05:34+0100</time>
      </trkpt>
      <trkpt lat="47.23906" lon="4.96632">
        <ele>316.45666503906</ele>
        <time>2018-11-29T10:05:37+0100</time>
      </trkpt>
      <trkpt lat="47.23905" lon="4.96628">
        <ele>316.34057617188</ele>
        <time>2018-11-29T10:05:40+0100</time>
      </trkpt>
      <trkpt lat="47.23904" lon="4.96626">
        <ele>316.22015380859</ele>
        <time>2018-11-29T10:05:43+0100</time>
      </trkpt>
      <trkpt lat="47.23902" lon="4.96622">
        <ele>316.13638305664</ele>
        <time>2018-11-29T10:05:46+0100</time>
      </trkpt>
      <trkpt lat="47.23901" lon="4.96617">
        <ele>316.10012817383</ele>
        <time>2018-11-29T10:05:49+0100</time>
      </trkpt>
      <trkpt lat="47.239" lon="4.96615">
        <ele>316.10366821289</ele>
        <time>2018-11-29T10:05:52+0100</time>
      </trkpt>
      <trkpt lat="47.23899" lon="4.96611">
        <ele>316.16430664062</ele>
        <time>2018-11-29T10:05:55+0100</time>
      </trkpt>
      <trkpt lat="47.23898" lon="4.96605">
        <ele>316.22827148438</ele>
        <time>2018-11-29T10:05:58+0100</time>
      </trkpt>
      <trkpt lat="47.23897" lon="4.96602">
        <ele>316.26800537109</ele>
        <time>2018-11-29T10:06:01+0100</time>
      </trkpt>
      <trkpt lat="47.23896" lon="4.966">
        <ele>316.32543945312</ele>
        <time>2018-11-29T10:06:04+0100</time>
      </trkpt>
      <trkpt lat="47.23896" lon="4.966">
        <ele>316.33206176758</ele>
        <time>2018-11-29T10:06:07+0100</time>
      </trkpt>
      <trkpt lat="47.23895" lon="4.96599">
        <ele>316.41625976562</ele>
        <time>2018-11-29T10:06:10+0100</time>
      </trkpt>
      <trkpt lat="47.23894" lon="4.96597">
        <ele>316.626953125</ele>
        <time>2018-11-29T10:06:13+0100</time>
      </trkpt>
      <trkpt lat="47.23891" lon="4.96595">
        <ele>316.89865112305</ele>
        <time>2018-11-29T10:06:16+0100</time>
      </trkpt>
      <trkpt lat="47.2389" lon="4.96592">
        <ele>317.19885253906</ele>
        <time>2018-11-29T10:06:19+0100</time>
      </trkpt>
      <trkpt lat="47.23888" lon="4.96588">
        <ele>317.47247314453</ele>
        <time>2018-11-29T10:06:22+0100</time>
      </trkpt>
      <trkpt lat="47.23887" lon="4.96588">
        <ele>317.55395507812</ele>
        <time>2018-11-29T10:06:25+0100</time>
      </trkpt>
      <trkpt lat="47.23886" lon="4.96589">
        <ele>317.62225341797</ele>
        <time>2018-11-29T10:06:28+0100</time>
      </trkpt>
      <trkpt lat="47.23885" lon="4.96589">
        <ele>317.73281860352</ele>
        <time>2018-11-29T10:06:31+0100</time>
      </trkpt>
      <trkpt lat="47.23885" lon="4.96589">
        <ele>317.74575805664</ele>
        <time>2018-11-29T10:06:34+0100</time>
      </trkpt>
      <trkpt lat="47.23884" lon="4.96589">
        <ele>317.7541809082</ele>
        <time>2018-11-29T10:06:37+0100</time>
      </trkpt>
      <trkpt lat="47.23884" lon="4.9659">
        <ele>317.76016235352</ele>
        <time>2018-11-29T10:06:40+0100</time>
      </trkpt>
      <trkpt lat="47.23883" lon="4.96591">
        <ele>317.80725097656</ele>
        <time>2018-11-29T10:06:43+0100</time>
      </trkpt>
      <trkpt lat="47.23882" lon="4.96593">
        <ele>317.86892700195</ele>
        <time>2018-11-29T10:06:46+0100</time>
      </trkpt>
      <trkpt lat="47.23882" lon="4.96595">
        <ele>318.00704956055</ele>
        <time>2018-11-29T10:06:49+0100</time>
      </trkpt>
      <trkpt lat="47.23881" lon="4.96598">
        <ele>318.17288208008</ele>
        <time>2018-11-29T10:06:52+0100</time>
      </trkpt>
      <trkpt lat="47.23879" lon="4.96602">
        <ele>318.3664855957</ele>
        <time>2018-11-29T10:06:55+0100</time>
      </trkpt>
      <trkpt lat="47.23875" lon="4.96605">
        <ele>318.45803833008</ele>
        <time>2018-11-29T10:06:58+0100</time>
      </trkpt>
      <trkpt lat="47.23873" lon="4.96607">
        <ele>318.50534057617</ele>
        <time>2018-11-29T10:07:01+0100</time>
      </trkpt>
      <trkpt lat="47.23871" lon="4.96609">
        <ele>318.54663085938</ele>
        <time>2018-11-29T10:07:04+0100</time>
      </trkpt>
      <trkpt lat="47.23868" lon="4.96611">
        <ele>318.5534362793</ele>
        <time>2018-11-29T10:07:07+0100</time>
      </trkpt>
      <trkpt lat="47.23867" lon="4.96613">
        <ele>318.54571533203</ele>
        <time>2018-11-29T10:07:10+0100</time>
      </trkpt>
      <trkpt lat="47.23865" lon="4.96615">
        <ele>318.55953979492</ele>
        <time>2018-11-29T10:07:13+0100</time>
      </trkpt>
      <trkpt lat="47.23863" lon="4.96615">
        <ele>318.49603271484</ele>
        <time>2018-11-29T10:07:16+0100</time>
      </trkpt>
      <trkpt lat="47.23861" lon="4.96616">
        <ele>318.39932250977</ele>
        <time>2018-11-29T10:07:19+0100</time>
      </trkpt>
      <trkpt lat="47.2386" lon="4.96617">
        <ele>318.32867431641</ele>
        <time>2018-11-29T10:07:22+0100</time>
      </trkpt>
      <trkpt lat="47.23859" lon="4.96618">
        <ele>318.23016357422</ele>
        <time>2018-11-29T10:07:25+0100</time>
      </trkpt>
      <trkpt lat="47.23856" lon="4.96619">
        <ele>318.12728881836</ele>
        <time>2018-11-29T10:07:28+0100</time>
      </trkpt>
      <trkpt lat="47.23855" lon="4.96621">
        <ele>318.02731323242</ele>
        <time>2018-11-29T10:07:31+0100</time>
      </trkpt>
      <trkpt lat="47.23857" lon="4.96625">
        <ele>317.89340209961</ele>
        <time>2018-11-29T10:07:34+0100</time>
      </trkpt>
      <trkpt lat="47.23856" lon="4.96628">
        <ele>317.75726318359</ele>
        <time>2018-11-29T10:07:37+0100</time>
      </trkpt>
      <trkpt lat="47.23855" lon="4.96631">
        <ele>317.62991333008</ele>
        <time>2018-11-29T10:07:40+0100</time>
      </trkpt>
      <trkpt lat="47.23853" lon="4.96632">
        <ele>317.51364135742</ele>
        <time>2018-11-29T10:07:43+0100</time>
      </trkpt>
      <trkpt lat="47.23852" lon="4.96635">
        <ele>317.45153808594</ele>
        <time>2018-11-29T10:07:46+0100</time>
      </trkpt>
      <trkpt lat="47.23851" lon="4.96638">
        <ele>317.38031005859</ele>
        <time>2018-11-29T10:07:49+0100</time>
      </trkpt>
      <trkpt lat="47.2385" lon="4.96642">
        <ele>317.32308959961</ele>
        <time>2018-11-29T10:07:52+0100</time>
      </trkpt>
      <trkpt lat="47.23848" lon="4.96645">
        <ele>317.35504150391</ele>
        <time>2018-11-29T10:07:55+0100</time>
      </trkpt>
      <trkpt lat="47.23843" lon="4.96646">
        <ele>317.50186157227</ele>
        <time>2018-11-29T10:07:58+0100</time>
      </trkpt>
      <trkpt lat="47.2384" lon="4.96647">
        <ele>317.64978027344</ele>
        <time>2018-11-29T10:08:01+0100</time>
      </trkpt>
      <trkpt lat="47.23837" lon="4.96647">
        <ele>317.73886108398</ele>
        <time>2018-11-29T10:08:04+0100</time>
      </trkpt>
      <trkpt lat="47.23833" lon="4.96648">
        <ele>317.8635559082</ele>
        <time>2018-11-29T10:08:07+0100</time>
      </trkpt>
      <trkpt lat="47.23829" lon="4.96648">
        <ele>317.98742675781</ele>
        <time>2018-11-29T10:08:10+0100</time>
      </trkpt>
      <trkpt lat="47.23827" lon="4.96648">
        <ele>318.18890380859</ele>
        <time>2018-11-29T10:08:13+0100</time>
      </trkpt>
      <trkpt lat="47.23826" lon="4.96648">
        <ele>318.5231628418</ele>
        <time>2018-11-29T10:08:16+0100</time>
      </trkpt>
      <trkpt lat="47.23821" lon="4.96651">
        <ele>318.73175048828</ele>
        <time>2018-11-29T10:08:19+0100</time>
      </trkpt>
      <trkpt lat="47.23815" lon="4.96653">
        <ele>318.70227050781</ele>
        <time>2018-11-29T10:08:22+0100</time>
      </trkpt>
      <trkpt lat="47.23814" lon="4.96654">
        <ele>318.61373901367</ele>
        <time>2018-11-29T10:08:25+0100</time>
      </trkpt>
      <trkpt lat="47.23812" lon="4.96657">
        <ele>318.53463745117</ele>
        <time>2018-11-29T10:08:28+0100</time>
      </trkpt>
      <trkpt lat="47.23811" lon="4.96657">
        <ele>318.54364013672</ele>
        <time>2018-11-29T10:08:31+0100</time>
      </trkpt>
      <trkpt lat="47.23809" lon="4.96657">
        <ele>318.62564086914</ele>
        <time>2018-11-29T10:08:34+0100</time>
      </trkpt>
      <trkpt lat="47.23806" lon="4.96664">
        <ele>318.69284057617</ele>
        <time>2018-11-29T10:08:37+0100</time>
      </trkpt>
      <trkpt lat="47.23805" lon="4.96669">
        <ele>318.62057495117</ele>
        <time>2018-11-29T10:08:40+0100</time>
      </trkpt>
      <trkpt lat="47.23804" lon="4.96673">
        <ele>318.49044799805</ele>
        <time>2018-11-29T10:08:43+0100</time>
      </trkpt>
      <trkpt lat="47.23801" lon="4.96676">
        <ele>318.2848815918</ele>
        <time>2018-11-29T10:08:46+0100</time>
      </trkpt>
      <trkpt lat="47.23799" lon="4.96679">
        <ele>318.00820922852</ele>
        <time>2018-11-29T10:08:49+0100</time>
      </trkpt>
      <trkpt lat="47.23795" lon="4.96681">
        <ele>317.75387573242</ele>
        <time>2018-11-29T10:08:52+0100</time>
      </trkpt>
      <trkpt lat="47.23791" lon="4.96682">
        <ele>317.47747802734</ele>
        <time>2018-11-29T10:08:55+0100</time>
      </trkpt>
      <trkpt lat="47.23788" lon="4.96681">
        <ele>317.1611328125</ele>
        <time>2018-11-29T10:08:58+0100</time>
      </trkpt>
      <trkpt lat="47.23786" lon="4.96681">
        <ele>316.83334350586</ele>
        <time>2018-11-29T10:09:01+0100</time>
      </trkpt>
      <trkpt lat="47.23785" lon="4.9668">
        <ele>316.50653076172</ele>
        <time>2018-11-29T10:09:04+0100</time>
      </trkpt>
      <trkpt lat="47.23783" lon="4.96679">
        <ele>316.2385559082</ele>
        <time>2018-11-29T10:09:07+0100</time>
      </trkpt>
      <trkpt lat="47.23781" lon="4.96679">
        <ele>316.02172851562</ele>
        <time>2018-11-29T10:09:10+0100</time>
      </trkpt>
      <trkpt lat="47.23779" lon="4.96679">
        <ele>315.84289550781</ele>
        <time>2018-11-29T10:09:13+0100</time>
      </trkpt>
      <trkpt lat="47.23776" lon="4.96678">
        <ele>315.71618652344</ele>
        <time>2018-11-29T10:09:16+0100</time>
      </trkpt>
      <trkpt lat="47.23774" lon="4.96678">
        <ele>315.6335144043</ele>
        <time>2018-11-29T10:09:19+0100</time>
      </trkpt>
      <trkpt lat="47.23772" lon="4.96677">
        <ele>315.57571411133</ele>
        <time>2018-11-29T10:09:22+0100</time>
      </trkpt>
      <trkpt lat="47.23768" lon="4.96677">
        <ele>315.50009155273</ele>
        <time>2018-11-29T10:09:25+0100</time>
      </trkpt>
      <trkpt lat="47.23766" lon="4.96676">
        <ele>315.40188598633</ele>
        <time>2018-11-29T10:09:28+0100</time>
      </trkpt>
      <trkpt lat="47.23765" lon="4.96675">
        <ele>315.31921386719</ele>
        <time>2018-11-29T10:09:31+0100</time>
      </trkpt>
      <trkpt lat="47.23764" lon="4.96673">
        <ele>315.29211425781</ele>
        <time>2018-11-29T10:09:34+0100</time>
      </trkpt>
      <trkpt lat="47.23761" lon="4.96671">
        <ele>315.33126831055</ele>
        <time>2018-11-29T10:09:37+0100</time>
      </trkpt>
      <trkpt lat="47.23758" lon="4.96671">
        <ele>315.38711547852</ele>
        <time>2018-11-29T10:09:40+0100</time>
      </trkpt>
      <trkpt lat="47.23757" lon="4.96672">
        <ele>315.44555664062</ele>
        <time>2018-11-29T10:09:43+0100</time>
      </trkpt>
      <trkpt lat="47.23756" lon="4.96672">
        <ele>315.47430419922</ele>
        <time>2018-11-29T10:09:46+0100</time>
      </trkpt>
      <trkpt lat="47.23755" lon="4.96671">
        <ele>315.57308959961</ele>
        <time>2018-11-29T10:09:49+0100</time>
      </trkpt>
      <trkpt lat="47.23752" lon="4.9667">
        <ele>315.70364379883</ele>
        <time>2018-11-29T10:09:52+0100</time>
      </trkpt>
      <trkpt lat="47.2375" lon="4.96668">
        <ele>315.81097412109</ele>
        <time>2018-11-29T10:09:55+0100</time>
      </trkpt>
      <trkpt lat="47.23748" lon="4.96666">
        <ele>315.92709350586</ele>
        <time>2018-11-29T10:09:58+0100</time>
      </trkpt>
      <trkpt lat="47.23745" lon="4.96664">
        <ele>316.03713989258</ele>
        <time>2018-11-29T10:10:01+0100</time>
      </trkpt>
      <trkpt lat="47.23745" lon="4.96664">
        <ele>316.09698486328</ele>
        <time>2018-11-29T10:10:04+0100</time>
      </trkpt>
      <trkpt lat="47.23745" lon="4.96664">
        <ele>316.1091003418</ele>
        <time>2018-11-29T10:10:07+0100</time>
      </trkpt>
      <trkpt lat="47.23744" lon="4.96664">
        <ele>316.1614074707</ele>
        <time>2018-11-29T10:10:10+0100</time>
      </trkpt>
      <trkpt lat="47.23741" lon="4.96663">
        <ele>316.25210571289</ele>
        <time>2018-11-29T10:10:13+0100</time>
      </trkpt>
      <trkpt lat="47.2374" lon="4.96663">
        <ele>316.28744506836</ele>
        <time>2018-11-29T10:10:16+0100</time>
      </trkpt>
      <trkpt lat="47.2374" lon="4.96663">
        <ele>316.32305908203</ele>
        <time>2018-11-29T10:10:19+0100</time>
      </trkpt>
      <trkpt lat="47.23739" lon="4.96662">
        <ele>316.3401184082</ele>
        <time>2018-11-29T10:10:22+0100</time>
      </trkpt>
      <trkpt lat="47.23736" lon="4.96659">
        <ele>316.37298583984</ele>
        <time>2018-11-29T10:10:25+0100</time>
      </trkpt>
      <trkpt lat="47.23734" lon="4.96658">
        <ele>316.42535400391</ele>
        <time>2018-11-29T10:10:28+0100</time>
      </trkpt>
      <trkpt lat="47.23732" lon="4.96656">
        <ele>316.49795532227</ele>
        <time>2018-11-29T10:10:31+0100</time>
      </trkpt>
      <trkpt lat="47.23731" lon="4.96655">
        <ele>316.57690429688</ele>
        <time>2018-11-29T10:10:34+0100</time>
      </trkpt>
      <trkpt lat="47.2373" lon="4.96654">
        <ele>316.58517456055</ele>
        <time>2018-11-29T10:10:37+0100</time>
      </trkpt>
      <trkpt lat="47.2373" lon="4.96654">
        <ele>316.5871887207</ele>
        <time>2018-11-29T10:10:40+0100</time>
      </trkpt>
      <trkpt lat="47.2373" lon="4.96654">
        <ele>316.58874511719</ele>
        <time>2018-11-29T10:10:43+0100</time>
      </trkpt>
      <trkpt lat="47.2373" lon="4.96654">
        <ele>316.61831665039</ele>
        <time>2018-11-29T10:10:46+0100</time>
      </trkpt>
      <trkpt lat="47.23728" lon="4.96652">
        <ele>316.72357177734</ele>
        <time>2018-11-29T10:10:49+0100</time>
      </trkpt>
      <trkpt lat="47.23726" lon="4.96651">
        <ele>316.83255004883</ele>
        <time>2018-11-29T10:10:52+0100</time>
      </trkpt>
      <trkpt lat="47.23724" lon="4.96651">
        <ele>316.97219848633</ele>
        <time>2018-11-29T10:10:55+0100</time>
      </trkpt>
      <trkpt lat="47.23722" lon="4.9665">
        <ele>317.11315917969</ele>
        <time>2018-11-29T10:10:58+0100</time>
      </trkpt>
      <trkpt lat="47.2372" lon="4.9665">
        <ele>317.28344726562</ele>
        <time>2018-11-29T10:11:01+0100</time>
      </trkpt>
      <trkpt lat="47.23718" lon="4.96649">
        <ele>317.47366333008</ele>
        <time>2018-11-29T10:11:04+0100</time>
      </trkpt>
      <trkpt lat="47.23716" lon="4.96647">
        <ele>317.68069458008</ele>
        <time>2018-11-29T10:11:07+0100</time>
      </trkpt>
      <trkpt lat="47.23716" lon="4.96646">
        <ele>317.93215942383</ele>
        <time>2018-11-29T10:11:10+0100</time>
      </trkpt>
      <trkpt lat="47.23713" lon="4.96645">
        <ele>318.16632080078</ele>
        <time>2018-11-29T10:11:13+0100</time>
      </trkpt>
      <trkpt lat="47.2371" lon="4.96645">
        <ele>318.3606262207</ele>
        <time>2018-11-29T10:11:16+0100</time>
      </trkpt>
      <trkpt lat="47.23707" lon="4.96644">
        <ele>318.53485107422</ele>
        <time>2018-11-29T10:11:19+0100</time>
      </trkpt>
      <trkpt lat="47.23704" lon="4.96644">
        <ele>318.69610595703</ele>
        <time>2018-11-29T10:11:22+0100</time>
      </trkpt>
      <trkpt lat="47.23701" lon="4.96643">
        <ele>318.85498046875</ele>
        <time>2018-11-29T10:11:25+0100</time>
      </trkpt>
      <trkpt lat="47.23697" lon="4.96642">
        <ele>318.98657226562</ele>
        <time>2018-11-29T10:11:28+0100</time>
      </trkpt>
      <trkpt lat="47.23695" lon="4.96641">
        <ele>319.0969543457</ele>
        <time>2018-11-29T10:11:31+0100</time>
      </trkpt>
      <trkpt lat="47.23693" lon="4.9664">
        <ele>319.21057128906</ele>
        <time>2018-11-29T10:11:34+0100</time>
      </trkpt>
      <trkpt lat="47.2369" lon="4.96639">
        <ele>319.30740356445</ele>
        <time>2018-11-29T10:11:37+0100</time>
      </trkpt>
      <trkpt lat="47.23687" lon="4.96637">
        <ele>319.38876342773</ele>
        <time>2018-11-29T10:11:40+0100</time>
      </trkpt>
      <trkpt lat="47.23683" lon="4.96636">
        <ele>319.45498657227</ele>
        <time>2018-11-29T10:11:43+0100</time>
      </trkpt>
      <trkpt lat="47.23681" lon="4.96634">
        <ele>319.5432434082</ele>
        <time>2018-11-29T10:11:46+0100</time>
      </trkpt>
      <trkpt lat="47.23678" lon="4.96633">
        <ele>319.65759277344</ele>
        <time>2018-11-29T10:11:49+0100</time>
      </trkpt>
      <trkpt lat="47.23676" lon="4.96631">
        <ele>319.78265380859</ele>
        <time>2018-11-29T10:11:52+0100</time>
      </trkpt>
      <trkpt lat="47.23672" lon="4.9663">
        <ele>319.91125488281</ele>
        <time>2018-11-29T10:11:55+0100</time>
      </trkpt>
      <trkpt lat="47.23669" lon="4.96629">
        <ele>320.05313110352</ele>
        <time>2018-11-29T10:11:58+0100</time>
      </trkpt>
      <trkpt lat="47.23666" lon="4.96627">
        <ele>320.23626708984</ele>
        <time>2018-11-29T10:12:01+0100</time>
      </trkpt>
      <trkpt lat="47.23664" lon="4.96627">
        <ele>320.41207885742</ele>
        <time>2018-11-29T10:12:04+0100</time>
      </trkpt>
      <trkpt lat="47.23661" lon="4.96626">
        <ele>320.56146240234</ele>
        <time>2018-11-29T10:12:07+0100</time>
      </trkpt>
      <trkpt lat="47.23657" lon="4.96625">
        <ele>320.7048034668</ele>
        <time>2018-11-29T10:12:10+0100</time>
      </trkpt>
      <trkpt lat="47.23654" lon="4.96624">
        <ele>320.86468505859</ele>
        <time>2018-11-29T10:12:13+0100</time>
      </trkpt>
      <trkpt lat="47.23651" lon="4.96623">
        <ele>321.00903320312</ele>
        <time>2018-11-29T10:12:16+0100</time>
      </trkpt>
      <trkpt lat="47.23647" lon="4.96623">
        <ele>321.12661743164</ele>
        <time>2018-11-29T10:12:19+0100</time>
      </trkpt>
      <trkpt lat="47.23643" lon="4.96623">
        <ele>321.23913574219</ele>
        <time>2018-11-29T10:12:22+0100</time>
      </trkpt>
      <trkpt lat="47.2364" lon="4.96621">
        <ele>321.32315063477</ele>
        <time>2018-11-29T10:12:25+0100</time>
      </trkpt>
      <trkpt lat="47.23637" lon="4.96621">
        <ele>321.39996337891</ele>
        <time>2018-11-29T10:12:28+0100</time>
      </trkpt>
      <trkpt lat="47.23634" lon="4.96621">
        <ele>321.52679443359</ele>
        <time>2018-11-29T10:12:31+0100</time>
      </trkpt>
      <trkpt lat="47.23631" lon="4.9662">
        <ele>321.68920898438</ele>
        <time>2018-11-29T10:12:34+0100</time>
      </trkpt>
      <trkpt lat="47.23628" lon="4.96619">
        <ele>321.84719848633</ele>
        <time>2018-11-29T10:12:37+0100</time>
      </trkpt>
      <trkpt lat="47.23624" lon="4.96617">
        <ele>321.95797729492</ele>
        <time>2018-11-29T10:12:40+0100</time>
      </trkpt>
      <trkpt lat="47.23622" lon="4.96616">
        <ele>322.04681396484</ele>
        <time>2018-11-29T10:12:43+0100</time>
      </trkpt>
      <trkpt lat="47.23618" lon="4.96614">
        <ele>322.08932495117</ele>
        <time>2018-11-29T10:12:46+0100</time>
      </trkpt>
      <trkpt lat="47.23615" lon="4.96613">
        <ele>322.09243774414</ele>
        <time>2018-11-29T10:12:49+0100</time>
      </trkpt>
      <trkpt lat="47.23612" lon="4.96612">
        <ele>322.09808349609</ele>
        <time>2018-11-29T10:12:52+0100</time>
      </trkpt>
      <trkpt lat="47.23609" lon="4.9661">
        <ele>322.0920715332</ele>
        <time>2018-11-29T10:12:55+0100</time>
      </trkpt>
      <trkpt lat="47.23606" lon="4.96608">
        <ele>322.09600830078</ele>
        <time>2018-11-29T10:12:58+0100</time>
      </trkpt>
      <trkpt lat="47.23604" lon="4.96606">
        <ele>322.15869140625</ele>
        <time>2018-11-29T10:13:01+0100</time>
      </trkpt>
      <trkpt lat="47.23602" lon="4.96603">
        <ele>322.25576782227</ele>
        <time>2018-11-29T10:13:04+0100</time>
      </trkpt>
      <trkpt lat="47.23599" lon="4.96601">
        <ele>322.34020996094</ele>
        <time>2018-11-29T10:13:07+0100</time>
      </trkpt>
      <trkpt lat="47.23596" lon="4.96599">
        <ele>322.43518066406</ele>
        <time>2018-11-29T10:13:10+0100</time>
      </trkpt>
      <trkpt lat="47.23594" lon="4.96597">
        <ele>322.55419921875</ele>
        <time>2018-11-29T10:13:13+0100</time>
      </trkpt>
      <trkpt lat="47.23592" lon="4.96596">
        <ele>322.6901550293</ele>
        <time>2018-11-29T10:13:16+0100</time>
      </trkpt>
      <trkpt lat="47.2359" lon="4.96595">
        <ele>322.84063720703</ele>
        <time>2018-11-29T10:13:19+0100</time>
      </trkpt>
      <trkpt lat="47.23586" lon="4.96594">
        <ele>323.01013183594</ele>
        <time>2018-11-29T10:13:22+0100</time>
      </trkpt>
      <trkpt lat="47.23584" lon="4.96592">
        <ele>323.17181396484</ele>
        <time>2018-11-29T10:13:25+0100</time>
      </trkpt>
      <trkpt lat="47.2358" lon="4.96589">
        <ele>323.30288696289</ele>
        <time>2018-11-29T10:13:28+0100</time>
      </trkpt>
      <trkpt lat="47.23577" lon="4.96588">
        <ele>323.34643554688</ele>
        <time>2018-11-29T10:13:31+0100</time>
      </trkpt>
      <trkpt lat="47.23573" lon="4.96587">
        <ele>323.36514282227</ele>
        <time>2018-11-29T10:13:34+0100</time>
      </trkpt>
      <trkpt lat="47.2357" lon="4.96585">
        <ele>323.35083007812</ele>
        <time>2018-11-29T10:13:37+0100</time>
      </trkpt>
      <trkpt lat="47.23567" lon="4.96583">
        <ele>323.330078125</ele>
        <time>2018-11-29T10:13:40+0100</time>
      </trkpt>
      <trkpt lat="47.23564" lon="4.96582">
        <ele>323.29568481445</ele>
        <time>2018-11-29T10:13:43+0100</time>
      </trkpt>
      <trkpt lat="47.23561" lon="4.9658">
        <ele>323.27053833008</ele>
        <time>2018-11-29T10:13:46+0100</time>
      </trkpt>
      <trkpt lat="47.23559" lon="4.96579">
        <ele>323.21405029297</ele>
        <time>2018-11-29T10:13:49+0100</time>
      </trkpt>
      <trkpt lat="47.23555" lon="4.96577">
        <ele>323.18151855469</ele>
        <time>2018-11-29T10:13:52+0100</time>
      </trkpt>
      <trkpt lat="47.23553" lon="4.96576">
        <ele>323.19290161133</ele>
        <time>2018-11-29T10:13:55+0100</time>
      </trkpt>
      <trkpt lat="47.23551" lon="4.96575">
        <ele>323.24743652344</ele>
        <time>2018-11-29T10:13:58+0100</time>
      </trkpt>
      <trkpt lat="47.23548" lon="4.96574">
        <ele>323.33404541016</ele>
        <time>2018-11-29T10:14:01+0100</time>
      </trkpt>
      <trkpt lat="47.23545" lon="4.96572">
        <ele>323.43283081055</ele>
        <time>2018-11-29T10:14:04+0100</time>
      </trkpt>
      <trkpt lat="47.23542" lon="4.9657">
        <ele>323.56433105469</ele>
        <time>2018-11-29T10:14:07+0100</time>
      </trkpt>
      <trkpt lat="47.23541" lon="4.96568">
        <ele>323.75057983398</ele>
        <time>2018-11-29T10:14:10+0100</time>
      </trkpt>
      <trkpt lat="47.23538" lon="4.96567">
        <ele>323.94989013672</ele>
        <time>2018-11-29T10:14:13+0100</time>
      </trkpt>
      <trkpt lat="47.23535" lon="4.96567">
        <ele>324.10662841797</ele>
        <time>2018-11-29T10:14:16+0100</time>
      </trkpt>
      <trkpt lat="47.23533" lon="4.96566">
        <ele>324.22427368164</ele>
        <time>2018-11-29T10:14:19+0100</time>
      </trkpt>
      <trkpt lat="47.23529" lon="4.96568">
        <ele>324.31701660156</ele>
        <time>2018-11-29T10:14:22+0100</time>
      </trkpt>
      <trkpt lat="47.23526" lon="4.96568">
        <ele>324.37509155273</ele>
        <time>2018-11-29T10:14:24+0100</time>
      </trkpt>
      <trkpt lat="47.23522" lon="4.96568">
        <ele>324.40316772461</ele>
        <time>2018-11-29T10:14:27+0100</time>
      </trkpt>
      <trkpt lat="47.2352" lon="4.96567">
        <ele>324.42633056641</ele>
        <time>2018-11-29T10:14:30+0100</time>
      </trkpt>
      <trkpt lat="47.23518" lon="4.96565">
        <ele>324.45077514648</ele>
        <time>2018-11-29T10:14:33+0100</time>
      </trkpt>
      <trkpt lat="47.23515" lon="4.96564">
        <ele>324.45071411133</ele>
        <time>2018-11-29T10:14:36+0100</time>
      </trkpt>
      <trkpt lat="47.23512" lon="4.96562">
        <ele>324.37359619141</ele>
        <time>2018-11-29T10:14:39+0100</time>
      </trkpt>
      <trkpt lat="47.23509" lon="4.9656">
        <ele>324.29098510742</ele>
        <time>2018-11-29T10:14:42+0100</time>
      </trkpt>
      <trkpt lat="47.23506" lon="4.96559">
        <ele>324.26031494141</ele>
        <time>2018-11-29T10:14:45+0100</time>
      </trkpt>
      <trkpt lat="47.23504" lon="4.96559">
        <ele>324.26852416992</ele>
        <time>2018-11-29T10:14:48+0100</time>
      </trkpt>
      <trkpt lat="47.23501" lon="4.96557">
        <ele>324.27767944336</ele>
        <time>2018-11-29T10:14:51+0100</time>
      </trkpt>
      <trkpt lat="47.23499" lon="4.96556">
        <ele>324.32244873047</ele>
        <time>2018-11-29T10:14:54+0100</time>
      </trkpt>
      <trkpt lat="47.23496" lon="4.96556">
        <ele>324.39840698242</ele>
        <time>2018-11-29T10:14:57+0100</time>
      </trkpt>
      <trkpt lat="47.23494" lon="4.96556">
        <ele>324.49990844727</ele>
        <time>2018-11-29T10:15:00+0100</time>
      </trkpt>
      <trkpt lat="47.23491" lon="4.96555">
        <ele>324.59823608398</ele>
        <time>2018-11-29T10:15:03+0100</time>
      </trkpt>
      <trkpt lat="47.23489" lon="4.96555">
        <ele>324.65347290039</ele>
        <time>2018-11-29T10:15:06+0100</time>
      </trkpt>
      <trkpt lat="47.23487" lon="4.96554">
        <ele>324.68292236328</ele>
        <time>2018-11-29T10:15:09+0100</time>
      </trkpt>
      <trkpt lat="47.23486" lon="4.96555">
        <ele>324.67849731445</ele>
        <time>2018-11-29T10:15:12+0100</time>
      </trkpt>
      <trkpt lat="47.23484" lon="4.96555">
        <ele>324.62170410156</ele>
        <time>2018-11-29T10:15:15+0100</time>
      </trkpt>
      <trkpt lat="47.2348" lon="4.96554">
        <ele>324.51077270508</ele>
        <time>2018-11-29T10:15:18+0100</time>
      </trkpt>
      <trkpt lat="47.23477" lon="4.96554">
        <ele>324.31805419922</ele>
        <time>2018-11-29T10:15:21+0100</time>
      </trkpt>
      <trkpt lat="47.23473" lon="4.96554">
        <ele>324.06378173828</ele>
        <time>2018-11-29T10:15:24+0100</time>
      </trkpt>
      <trkpt lat="47.23471" lon="4.96554">
        <ele>323.79144287109</ele>
        <time>2018-11-29T10:15:27+0100</time>
      </trkpt>
      <trkpt lat="47.23468" lon="4.96554">
        <ele>323.54510498047</ele>
        <time>2018-11-29T10:15:30+0100</time>
      </trkpt>
      <trkpt lat="47.23466" lon="4.96555">
        <ele>323.36544799805</ele>
        <time>2018-11-29T10:15:33+0100</time>
      </trkpt>
      <trkpt lat="47.23463" lon="4.96555">
        <ele>323.22625732422</ele>
        <time>2018-11-29T10:15:36+0100</time>
      </trkpt>
      <trkpt lat="47.2346" lon="4.96555">
        <ele>323.12268066406</ele>
        <time>2018-11-29T10:15:39+0100</time>
      </trkpt>
      <trkpt lat="47.23457" lon="4.96556">
        <ele>323.04348754883</ele>
        <time>2018-11-29T10:15:42+0100</time>
      </trkpt>
      <trkpt lat="47.23454" lon="4.96556">
        <ele>322.96392822266</ele>
        <time>2018-11-29T10:15:45+0100</time>
      </trkpt>
      <trkpt lat="47.23452" lon="4.96556">
        <ele>322.90765380859</ele>
        <time>2018-11-29T10:15:48+0100</time>
      </trkpt>
      <trkpt lat="47.23449" lon="4.96557">
        <ele>322.78964233398</ele>
        <time>2018-11-29T10:15:51+0100</time>
      </trkpt>
      <trkpt lat="47.23446" lon="4.96556">
        <ele>322.62359619141</ele>
        <time>2018-11-29T10:15:54+0100</time>
      </trkpt>
      <trkpt lat="47.23442" lon="4.96556">
        <ele>322.46069335938</ele>
        <time>2018-11-29T10:15:57+0100</time>
      </trkpt>
      <trkpt lat="47.23439" lon="4.96555">
        <ele>322.29058837891</ele>
        <time>2018-11-29T10:16:00+0100</time>
      </trkpt>
      <trkpt lat="47.23435" lon="4.96555">
        <ele>322.10467529297</ele>
        <time>2018-11-29T10:16:03+0100</time>
      </trkpt>
      <trkpt lat="47.23432" lon="4.96554">
        <ele>321.95367431641</ele>
        <time>2018-11-29T10:16:06+0100</time>
      </trkpt>
      <trkpt lat="47.23429" lon="4.96554">
        <ele>321.84942626953</ele>
        <time>2018-11-29T10:16:09+0100</time>
      </trkpt>
      <trkpt lat="47.23426" lon="4.96553">
        <ele>321.73168945312</ele>
        <time>2018-11-29T10:16:12+0100</time>
      </trkpt>
      <trkpt lat="47.23423" lon="4.96551">
        <ele>321.60858154297</ele>
        <time>2018-11-29T10:16:15+0100</time>
      </trkpt>
      <trkpt lat="47.2342" lon="4.9655">
        <ele>321.46643066406</ele>
        <time>2018-11-29T10:16:18+0100</time>
      </trkpt>
      <trkpt lat="47.23417" lon="4.9655">
        <ele>321.33126831055</ele>
        <time>2018-11-29T10:16:21+0100</time>
      </trkpt>
      <trkpt lat="47.23414" lon="4.96549">
        <ele>321.2314453125</ele>
        <time>2018-11-29T10:16:24+0100</time>
      </trkpt>
      <trkpt lat="47.2341" lon="4.96547">
        <ele>321.11645507812</ele>
        <time>2018-11-29T10:16:27+0100</time>
      </trkpt>
      <trkpt lat="47.23407" lon="4.96545">
        <ele>321.02130126953</ele>
        <time>2018-11-29T10:16:30+0100</time>
      </trkpt>
      <trkpt lat="47.23404" lon="4.96544">
        <ele>320.94064331055</ele>
        <time>2018-11-29T10:16:33+0100</time>
      </trkpt>
      <trkpt lat="47.23401" lon="4.96543">
        <ele>320.87356567383</ele>
        <time>2018-11-29T10:16:36+0100</time>
      </trkpt>
      <trkpt lat="47.23398" lon="4.96541">
        <ele>320.84317016602</ele>
        <time>2018-11-29T10:16:39+0100</time>
      </trkpt>
      <trkpt lat="47.23393" lon="4.9654">
        <ele>320.81204223633</ele>
        <time>2018-11-29T10:16:42+0100</time>
      </trkpt>
      <trkpt lat="47.23389" lon="4.96539">
        <ele>320.78707885742</ele>
        <time>2018-11-29T10:16:45+0100</time>
      </trkpt>
      <trkpt lat="47.23386" lon="4.96538">
        <ele>320.77972412109</ele>
        <time>2018-11-29T10:16:48+0100</time>
      </trkpt>
      <trkpt lat="47.23383" lon="4.96538">
        <ele>320.7705078125</ele>
        <time>2018-11-29T10:16:51+0100</time>
      </trkpt>
      <trkpt lat="47.2338" lon="4.96538">
        <ele>320.78030395508</ele>
        <time>2018-11-29T10:16:54+0100</time>
      </trkpt>
      <trkpt lat="47.23377" lon="4.96538">
        <ele>320.77557373047</ele>
        <time>2018-11-29T10:16:57+0100</time>
      </trkpt>
      <trkpt lat="47.23374" lon="4.96538">
        <ele>320.82495117188</ele>
        <time>2018-11-29T10:17:00+0100</time>
      </trkpt>
      <trkpt lat="47.23372" lon="4.96538">
        <ele>320.8720703125</ele>
        <time>2018-11-29T10:17:03+0100</time>
      </trkpt>
      <trkpt lat="47.23369" lon="4.96539">
        <ele>320.93908691406</ele>
        <time>2018-11-29T10:17:06+0100</time>
      </trkpt>
      <trkpt lat="47.23367" lon="4.96538">
        <ele>321.03280639648</ele>
        <time>2018-11-29T10:17:09+0100</time>
      </trkpt>
      <trkpt lat="47.23364" lon="4.96538">
        <ele>321.14233398438</ele>
        <time>2018-11-29T10:17:12+0100</time>
      </trkpt>
      <trkpt lat="47.23361" lon="4.96536">
        <ele>321.23428344727</ele>
        <time>2018-11-29T10:17:15+0100</time>
      </trkpt>
      <trkpt lat="47.23358" lon="4.96535">
        <ele>321.35263061523</ele>
        <time>2018-11-29T10:17:18+0100</time>
      </trkpt>
      <trkpt lat="47.23354" lon="4.96533">
        <ele>321.47348022461</ele>
        <time>2018-11-29T10:17:21+0100</time>
      </trkpt>
      <trkpt lat="47.23351" lon="4.96532">
        <ele>321.50982666016</ele>
        <time>2018-11-29T10:17:24+0100</time>
      </trkpt>
      <trkpt lat="47.23348" lon="4.96531">
        <ele>321.4716796875</ele>
        <time>2018-11-29T10:17:27+0100</time>
      </trkpt>
      <trkpt lat="47.23344" lon="4.96529">
        <ele>321.42431640625</ele>
        <time>2018-11-29T10:17:30+0100</time>
      </trkpt>
      <trkpt lat="47.23342" lon="4.96527">
        <ele>321.3864440918</ele>
        <time>2018-11-29T10:17:33+0100</time>
      </trkpt>
      <trkpt lat="47.23338" lon="4.96525">
        <ele>321.34698486328</ele>
        <time>2018-11-29T10:17:36+0100</time>
      </trkpt>
      <trkpt lat="47.23334" lon="4.96523">
        <ele>321.24755859375</ele>
        <time>2018-11-29T10:17:39+0100</time>
      </trkpt>
      <trkpt lat="47.23331" lon="4.96522">
        <ele>321.12750244141</ele>
        <time>2018-11-29T10:17:42+0100</time>
      </trkpt>
      <trkpt lat="47.23329" lon="4.9652">
        <ele>321.13040161133</ele>
        <time>2018-11-29T10:17:45+0100</time>
      </trkpt>
      <trkpt lat="47.23327" lon="4.96519">
        <ele>321.18466186523</ele>
        <time>2018-11-29T10:17:48+0100</time>
      </trkpt>
      <trkpt lat="47.23323" lon="4.96517">
        <ele>321.19702148438</ele>
        <time>2018-11-29T10:17:51+0100</time>
      </trkpt>
      <trkpt lat="47.23319" lon="4.96515">
        <ele>321.16314697266</ele>
        <time>2018-11-29T10:17:54+0100</time>
      </trkpt>
      <trkpt lat="47.23316" lon="4.96513">
        <ele>321.17092895508</ele>
        <time>2018-11-29T10:17:57+0100</time>
      </trkpt>
      <trkpt lat="47.23313" lon="4.96512">
        <ele>321.22622680664</ele>
        <time>2018-11-29T10:18:00+0100</time>
      </trkpt>
      <trkpt lat="47.23311" lon="4.96513">
        <ele>321.26666259766</ele>
        <time>2018-11-29T10:18:03+0100</time>
      </trkpt>
      <trkpt lat="47.23307" lon="4.9651">
        <ele>321.20953369141</ele>
        <time>2018-11-29T10:18:06+0100</time>
      </trkpt>
      <trkpt lat="47.23305" lon="4.96508">
        <ele>321.17233276367</ele>
        <time>2018-11-29T10:18:09+0100</time>
      </trkpt>
      <trkpt lat="47.23303" lon="4.96506">
        <ele>321.02182006836</ele>
        <time>2018-11-29T10:18:12+0100</time>
      </trkpt>
      <trkpt lat="47.23299" lon="4.96505">
        <ele>320.8864440918</ele>
        <time>2018-11-29T10:18:15+0100</time>
      </trkpt>
      <trkpt lat="47.23296" lon="4.96504">
        <ele>320.74411010742</ele>
        <time>2018-11-29T10:18:18+0100</time>
      </trkpt>
      <trkpt lat="47.23294" lon="4.96503">
        <ele>320.61676025391</ele>
        <time>2018-11-29T10:18:21+0100</time>
      </trkpt>
      <trkpt lat="47.23291" lon="4.96502">
        <ele>320.48645019531</ele>
        <time>2018-11-29T10:18:24+0100</time>
      </trkpt>
      <trkpt lat="47.23288" lon="4.96502">
        <ele>320.32354736328</ele>
        <time>2018-11-29T10:18:27+0100</time>
      </trkpt>
      <trkpt lat="47.23287" lon="4.96501">
        <ele>320.17172241211</ele>
        <time>2018-11-29T10:18:30+0100</time>
      </trkpt>
      <trkpt lat="47.23284" lon="4.965">
        <ele>320.04348754883</ele>
        <time>2018-11-29T10:18:33+0100</time>
      </trkpt>
      <trkpt lat="47.23282" lon="4.96498">
        <ele>319.90893554688</ele>
        <time>2018-11-29T10:18:36+0100</time>
      </trkpt>
      <trkpt lat="47.23279" lon="4.96497">
        <ele>319.76907348633</ele>
        <time>2018-11-29T10:18:39+0100</time>
      </trkpt>
      <trkpt lat="47.23276" lon="4.96493">
        <ele>319.57086181641</ele>
        <time>2018-11-29T10:18:42+0100</time>
      </trkpt>
      <trkpt lat="47.23273" lon="4.9649">
        <ele>319.28796386719</ele>
        <time>2018-11-29T10:18:45+0100</time>
      </trkpt>
      <trkpt lat="47.2327" lon="4.96489">
        <ele>319.00939941406</ele>
        <time>2018-11-29T10:18:48+0100</time>
      </trkpt>
      <trkpt lat="47.23268" lon="4.96488">
        <ele>318.77651977539</ele>
        <time>2018-11-29T10:18:51+0100</time>
      </trkpt>
      <trkpt lat="47.23265" lon="4.96488">
        <ele>318.55261230469</ele>
        <time>2018-11-29T10:18:54+0100</time>
      </trkpt>
      <trkpt lat="47.23263" lon="4.96486">
        <ele>318.40759277344</ele>
        <time>2018-11-29T10:18:57+0100</time>
      </trkpt>
      <trkpt lat="47.23259" lon="4.96486">
        <ele>318.23477172852</ele>
        <time>2018-11-29T10:19:00+0100</time>
      </trkpt>
      <trkpt lat="47.23256" lon="4.96487">
        <ele>318.06634521484</ele>
        <time>2018-11-29T10:19:03+0100</time>
      </trkpt>
      <trkpt lat="47.23252" lon="4.96486">
        <ele>317.90048217773</ele>
        <time>2018-11-29T10:19:06+0100</time>
      </trkpt>
      <trkpt lat="47.23249" lon="4.96484">
        <ele>317.75436401367</ele>
        <time>2018-11-29T10:19:09+0100</time>
      </trkpt>
      <trkpt lat="47.23246" lon="4.96483">
        <ele>317.65805053711</ele>
        <time>2018-11-29T10:19:12+0100</time>
      </trkpt>
      <trkpt lat="47.23243" lon="4.96481">
        <ele>317.62435913086</ele>
        <time>2018-11-29T10:19:15+0100</time>
      </trkpt>
      <trkpt lat="47.23241" lon="4.96479">
        <ele>317.64141845703</ele>
        <time>2018-11-29T10:19:18+0100</time>
      </trkpt>
      <trkpt lat="47.23239" lon="4.96478">
        <ele>317.66751098633</ele>
        <time>2018-11-29T10:19:21+0100</time>
      </trkpt>
      <trkpt lat="47.23236" lon="4.96478">
        <ele>317.74670410156</ele>
        <time>2018-11-29T10:19:24+0100</time>
      </trkpt>
      <trkpt lat="47.23232" lon="4.96477">
        <ele>317.82968139648</ele>
        <time>2018-11-29T10:19:27+0100</time>
      </trkpt>
      <trkpt lat="47.23229" lon="4.96476">
        <ele>317.92767333984</ele>
        <time>2018-11-29T10:19:30+0100</time>
      </trkpt>
      <trkpt lat="47.23224" lon="4.96475">
        <ele>317.95254516602</ele>
        <time>2018-11-29T10:19:33+0100</time>
      </trkpt>
      <trkpt lat="47.23222" lon="4.96473">
        <ele>317.94345092773</ele>
        <time>2018-11-29T10:19:36+0100</time>
      </trkpt>
      <trkpt lat="47.23219" lon="4.96473">
        <ele>317.91177368164</ele>
        <time>2018-11-29T10:19:39+0100</time>
      </trkpt>
      <trkpt lat="47.23215" lon="4.96473">
        <ele>317.81451416016</ele>
        <time>2018-11-29T10:19:42+0100</time>
      </trkpt>
      <trkpt lat="47.23211" lon="4.96471">
        <ele>317.67196655273</ele>
        <time>2018-11-29T10:19:45+0100</time>
      </trkpt>
      <trkpt lat="47.23209" lon="4.9647">
        <ele>317.53305053711</ele>
        <time>2018-11-29T10:19:48+0100</time>
      </trkpt>
      <trkpt lat="47.23205" lon="4.96469">
        <ele>317.37438964844</ele>
        <time>2018-11-29T10:19:51+0100</time>
      </trkpt>
      <trkpt lat="47.23203" lon="4.96468">
        <ele>317.23043823242</ele>
        <time>2018-11-29T10:19:54+0100</time>
      </trkpt>
      <trkpt lat="47.23201" lon="4.96467">
        <ele>317.13610839844</ele>
        <time>2018-11-29T10:19:57+0100</time>
      </trkpt>
      <trkpt lat="47.23199" lon="4.96466">
        <ele>317.12319946289</ele>
        <time>2018-11-29T10:20:00+0100</time>
      </trkpt>
      <trkpt lat="47.23196" lon="4.96465">
        <ele>317.15328979492</ele>
        <time>2018-11-29T10:20:03+0100</time>
      </trkpt>
      <trkpt lat="47.23191" lon="4.96463">
        <ele>317.12060546875</ele>
        <time>2018-11-29T10:20:06+0100</time>
      </trkpt>
      <trkpt lat="47.23186" lon="4.96461">
        <ele>316.97900390625</ele>
        <time>2018-11-29T10:20:09+0100</time>
      </trkpt>
      <trkpt lat="47.23182" lon="4.96459">
        <ele>316.83044433594</ele>
        <time>2018-11-29T10:20:12+0100</time>
      </trkpt>
      <trkpt lat="47.23177" lon="4.96455">
        <ele>316.65289306641</ele>
        <time>2018-11-29T10:20:15+0100</time>
      </trkpt>
      <trkpt lat="47.23173" lon="4.96453">
        <ele>316.38238525391</ele>
        <time>2018-11-29T10:20:18+0100</time>
      </trkpt>
      <trkpt lat="47.23171" lon="4.96452">
        <ele>316.09176635742</ele>
        <time>2018-11-29T10:20:21+0100</time>
      </trkpt>
      <trkpt lat="47.23169" lon="4.96449">
        <ele>315.85247802734</ele>
        <time>2018-11-29T10:20:24+0100</time>
      </trkpt>
      <trkpt lat="47.23166" lon="4.96447">
        <ele>315.63372802734</ele>
        <time>2018-11-29T10:20:27+0100</time>
      </trkpt>
      <trkpt lat="47.23164" lon="4.96445">
        <ele>315.46978759766</ele>
        <time>2018-11-29T10:20:30+0100</time>
      </trkpt>
      <trkpt lat="47.23162" lon="4.96444">
        <ele>315.38467407227</ele>
        <time>2018-11-29T10:20:33+0100</time>
      </trkpt>
      <trkpt lat="47.2316" lon="4.96443">
        <ele>315.38729858398</ele>
        <time>2018-11-29T10:20:36+0100</time>
      </trkpt>
      <trkpt lat="47.23157" lon="4.96441">
        <ele>315.43530273438</ele>
        <time>2018-11-29T10:20:39+0100</time>
      </trkpt>
      <trkpt lat="47.23154" lon="4.9644">
        <ele>315.48782348633</ele>
        <time>2018-11-29T10:20:42+0100</time>
      </trkpt>
      <trkpt lat="47.23151" lon="4.96439">
        <ele>315.46267700195</ele>
        <time>2018-11-29T10:20:45+0100</time>
      </trkpt>
      <trkpt lat="47.23147" lon="4.96438">
        <ele>315.38165283203</ele>
        <time>2018-11-29T10:20:48+0100</time>
      </trkpt>
      <trkpt lat="47.23144" lon="4.96437">
        <ele>315.21951293945</ele>
        <time>2018-11-29T10:20:51+0100</time>
      </trkpt>
      <trkpt lat="47.23141" lon="4.96436">
        <ele>315.03610229492</ele>
        <time>2018-11-29T10:20:54+0100</time>
      </trkpt>
      <trkpt lat="47.2314" lon="4.96434">
        <ele>314.95492553711</ele>
        <time>2018-11-29T10:20:57+0100</time>
      </trkpt>
      <trkpt lat="47.23139" lon="4.96431">
        <ele>314.8837890625</ele>
        <time>2018-11-29T10:21:00+0100</time>
      </trkpt>
      <trkpt lat="47.2314" lon="4.96431">
        <ele>314.8766784668</ele>
        <time>2018-11-29T10:21:03+0100</time>
      </trkpt>
      <trkpt lat="47.2314" lon="4.96431">
        <ele>314.87115478516</ele>
        <time>2018-11-29T10:21:06+0100</time>
      </trkpt>
      <trkpt lat="47.2314" lon="4.96431">
        <ele>314.86520385742</ele>
        <time>2018-11-29T10:21:09+0100</time>
      </trkpt>
      <trkpt lat="47.2314" lon="4.9643">
        <ele>314.85989379883</ele>
        <time>2018-11-29T10:21:12+0100</time>
      </trkpt>
      <trkpt lat="47.2314" lon="4.9643">
        <ele>314.85894775391</ele>
        <time>2018-11-29T10:21:15+0100</time>
      </trkpt>
      <trkpt lat="47.2314" lon="4.96431">
        <ele>314.88885498047</ele>
        <time>2018-11-29T10:21:18+0100</time>
      </trkpt>
      <trkpt lat="47.23139" lon="4.96429">
        <ele>314.94494628906</ele>
        <time>2018-11-29T10:21:21+0100</time>
      </trkpt>
      <trkpt lat="47.23138" lon="4.96426">
        <ele>314.95492553711</ele>
        <time>2018-11-29T10:21:24+0100</time>
      </trkpt>
      <trkpt lat="47.23137" lon="4.9642">
        <ele>314.88525390625</ele>
        <time>2018-11-29T10:21:27+0100</time>
      </trkpt>
      <trkpt lat="47.23137" lon="4.96419">
        <ele>314.86029052734</ele>
        <time>2018-11-29T10:21:30+0100</time>
      </trkpt>
      <trkpt lat="47.23138" lon="4.9642">
        <ele>314.84301757812</ele>
        <time>2018-11-29T10:21:33+0100</time>
      </trkpt>
      <trkpt lat="47.23138" lon="4.9642">
        <ele>314.82879638672</ele>
        <time>2018-11-29T10:21:36+0100</time>
      </trkpt>
      <trkpt lat="47.23138" lon="4.9642">
        <ele>314.81811523438</ele>
        <time>2018-11-29T10:21:39+0100</time>
      </trkpt>
      <trkpt lat="47.23138" lon="4.9642">
        <ele>314.81658935547</ele>
        <time>2018-11-29T10:21:42+0100</time>
      </trkpt>
      <trkpt lat="47.23139" lon="4.96421">
        <ele>314.77877807617</ele>
        <time>2018-11-29T10:21:45+0100</time>
      </trkpt>
      <trkpt lat="47.2314" lon="4.96422">
        <ele>314.7158203125</ele>
        <time>2018-11-29T10:21:48+0100</time>
      </trkpt>
      <trkpt lat="47.2314" lon="4.96422">
        <ele>314.65551757812</ele>
        <time>2018-11-29T10:21:51+0100</time>
      </trkpt>
      <trkpt lat="47.23139" lon="4.96421">
        <ele>314.52523803711</ele>
        <time>2018-11-29T10:21:54+0100</time>
      </trkpt>
      <trkpt lat="47.23139" lon="4.96421">
        <ele>314.46270751953</ele>
        <time>2018-11-29T10:21:57+0100</time>
      </trkpt>
      <trkpt lat="47.23139" lon="4.96421">
        <ele>314.44400024414</ele>
        <time>2018-11-29T10:22:00+0100</time>
      </trkpt>
      <trkpt lat="47.23139" lon="4.96421">
        <ele>314.4221496582</ele>
        <time>2018-11-29T10:22:03+0100</time>
      </trkpt>
      <trkpt lat="47.23139" lon="4.9642">
        <ele>314.39590454102</ele>
        <time>2018-11-29T10:22:06+0100</time>
      </trkpt>
      <trkpt lat="47.23139" lon="4.9642">
        <ele>314.36962890625</ele>
        <time>2018-11-29T10:22:09+0100</time>
      </trkpt>
      <trkpt lat="47.23139" lon="4.9642">
        <ele>314.3459777832</ele>
        <time>2018-11-29T10:22:12+0100</time>
      </trkpt>
      <trkpt lat="47.23139" lon="4.9642">
        <ele>314.32781982422</ele>
        <time>2018-11-29T10:22:15+0100</time>
      </trkpt>
      <trkpt lat="47.23138" lon="4.96421">
        <ele>314.31463623047</ele>
        <time>2018-11-29T10:22:18+0100</time>
      </trkpt>
      <trkpt lat="47.23138" lon="4.9642">
        <ele>314.29907226562</ele>
        <time>2018-11-29T10:22:21+0100</time>
      </trkpt>
      <trkpt lat="47.23138" lon="4.9642">
        <ele>314.28253173828</ele>
        <time>2018-11-29T10:22:24+0100</time>
      </trkpt>
      <trkpt lat="47.23138" lon="4.9642">
        <ele>314.26712036133</ele>
        <time>2018-11-29T10:22:27+0100</time>
      </trkpt>
      <trkpt lat="47.23138" lon="4.9642">
        <ele>314.25894165039</ele>
        <time>2018-11-29T10:22:30+0100</time>
      </trkpt>
      <trkpt lat="47.23138" lon="4.96419">
        <ele>314.23443603516</ele>
        <time>2018-11-29T10:22:33+0100</time>
      </trkpt>
      <trkpt lat="47.23138" lon="4.9642">
        <ele>314.21597290039</ele>
        <time>2018-11-29T10:22:36+0100</time>
      </trkpt>
      <trkpt lat="47.23137" lon="4.9642">
        <ele>314.21020507812</ele>
        <time>2018-11-29T10:22:39+0100</time>
      </trkpt>
      <trkpt lat="47.23137" lon="4.9642">
        <ele>314.20077514648</ele>
        <time>2018-11-29T10:22:42+0100</time>
      </trkpt>
      <trkpt lat="47.23137" lon="4.9642">
        <ele>314.14508056641</ele>
        <time>2018-11-29T10:22:45+0100</time>
      </trkpt>
      <trkpt lat="47.23137" lon="4.9642">
        <ele>314.13845825195</ele>
        <time>2018-11-29T10:22:48+0100</time>
      </trkpt>
      <trkpt lat="47.23137" lon="4.96421">
        <ele>314.13494873047</ele>
        <time>2018-11-29T10:22:51+0100</time>
      </trkpt>
      <trkpt lat="47.23137" lon="4.96421">
        <ele>314.11700439453</ele>
        <time>2018-11-29T10:22:54+0100</time>
      </trkpt>
      <trkpt lat="47.23137" lon="4.96421">
        <ele>314.09512329102</ele>
        <time>2018-11-29T10:22:57+0100</time>
      </trkpt>
      <trkpt lat="47.23137" lon="4.96421">
        <ele>314.08209228516</ele>
        <time>2018-11-29T10:23:00+0100</time>
      </trkpt>
      <trkpt lat="47.23137" lon="4.96421">
        <ele>314.03002929688</ele>
        <time>2018-11-29T10:23:03+0100</time>
      </trkpt>
      <trkpt lat="47.23137" lon="4.96421">
        <ele>314.01467895508</ele>
        <time>2018-11-29T10:23:06+0100</time>
      </trkpt>
      <trkpt lat="47.23137" lon="4.96421">
        <ele>313.99575805664</ele>
        <time>2018-11-29T10:23:09+0100</time>
      </trkpt>
      <trkpt lat="47.23137" lon="4.96421">
        <ele>313.98257446289</ele>
        <time>2018-11-29T10:23:12+0100</time>
      </trkpt>
      <trkpt lat="47.23137" lon="4.96421">
        <ele>313.97171020508</ele>
        <time>2018-11-29T10:23:15+0100</time>
      </trkpt>
      <trkpt lat="47.2314" lon="4.96423">
        <ele>313.94366455078</ele>
        <time>2018-11-29T10:23:18+0100</time>
      </trkpt>
      <trkpt lat="47.2314" lon="4.96422">
        <ele>313.88641357422</ele>
        <time>2018-11-29T10:23:21+0100</time>
      </trkpt>
      <trkpt lat="47.2314" lon="4.96422">
        <ele>313.86312866211</ele>
        <time>2018-11-29T10:23:24+0100</time>
      </trkpt>
      <trkpt lat="47.23139" lon="4.96422">
        <ele>313.75900268555</ele>
        <time>2018-11-29T10:23:27+0100</time>
      </trkpt>
      <trkpt lat="47.23139" lon="4.96422">
        <ele>313.73153686523</ele>
        <time>2018-11-29T10:23:30+0100</time>
      </trkpt>
      <trkpt lat="47.23139" lon="4.96421">
        <ele>313.70178222656</ele>
        <time>2018-11-29T10:23:33+0100</time>
      </trkpt>
      <trkpt lat="47.23139" lon="4.96421">
        <ele>313.67065429688</ele>
        <time>2018-11-29T10:23:36+0100</time>
      </trkpt>
      <trkpt lat="47.23139" lon="4.96421">
        <ele>313.64404296875</ele>
        <time>2018-11-29T10:23:39+0100</time>
      </trkpt>
      <trkpt lat="47.23139" lon="4.96421">
        <ele>313.62203979492</ele>
        <time>2018-11-29T10:23:42+0100</time>
      </trkpt>
      <trkpt lat="47.23139" lon="4.9642">
        <ele>313.60202026367</ele>
        <time>2018-11-29T10:23:45+0100</time>
      </trkpt>
      <trkpt lat="47.23138" lon="4.9642">
        <ele>313.59368896484</ele>
        <time>2018-11-29T10:23:48+0100</time>
      </trkpt>
      <trkpt lat="47.23138" lon="4.96419">
        <ele>313.58731079102</ele>
        <time>2018-11-29T10:23:51+0100</time>
      </trkpt>
      <trkpt lat="47.23138" lon="4.96419">
        <ele>313.58801269531</ele>
        <time>2018-11-29T10:23:54+0100</time>
      </trkpt>
      <trkpt lat="47.23138" lon="4.96419">
        <ele>313.59112548828</ele>
        <time>2018-11-29T10:23:57+0100</time>
      </trkpt>
      <trkpt lat="47.23138" lon="4.96419">
        <ele>313.59375</ele>
        <time>2018-11-29T10:24:00+0100</time>
      </trkpt>
      <trkpt lat="47.23137" lon="4.96419">
        <ele>313.59817504883</ele>
        <time>2018-11-29T10:24:03+0100</time>
      </trkpt>
      <trkpt lat="47.23137" lon="4.96419">
        <ele>313.60092163086</ele>
        <time>2018-11-29T10:24:06+0100</time>
      </trkpt>
      <trkpt lat="47.23137" lon="4.96419">
        <ele>313.59768676758</ele>
        <time>2018-11-29T10:24:09+0100</time>
      </trkpt>
      <trkpt lat="47.23137" lon="4.96419">
        <ele>313.59686279297</ele>
        <time>2018-11-29T10:24:12+0100</time>
      </trkpt>
      <trkpt lat="47.23137" lon="4.96419">
        <ele>313.60168457031</ele>
        <time>2018-11-29T10:24:15+0100</time>
      </trkpt>
      <trkpt lat="47.23137" lon="4.96419">
        <ele>313.60662841797</ele>
        <time>2018-11-29T10:24:18+0100</time>
      </trkpt>
      <trkpt lat="47.23137" lon="4.9642">
        <ele>313.60647583008</ele>
        <time>2018-11-29T10:24:21+0100</time>
      </trkpt>
      <trkpt lat="47.23137" lon="4.9642">
        <ele>313.59588623047</ele>
        <time>2018-11-29T10:24:24+0100</time>
      </trkpt>
      <trkpt lat="47.23137" lon="4.9642">
        <ele>313.5793762207</ele>
        <time>2018-11-29T10:24:27+0100</time>
      </trkpt>
      <trkpt lat="47.23137" lon="4.9642">
        <ele>313.56317138672</ele>
        <time>2018-11-29T10:24:30+0100</time>
      </trkpt>
      <trkpt lat="47.23137" lon="4.9642">
        <ele>313.53237915039</ele>
        <time>2018-11-29T10:24:33+0100</time>
      </trkpt>
      <trkpt lat="47.23137" lon="4.9642">
        <ele>313.49752807617</ele>
        <time>2018-11-29T10:24:36+0100</time>
      </trkpt>
      <trkpt lat="47.23137" lon="4.96421">
        <ele>313.47198486328</ele>
        <time>2018-11-29T10:24:39+0100</time>
      </trkpt>
      <trkpt lat="47.23137" lon="4.96421">
        <ele>313.44775390625</ele>
        <time>2018-11-29T10:24:42+0100</time>
      </trkpt>
      <trkpt lat="47.23137" lon="4.96421">
        <ele>313.42828369141</ele>
        <time>2018-11-29T10:24:45+0100</time>
      </trkpt>
      <trkpt lat="47.23137" lon="4.96422">
        <ele>313.42153930664</ele>
        <time>2018-11-29T10:24:48+0100</time>
      </trkpt>
      <trkpt lat="47.23137" lon="4.96422">
        <ele>313.42254638672</ele>
        <time>2018-11-29T10:24:51+0100</time>
      </trkpt>
      <trkpt lat="47.23137" lon="4.96422">
        <ele>313.42041015625</ele>
        <time>2018-11-29T10:24:54+0100</time>
      </trkpt>
      <trkpt lat="47.23137" lon="4.96422">
        <ele>313.40939331055</ele>
        <time>2018-11-29T10:24:57+0100</time>
      </trkpt>
      <trkpt lat="47.23136" lon="4.96422">
        <ele>313.39627075195</ele>
        <time>2018-11-29T10:25:00+0100</time>
      </trkpt>
      <trkpt lat="47.23136" lon="4.96423">
        <ele>313.39126586914</ele>
        <time>2018-11-29T10:25:03+0100</time>
      </trkpt>
      <trkpt lat="47.23136" lon="4.96423">
        <ele>313.388671875</ele>
        <time>2018-11-29T10:25:06+0100</time>
      </trkpt>
      <trkpt lat="47.23136" lon="4.96423">
        <ele>313.38619995117</ele>
        <time>2018-11-29T10:25:09+0100</time>
      </trkpt>
      <trkpt lat="47.23136" lon="4.96423">
        <ele>313.33563232422</ele>
        <time>2018-11-29T10:25:12+0100</time>
      </trkpt>
      <trkpt lat="47.23137" lon="4.96421">
        <ele>313.32778930664</ele>
        <time>2018-11-29T10:25:15+0100</time>
      </trkpt>
      <trkpt lat="47.23138" lon="4.96421">
        <ele>313.32028198242</ele>
        <time>2018-11-29T10:25:18+0100</time>
      </trkpt>
      <trkpt lat="47.23138" lon="4.9642">
        <ele>313.31002807617</ele>
        <time>2018-11-29T10:25:21+0100</time>
      </trkpt>
      <trkpt lat="47.23138" lon="4.9642">
        <ele>313.30587768555</ele>
        <time>2018-11-29T10:25:24+0100</time>
      </trkpt>
      <trkpt lat="47.23138" lon="4.9642">
        <ele>313.2956237793</ele>
        <time>2018-11-29T10:25:27+0100</time>
      </trkpt>
      <trkpt lat="47.23138" lon="4.9642">
        <ele>313.28512573242</ele>
        <time>2018-11-29T10:25:30+0100</time>
      </trkpt>
      <trkpt lat="47.23137" lon="4.96419">
        <ele>313.21221923828</ele>
        <time>2018-11-29T10:25:33+0100</time>
      </trkpt>
      <trkpt lat="47.23137" lon="4.96418">
        <ele>313.19976806641</ele>
        <time>2018-11-29T10:25:36+0100</time>
      </trkpt>
      <trkpt lat="47.23138" lon="4.9642">
        <ele>313.17102050781</ele>
        <time>2018-11-29T10:25:39+0100</time>
      </trkpt>
      <trkpt lat="47.23138" lon="4.96419">
        <ele>313.16879272461</ele>
        <time>2018-11-29T10:25:42+0100</time>
      </trkpt>
      <trkpt lat="47.23138" lon="4.96423">
        <ele>313.17337036133</ele>
        <time>2018-11-29T10:25:45+0100</time>
      </trkpt>
      <trkpt lat="47.23138" lon="4.96423">
        <ele>313.17254638672</ele>
        <time>2018-11-29T10:25:48+0100</time>
      </trkpt>
      <trkpt lat="47.23138" lon="4.96422">
        <ele>313.16497802734</ele>
        <time>2018-11-29T10:25:51+0100</time>
      </trkpt>
      <trkpt lat="47.23138" lon="4.96422">
        <ele>313.15756225586</ele>
        <time>2018-11-29T10:25:54+0100</time>
      </trkpt>
      <trkpt lat="47.23138" lon="4.96422">
        <ele>313.16244506836</ele>
        <time>2018-11-29T10:25:57+0100</time>
      </trkpt>
      <trkpt lat="47.23138" lon="4.96422">
        <ele>313.17037963867</ele>
        <time>2018-11-29T10:26:00+0100</time>
      </trkpt>
      <trkpt lat="47.23138" lon="4.96422">
        <ele>313.17077636719</ele>
        <time>2018-11-29T10:26:03+0100</time>
      </trkpt>
      <trkpt lat="47.23137" lon="4.96421">
        <ele>313.17288208008</ele>
        <time>2018-11-29T10:26:06+0100</time>
      </trkpt>
      <trkpt lat="47.23137" lon="4.9642">
        <ele>313.15576171875</ele>
        <time>2018-11-29T10:26:09+0100</time>
      </trkpt>
      <trkpt lat="47.23138" lon="4.96417">
        <ele>313.11599731445</ele>
        <time>2018-11-29T10:26:12+0100</time>
      </trkpt>
      <trkpt lat="47.23138" lon="4.96417">
        <ele>313.09222412109</ele>
        <time>2018-11-29T10:26:15+0100</time>
      </trkpt>
      <trkpt lat="47.23138" lon="4.96417">
        <ele>313.05944824219</ele>
        <time>2018-11-29T10:26:18+0100</time>
      </trkpt>
      <trkpt lat="47.23138" lon="4.96418">
        <ele>313.02011108398</ele>
        <time>2018-11-29T10:26:21+0100</time>
      </trkpt>
      <trkpt lat="47.23138" lon="4.96417">
        <ele>312.97900390625</ele>
        <time>2018-11-29T10:26:24+0100</time>
      </trkpt>
      <trkpt lat="47.23138" lon="4.96417">
        <ele>312.94226074219</ele>
        <time>2018-11-29T10:26:27+0100</time>
      </trkpt>
      <trkpt lat="47.23138" lon="4.96418">
        <ele>312.90850830078</ele>
        <time>2018-11-29T10:26:30+0100</time>
      </trkpt>
      <trkpt lat="47.23138" lon="4.96418">
        <ele>312.88146972656</ele>
        <time>2018-11-29T10:26:33+0100</time>
      </trkpt>
      <trkpt lat="47.23138" lon="4.96418">
        <ele>312.86282348633</ele>
        <time>2018-11-29T10:26:36+0100</time>
      </trkpt>
      <trkpt lat="47.23139" lon="4.96419">
        <ele>312.85171508789</ele>
        <time>2018-11-29T10:26:39+0100</time>
      </trkpt>
      <trkpt lat="47.2314" lon="4.96417">
        <ele>312.78594970703</ele>
        <time>2018-11-29T10:26:42+0100</time>
      </trkpt>
      <trkpt lat="47.23142" lon="4.96417">
        <ele>312.69143676758</ele>
        <time>2018-11-29T10:26:45+0100</time>
      </trkpt>
      <trkpt lat="47.23144" lon="4.96416">
        <ele>312.55981445312</ele>
        <time>2018-11-29T10:26:48+0100</time>
      </trkpt>
      <trkpt lat="47.23146" lon="4.96414">
        <ele>312.47665405273</ele>
        <time>2018-11-29T10:26:51+0100</time>
      </trkpt>
      <trkpt lat="47.23147" lon="4.96414">
        <ele>312.39489746094</ele>
        <time>2018-11-29T10:26:54+0100</time>
      </trkpt>
      <trkpt lat="47.23149" lon="4.96412">
        <ele>312.37744140625</ele>
        <time>2018-11-29T10:26:57+0100</time>
      </trkpt>
      <trkpt lat="47.2315" lon="4.96412">
        <ele>312.36734008789</ele>
        <time>2018-11-29T10:27:00+0100</time>
      </trkpt>
      <trkpt lat="47.23154" lon="4.9641">
        <ele>312.40344238281</ele>
        <time>2018-11-29T10:27:03+0100</time>
      </trkpt>
      <trkpt lat="47.23155" lon="4.96408">
        <ele>312.58276367188</ele>
        <time>2018-11-29T10:27:06+0100</time>
      </trkpt>
      <trkpt lat="47.23157" lon="4.96408">
        <ele>312.88662719727</ele>
        <time>2018-11-29T10:27:09+0100</time>
      </trkpt>
      <trkpt lat="47.2316" lon="4.96406">
        <ele>313.23614501953</ele>
        <time>2018-11-29T10:27:12+0100</time>
      </trkpt>
      <trkpt lat="47.23163" lon="4.96405">
        <ele>313.60412597656</ele>
        <time>2018-11-29T10:27:15+0100</time>
      </trkpt>
      <trkpt lat="47.23166" lon="4.96403">
        <ele>313.98046875</ele>
        <time>2018-11-29T10:27:18+0100</time>
      </trkpt>
      <trkpt lat="47.23168" lon="4.96402">
        <ele>314.35675048828</ele>
        <time>2018-11-29T10:27:21+0100</time>
      </trkpt>
      <trkpt lat="47.23171" lon="4.96401">
        <ele>314.70379638672</ele>
        <time>2018-11-29T10:27:24+0100</time>
      </trkpt>
      <trkpt lat="47.23174" lon="4.96401">
        <ele>315.02114868164</ele>
        <time>2018-11-29T10:27:27+0100</time>
      </trkpt>
      <trkpt lat="47.23177" lon="4.964">
        <ele>315.32766723633</ele>
        <time>2018-11-29T10:27:30+0100</time>
      </trkpt>
      <trkpt lat="47.2318" lon="4.96398">
        <ele>315.60522460938</ele>
        <time>2018-11-29T10:27:33+0100</time>
      </trkpt>
      <trkpt lat="47.23184" lon="4.96398">
        <ele>315.83087158203</ele>
        <time>2018-11-29T10:27:36+0100</time>
      </trkpt>
      <trkpt lat="47.23187" lon="4.96397">
        <ele>316.02008056641</ele>
        <time>2018-11-29T10:27:39+0100</time>
      </trkpt>
      <trkpt lat="47.2319" lon="4.96395">
        <ele>316.20004272461</ele>
        <time>2018-11-29T10:27:42+0100</time>
      </trkpt>
      <trkpt lat="47.23193" lon="4.96395">
        <ele>316.34817504883</ele>
        <time>2018-11-29T10:27:45+0100</time>
      </trkpt>
      <trkpt lat="47.23196" lon="4.96394">
        <ele>316.43441772461</ele>
        <time>2018-11-29T10:27:49+0100</time>
      </trkpt>
      <trkpt lat="47.23199" lon="4.96393">
        <ele>316.51568603516</ele>
        <time>2018-11-29T10:27:52+0100</time>
      </trkpt>
      <trkpt lat="47.23202" lon="4.9639">
        <ele>316.6413269043</ele>
        <time>2018-11-29T10:27:55+0100</time>
      </trkpt>
      <trkpt lat="47.23204" lon="4.96388">
        <ele>316.74429321289</ele>
        <time>2018-11-29T10:27:58+0100</time>
      </trkpt>
      <trkpt lat="47.23207" lon="4.96387">
        <ele>316.83236694336</ele>
        <time>2018-11-29T10:28:01+0100</time>
      </trkpt>
      <trkpt lat="47.2321" lon="4.96385">
        <ele>316.93316650391</ele>
        <time>2018-11-29T10:28:04+0100</time>
      </trkpt>
      <trkpt lat="47.23213" lon="4.96384">
        <ele>317.03598022461</ele>
        <time>2018-11-29T10:28:07+0100</time>
      </trkpt>
      <trkpt lat="47.23215" lon="4.96383">
        <ele>317.19641113281</ele>
        <time>2018-11-29T10:28:10+0100</time>
      </trkpt>
      <trkpt lat="47.23218" lon="4.96382">
        <ele>317.39471435547</ele>
        <time>2018-11-29T10:28:13+0100</time>
      </trkpt>
      <trkpt lat="47.23221" lon="4.9638">
        <ele>317.59017944336</ele>
        <time>2018-11-29T10:28:16+0100</time>
      </trkpt>
      <trkpt lat="47.23224" lon="4.96379">
        <ele>317.80401611328</ele>
        <time>2018-11-29T10:28:19+0100</time>
      </trkpt>
      <trkpt lat="47.23227" lon="4.96378">
        <ele>318.02001953125</ele>
        <time>2018-11-29T10:28:22+0100</time>
      </trkpt>
      <trkpt lat="47.23229" lon="4.96377">
        <ele>318.26391601562</ele>
        <time>2018-11-29T10:28:25+0100</time>
      </trkpt>
      <trkpt lat="47.23232" lon="4.96376">
        <ele>318.54565429688</ele>
        <time>2018-11-29T10:28:28+0100</time>
      </trkpt>
      <trkpt lat="47.23234" lon="4.96374">
        <ele>318.93179321289</ele>
        <time>2018-11-29T10:28:31+0100</time>
      </trkpt>
      <trkpt lat="47.23238" lon="4.96374">
        <ele>319.33773803711</ele>
        <time>2018-11-29T10:28:34+0100</time>
      </trkpt>
      <trkpt lat="47.23241" lon="4.96372">
        <ele>319.712890625</ele>
        <time>2018-11-29T10:28:37+0100</time>
      </trkpt>
      <trkpt lat="47.23244" lon="4.9637">
        <ele>320.06356811523</ele>
        <time>2018-11-29T10:28:40+0100</time>
      </trkpt>
      <trkpt lat="47.23247" lon="4.96369">
        <ele>320.43432617188</ele>
        <time>2018-11-29T10:28:43+0100</time>
      </trkpt>
      <trkpt lat="47.2325" lon="4.96367">
        <ele>320.78210449219</ele>
        <time>2018-11-29T10:28:46+0100</time>
      </trkpt>
      <trkpt lat="47.23253" lon="4.96365">
        <ele>321.14044189453</ele>
        <time>2018-11-29T10:28:49+0100</time>
      </trkpt>
      <trkpt lat="47.23256" lon="4.96365">
        <ele>321.47225952148</ele>
        <time>2018-11-29T10:28:52+0100</time>
      </trkpt>
      <trkpt lat="47.23259" lon="4.96363">
        <ele>321.76596069336</ele>
        <time>2018-11-29T10:28:55+0100</time>
      </trkpt>
      <trkpt lat="47.23262" lon="4.96361">
        <ele>322.01028442383</ele>
        <time>2018-11-29T10:28:58+0100</time>
      </trkpt>
      <trkpt lat="47.23265" lon="4.96359">
        <ele>322.23583984375</ele>
        <time>2018-11-29T10:29:01+0100</time>
      </trkpt>
      <trkpt lat="47.23268" lon="4.96358">
        <ele>322.42178344727</ele>
        <time>2018-11-29T10:29:04+0100</time>
      </trkpt>
      <trkpt lat="47.23271" lon="4.96357">
        <ele>322.60995483398</ele>
        <time>2018-11-29T10:29:07+0100</time>
      </trkpt>
      <trkpt lat="47.23274" lon="4.96355">
        <ele>322.78378295898</ele>
        <time>2018-11-29T10:29:10+0100</time>
      </trkpt>
      <trkpt lat="47.23277" lon="4.96353">
        <ele>322.97030639648</ele>
        <time>2018-11-29T10:29:13+0100</time>
      </trkpt>
      <trkpt lat="47.2328" lon="4.96352">
        <ele>323.17236328125</ele>
        <time>2018-11-29T10:29:16+0100</time>
      </trkpt>
      <trkpt lat="47.23283" lon="4.9635">
        <ele>323.42346191406</ele>
        <time>2018-11-29T10:29:19+0100</time>
      </trkpt>
      <trkpt lat="47.23285" lon="4.96348">
        <ele>323.67538452148</ele>
        <time>2018-11-29T10:29:22+0100</time>
      </trkpt>
      <trkpt lat="47.23289" lon="4.96347">
        <ele>323.89349365234</ele>
        <time>2018-11-29T10:29:25+0100</time>
      </trkpt>
      <trkpt lat="47.23292" lon="4.96345">
        <ele>324.13360595703</ele>
        <time>2018-11-29T10:29:28+0100</time>
      </trkpt>
      <trkpt lat="47.23294" lon="4.96343">
        <ele>324.36953735352</ele>
        <time>2018-11-29T10:29:31+0100</time>
      </trkpt>
      <trkpt lat="47.23296" lon="4.96341">
        <ele>324.58139038086</ele>
        <time>2018-11-29T10:29:34+0100</time>
      </trkpt>
      <trkpt lat="47.23299" lon="4.96339">
        <ele>324.80618286133</ele>
        <time>2018-11-29T10:29:37+0100</time>
      </trkpt>
      <trkpt lat="47.23302" lon="4.96337">
        <ele>325.04083251953</ele>
        <time>2018-11-29T10:29:40+0100</time>
      </trkpt>
      <trkpt lat="47.23304" lon="4.96335">
        <ele>325.2458190918</ele>
        <time>2018-11-29T10:29:43+0100</time>
      </trkpt>
      <trkpt lat="47.23307" lon="4.96331">
        <ele>325.45306396484</ele>
        <time>2018-11-29T10:29:46+0100</time>
      </trkpt>
      <trkpt lat="47.2331" lon="4.96329">
        <ele>325.68661499023</ele>
        <time>2018-11-29T10:29:49+0100</time>
      </trkpt>
      <trkpt lat="47.23312" lon="4.96327">
        <ele>325.96517944336</ele>
        <time>2018-11-29T10:29:52+0100</time>
      </trkpt>
      <trkpt lat="47.23314" lon="4.96326">
        <ele>326.23834228516</ele>
        <time>2018-11-29T10:29:55+0100</time>
      </trkpt>
      <trkpt lat="47.23317" lon="4.96324">
        <ele>326.49072265625</ele>
        <time>2018-11-29T10:29:58+0100</time>
      </trkpt>
      <trkpt lat="47.23319" lon="4.96323">
        <ele>326.74020385742</ele>
        <time>2018-11-29T10:30:01+0100</time>
      </trkpt>
      <trkpt lat="47.23322" lon="4.96321">
        <ele>327.01477050781</ele>
        <time>2018-11-29T10:30:04+0100</time>
      </trkpt>
      <trkpt lat="47.23324" lon="4.9632">
        <ele>327.28631591797</ele>
        <time>2018-11-29T10:30:07+0100</time>
      </trkpt>
      <trkpt lat="47.23328" lon="4.96318">
        <ele>327.58380126953</ele>
        <time>2018-11-29T10:30:10+0100</time>
      </trkpt>
      <trkpt lat="47.23331" lon="4.96315">
        <ele>327.92263793945</ele>
        <time>2018-11-29T10:30:13+0100</time>
      </trkpt>
      <trkpt lat="47.23334" lon="4.96314">
        <ele>328.26110839844</ele>
        <time>2018-11-29T10:30:16+0100</time>
      </trkpt>
      <trkpt lat="47.23337" lon="4.96312">
        <ele>328.58172607422</ele>
        <time>2018-11-29T10:30:19+0100</time>
      </trkpt>
      <trkpt lat="47.2334" lon="4.96311">
        <ele>328.92083740234</ele>
        <time>2018-11-29T10:30:22+0100</time>
      </trkpt>
      <trkpt lat="47.23342" lon="4.9631">
        <ele>329.25671386719</ele>
        <time>2018-11-29T10:30:25+0100</time>
      </trkpt>
      <trkpt lat="47.23345" lon="4.96308">
        <ele>329.62832641602</ele>
        <time>2018-11-29T10:30:28+0100</time>
      </trkpt>
      <trkpt lat="47.23348" lon="4.96307">
        <ele>330.0048828125</ele>
        <time>2018-11-29T10:30:31+0100</time>
      </trkpt>
      <trkpt lat="47.2335" lon="4.96305">
        <ele>330.38772583008</ele>
        <time>2018-11-29T10:30:34+0100</time>
      </trkpt>
      <trkpt lat="47.23354" lon="4.96304">
        <ele>330.74493408203</ele>
        <time>2018-11-29T10:30:37+0100</time>
      </trkpt>
      <trkpt lat="47.23356" lon="4.96303">
        <ele>331.16076660156</ele>
        <time>2018-11-29T10:30:40+0100</time>
      </trkpt>
      <trkpt lat="47.23358" lon="4.96302">
        <ele>331.32904052734</ele>
        <time>2018-11-29T10:30:43+0100</time>
      </trkpt>
      <trkpt lat="47.23358" lon="4.96302">
        <ele>331.42913818359</ele>
        <time>2018-11-29T10:30:46+0100</time>
      </trkpt>
      <trkpt lat="47.23358" lon="4.96302">
        <ele>331.45120239258</ele>
        <time>2018-11-29T10:30:49+0100</time>
      </trkpt>
      <trkpt lat="47.23358" lon="4.96302">
        <ele>331.47430419922</ele>
        <time>2018-11-29T10:30:52+0100</time>
      </trkpt>
      <trkpt lat="47.2336" lon="4.96301">
        <ele>331.69204711914</ele>
        <time>2018-11-29T10:30:55+0100</time>
      </trkpt>
      <trkpt lat="47.23361" lon="4.96301">
        <ele>332.01284790039</ele>
        <time>2018-11-29T10:30:58+0100</time>
      </trkpt>
      <trkpt lat="47.23364" lon="4.96301">
        <ele>332.32495117188</ele>
        <time>2018-11-29T10:31:01+0100</time>
      </trkpt>
      <trkpt lat="47.23366" lon="4.96301">
        <ele>332.65728759766</ele>
        <time>2018-11-29T10:31:04+0100</time>
      </trkpt>
      <trkpt lat="47.23369" lon="4.96301">
        <ele>332.90487670898</ele>
        <time>2018-11-29T10:31:07+0100</time>
      </trkpt>
      <trkpt lat="47.23372" lon="4.963">
        <ele>333.12268066406</ele>
        <time>2018-11-29T10:31:10+0100</time>
      </trkpt>
      <trkpt lat="47.23373" lon="4.96299">
        <ele>333.44158935547</ele>
        <time>2018-11-29T10:31:13+0100</time>
      </trkpt>
      <trkpt lat="47.23376" lon="4.96298">
        <ele>333.76647949219</ele>
        <time>2018-11-29T10:31:16+0100</time>
      </trkpt>
      <trkpt lat="47.2338" lon="4.96296">
        <ele>334.10504150391</ele>
        <time>2018-11-29T10:31:19+0100</time>
      </trkpt>
      <trkpt lat="47.23382" lon="4.96296">
        <ele>334.48968505859</ele>
        <time>2018-11-29T10:31:22+0100</time>
      </trkpt>
      <trkpt lat="47.23385" lon="4.96294">
        <ele>334.9931640625</ele>
        <time>2018-11-29T10:31:25+0100</time>
      </trkpt>
      <trkpt lat="47.23389" lon="4.96293">
        <ele>335.55853271484</ele>
        <time>2018-11-29T10:31:28+0100</time>
      </trkpt>
      <trkpt lat="47.23393" lon="4.96291">
        <ele>336.06393432617</ele>
        <time>2018-11-29T10:31:31+0100</time>
      </trkpt>
      <trkpt lat="47.23396" lon="4.96291">
        <ele>336.47421264648</ele>
        <time>2018-11-29T10:31:34+0100</time>
      </trkpt>
      <trkpt lat="47.23399" lon="4.9629">
        <ele>336.84378051758</ele>
        <time>2018-11-29T10:31:37+0100</time>
      </trkpt>
      <trkpt lat="47.23402" lon="4.96289">
        <ele>337.20858764648</ele>
        <time>2018-11-29T10:31:40+0100</time>
      </trkpt>
      <trkpt lat="47.23406" lon="4.9629">
        <ele>337.45123291016</ele>
        <time>2018-11-29T10:31:43+0100</time>
      </trkpt>
      <trkpt lat="47.23409" lon="4.9629">
        <ele>337.56018066406</ele>
        <time>2018-11-29T10:31:46+0100</time>
      </trkpt>
      <trkpt lat="47.23411" lon="4.9629">
        <ele>337.63732910156</ele>
        <time>2018-11-29T10:31:49+0100</time>
      </trkpt>
      <trkpt lat="47.23414" lon="4.96288">
        <ele>337.7790222168</ele>
        <time>2018-11-29T10:31:52+0100</time>
      </trkpt>
      <trkpt lat="47.23417" lon="4.96287">
        <ele>337.96282958984</ele>
        <time>2018-11-29T10:31:55+0100</time>
      </trkpt>
      <trkpt lat="47.23421" lon="4.96286">
        <ele>338.18130493164</ele>
        <time>2018-11-29T10:31:58+0100</time>
      </trkpt>
      <trkpt lat="47.23424" lon="4.96285">
        <ele>338.47344970703</ele>
        <time>2018-11-29T10:32:01+0100</time>
      </trkpt>
      <trkpt lat="47.23427" lon="4.96284">
        <ele>338.80090332031</ele>
        <time>2018-11-29T10:32:04+0100</time>
      </trkpt>
      <trkpt lat="47.2343" lon="4.96284">
        <ele>339.19104003906</ele>
        <time>2018-11-29T10:32:07+0100</time>
      </trkpt>
      <trkpt lat="47.23432" lon="4.96284">
        <ele>339.6301574707</ele>
        <time>2018-11-29T10:32:10+0100</time>
      </trkpt>
      <trkpt lat="47.23434" lon="4.96284">
        <ele>340.14642333984</ele>
        <time>2018-11-29T10:32:13+0100</time>
      </trkpt>
      <trkpt lat="47.23437" lon="4.96284">
        <ele>340.701171875</ele>
        <time>2018-11-29T10:32:16+0100</time>
      </trkpt>
      <trkpt lat="47.2344" lon="4.96285">
        <ele>341.2419128418</ele>
        <time>2018-11-29T10:32:19+0100</time>
      </trkpt>
      <trkpt lat="47.23443" lon="4.96284">
        <ele>341.80581665039</ele>
        <time>2018-11-29T10:32:22+0100</time>
      </trkpt>
      <trkpt lat="47.23446" lon="4.96284">
        <ele>342.3401184082</ele>
        <time>2018-11-29T10:32:25+0100</time>
      </trkpt>
      <trkpt lat="47.23448" lon="4.96284">
        <ele>342.908203125</ele>
        <time>2018-11-29T10:32:28+0100</time>
      </trkpt>
      <trkpt lat="47.23451" lon="4.96284">
        <ele>343.49188232422</ele>
        <time>2018-11-29T10:32:31+0100</time>
      </trkpt>
      <trkpt lat="47.23455" lon="4.96284">
        <ele>343.98834228516</ele>
        <time>2018-11-29T10:32:34+0100</time>
      </trkpt>
      <trkpt lat="47.23458" lon="4.96283">
        <ele>344.41024780273</ele>
        <time>2018-11-29T10:32:37+0100</time>
      </trkpt>
      <trkpt lat="47.23461" lon="4.96283">
        <ele>344.83013916016</ele>
        <time>2018-11-29T10:32:40+0100</time>
      </trkpt>
      <trkpt lat="47.23464" lon="4.96284">
        <ele>345.28067016602</ele>
        <time>2018-11-29T10:32:43+0100</time>
      </trkpt>
      <trkpt lat="47.23467" lon="4.96283">
        <ele>345.76858520508</ele>
        <time>2018-11-29T10:32:46+0100</time>
      </trkpt>
      <trkpt lat="47.2347" lon="4.96281">
        <ele>346.18865966797</ele>
        <time>2018-11-29T10:32:49+0100</time>
      </trkpt>
      <trkpt lat="47.23473" lon="4.96282">
        <ele>346.54574584961</ele>
        <time>2018-11-29T10:32:52+0100</time>
      </trkpt>
      <trkpt lat="47.23475" lon="4.9628">
        <ele>346.85638427734</ele>
        <time>2018-11-29T10:32:55+0100</time>
      </trkpt>
      <trkpt lat="47.23479" lon="4.96279">
        <ele>347.10980224609</ele>
        <time>2018-11-29T10:32:58+0100</time>
      </trkpt>
      <trkpt lat="47.23482" lon="4.96277">
        <ele>347.29794311523</ele>
        <time>2018-11-29T10:33:01+0100</time>
      </trkpt>
      <trkpt lat="47.23484" lon="4.96276">
        <ele>347.44879150391</ele>
        <time>2018-11-29T10:33:04+0100</time>
      </trkpt>
      <trkpt lat="47.23487" lon="4.96273">
        <ele>347.61721801758</ele>
        <time>2018-11-29T10:33:07+0100</time>
      </trkpt>
      <trkpt lat="47.2349" lon="4.96271">
        <ele>347.79138183594</ele>
        <time>2018-11-29T10:33:10+0100</time>
      </trkpt>
      <trkpt lat="47.23491" lon="4.96269">
        <ele>347.94839477539</ele>
        <time>2018-11-29T10:33:13+0100</time>
      </trkpt>
      <trkpt lat="47.23493" lon="4.96267">
        <ele>348.18237304688</ele>
        <time>2018-11-29T10:33:16+0100</time>
      </trkpt>
      <trkpt lat="47.23495" lon="4.96264">
        <ele>348.46154785156</ele>
        <time>2018-11-29T10:33:19+0100</time>
      </trkpt>
      <trkpt lat="47.23498" lon="4.96262">
        <ele>348.72711181641</ele>
        <time>2018-11-29T10:33:22+0100</time>
      </trkpt>
      <trkpt lat="47.23499" lon="4.9626">
        <ele>349.0153503418</ele>
        <time>2018-11-29T10:33:25+0100</time>
      </trkpt>
      <trkpt lat="47.23502" lon="4.96257">
        <ele>349.31317138672</ele>
        <time>2018-11-29T10:33:28+0100</time>
      </trkpt>
      <trkpt lat="47.23504" lon="4.96256">
        <ele>349.51547241211</ele>
        <time>2018-11-29T10:33:31+0100</time>
      </trkpt>
      <trkpt lat="47.23507" lon="4.96254">
        <ele>349.65118408203</ele>
        <time>2018-11-29T10:33:34+0100</time>
      </trkpt>
      <trkpt lat="47.23508" lon="4.96253">
        <ele>349.74768066406</ele>
        <time>2018-11-29T10:33:37+0100</time>
      </trkpt>
      <trkpt lat="47.2351" lon="4.9625">
        <ele>349.80981445312</ele>
        <time>2018-11-29T10:33:40+0100</time>
      </trkpt>
      <trkpt lat="47.23512" lon="4.96246">
        <ele>349.84161376953</ele>
        <time>2018-11-29T10:33:43+0100</time>
      </trkpt>
      <trkpt lat="47.23513" lon="4.96242">
        <ele>349.90020751953</ele>
        <time>2018-11-29T10:33:46+0100</time>
      </trkpt>
      <trkpt lat="47.23514" lon="4.96239">
        <ele>349.94027709961</ele>
        <time>2018-11-29T10:33:49+0100</time>
      </trkpt>
      <trkpt lat="47.23515" lon="4.96235">
        <ele>349.98910522461</ele>
        <time>2018-11-29T10:33:52+0100</time>
      </trkpt>
      <trkpt lat="47.23516" lon="4.96232">
        <ele>350.06198120117</ele>
        <time>2018-11-29T10:33:55+0100</time>
      </trkpt>
      <trkpt lat="47.23516" lon="4.9623">
        <ele>350.14422607422</ele>
        <time>2018-11-29T10:33:58+0100</time>
      </trkpt>
      <trkpt lat="47.23516" lon="4.9623">
        <ele>350.18112182617</ele>
        <time>2018-11-29T10:34:01+0100</time>
      </trkpt>
      <trkpt lat="47.23516" lon="4.9623">
        <ele>350.19528198242</ele>
        <time>2018-11-29T10:34:04+0100</time>
      </trkpt>
      <trkpt lat="47.23515" lon="4.9623">
        <ele>350.22207641602</ele>
        <time>2018-11-29T10:34:07+0100</time>
      </trkpt>
      <trkpt lat="47.23515" lon="4.9623">
        <ele>350.25924682617</ele>
        <time>2018-11-29T10:34:10+0100</time>
      </trkpt>
      <trkpt lat="47.23515" lon="4.9623">
        <ele>350.41357421875</ele>
        <time>2018-11-29T10:34:13+0100</time>
      </trkpt>
      <trkpt lat="47.23516" lon="4.96229">
        <ele>350.83383178711</ele>
        <time>2018-11-29T10:34:16+0100</time>
      </trkpt>
      <trkpt lat="47.23521" lon="4.96228">
        <ele>351.08880615234</ele>
        <time>2018-11-29T10:34:19+0100</time>
      </trkpt>
      <trkpt lat="47.23523" lon="4.96227">
        <ele>351.26522827148</ele>
        <time>2018-11-29T10:34:22+0100</time>
      </trkpt>
      <trkpt lat="47.23526" lon="4.96226">
        <ele>351.49307250977</ele>
        <time>2018-11-29T10:34:25+0100</time>
      </trkpt>
      <trkpt lat="47.23527" lon="4.96226">
        <ele>351.583984375</ele>
        <time>2018-11-29T10:34:28+0100</time>
      </trkpt>
      <trkpt lat="47.23527" lon="4.96227">
        <ele>351.59594726562</ele>
        <time>2018-11-29T10:34:31+0100</time>
      </trkpt>
      <trkpt lat="47.23529" lon="4.96228">
        <ele>351.7151184082</ele>
        <time>2018-11-29T10:34:34+0100</time>
      </trkpt>
      <trkpt lat="47.23529" lon="4.96229">
        <ele>351.8157043457</ele>
        <time>2018-11-29T10:34:37+0100</time>
      </trkpt>
      <trkpt lat="47.2353" lon="4.96229">
        <ele>351.82775878906</ele>
        <time>2018-11-29T10:34:40+0100</time>
      </trkpt>
      <trkpt lat="47.2353" lon="4.96228">
        <ele>351.83340454102</ele>
        <time>2018-11-29T10:34:43+0100</time>
      </trkpt>
      <trkpt lat="47.23529" lon="4.96228">
        <ele>351.92221069336</ele>
        <time>2018-11-29T10:34:46+0100</time>
      </trkpt>
      <trkpt lat="47.23531" lon="4.96227">
        <ele>352.13714599609</ele>
        <time>2018-11-29T10:34:49+0100</time>
      </trkpt>
      <trkpt lat="47.23534" lon="4.96226">
        <ele>352.2760925293</ele>
        <time>2018-11-29T10:34:52+0100</time>
      </trkpt>
      <trkpt lat="47.23536" lon="4.96226">
        <ele>352.3557434082</ele>
        <time>2018-11-29T10:34:55+0100</time>
      </trkpt>
      <trkpt lat="47.23539" lon="4.96224">
        <ele>352.42016601562</ele>
        <time>2018-11-29T10:34:58+0100</time>
      </trkpt>
      <trkpt lat="47.23539" lon="4.96224">
        <ele>352.38613891602</ele>
        <time>2018-11-29T10:35:01+0100</time>
      </trkpt>
      <trkpt lat="47.23539" lon="4.96223">
        <ele>352.32583618164</ele>
        <time>2018-11-29T10:35:04+0100</time>
      </trkpt>
      <trkpt lat="47.23539" lon="4.96223">
        <ele>352.39154052734</ele>
        <time>2018-11-29T10:35:07+0100</time>
      </trkpt>
      <trkpt lat="47.23541" lon="4.96222">
        <ele>352.52145385742</ele>
        <time>2018-11-29T10:35:10+0100</time>
      </trkpt>
      <trkpt lat="47.23543" lon="4.96222">
        <ele>352.66903686523</ele>
        <time>2018-11-29T10:35:13+0100</time>
      </trkpt>
      <trkpt lat="47.23544" lon="4.96222">
        <ele>352.79138183594</ele>
        <time>2018-11-29T10:35:16+0100</time>
      </trkpt>
      <trkpt lat="47.23547" lon="4.96221">
        <ele>352.806640625</ele>
        <time>2018-11-29T10:35:19+0100</time>
      </trkpt>
      <trkpt lat="47.23547" lon="4.96221">
        <ele>352.82241821289</ele>
        <time>2018-11-29T10:35:22+0100</time>
      </trkpt>
      <trkpt lat="47.23547" lon="4.96223">
        <ele>352.91842651367</ele>
        <time>2018-11-29T10:35:25+0100</time>
      </trkpt>
      <trkpt lat="47.23546" lon="4.96223">
        <ele>353.02471923828</ele>
        <time>2018-11-29T10:35:28+0100</time>
      </trkpt>
      <trkpt lat="47.23546" lon="4.96226">
        <ele>353.12030029297</ele>
        <time>2018-11-29T10:35:31+0100</time>
      </trkpt>
      <trkpt lat="47.23547" lon="4.96228">
        <ele>353.16564941406</ele>
        <time>2018-11-29T10:35:34+0100</time>
      </trkpt>
      <trkpt lat="47.23547" lon="4.96232">
        <ele>353.1618347168</ele>
        <time>2018-11-29T10:35:37+0100</time>
      </trkpt>
      <trkpt lat="47.23547" lon="4.96233">
        <ele>353.10443115234</ele>
        <time>2018-11-29T10:35:40+0100</time>
      </trkpt>
      <trkpt lat="47.23547" lon="4.96234">
        <ele>353.00631713867</ele>
        <time>2018-11-29T10:35:43+0100</time>
      </trkpt>
      <trkpt lat="47.23547" lon="4.96237">
        <ele>352.86645507812</ele>
        <time>2018-11-29T10:35:46+0100</time>
      </trkpt>
      <trkpt lat="47.23548" lon="4.96241">
        <ele>352.65365600586</ele>
        <time>2018-11-29T10:35:49+0100</time>
      </trkpt>
      <trkpt lat="47.23549" lon="4.96248">
        <ele>352.36175537109</ele>
        <time>2018-11-29T10:35:52+0100</time>
      </trkpt>
      <trkpt lat="47.23552" lon="4.96251">
        <ele>352.02896118164</ele>
        <time>2018-11-29T10:35:55+0100</time>
      </trkpt>
      <trkpt lat="47.23555" lon="4.96252">
        <ele>351.72045898438</ele>
        <time>2018-11-29T10:35:58+0100</time>
      </trkpt>
      <trkpt lat="47.23558" lon="4.96252">
        <ele>351.47421264648</ele>
        <time>2018-11-29T10:36:01+0100</time>
      </trkpt>
      <trkpt lat="47.2356" lon="4.96252">
        <ele>351.28125</ele>
        <time>2018-11-29T10:36:04+0100</time>
      </trkpt>
      <trkpt lat="47.23564" lon="4.96252">
        <ele>351.07369995117</ele>
        <time>2018-11-29T10:36:07+0100</time>
      </trkpt>
      <trkpt lat="47.23566" lon="4.96249">
        <ele>350.80261230469</ele>
        <time>2018-11-29T10:36:10+0100</time>
      </trkpt>
      <trkpt lat="47.23567" lon="4.96246">
        <ele>350.6116027832</ele>
        <time>2018-11-29T10:36:13+0100</time>
      </trkpt>
      <trkpt lat="47.23568" lon="4.96241">
        <ele>350.44476318359</ele>
        <time>2018-11-29T10:36:16+0100</time>
      </trkpt>
      <trkpt lat="47.23568" lon="4.96235">
        <ele>350.33584594727</ele>
        <time>2018-11-29T10:36:19+0100</time>
      </trkpt>
      <trkpt lat="47.23569" lon="4.96231">
        <ele>350.23034667969</ele>
        <time>2018-11-29T10:36:22+0100</time>
      </trkpt>
      <trkpt lat="47.2357" lon="4.9623">
        <ele>350.14227294922</ele>
        <time>2018-11-29T10:36:25+0100</time>
      </trkpt>
      <trkpt lat="47.23571" lon="4.9623">
        <ele>350.05667114258</ele>
        <time>2018-11-29T10:36:28+0100</time>
      </trkpt>
      <trkpt lat="47.23573" lon="4.9623">
        <ele>350.02822875977</ele>
        <time>2018-11-29T10:36:31+0100</time>
      </trkpt>
      <trkpt lat="47.23576" lon="4.9623">
        <ele>350.00915527344</ele>
        <time>2018-11-29T10:36:34+0100</time>
      </trkpt>
      <trkpt lat="47.23577" lon="4.96231">
        <ele>349.97348022461</ele>
        <time>2018-11-29T10:36:37+0100</time>
      </trkpt>
      <trkpt lat="47.23576" lon="4.96232">
        <ele>349.9573059082</ele>
        <time>2018-11-29T10:36:40+0100</time>
      </trkpt>
      <trkpt lat="47.23576" lon="4.96231">
        <ele>349.97091674805</ele>
        <time>2018-11-29T10:36:43+0100</time>
      </trkpt>
      <trkpt lat="47.23576" lon="4.96231">
        <ele>349.98428344727</ele>
        <time>2018-11-29T10:36:46+0100</time>
      </trkpt>
      <trkpt lat="47.23576" lon="4.96231">
        <ele>349.99295043945</ele>
        <time>2018-11-29T10:36:49+0100</time>
      </trkpt>
      <trkpt lat="47.23578" lon="4.96229">
        <ele>350.02954101562</ele>
        <time>2018-11-29T10:36:52+0100</time>
      </trkpt>
      <trkpt lat="47.23579" lon="4.96229">
        <ele>350.10693359375</ele>
        <time>2018-11-29T10:36:55+0100</time>
      </trkpt>
      <trkpt lat="47.23581" lon="4.96228">
        <ele>350.15042114258</ele>
        <time>2018-11-29T10:36:58+0100</time>
      </trkpt>
      <trkpt lat="47.23582" lon="4.96227">
        <ele>350.17016601562</ele>
        <time>2018-11-29T10:37:01+0100</time>
      </trkpt>
      <trkpt lat="47.23582" lon="4.96227">
        <ele>350.25494384766</ele>
        <time>2018-11-29T10:37:04+0100</time>
      </trkpt>
      <trkpt lat="47.23583" lon="4.9623">
        <ele>350.27389526367</ele>
        <time>2018-11-29T10:37:07+0100</time>
      </trkpt>
      <trkpt lat="47.23584" lon="4.96231">
        <ele>350.28271484375</ele>
        <time>2018-11-29T10:37:10+0100</time>
      </trkpt>
      <trkpt lat="47.23584" lon="4.96231">
        <ele>350.28268432617</ele>
        <time>2018-11-29T10:37:13+0100</time>
      </trkpt>
      <trkpt lat="47.23584" lon="4.96231">
        <ele>350.28732299805</ele>
        <time>2018-11-29T10:37:16+0100</time>
      </trkpt>
      <trkpt lat="47.23584" lon="4.96231">
        <ele>350.29379272461</ele>
        <time>2018-11-29T10:37:19+0100</time>
      </trkpt>
      <trkpt lat="47.23584" lon="4.96231">
        <ele>350.29849243164</ele>
        <time>2018-11-29T10:37:22+0100</time>
      </trkpt>
      <trkpt lat="47.23584" lon="4.96231">
        <ele>350.29623413086</ele>
        <time>2018-11-29T10:37:25+0100</time>
      </trkpt>
      <trkpt lat="47.23585" lon="4.96231">
        <ele>350.29119873047</ele>
        <time>2018-11-29T10:37:28+0100</time>
      </trkpt>
      <trkpt lat="47.23585" lon="4.96231">
        <ele>350.28482055664</ele>
        <time>2018-11-29T10:37:31+0100</time>
      </trkpt>
      <trkpt lat="47.23585" lon="4.96231">
        <ele>350.27798461914</ele>
        <time>2018-11-29T10:37:34+0100</time>
      </trkpt>
      <trkpt lat="47.23585" lon="4.96231">
        <ele>350.27105712891</ele>
        <time>2018-11-29T10:37:37+0100</time>
      </trkpt>
      <trkpt lat="47.23585" lon="4.96231">
        <ele>350.26110839844</ele>
        <time>2018-11-29T10:37:40+0100</time>
      </trkpt>
      <trkpt lat="47.23585" lon="4.96231">
        <ele>350.24847412109</ele>
        <time>2018-11-29T10:37:43+0100</time>
      </trkpt>
      <trkpt lat="47.23585" lon="4.96232">
        <ele>350.23690795898</ele>
        <time>2018-11-29T10:37:46+0100</time>
      </trkpt>
      <trkpt lat="47.23585" lon="4.96232">
        <ele>350.13970947266</ele>
        <time>2018-11-29T10:37:49+0100</time>
      </trkpt>
      <trkpt lat="47.23587" lon="4.96233">
        <ele>350.08166503906</ele>
        <time>2018-11-29T10:37:52+0100</time>
      </trkpt>
      <trkpt lat="47.23587" lon="4.96234">
        <ele>350.05438232422</ele>
        <time>2018-11-29T10:37:55+0100</time>
      </trkpt>
      <trkpt lat="47.23588" lon="4.96234">
        <ele>350.08041381836</ele>
        <time>2018-11-29T10:37:58+0100</time>
      </trkpt>
      <trkpt lat="47.2359" lon="4.96237">
        <ele>350.19711303711</ele>
        <time>2018-11-29T10:38:01+0100</time>
      </trkpt>
      <trkpt lat="47.23592" lon="4.96238">
        <ele>350.35250854492</ele>
        <time>2018-11-29T10:38:04+0100</time>
      </trkpt>
      <trkpt lat="47.23594" lon="4.9624">
        <ele>350.54449462891</ele>
        <time>2018-11-29T10:38:07+0100</time>
      </trkpt>
      <trkpt lat="47.23597" lon="4.96242">
        <ele>350.76507568359</ele>
        <time>2018-11-29T10:38:10+0100</time>
      </trkpt>
      <trkpt lat="47.23598" lon="4.96244">
        <ele>351.03015136719</ele>
        <time>2018-11-29T10:38:13+0100</time>
      </trkpt>
      <trkpt lat="47.23599" lon="4.96245">
        <ele>351.3283996582</ele>
        <time>2018-11-29T10:38:16+0100</time>
      </trkpt>
      <trkpt lat="47.23601" lon="4.96246">
        <ele>351.55523681641</ele>
        <time>2018-11-29T10:38:19+0100</time>
      </trkpt>
      <trkpt lat="47.23602" lon="4.96247">
        <ele>351.64880371094</ele>
        <time>2018-11-29T10:38:22+0100</time>
      </trkpt>
      <trkpt lat="47.23602" lon="4.96251">
        <ele>351.64660644531</ele>
        <time>2018-11-29T10:38:25+0100</time>
      </trkpt>
      <trkpt lat="47.23601" lon="4.96252">
        <ele>351.6975402832</ele>
        <time>2018-11-29T10:38:28+0100</time>
      </trkpt>
      <trkpt lat="47.23601" lon="4.96255">
        <ele>351.71505737305</ele>
        <time>2018-11-29T10:38:31+0100</time>
      </trkpt>
      <trkpt lat="47.23601" lon="4.96258">
        <ele>351.69683837891</ele>
        <time>2018-11-29T10:38:34+0100</time>
      </trkpt>
      <trkpt lat="47.23601" lon="4.96261">
        <ele>351.69940185547</ele>
        <time>2018-11-29T10:38:37+0100</time>
      </trkpt>
      <trkpt lat="47.23601" lon="4.96264">
        <ele>351.71380615234</ele>
        <time>2018-11-29T10:38:40+0100</time>
      </trkpt>
      <trkpt lat="47.23602" lon="4.96268">
        <ele>351.70529174805</ele>
        <time>2018-11-29T10:38:43+0100</time>
      </trkpt>
      <trkpt lat="47.23604" lon="4.96271">
        <ele>351.80035400391</ele>
        <time>2018-11-29T10:38:46+0100</time>
      </trkpt>
      <trkpt lat="47.23605" lon="4.96275">
        <ele>351.89724731445</ele>
        <time>2018-11-29T10:38:49+0100</time>
      </trkpt>
      <trkpt lat="47.23607" lon="4.9628">
        <ele>351.91555786133</ele>
        <time>2018-11-29T10:38:52+0100</time>
      </trkpt>
      <trkpt lat="47.23609" lon="4.96285">
        <ele>351.91052246094</ele>
        <time>2018-11-29T10:38:55+0100</time>
      </trkpt>
      <trkpt lat="47.23612" lon="4.96288">
        <ele>351.84368896484</ele>
        <time>2018-11-29T10:38:58+0100</time>
      </trkpt>
      <trkpt lat="47.23614" lon="4.96289">
        <ele>351.59439086914</ele>
        <time>2018-11-29T10:39:01+0100</time>
      </trkpt>
      <trkpt lat="47.23617" lon="4.96292">
        <ele>351.30841064453</ele>
        <time>2018-11-29T10:39:04+0100</time>
      </trkpt>
      <trkpt lat="47.2362" lon="4.96295">
        <ele>351.02627563477</ele>
        <time>2018-11-29T10:39:07+0100</time>
      </trkpt>
      <trkpt lat="47.23624" lon="4.96296">
        <ele>350.81448364258</ele>
        <time>2018-11-29T10:39:10+0100</time>
      </trkpt>
      <trkpt lat="47.23627" lon="4.96294">
        <ele>350.60043334961</ele>
        <time>2018-11-29T10:39:13+0100</time>
      </trkpt>
      <trkpt lat="47.23628" lon="4.96293">
        <ele>350.41195678711</ele>
        <time>2018-11-29T10:39:16+0100</time>
      </trkpt>
      <trkpt lat="47.2363" lon="4.96287">
        <ele>350.29956054688</ele>
        <time>2018-11-29T10:39:19+0100</time>
      </trkpt>
      <trkpt lat="47.23631" lon="4.96283">
        <ele>350.20053100586</ele>
        <time>2018-11-29T10:39:22+0100</time>
      </trkpt>
      <trkpt lat="47.23632" lon="4.9628">
        <ele>350.11831665039</ele>
        <time>2018-11-29T10:39:25+0100</time>
      </trkpt>
      <trkpt lat="47.23632" lon="4.96276">
        <ele>350.06802368164</ele>
        <time>2018-11-29T10:39:28+0100</time>
      </trkpt>
      <trkpt lat="47.23632" lon="4.96273">
        <ele>350.06198120117</ele>
        <time>2018-11-29T10:39:31+0100</time>
      </trkpt>
      <trkpt lat="47.23633" lon="4.9627">
        <ele>350.09432983398</ele>
        <time>2018-11-29T10:39:34+0100</time>
      </trkpt>
      <trkpt lat="47.23634" lon="4.96267">
        <ele>350.20159912109</ele>
        <time>2018-11-29T10:39:37+0100</time>
      </trkpt>
      <trkpt lat="47.23634" lon="4.96265">
        <ele>350.33935546875</ele>
        <time>2018-11-29T10:39:40+0100</time>
      </trkpt>
      <trkpt lat="47.23634" lon="4.96262">
        <ele>350.50381469727</ele>
        <time>2018-11-29T10:39:43+0100</time>
      </trkpt>
      <trkpt lat="47.23635" lon="4.9626">
        <ele>350.68225097656</ele>
        <time>2018-11-29T10:39:46+0100</time>
      </trkpt>
      <trkpt lat="47.23635" lon="4.96258">
        <ele>350.87026977539</ele>
        <time>2018-11-29T10:39:49+0100</time>
      </trkpt>
      <trkpt lat="47.23635" lon="4.96257">
        <ele>351.04873657227</ele>
        <time>2018-11-29T10:39:52+0100</time>
      </trkpt>
      <trkpt lat="47.23636" lon="4.96254">
        <ele>351.24926757812</ele>
        <time>2018-11-29T10:39:55+0100</time>
      </trkpt>
      <trkpt lat="47.23636" lon="4.96252">
        <ele>351.4592590332</ele>
        <time>2018-11-29T10:39:58+0100</time>
      </trkpt>
      <trkpt lat="47.23637" lon="4.96251">
        <ele>351.68350219727</ele>
        <time>2018-11-29T10:40:01+0100</time>
      </trkpt>
      <trkpt lat="47.23637" lon="4.9625">
        <ele>351.70553588867</ele>
        <time>2018-11-29T10:40:04+0100</time>
      </trkpt>
      <trkpt lat="47.23636" lon="4.9625">
        <ele>351.81427001953</ele>
        <time>2018-11-29T10:40:07+0100</time>
      </trkpt>
      <trkpt lat="47.23637" lon="4.96248">
        <ele>352.1357421875</ele>
        <time>2018-11-29T10:40:10+0100</time>
      </trkpt>
      <trkpt lat="47.23636" lon="4.96247">
        <ele>352.17309570312</ele>
        <time>2018-11-29T10:40:13+0100</time>
      </trkpt>
      <trkpt lat="47.23635" lon="4.96248">
        <ele>352.56753540039</ele>
        <time>2018-11-29T10:40:16+0100</time>
      </trkpt>
      <trkpt lat="47.23636" lon="4.96248">
        <ele>352.77572631836</ele>
        <time>2018-11-29T10:40:19+0100</time>
      </trkpt>
      <trkpt lat="47.23636" lon="4.96248">
        <ele>352.81524658203</ele>
        <time>2018-11-29T10:40:22+0100</time>
      </trkpt>
      <trkpt lat="47.23636" lon="4.96249">
        <ele>352.82913208008</ele>
        <time>2018-11-29T10:40:25+0100</time>
      </trkpt>
      <trkpt lat="47.23636" lon="4.96249">
        <ele>352.84658813477</ele>
        <time>2018-11-29T10:40:28+0100</time>
      </trkpt>
      <trkpt lat="47.23636" lon="4.96249">
        <ele>352.87567138672</ele>
        <time>2018-11-29T10:40:31+0100</time>
      </trkpt>
      <trkpt lat="47.23636" lon="4.96248">
        <ele>352.92047119141</ele>
        <time>2018-11-29T10:40:34+0100</time>
      </trkpt>
      <trkpt lat="47.23637" lon="4.96247">
        <ele>352.97308349609</ele>
        <time>2018-11-29T10:40:37+0100</time>
      </trkpt>
      <trkpt lat="47.23637" lon="4.96247">
        <ele>353.03530883789</ele>
        <time>2018-11-29T10:40:40+0100</time>
      </trkpt>
      <trkpt lat="47.23637" lon="4.96247">
        <ele>353.1142578125</ele>
        <time>2018-11-29T10:40:43+0100</time>
      </trkpt>
      <trkpt lat="47.23637" lon="4.96247">
        <ele>353.19439697266</ele>
        <time>2018-11-29T10:40:46+0100</time>
      </trkpt>
      <trkpt lat="47.23637" lon="4.96247">
        <ele>353.27249145508</ele>
        <time>2018-11-29T10:40:49+0100</time>
      </trkpt>
      <trkpt lat="47.23637" lon="4.96246">
        <ele>353.34271240234</ele>
        <time>2018-11-29T10:40:52+0100</time>
      </trkpt>
      <trkpt lat="47.23637" lon="4.96246">
        <ele>353.40704345703</ele>
        <time>2018-11-29T10:40:55+0100</time>
      </trkpt>
      <trkpt lat="47.23637" lon="4.96247">
        <ele>353.46356201172</ele>
        <time>2018-11-29T10:40:58+0100</time>
      </trkpt>
      <trkpt lat="47.23637" lon="4.96247">
        <ele>353.50119018555</ele>
        <time>2018-11-29T10:41:01+0100</time>
      </trkpt>
      <trkpt lat="47.23638" lon="4.96247">
        <ele>353.64266967773</ele>
        <time>2018-11-29T10:41:04+0100</time>
      </trkpt>
      <trkpt lat="47.2364" lon="4.96247">
        <ele>354.02822875977</ele>
        <time>2018-11-29T10:41:07+0100</time>
      </trkpt>
      <trkpt lat="47.23644" lon="4.96248">
        <ele>354.35452270508</ele>
        <time>2018-11-29T10:41:10+0100</time>
      </trkpt>
      <trkpt lat="47.23647" lon="4.96249">
        <ele>354.65014648438</ele>
        <time>2018-11-29T10:41:12+0100</time>
      </trkpt>
      <trkpt lat="47.23649" lon="4.9625">
        <ele>354.95217895508</ele>
        <time>2018-11-29T10:41:15+0100</time>
      </trkpt>
      <trkpt lat="47.23651" lon="4.96251">
        <ele>355.20510864258</ele>
        <time>2018-11-29T10:41:18+0100</time>
      </trkpt>
      <trkpt lat="47.23652" lon="4.96252">
        <ele>355.46746826172</ele>
        <time>2018-11-29T10:41:21+0100</time>
      </trkpt>
      <trkpt lat="47.23655" lon="4.96251">
        <ele>355.7848815918</ele>
        <time>2018-11-29T10:41:24+0100</time>
      </trkpt>
      <trkpt lat="47.23657" lon="4.96252">
        <ele>356.1064453125</ele>
        <time>2018-11-29T10:41:27+0100</time>
      </trkpt>
      <trkpt lat="47.23659" lon="4.96252">
        <ele>356.39813232422</ele>
        <time>2018-11-29T10:41:30+0100</time>
      </trkpt>
      <trkpt lat="47.23662" lon="4.96253">
        <ele>356.69235229492</ele>
        <time>2018-11-29T10:41:33+0100</time>
      </trkpt>
      <trkpt lat="47.23665" lon="4.96253">
        <ele>357.00991821289</ele>
        <time>2018-11-29T10:41:36+0100</time>
      </trkpt>
      <trkpt lat="47.23666" lon="4.96253">
        <ele>357.34143066406</ele>
        <time>2018-11-29T10:41:39+0100</time>
      </trkpt>
      <trkpt lat="47.2367" lon="4.96253">
        <ele>357.66571044922</ele>
        <time>2018-11-29T10:41:42+0100</time>
      </trkpt>
      <trkpt lat="47.23673" lon="4.96254">
        <ele>357.89624023438</ele>
        <time>2018-11-29T10:41:45+0100</time>
      </trkpt>
      <trkpt lat="47.23676" lon="4.96255">
        <ele>358.06448364258</ele>
        <time>2018-11-29T10:41:48+0100</time>
      </trkpt>
      <trkpt lat="47.23679" lon="4.96255">
        <ele>358.16442871094</ele>
        <time>2018-11-29T10:41:51+0100</time>
      </trkpt>
      <trkpt lat="47.23681" lon="4.96257">
        <ele>358.1946105957</ele>
        <time>2018-11-29T10:41:54+0100</time>
      </trkpt>
      <trkpt lat="47.23684" lon="4.96258">
        <ele>358.20401000977</ele>
        <time>2018-11-29T10:41:57+0100</time>
      </trkpt>
      <trkpt lat="47.23688" lon="4.96258">
        <ele>358.20541381836</ele>
        <time>2018-11-29T10:42:00+0100</time>
      </trkpt>
      <trkpt lat="47.2369" lon="4.96258">
        <ele>358.18280029297</ele>
        <time>2018-11-29T10:42:03+0100</time>
      </trkpt>
      <trkpt lat="47.23694" lon="4.96258">
        <ele>358.16326904297</ele>
        <time>2018-11-29T10:42:06+0100</time>
      </trkpt>
      <trkpt lat="47.23696" lon="4.96259">
        <ele>358.14392089844</ele>
        <time>2018-11-29T10:42:09+0100</time>
      </trkpt>
      <trkpt lat="47.23698" lon="4.96259">
        <ele>358.15573120117</ele>
        <time>2018-11-29T10:42:12+0100</time>
      </trkpt>
      <trkpt lat="47.23702" lon="4.96261">
        <ele>358.23257446289</ele>
        <time>2018-11-29T10:42:15+0100</time>
      </trkpt>
      <trkpt lat="47.23705" lon="4.96261">
        <ele>358.27597045898</ele>
        <time>2018-11-29T10:42:18+0100</time>
      </trkpt>
      <trkpt lat="47.23709" lon="4.96262">
        <ele>358.29940795898</ele>
        <time>2018-11-29T10:42:21+0100</time>
      </trkpt>
      <trkpt lat="47.2371" lon="4.96263">
        <ele>358.29867553711</ele>
        <time>2018-11-29T10:42:24+0100</time>
      </trkpt>
      <trkpt lat="47.23714" lon="4.96263">
        <ele>358.28598022461</ele>
        <time>2018-11-29T10:42:27+0100</time>
      </trkpt>
      <trkpt lat="47.23717" lon="4.96264">
        <ele>358.25213623047</ele>
        <time>2018-11-29T10:42:30+0100</time>
      </trkpt>
      <trkpt lat="47.23719" lon="4.96265">
        <ele>358.23321533203</ele>
        <time>2018-11-29T10:42:33+0100</time>
      </trkpt>
      <trkpt lat="47.23722" lon="4.96266">
        <ele>358.22235107422</ele>
        <time>2018-11-29T10:42:36+0100</time>
      </trkpt>
      <trkpt lat="47.23726" lon="4.96268">
        <ele>358.21923828125</ele>
        <time>2018-11-29T10:42:39+0100</time>
      </trkpt>
      <trkpt lat="47.23727" lon="4.96271">
        <ele>358.24774169922</ele>
        <time>2018-11-29T10:42:42+0100</time>
      </trkpt>
      <trkpt lat="47.23731" lon="4.96273">
        <ele>358.31777954102</ele>
        <time>2018-11-29T10:42:45+0100</time>
      </trkpt>
      <trkpt lat="47.23732" lon="4.96275">
        <ele>358.3606262207</ele>
        <time>2018-11-29T10:42:48+0100</time>
      </trkpt>
      <trkpt lat="47.23735" lon="4.96278">
        <ele>358.3583984375</ele>
        <time>2018-11-29T10:42:51+0100</time>
      </trkpt>
      <trkpt lat="47.23737" lon="4.9628">
        <ele>358.28527832031</ele>
        <time>2018-11-29T10:42:54+0100</time>
      </trkpt>
      <trkpt lat="47.23739" lon="4.96284">
        <ele>358.16543579102</ele>
        <time>2018-11-29T10:42:57+0100</time>
      </trkpt>
      <trkpt lat="47.23741" lon="4.96287">
        <ele>358.09713745117</ele>
        <time>2018-11-29T10:43:00+0100</time>
      </trkpt>
      <trkpt lat="47.23744" lon="4.96289">
        <ele>358.17855834961</ele>
        <time>2018-11-29T10:43:03+0100</time>
      </trkpt>
      <trkpt lat="47.23746" lon="4.96291">
        <ele>358.2883605957</ele>
        <time>2018-11-29T10:43:06+0100</time>
      </trkpt>
      <trkpt lat="47.23748" lon="4.96293">
        <ele>358.37753295898</ele>
        <time>2018-11-29T10:43:09+0100</time>
      </trkpt>
      <trkpt lat="47.23751" lon="4.96296">
        <ele>358.4033203125</ele>
        <time>2018-11-29T10:43:12+0100</time>
      </trkpt>
      <trkpt lat="47.23753" lon="4.96299">
        <ele>358.32971191406</ele>
        <time>2018-11-29T10:43:15+0100</time>
      </trkpt>
      <trkpt lat="47.23756" lon="4.96302">
        <ele>358.19046020508</ele>
        <time>2018-11-29T10:43:18+0100</time>
      </trkpt>
      <trkpt lat="47.23758" lon="4.96304">
        <ele>357.99908447266</ele>
        <time>2018-11-29T10:43:21+0100</time>
      </trkpt>
      <trkpt lat="47.2376" lon="4.96307">
        <ele>357.73446655273</ele>
        <time>2018-11-29T10:43:24+0100</time>
      </trkpt>
      <trkpt lat="47.23762" lon="4.96309">
        <ele>357.43118286133</ele>
        <time>2018-11-29T10:43:27+0100</time>
      </trkpt>
      <trkpt lat="47.23765" lon="4.96311">
        <ele>357.16937255859</ele>
        <time>2018-11-29T10:43:30+0100</time>
      </trkpt>
      <trkpt lat="47.23768" lon="4.96315">
        <ele>356.90957641602</ele>
        <time>2018-11-29T10:43:33+0100</time>
      </trkpt>
      <trkpt lat="47.23769" lon="4.96317">
        <ele>356.65698242188</ele>
        <time>2018-11-29T10:43:36+0100</time>
      </trkpt>
      <trkpt lat="47.23772" lon="4.96321">
        <ele>356.42263793945</ele>
        <time>2018-11-29T10:43:39+0100</time>
      </trkpt>
      <trkpt lat="47.23774" lon="4.96325">
        <ele>356.1286315918</ele>
        <time>2018-11-29T10:43:42+0100</time>
      </trkpt>
      <trkpt lat="47.23776" lon="4.96327">
        <ele>355.76864624023</ele>
        <time>2018-11-29T10:43:45+0100</time>
      </trkpt>
      <trkpt lat="47.23779" lon="4.96329">
        <ele>355.37152099609</ele>
        <time>2018-11-29T10:43:48+0100</time>
      </trkpt>
      <trkpt lat="47.23781" lon="4.96331">
        <ele>354.95977783203</ele>
        <time>2018-11-29T10:43:51+0100</time>
      </trkpt>
      <trkpt lat="47.23782" lon="4.96333">
        <ele>354.58779907227</ele>
        <time>2018-11-29T10:43:54+0100</time>
      </trkpt>
      <trkpt lat="47.23784" lon="4.96334">
        <ele>354.22506713867</ele>
        <time>2018-11-29T10:43:57+0100</time>
      </trkpt>
      <trkpt lat="47.23786" lon="4.96339">
        <ele>353.88208007812</ele>
        <time>2018-11-29T10:44:00+0100</time>
      </trkpt>
      <trkpt lat="47.23788" lon="4.96343">
        <ele>353.56182861328</ele>
        <time>2018-11-29T10:44:03+0100</time>
      </trkpt>
      <trkpt lat="47.2379" lon="4.96346">
        <ele>353.45367431641</ele>
        <time>2018-11-29T10:44:06+0100</time>
      </trkpt>
      <trkpt lat="47.2379" lon="4.96346">
        <ele>353.36141967773</ele>
        <time>2018-11-29T10:44:09+0100</time>
      </trkpt>
      <trkpt lat="47.23792" lon="4.9635">
        <ele>353.13793945312</ele>
        <time>2018-11-29T10:44:12+0100</time>
      </trkpt>
      <trkpt lat="47.23793" lon="4.96352">
        <ele>352.93130493164</ele>
        <time>2018-11-29T10:44:15+0100</time>
      </trkpt>
      <trkpt lat="47.23794" lon="4.96355">
        <ele>352.73709106445</ele>
        <time>2018-11-29T10:44:18+0100</time>
      </trkpt>
      <trkpt lat="47.23795" lon="4.96358">
        <ele>352.46737670898</ele>
        <time>2018-11-29T10:44:21+0100</time>
      </trkpt>
      <trkpt lat="47.23797" lon="4.96361">
        <ele>352.19866943359</ele>
        <time>2018-11-29T10:44:24+0100</time>
      </trkpt>
      <trkpt lat="47.23798" lon="4.96365">
        <ele>351.93997192383</ele>
        <time>2018-11-29T10:44:27+0100</time>
      </trkpt>
      <trkpt lat="47.238" lon="4.96369">
        <ele>351.67391967773</ele>
        <time>2018-11-29T10:44:30+0100</time>
      </trkpt>
      <trkpt lat="47.23802" lon="4.96373">
        <ele>351.45629882812</ele>
        <time>2018-11-29T10:44:33+0100</time>
      </trkpt>
      <trkpt lat="47.23803" lon="4.96376">
        <ele>351.26449584961</ele>
        <time>2018-11-29T10:44:36+0100</time>
      </trkpt>
      <trkpt lat="47.23805" lon="4.96378">
        <ele>351.09701538086</ele>
        <time>2018-11-29T10:44:39+0100</time>
      </trkpt>
      <trkpt lat="47.23805" lon="4.9638">
        <ele>350.94863891602</ele>
        <time>2018-11-29T10:44:42+0100</time>
      </trkpt>
      <trkpt lat="47.23806" lon="4.96382">
        <ele>350.77658081055</ele>
        <time>2018-11-29T10:44:45+0100</time>
      </trkpt>
      <trkpt lat="47.23807" lon="4.96384">
        <ele>350.63787841797</ele>
        <time>2018-11-29T10:44:48+0100</time>
      </trkpt>
      <trkpt lat="47.23807" lon="4.96387">
        <ele>350.48538208008</ele>
        <time>2018-11-29T10:44:51+0100</time>
      </trkpt>
      <trkpt lat="47.23808" lon="4.96389">
        <ele>350.46136474609</ele>
        <time>2018-11-29T10:44:54+0100</time>
      </trkpt>
      <trkpt lat="47.23808" lon="4.96389">
        <ele>350.42153930664</ele>
        <time>2018-11-29T10:44:57+0100</time>
      </trkpt>
      <trkpt lat="47.23808" lon="4.9639">
        <ele>350.36483764648</ele>
        <time>2018-11-29T10:45:00+0100</time>
      </trkpt>
      <trkpt lat="47.2381" lon="4.96393">
        <ele>349.90625</ele>
        <time>2018-11-29T10:45:03+0100</time>
      </trkpt>
      <trkpt lat="47.23813" lon="4.96396">
        <ele>349.50134277344</ele>
        <time>2018-11-29T10:45:06+0100</time>
      </trkpt>
      <trkpt lat="47.23815" lon="4.96398">
        <ele>349.0754699707</ele>
        <time>2018-11-29T10:45:09+0100</time>
      </trkpt>
      <trkpt lat="47.23816" lon="4.964">
        <ele>348.6432800293</ele>
        <time>2018-11-29T10:45:12+0100</time>
      </trkpt>
      <trkpt lat="47.23819" lon="4.96403">
        <ele>348.23959350586</ele>
        <time>2018-11-29T10:45:15+0100</time>
      </trkpt>
      <trkpt lat="47.23821" lon="4.96404">
        <ele>347.81991577148</ele>
        <time>2018-11-29T10:45:18+0100</time>
      </trkpt>
      <trkpt lat="47.23823" lon="4.96407">
        <ele>347.42041015625</ele>
        <time>2018-11-29T10:45:21+0100</time>
      </trkpt>
      <trkpt lat="47.23826" lon="4.96409">
        <ele>347.02005004883</ele>
        <time>2018-11-29T10:45:24+0100</time>
      </trkpt>
      <trkpt lat="47.23829" lon="4.96411">
        <ele>346.63708496094</ele>
        <time>2018-11-29T10:45:27+0100</time>
      </trkpt>
      <trkpt lat="47.23831" lon="4.96414">
        <ele>346.2275390625</ele>
        <time>2018-11-29T10:45:30+0100</time>
      </trkpt>
      <trkpt lat="47.23834" lon="4.96417">
        <ele>345.79223632812</ele>
        <time>2018-11-29T10:45:33+0100</time>
      </trkpt>
      <trkpt lat="47.23836" lon="4.9642">
        <ele>345.35165405273</ele>
        <time>2018-11-29T10:45:36+0100</time>
      </trkpt>
      <trkpt lat="47.23837" lon="4.96423">
        <ele>344.91961669922</ele>
        <time>2018-11-29T10:45:39+0100</time>
      </trkpt>
      <trkpt lat="47.23839" lon="4.96426">
        <ele>344.4758605957</ele>
        <time>2018-11-29T10:45:42+0100</time>
      </trkpt>
      <trkpt lat="47.2384" lon="4.96428">
        <ele>344.0153503418</ele>
        <time>2018-11-29T10:45:45+0100</time>
      </trkpt>
      <trkpt lat="47.23842" lon="4.96431">
        <ele>343.52484130859</ele>
        <time>2018-11-29T10:45:48+0100</time>
      </trkpt>
      <trkpt lat="47.23844" lon="4.96434">
        <ele>343.03646850586</ele>
        <time>2018-11-29T10:45:51+0100</time>
      </trkpt>
      <trkpt lat="47.23845" lon="4.96437">
        <ele>342.58139038086</ele>
        <time>2018-11-29T10:45:54+0100</time>
      </trkpt>
      <trkpt lat="47.23848" lon="4.96441">
        <ele>342.11199951172</ele>
        <time>2018-11-29T10:45:57+0100</time>
      </trkpt>
      <trkpt lat="47.23849" lon="4.96442">
        <ele>341.5905456543</ele>
        <time>2018-11-29T10:46:00+0100</time>
      </trkpt>
      <trkpt lat="47.2385" lon="4.96444">
        <ele>341.06018066406</ele>
        <time>2018-11-29T10:46:03+0100</time>
      </trkpt>
      <trkpt lat="47.23851" lon="4.96446">
        <ele>340.51837158203</ele>
        <time>2018-11-29T10:46:06+0100</time>
      </trkpt>
      <trkpt lat="47.23852" lon="4.96448">
        <ele>339.95904541016</ele>
        <time>2018-11-29T10:46:09+0100</time>
      </trkpt>
      <trkpt lat="47.23854" lon="4.96454">
        <ele>339.50247192383</ele>
        <time>2018-11-29T10:46:12+0100</time>
      </trkpt>
      <trkpt lat="47.23855" lon="4.96457">
        <ele>339.15173339844</ele>
        <time>2018-11-29T10:46:15+0100</time>
      </trkpt>
      <trkpt lat="47.23854" lon="4.96458">
        <ele>338.79898071289</ele>
        <time>2018-11-29T10:46:18+0100</time>
      </trkpt>
      <trkpt lat="47.23854" lon="4.96461">
        <ele>338.43301391602</ele>
        <time>2018-11-29T10:46:21+0100</time>
      </trkpt>
      <trkpt lat="47.23854" lon="4.96465">
        <ele>338.12130737305</ele>
        <time>2018-11-29T10:46:24+0100</time>
      </trkpt>
      <trkpt lat="47.23854" lon="4.96467">
        <ele>337.80404663086</ele>
        <time>2018-11-29T10:46:27+0100</time>
      </trkpt>
      <trkpt lat="47.23855" lon="4.96472">
        <ele>337.54107666016</ele>
        <time>2018-11-29T10:46:30+0100</time>
      </trkpt>
      <trkpt lat="47.23856" lon="4.96476">
        <ele>337.24264526367</ele>
        <time>2018-11-29T10:46:33+0100</time>
      </trkpt>
      <trkpt lat="47.23857" lon="4.96479">
        <ele>336.96520996094</ele>
        <time>2018-11-29T10:46:36+0100</time>
      </trkpt>
      <trkpt lat="47.23857" lon="4.96485">
        <ele>336.66885375977</ele>
        <time>2018-11-29T10:46:39+0100</time>
      </trkpt>
      <trkpt lat="47.23855" lon="4.96488">
        <ele>336.33825683594</ele>
        <time>2018-11-29T10:46:42+0100</time>
      </trkpt>
      <trkpt lat="47.23855" lon="4.9649">
        <ele>336.02212524414</ele>
        <time>2018-11-29T10:46:45+0100</time>
      </trkpt>
      <trkpt lat="47.23855" lon="4.96493">
        <ele>335.70129394531</ele>
        <time>2018-11-29T10:46:48+0100</time>
      </trkpt>
      <trkpt lat="47.23855" lon="4.96497">
        <ele>335.35000610352</ele>
        <time>2018-11-29T10:46:51+0100</time>
      </trkpt>
      <trkpt lat="47.23855" lon="4.965">
        <ele>334.99905395508</ele>
        <time>2018-11-29T10:46:54+0100</time>
      </trkpt>
      <trkpt lat="47.23856" lon="4.96504">
        <ele>334.6120300293</ele>
        <time>2018-11-29T10:46:57+0100</time>
      </trkpt>
      <trkpt lat="47.23856" lon="4.96509">
        <ele>334.1669921875</ele>
        <time>2018-11-29T10:47:00+0100</time>
      </trkpt>
      <trkpt lat="47.23857" lon="4.96512">
        <ele>333.70553588867</ele>
        <time>2018-11-29T10:47:03+0100</time>
      </trkpt>
      <trkpt lat="47.23858" lon="4.96515">
        <ele>333.31298828125</ele>
        <time>2018-11-29T10:47:06+0100</time>
      </trkpt>
      <trkpt lat="47.23859" lon="4.96517">
        <ele>332.99508666992</ele>
        <time>2018-11-29T10:47:09+0100</time>
      </trkpt>
      <trkpt lat="47.2386" lon="4.96522">
        <ele>332.71286010742</ele>
        <time>2018-11-29T10:47:12+0100</time>
      </trkpt>
      <trkpt lat="47.23861" lon="4.96527">
        <ele>332.38925170898</ele>
        <time>2018-11-29T10:47:15+0100</time>
      </trkpt>
      <trkpt lat="47.23863" lon="4.96533">
        <ele>331.95855712891</ele>
        <time>2018-11-29T10:47:18+0100</time>
      </trkpt>
      <trkpt lat="47.23865" lon="4.96537">
        <ele>331.42587280273</ele>
        <time>2018-11-29T10:47:21+0100</time>
      </trkpt>
      <trkpt lat="47.23866" lon="4.96541">
        <ele>330.83316040039</ele>
        <time>2018-11-29T10:47:24+0100</time>
      </trkpt>
      <trkpt lat="47.23868" lon="4.96546">
        <ele>330.26821899414</ele>
        <time>2018-11-29T10:47:27+0100</time>
      </trkpt>
      <trkpt lat="47.2387" lon="4.9655">
        <ele>329.72213745117</ele>
        <time>2018-11-29T10:47:30+0100</time>
      </trkpt>
      <trkpt lat="47.23872" lon="4.96552">
        <ele>329.15640258789</ele>
        <time>2018-11-29T10:47:33+0100</time>
      </trkpt>
      <trkpt lat="47.23873" lon="4.96556">
        <ele>328.60852050781</ele>
        <time>2018-11-29T10:47:36+0100</time>
      </trkpt>
      <trkpt lat="47.23875" lon="4.9656">
        <ele>328.07501220703</ele>
        <time>2018-11-29T10:47:39+0100</time>
      </trkpt>
      <trkpt lat="47.23877" lon="4.96563">
        <ele>327.60791015625</ele>
        <time>2018-11-29T10:47:42+0100</time>
      </trkpt>
      <trkpt lat="47.23879" lon="4.96566">
        <ele>327.17636108398</ele>
        <time>2018-11-29T10:47:45+0100</time>
      </trkpt>
      <trkpt lat="47.2388" lon="4.96571">
        <ele>326.68475341797</ele>
        <time>2018-11-29T10:47:48+0100</time>
      </trkpt>
      <trkpt lat="47.23882" lon="4.96577">
        <ele>326.08319091797</ele>
        <time>2018-11-29T10:47:51+0100</time>
      </trkpt>
      <trkpt lat="47.23883" lon="4.9658">
        <ele>325.44384765625</ele>
        <time>2018-11-29T10:47:54+0100</time>
      </trkpt>
      <trkpt lat="47.23885" lon="4.96584">
        <ele>324.76718139648</ele>
        <time>2018-11-29T10:47:57+0100</time>
      </trkpt>
      <trkpt lat="47.23887" lon="4.96589">
        <ele>324.10302734375</ele>
        <time>2018-11-29T10:48:00+0100</time>
      </trkpt>
      <trkpt lat="47.23889" lon="4.96592">
        <ele>323.45770263672</ele>
        <time>2018-11-29T10:48:03+0100</time>
      </trkpt>
      <trkpt lat="47.2389" lon="4.96596">
        <ele>322.84979248047</ele>
        <time>2018-11-29T10:48:06+0100</time>
      </trkpt>
      <trkpt lat="47.23892" lon="4.966">
        <ele>322.24676513672</ele>
        <time>2018-11-29T10:48:09+0100</time>
      </trkpt>
      <trkpt lat="47.23893" lon="4.96602">
        <ele>321.73556518555</ele>
        <time>2018-11-29T10:48:12+0100</time>
      </trkpt>
      <trkpt lat="47.23895" lon="4.96606">
        <ele>321.31930541992</ele>
        <time>2018-11-29T10:48:15+0100</time>
      </trkpt>
      <trkpt lat="47.23897" lon="4.96611">
        <ele>320.89239501953</ele>
        <time>2018-11-29T10:48:18+0100</time>
      </trkpt>
      <trkpt lat="47.23898" lon="4.96615">
        <ele>320.43145751953</ele>
        <time>2018-11-29T10:48:21+0100</time>
      </trkpt>
      <trkpt lat="47.23899" lon="4.96618">
        <ele>319.97564697266</ele>
        <time>2018-11-29T10:48:24+0100</time>
      </trkpt>
      <trkpt lat="47.23901" lon="4.96621">
        <ele>319.57147216797</ele>
        <time>2018-11-29T10:48:27+0100</time>
      </trkpt>
      <trkpt lat="47.23902" lon="4.96627">
        <ele>319.17987060547</ele>
        <time>2018-11-29T10:48:30+0100</time>
      </trkpt>
      <trkpt lat="47.23904" lon="4.96631">
        <ele>318.82647705078</ele>
        <time>2018-11-29T10:48:33+0100</time>
      </trkpt>
      <trkpt lat="47.23905" lon="4.96634">
        <ele>318.53927612305</ele>
        <time>2018-11-29T10:48:36+0100</time>
      </trkpt>
      <trkpt lat="47.23908" lon="4.96639">
        <ele>318.28762817383</ele>
        <time>2018-11-29T10:48:39+0100</time>
      </trkpt>
      <trkpt lat="47.2391" lon="4.96643">
        <ele>317.98046875</ele>
        <time>2018-11-29T10:48:42+0100</time>
      </trkpt>
      <trkpt lat="47.23913" lon="4.96645">
        <ele>317.67321777344</ele>
        <time>2018-11-29T10:48:45+0100</time>
      </trkpt>
      <trkpt lat="47.23916" lon="4.96648">
        <ele>317.42791748047</ele>
        <time>2018-11-29T10:48:48+0100</time>
      </trkpt>
      <trkpt lat="47.2392" lon="4.9665">
        <ele>317.24819946289</ele>
        <time>2018-11-29T10:48:51+0100</time>
      </trkpt>
      <trkpt lat="47.23924" lon="4.96652">
        <ele>317.03213500977</ele>
        <time>2018-11-29T10:48:54+0100</time>
      </trkpt>
      <trkpt lat="47.23928" lon="4.96655">
        <ele>316.78726196289</ele>
        <time>2018-11-29T10:48:57+0100</time>
      </trkpt>
      <trkpt lat="47.23931" lon="4.96658">
        <ele>316.49005126953</ele>
        <time>2018-11-29T10:49:00+0100</time>
      </trkpt>
      <trkpt lat="47.23935" lon="4.96662">
        <ele>316.16174316406</ele>
        <time>2018-11-29T10:49:03+0100</time>
      </trkpt>
      <trkpt lat="47.23938" lon="4.96663">
        <ele>315.76300048828</ele>
        <time>2018-11-29T10:49:06+0100</time>
      </trkpt>
      <trkpt lat="47.23941" lon="4.96666">
        <ele>315.37866210938</ele>
        <time>2018-11-29T10:49:09+0100</time>
      </trkpt>
      <trkpt lat="47.23944" lon="4.96669">
        <ele>314.98837280273</ele>
        <time>2018-11-29T10:49:12+0100</time>
      </trkpt>
      <trkpt lat="47.23947" lon="4.96671">
        <ele>314.62875366211</ele>
        <time>2018-11-29T10:49:15+0100</time>
      </trkpt>
      <trkpt lat="47.2395" lon="4.96673">
        <ele>314.34979248047</ele>
        <time>2018-11-29T10:49:18+0100</time>
      </trkpt>
      <trkpt lat="47.23951" lon="4.96676">
        <ele>314.09509277344</ele>
        <time>2018-11-29T10:49:21+0100</time>
      </trkpt>
      <trkpt lat="47.23953" lon="4.96678">
        <ele>313.83297729492</ele>
        <time>2018-11-29T10:49:24+0100</time>
      </trkpt>
      <trkpt lat="47.23954" lon="4.96681">
        <ele>313.52987670898</ele>
        <time>2018-11-29T10:49:27+0100</time>
      </trkpt>
      <trkpt lat="47.23954" lon="4.96685">
        <ele>313.22073364258</ele>
        <time>2018-11-29T10:49:30+0100</time>
      </trkpt>
      <trkpt lat="47.23954" lon="4.96689">
        <ele>312.91412353516</ele>
        <time>2018-11-29T10:49:33+0100</time>
      </trkpt>
      <trkpt lat="47.23953" lon="4.96696">
        <ele>312.59576416016</ele>
        <time>2018-11-29T10:49:36+0100</time>
      </trkpt>
      <trkpt lat="47.23953" lon="4.96699">
        <ele>312.20947265625</ele>
        <time>2018-11-29T10:49:39+0100</time>
      </trkpt>
      <trkpt lat="47.23951" lon="4.96703">
        <ele>311.79574584961</ele>
        <time>2018-11-29T10:49:42+0100</time>
      </trkpt>
      <trkpt lat="47.2395" lon="4.96707">
        <ele>311.44689941406</ele>
        <time>2018-11-29T10:49:45+0100</time>
      </trkpt>
      <trkpt lat="47.23949" lon="4.96711">
        <ele>311.11907958984</ele>
        <time>2018-11-29T10:49:48+0100</time>
      </trkpt>
      <trkpt lat="47.23948" lon="4.96716">
        <ele>310.84381103516</ele>
        <time>2018-11-29T10:49:51+0100</time>
      </trkpt>
      <trkpt lat="47.23946" lon="4.96718">
        <ele>310.64501953125</ele>
        <time>2018-11-29T10:49:54+0100</time>
      </trkpt>
      <trkpt lat="47.23945" lon="4.96723">
        <ele>310.47048950195</ele>
        <time>2018-11-29T10:49:57+0100</time>
      </trkpt>
      <trkpt lat="47.23944" lon="4.96726">
        <ele>310.35430908203</ele>
        <time>2018-11-29T10:50:00+0100</time>
      </trkpt>
      <trkpt lat="47.23942" lon="4.96729">
        <ele>310.3522644043</ele>
        <time>2018-11-29T10:50:03+0100</time>
      </trkpt>
      <trkpt lat="47.23941" lon="4.96733">
        <ele>310.51150512695</ele>
        <time>2018-11-29T10:50:06+0100</time>
      </trkpt>
      <trkpt lat="47.23939" lon="4.96738">
        <ele>310.73849487305</ele>
        <time>2018-11-29T10:50:09+0100</time>
      </trkpt>
      <trkpt lat="47.23938" lon="4.96742">
        <ele>310.82849121094</ele>
        <time>2018-11-29T10:50:12+0100</time>
      </trkpt>
      <trkpt lat="47.23936" lon="4.96747">
        <ele>310.7275390625</ele>
        <time>2018-11-29T10:50:15+0100</time>
      </trkpt>
      <trkpt lat="47.23936" lon="4.96749">
        <ele>310.61212158203</ele>
        <time>2018-11-29T10:50:18+0100</time>
      </trkpt>
      <trkpt lat="47.23933" lon="4.96758">
        <ele>310.40408325195</ele>
        <time>2018-11-29T10:50:21+0100</time>
      </trkpt>
      <trkpt lat="47.2393" lon="4.96761">
        <ele>310.1667175293</ele>
        <time>2018-11-29T10:50:24+0100</time>
      </trkpt>
      <trkpt lat="47.23928" lon="4.96765">
        <ele>309.96447753906</ele>
        <time>2018-11-29T10:50:27+0100</time>
      </trkpt>
      <trkpt lat="47.23927" lon="4.9677">
        <ele>309.67556762695</ele>
        <time>2018-11-29T10:50:30+0100</time>
      </trkpt>
      <trkpt lat="47.23927" lon="4.96775">
        <ele>309.21313476562</ele>
        <time>2018-11-29T10:50:33+0100</time>
      </trkpt>
      <trkpt lat="47.23925" lon="4.96781">
        <ele>308.61752319336</ele>
        <time>2018-11-29T10:50:36+0100</time>
      </trkpt>
      <trkpt lat="47.23925" lon="4.96786">
        <ele>307.96194458008</ele>
        <time>2018-11-29T10:50:39+0100</time>
      </trkpt>
      <trkpt lat="47.23924" lon="4.9679">
        <ele>307.25573730469</ele>
        <time>2018-11-29T10:50:42+0100</time>
      </trkpt>
      <trkpt lat="47.23923" lon="4.96795">
        <ele>306.5559387207</ele>
        <time>2018-11-29T10:50:45+0100</time>
      </trkpt>
      <trkpt lat="47.23921" lon="4.96799">
        <ele>306.03747558594</ele>
        <time>2018-11-29T10:50:48+0100</time>
      </trkpt>
      <trkpt lat="47.23921" lon="4.96804">
        <ele>305.66741943359</ele>
        <time>2018-11-29T10:50:51+0100</time>
      </trkpt>
      <trkpt lat="47.23922" lon="4.9681">
        <ele>305.38662719727</ele>
        <time>2018-11-29T10:50:54+0100</time>
      </trkpt>
      <trkpt lat="47.23922" lon="4.96813">
        <ele>305.15930175781</ele>
        <time>2018-11-29T10:50:57+0100</time>
      </trkpt>
      <trkpt lat="47.23922" lon="4.96818">
        <ele>304.84616088867</ele>
        <time>2018-11-29T10:51:00+0100</time>
      </trkpt>
      <trkpt lat="47.23922" lon="4.96824">
        <ele>304.64761352539</ele>
        <time>2018-11-29T10:51:03+0100</time>
      </trkpt>
      <trkpt lat="47.23922" lon="4.96827">
        <ele>304.54437255859</ele>
        <time>2018-11-29T10:51:06+0100</time>
      </trkpt>
      <trkpt lat="47.23921" lon="4.96832">
        <ele>304.34637451172</ele>
        <time>2018-11-29T10:51:09+0100</time>
      </trkpt>
      <trkpt lat="47.23921" lon="4.96835">
        <ele>304.1594543457</ele>
        <time>2018-11-29T10:51:12+0100</time>
      </trkpt>
      <trkpt lat="47.23922" lon="4.96839">
        <ele>303.92785644531</ele>
        <time>2018-11-29T10:51:15+0100</time>
      </trkpt>
      <trkpt lat="47.23921" lon="4.96841">
        <ele>303.76953125</ele>
        <time>2018-11-29T10:51:18+0100</time>
      </trkpt>
      <trkpt lat="47.23921" lon="4.96844">
        <ele>303.61520385742</ele>
        <time>2018-11-29T10:51:21+0100</time>
      </trkpt>
      <trkpt lat="47.2392" lon="4.96849">
        <ele>303.42678833008</ele>
        <time>2018-11-29T10:51:24+0100</time>
      </trkpt>
      <trkpt lat="47.23919" lon="4.96854">
        <ele>303.14086914062</ele>
        <time>2018-11-29T10:51:27+0100</time>
      </trkpt>
      <trkpt lat="47.23918" lon="4.96859">
        <ele>302.89529418945</ele>
        <time>2018-11-29T10:51:30+0100</time>
      </trkpt>
      <trkpt lat="47.23916" lon="4.96866">
        <ele>302.7756652832</ele>
        <time>2018-11-29T10:51:33+0100</time>
      </trkpt>
      <trkpt lat="47.23917" lon="4.96869">
        <ele>302.64318847656</ele>
        <time>2018-11-29T10:51:36+0100</time>
      </trkpt>
      <trkpt lat="47.23918" lon="4.96872">
        <ele>302.42962646484</ele>
        <time>2018-11-29T10:51:39+0100</time>
      </trkpt>
      <trkpt lat="47.23918" lon="4.96877">
        <ele>302.14392089844</ele>
        <time>2018-11-29T10:51:42+0100</time>
      </trkpt>
      <trkpt lat="47.23924" lon="4.9688">
        <ele>301.95651245117</ele>
        <time>2018-11-29T10:51:45+0100</time>
      </trkpt>
      <trkpt lat="47.23926" lon="4.96882">
        <ele>301.81655883789</ele>
        <time>2018-11-29T10:51:48+0100</time>
      </trkpt>
      <trkpt lat="47.23929" lon="4.96883">
        <ele>301.72616577148</ele>
        <time>2018-11-29T10:51:51+0100</time>
      </trkpt>
      <trkpt lat="47.23933" lon="4.96883">
        <ele>301.71826171875</ele>
        <time>2018-11-29T10:51:54+0100</time>
      </trkpt>
      <trkpt lat="47.23937" lon="4.96881">
        <ele>301.77981567383</ele>
        <time>2018-11-29T10:51:57+0100</time>
      </trkpt>
      <trkpt lat="47.23941" lon="4.96881">
        <ele>301.89324951172</ele>
        <time>2018-11-29T10:52:00+0100</time>
      </trkpt>
      <trkpt lat="47.23942" lon="4.96883">
        <ele>302.00595092773</ele>
        <time>2018-11-29T10:52:03+0100</time>
      </trkpt>
      <trkpt lat="47.23945" lon="4.96884">
        <ele>302.10739135742</ele>
        <time>2018-11-29T10:52:06+0100</time>
      </trkpt>
      <trkpt lat="47.23948" lon="4.96886">
        <ele>302.21636962891</ele>
        <time>2018-11-29T10:52:09+0100</time>
      </trkpt>
      <trkpt lat="47.2395" lon="4.96888">
        <ele>302.26892089844</ele>
        <time>2018-11-29T10:52:12+0100</time>
      </trkpt>
      <trkpt lat="47.23953" lon="4.9689">
        <ele>302.28253173828</ele>
        <time>2018-11-29T10:52:15+0100</time>
      </trkpt>
      <trkpt lat="47.23956" lon="4.96891">
        <ele>302.32067871094</ele>
        <time>2018-11-29T10:52:18+0100</time>
      </trkpt>
      <trkpt lat="47.23959" lon="4.96893">
        <ele>302.38705444336</ele>
        <time>2018-11-29T10:52:21+0100</time>
      </trkpt>
      <trkpt lat="47.23962" lon="4.96894">
        <ele>302.49075317383</ele>
        <time>2018-11-29T10:52:24+0100</time>
      </trkpt>
      <trkpt lat="47.23966" lon="4.96897">
        <ele>302.56924438477</ele>
        <time>2018-11-29T10:52:27+0100</time>
      </trkpt>
      <trkpt lat="47.2397" lon="4.96898">
        <ele>302.5495300293</ele>
        <time>2018-11-29T10:52:30+0100</time>
      </trkpt>
      <trkpt lat="47.23973" lon="4.969">
        <ele>302.44326782227</ele>
        <time>2018-11-29T10:52:33+0100</time>
      </trkpt>
      <trkpt lat="47.23976" lon="4.96902">
        <ele>302.25997924805</ele>
        <time>2018-11-29T10:52:36+0100</time>
      </trkpt>
      <trkpt lat="47.23979" lon="4.96905">
        <ele>302.02780151367</ele>
        <time>2018-11-29T10:52:39+0100</time>
      </trkpt>
      <trkpt lat="47.23983" lon="4.96906">
        <ele>301.81207275391</ele>
        <time>2018-11-29T10:52:42+0100</time>
      </trkpt>
      <trkpt lat="47.23986" lon="4.96907">
        <ele>301.60296630859</ele>
        <time>2018-11-29T10:52:45+0100</time>
      </trkpt>
      <trkpt lat="47.23989" lon="4.96907">
        <ele>301.46780395508</ele>
        <time>2018-11-29T10:52:48+0100</time>
      </trkpt>
      <trkpt lat="47.23992" lon="4.96908">
        <ele>301.43334960938</ele>
        <time>2018-11-29T10:52:51+0100</time>
      </trkpt>
      <trkpt lat="47.23995" lon="4.96909">
        <ele>301.45883178711</ele>
        <time>2018-11-29T10:52:54+0100</time>
      </trkpt>
      <trkpt lat="47.23997" lon="4.9691">
        <ele>301.47680664062</ele>
        <time>2018-11-29T10:52:57+0100</time>
      </trkpt>
      <trkpt lat="47.24" lon="4.96911">
        <ele>301.47714233398</ele>
        <time>2018-11-29T10:53:00+0100</time>
      </trkpt>
      <trkpt lat="47.24003" lon="4.96912">
        <ele>301.52252197266</ele>
        <time>2018-11-29T10:53:03+0100</time>
      </trkpt>
      <trkpt lat="47.24006" lon="4.96913">
        <ele>301.56192016602</ele>
        <time>2018-11-29T10:53:06+0100</time>
      </trkpt>
      <trkpt lat="47.24009" lon="4.96913">
        <ele>301.63610839844</ele>
        <time>2018-11-29T10:53:09+0100</time>
      </trkpt>
      <trkpt lat="47.24012" lon="4.96915">
        <ele>301.73727416992</ele>
        <time>2018-11-29T10:53:12+0100</time>
      </trkpt>
      <trkpt lat="47.24015" lon="4.96916">
        <ele>301.8151550293</ele>
        <time>2018-11-29T10:53:15+0100</time>
      </trkpt>
      <trkpt lat="47.24018" lon="4.96917">
        <ele>301.90997314453</ele>
        <time>2018-11-29T10:53:18+0100</time>
      </trkpt>
      <trkpt lat="47.24023" lon="4.96919">
        <ele>302.04125976562</ele>
        <time>2018-11-29T10:53:21+0100</time>
      </trkpt>
      <trkpt lat="47.24026" lon="4.9692">
        <ele>302.18426513672</ele>
        <time>2018-11-29T10:53:24+0100</time>
      </trkpt>
      <trkpt lat="47.24029" lon="4.96922">
        <ele>302.33456420898</ele>
        <time>2018-11-29T10:53:27+0100</time>
      </trkpt>
      <trkpt lat="47.24032" lon="4.96923">
        <ele>302.51791381836</ele>
        <time>2018-11-29T10:53:30+0100</time>
      </trkpt>
      <trkpt lat="47.24036" lon="4.96924">
        <ele>302.70367431641</ele>
        <time>2018-11-29T10:53:33+0100</time>
      </trkpt>
      <trkpt lat="47.24038" lon="4.96924">
        <ele>302.85842895508</ele>
        <time>2018-11-29T10:53:36+0100</time>
      </trkpt>
      <trkpt lat="47.24041" lon="4.96926">
        <ele>302.97839355469</ele>
        <time>2018-11-29T10:53:39+0100</time>
      </trkpt>
      <trkpt lat="47.24045" lon="4.96926">
        <ele>303.07669067383</ele>
        <time>2018-11-29T10:53:42+0100</time>
      </trkpt>
      <trkpt lat="47.24047" lon="4.96927">
        <ele>303.08410644531</ele>
        <time>2018-11-29T10:53:45+0100</time>
      </trkpt>
      <trkpt lat="47.24052" lon="4.96927">
        <ele>303.06118774414</ele>
        <time>2018-11-29T10:53:48+0100</time>
      </trkpt>
      <trkpt lat="47.24055" lon="4.96928">
        <ele>303.03085327148</ele>
        <time>2018-11-29T10:53:51+0100</time>
      </trkpt>
      <trkpt lat="47.24058" lon="4.96929">
        <ele>303.0612487793</ele>
        <time>2018-11-29T10:53:54+0100</time>
      </trkpt>
      <trkpt lat="47.24061" lon="4.96929">
        <ele>303.10888671875</ele>
        <time>2018-11-29T10:53:57+0100</time>
      </trkpt>
      <trkpt lat="47.24064" lon="4.96929">
        <ele>303.11798095703</ele>
        <time>2018-11-29T10:54:00+0100</time>
      </trkpt>
      <trkpt lat="47.24067" lon="4.9693">
        <ele>303.07781982422</ele>
        <time>2018-11-29T10:54:03+0100</time>
      </trkpt>
      <trkpt lat="47.24071" lon="4.96929">
        <ele>303.00506591797</ele>
        <time>2018-11-29T10:54:06+0100</time>
      </trkpt>
      <trkpt lat="47.24073" lon="4.96929">
        <ele>302.88681030273</ele>
        <time>2018-11-29T10:54:09+0100</time>
      </trkpt>
      <trkpt lat="47.24076" lon="4.96929">
        <ele>302.76443481445</ele>
        <time>2018-11-29T10:54:12+0100</time>
      </trkpt>
      <trkpt lat="47.24079" lon="4.96929">
        <ele>302.68984985352</ele>
        <time>2018-11-29T10:54:15+0100</time>
      </trkpt>
      <trkpt lat="47.24082" lon="4.96928">
        <ele>302.60382080078</ele>
        <time>2018-11-29T10:54:18+0100</time>
      </trkpt>
      <trkpt lat="47.24085" lon="4.96928">
        <ele>302.53494262695</ele>
        <time>2018-11-29T10:54:21+0100</time>
      </trkpt>
      <trkpt lat="47.24086" lon="4.96928">
        <ele>302.47796630859</ele>
        <time>2018-11-29T10:54:24+0100</time>
      </trkpt>
      <trkpt lat="47.2409" lon="4.96928">
        <ele>302.45391845703</ele>
        <time>2018-11-29T10:54:27+0100</time>
      </trkpt>
      <trkpt lat="47.24094" lon="4.9693">
        <ele>302.47735595703</ele>
        <time>2018-11-29T10:54:30+0100</time>
      </trkpt>
      <trkpt lat="47.24097" lon="4.96932">
        <ele>302.41937255859</ele>
        <time>2018-11-29T10:54:33+0100</time>
      </trkpt>
      <trkpt lat="47.241" lon="4.96931">
        <ele>302.31802368164</ele>
        <time>2018-11-29T10:54:37+0100</time>
      </trkpt>
      <trkpt lat="47.24103" lon="4.96931">
        <ele>302.15618896484</ele>
        <time>2018-11-29T10:54:40+0100</time>
      </trkpt>
      <trkpt lat="47.24107" lon="4.96932">
        <ele>301.92922973633</ele>
        <time>2018-11-29T10:54:43+0100</time>
      </trkpt>
      <trkpt lat="47.24109" lon="4.96932">
        <ele>301.63580322266</ele>
        <time>2018-11-29T10:54:46+0100</time>
      </trkpt>
      <trkpt lat="47.24112" lon="4.96932">
        <ele>301.30825805664</ele>
        <time>2018-11-29T10:54:49+0100</time>
      </trkpt>
      <trkpt lat="47.24116" lon="4.96932">
        <ele>300.94274902344</ele>
        <time>2018-11-29T10:54:52+0100</time>
      </trkpt>
      <trkpt lat="47.24118" lon="4.96933">
        <ele>300.62799072266</ele>
        <time>2018-11-29T10:54:55+0100</time>
      </trkpt>
      <trkpt lat="47.24121" lon="4.96934">
        <ele>300.3415222168</ele>
        <time>2018-11-29T10:54:58+0100</time>
      </trkpt>
      <trkpt lat="47.24124" lon="4.96935">
        <ele>300.08023071289</ele>
        <time>2018-11-29T10:55:01+0100</time>
      </trkpt>
      <trkpt lat="47.24128" lon="4.96937">
        <ele>299.80355834961</ele>
        <time>2018-11-29T10:55:04+0100</time>
      </trkpt>
      <trkpt lat="47.24131" lon="4.96938">
        <ele>299.59970092773</ele>
        <time>2018-11-29T10:55:07+0100</time>
      </trkpt>
      <trkpt lat="47.24135" lon="4.96939">
        <ele>299.40356445312</ele>
        <time>2018-11-29T10:55:10+0100</time>
      </trkpt>
      <trkpt lat="47.24137" lon="4.96939">
        <ele>299.23941040039</ele>
        <time>2018-11-29T10:55:13+0100</time>
      </trkpt>
      <trkpt lat="47.24141" lon="4.96941">
        <ele>299.09384155273</ele>
        <time>2018-11-29T10:55:16+0100</time>
      </trkpt>
      <trkpt lat="47.24143" lon="4.96941">
        <ele>298.95660400391</ele>
        <time>2018-11-29T10:55:19+0100</time>
      </trkpt>
      <trkpt lat="47.24147" lon="4.96942">
        <ele>298.79998779297</ele>
        <time>2018-11-29T10:55:22+0100</time>
      </trkpt>
      <trkpt lat="47.2415" lon="4.96945">
        <ele>298.67568969727</ele>
        <time>2018-11-29T10:55:25+0100</time>
      </trkpt>
      <trkpt lat="47.24153" lon="4.96946">
        <ele>298.6025390625</ele>
        <time>2018-11-29T10:55:28+0100</time>
      </trkpt>
      <trkpt lat="47.24156" lon="4.96947">
        <ele>298.54650878906</ele>
        <time>2018-11-29T10:55:31+0100</time>
      </trkpt>
      <trkpt lat="47.24159" lon="4.96947">
        <ele>298.46557617188</ele>
        <time>2018-11-29T10:55:34+0100</time>
      </trkpt>
      <trkpt lat="47.24162" lon="4.96948">
        <ele>298.38916015625</ele>
        <time>2018-11-29T10:55:37+0100</time>
      </trkpt>
      <trkpt lat="47.24165" lon="4.96949">
        <ele>298.30557250977</ele>
        <time>2018-11-29T10:55:40+0100</time>
      </trkpt>
      <trkpt lat="47.24168" lon="4.96949">
        <ele>298.22991943359</ele>
        <time>2018-11-29T10:55:43+0100</time>
      </trkpt>
      <trkpt lat="47.2417" lon="4.9695">
        <ele>298.19177246094</ele>
        <time>2018-11-29T10:55:46+0100</time>
      </trkpt>
      <trkpt lat="47.24173" lon="4.9695">
        <ele>298.22970581055</ele>
        <time>2018-11-29T10:55:49+0100</time>
      </trkpt>
      <trkpt lat="47.24176" lon="4.96951">
        <ele>298.31973266602</ele>
        <time>2018-11-29T10:55:52+0100</time>
      </trkpt>
      <trkpt lat="47.24179" lon="4.96953">
        <ele>298.40051269531</ele>
        <time>2018-11-29T10:55:55+0100</time>
      </trkpt>
      <trkpt lat="47.24181" lon="4.96954">
        <ele>298.46206665039</ele>
        <time>2018-11-29T10:55:58+0100</time>
      </trkpt>
      <trkpt lat="47.24184" lon="4.96954">
        <ele>298.53857421875</ele>
        <time>2018-11-29T10:56:01+0100</time>
      </trkpt>
      <trkpt lat="47.24186" lon="4.96956">
        <ele>298.6272277832</ele>
        <time>2018-11-29T10:56:04+0100</time>
      </trkpt>
      <trkpt lat="47.24188" lon="4.96957">
        <ele>298.74108886719</ele>
        <time>2018-11-29T10:56:07+0100</time>
      </trkpt>
      <trkpt lat="47.24192" lon="4.96957">
        <ele>298.85464477539</ele>
        <time>2018-11-29T10:56:10+0100</time>
      </trkpt>
      <trkpt lat="47.24194" lon="4.96957">
        <ele>298.94262695312</ele>
        <time>2018-11-29T10:56:13+0100</time>
      </trkpt>
      <trkpt lat="47.24197" lon="4.96959">
        <ele>299.05465698242</ele>
        <time>2018-11-29T10:56:16+0100</time>
      </trkpt>
      <trkpt lat="47.24199" lon="4.9696">
        <ele>299.17233276367</ele>
        <time>2018-11-29T10:56:19+0100</time>
      </trkpt>
      <trkpt lat="47.24201" lon="4.96961">
        <ele>299.32772827148</ele>
        <time>2018-11-29T10:56:22+0100</time>
      </trkpt>
      <trkpt lat="47.24204" lon="4.96962">
        <ele>299.55114746094</ele>
        <time>2018-11-29T10:56:25+0100</time>
      </trkpt>
      <trkpt lat="47.24207" lon="4.96962">
        <ele>299.79315185547</ele>
        <time>2018-11-29T10:56:28+0100</time>
      </trkpt>
      <trkpt lat="47.24211" lon="4.96963">
        <ele>299.97720336914</ele>
        <time>2018-11-29T10:56:31+0100</time>
      </trkpt>
      <trkpt lat="47.24213" lon="4.96964">
        <ele>300.14901733398</ele>
        <time>2018-11-29T10:56:34+0100</time>
      </trkpt>
      <trkpt lat="47.24217" lon="4.96966">
        <ele>300.35049438477</ele>
        <time>2018-11-29T10:56:37+0100</time>
      </trkpt>
      <trkpt lat="47.2422" lon="4.96968">
        <ele>300.50701904297</ele>
        <time>2018-11-29T10:56:40+0100</time>
      </trkpt>
      <trkpt lat="47.24223" lon="4.96969">
        <ele>300.60504150391</ele>
        <time>2018-11-29T10:56:43+0100</time>
      </trkpt>
      <trkpt lat="47.24225" lon="4.9697">
        <ele>300.65219116211</ele>
        <time>2018-11-29T10:56:46+0100</time>
      </trkpt>
      <trkpt lat="47.24227" lon="4.96971">
        <ele>300.67929077148</ele>
        <time>2018-11-29T10:56:49+0100</time>
      </trkpt>
      <trkpt lat="47.2423" lon="4.96972">
        <ele>300.67694091797</ele>
        <time>2018-11-29T10:56:52+0100</time>
      </trkpt>
      <trkpt lat="47.24234" lon="4.96973">
        <ele>300.68579101562</ele>
        <time>2018-11-29T10:56:55+0100</time>
      </trkpt>
      <trkpt lat="47.24236" lon="4.96973">
        <ele>300.68206787109</ele>
        <time>2018-11-29T10:56:58+0100</time>
      </trkpt>
      <trkpt lat="47.24238" lon="4.96974">
        <ele>300.70248413086</ele>
        <time>2018-11-29T10:57:01+0100</time>
      </trkpt>
      <trkpt lat="47.24241" lon="4.96975">
        <ele>300.73516845703</ele>
        <time>2018-11-29T10:57:04+0100</time>
      </trkpt>
      <trkpt lat="47.24244" lon="4.96976">
        <ele>300.76586914062</ele>
        <time>2018-11-29T10:57:07+0100</time>
      </trkpt>
      <trkpt lat="47.24247" lon="4.96978">
        <ele>300.84844970703</ele>
        <time>2018-11-29T10:57:10+0100</time>
      </trkpt>
      <trkpt lat="47.24249" lon="4.96979">
        <ele>300.97262573242</ele>
        <time>2018-11-29T10:57:13+0100</time>
      </trkpt>
      <trkpt lat="47.24252" lon="4.96979">
        <ele>301.14654541016</ele>
        <time>2018-11-29T10:57:16+0100</time>
      </trkpt>
      <trkpt lat="47.24254" lon="4.9698">
        <ele>301.32305908203</ele>
        <time>2018-11-29T10:57:19+0100</time>
      </trkpt>
      <trkpt lat="47.24257" lon="4.9698">
        <ele>301.53207397461</ele>
        <time>2018-11-29T10:57:22+0100</time>
      </trkpt>
      <trkpt lat="47.2426" lon="4.96981">
        <ele>301.7268371582</ele>
        <time>2018-11-29T10:57:25+0100</time>
      </trkpt>
      <trkpt lat="47.24264" lon="4.96982">
        <ele>301.88311767578</ele>
        <time>2018-11-29T10:57:28+0100</time>
      </trkpt>
      <trkpt lat="47.24267" lon="4.96984">
        <ele>301.96908569336</ele>
        <time>2018-11-29T10:57:31+0100</time>
      </trkpt>
      <trkpt lat="47.24269" lon="4.96985">
        <ele>302.01776123047</ele>
        <time>2018-11-29T10:57:34+0100</time>
      </trkpt>
      <trkpt lat="47.24271" lon="4.96986">
        <ele>302.09124755859</ele>
        <time>2018-11-29T10:57:37+0100</time>
      </trkpt>
      <trkpt lat="47.24272" lon="4.96985">
        <ele>302.12963867188</ele>
        <time>2018-11-29T10:57:40+0100</time>
      </trkpt>
      <trkpt lat="47.24273" lon="4.96985">
        <ele>302.23791503906</ele>
        <time>2018-11-29T10:57:43+0100</time>
      </trkpt>
      <trkpt lat="47.24276" lon="4.96985">
        <ele>302.39605712891</ele>
        <time>2018-11-29T10:57:46+0100</time>
      </trkpt>
      <trkpt lat="47.2428" lon="4.96984">
        <ele>302.49465942383</ele>
        <time>2018-11-29T10:57:49+0100</time>
      </trkpt>
      <trkpt lat="47.24283" lon="4.96984">
        <ele>302.55456542969</ele>
        <time>2018-11-29T10:57:52+0100</time>
      </trkpt>
      <trkpt lat="47.24285" lon="4.96985">
        <ele>302.59408569336</ele>
        <time>2018-11-29T10:57:55+0100</time>
      </trkpt>
      <trkpt lat="47.24288" lon="4.96986">
        <ele>302.63235473633</ele>
        <time>2018-11-29T10:57:58+0100</time>
      </trkpt>
      <trkpt lat="47.2429" lon="4.96987">
        <ele>302.7024230957</ele>
        <time>2018-11-29T10:58:01+0100</time>
      </trkpt>
      <trkpt lat="47.24294" lon="4.96989">
        <ele>302.72860717773</ele>
        <time>2018-11-29T10:58:04+0100</time>
      </trkpt>
      <trkpt lat="47.24297" lon="4.96989">
        <ele>302.71420288086</ele>
        <time>2018-11-29T10:58:07+0100</time>
      </trkpt>
      <trkpt lat="47.24299" lon="4.96989">
        <ele>302.69509887695</ele>
        <time>2018-11-29T10:58:10+0100</time>
      </trkpt>
      <trkpt lat="47.24301" lon="4.9699">
        <ele>302.73272705078</ele>
        <time>2018-11-29T10:58:13+0100</time>
      </trkpt>
      <trkpt lat="47.24304" lon="4.96992">
        <ele>302.822265625</ele>
        <time>2018-11-29T10:58:16+0100</time>
      </trkpt>
      <trkpt lat="47.24307" lon="4.96992">
        <ele>302.92190551758</ele>
        <time>2018-11-29T10:58:19+0100</time>
      </trkpt>
      <trkpt lat="47.2431" lon="4.96993">
        <ele>303.03268432617</ele>
        <time>2018-11-29T10:58:22+0100</time>
      </trkpt>
      <trkpt lat="47.24312" lon="4.96994">
        <ele>303.15454101562</ele>
        <time>2018-11-29T10:58:25+0100</time>
      </trkpt>
      <trkpt lat="47.24316" lon="4.96994">
        <ele>303.25213623047</ele>
        <time>2018-11-29T10:58:28+0100</time>
      </trkpt>
      <trkpt lat="47.24318" lon="4.96996">
        <ele>303.30258178711</ele>
        <time>2018-11-29T10:58:31+0100</time>
      </trkpt>
      <trkpt lat="47.24321" lon="4.96996">
        <ele>303.36465454102</ele>
        <time>2018-11-29T10:58:34+0100</time>
      </trkpt>
      <trkpt lat="47.24323" lon="4.96996">
        <ele>303.44400024414</ele>
        <time>2018-11-29T10:58:37+0100</time>
      </trkpt>
      <trkpt lat="47.24326" lon="4.96997">
        <ele>303.52975463867</ele>
        <time>2018-11-29T10:58:40+0100</time>
      </trkpt>
      <trkpt lat="47.24329" lon="4.96997">
        <ele>303.58901977539</ele>
        <time>2018-11-29T10:58:43+0100</time>
      </trkpt>
      <trkpt lat="47.2433" lon="4.96998">
        <ele>303.64779663086</ele>
        <time>2018-11-29T10:58:46+0100</time>
      </trkpt>
      <trkpt lat="47.24333" lon="4.96998">
        <ele>303.71466064453</ele>
        <time>2018-11-29T10:58:49+0100</time>
      </trkpt>
      <trkpt lat="47.24336" lon="4.96998">
        <ele>303.79196166992</ele>
        <time>2018-11-29T10:58:52+0100</time>
      </trkpt>
      <trkpt lat="47.24339" lon="4.96997">
        <ele>303.88815307617</ele>
        <time>2018-11-29T10:58:55+0100</time>
      </trkpt>
      <trkpt lat="47.24342" lon="4.96996">
        <ele>303.85153198242</ele>
        <time>2018-11-29T10:58:58+0100</time>
      </trkpt>
      <trkpt lat="47.24344" lon="4.96996">
        <ele>303.72933959961</ele>
        <time>2018-11-29T10:59:01+0100</time>
      </trkpt>
      <trkpt lat="47.24345" lon="4.96996">
        <ele>303.6213684082</ele>
        <time>2018-11-29T10:59:04+0100</time>
      </trkpt>
      <trkpt lat="47.24345" lon="4.96995">
        <ele>303.59042358398</ele>
        <time>2018-11-29T10:59:07+0100</time>
      </trkpt>
      <trkpt lat="47.24345" lon="4.96995">
        <ele>303.56793212891</ele>
        <time>2018-11-29T10:59:10+0100</time>
      </trkpt>
      <trkpt lat="47.24347" lon="4.96994">
        <ele>303.54440307617</ele>
        <time>2018-11-29T10:59:13+0100</time>
      </trkpt>
      <trkpt lat="47.24349" lon="4.96993">
        <ele>303.55548095703</ele>
        <time>2018-11-29T10:59:16+0100</time>
      </trkpt>
      <trkpt lat="47.24352" lon="4.96992">
        <ele>303.62768554688</ele>
        <time>2018-11-29T10:59:19+0100</time>
      </trkpt>
      <trkpt lat="47.24356" lon="4.96989">
        <ele>303.66879272461</ele>
        <time>2018-11-29T10:59:22+0100</time>
      </trkpt>
      <trkpt lat="47.24357" lon="4.96988">
        <ele>303.66394042969</ele>
        <time>2018-11-29T10:59:25+0100</time>
      </trkpt>
      <trkpt lat="47.2436" lon="4.96986">
        <ele>303.66049194336</ele>
        <time>2018-11-29T10:59:28+0100</time>
      </trkpt>
      <trkpt lat="47.24363" lon="4.96983">
        <ele>303.67282104492</ele>
        <time>2018-11-29T10:59:31+0100</time>
      </trkpt>
      <trkpt lat="47.24366" lon="4.96981">
        <ele>303.66537475586</ele>
        <time>2018-11-29T10:59:34+0100</time>
      </trkpt>
      <trkpt lat="47.2437" lon="4.96977">
        <ele>303.64422607422</ele>
        <time>2018-11-29T10:59:37+0100</time>
      </trkpt>
      <trkpt lat="47.24373" lon="4.96975">
        <ele>303.60577392578</ele>
        <time>2018-11-29T10:59:40+0100</time>
      </trkpt>
      <trkpt lat="47.24374" lon="4.96972">
        <ele>303.56167602539</ele>
        <time>2018-11-29T10:59:43+0100</time>
      </trkpt>
      <trkpt lat="47.24377" lon="4.96969">
        <ele>303.50408935547</ele>
        <time>2018-11-29T10:59:46+0100</time>
      </trkpt>
      <trkpt lat="47.24381" lon="4.96965">
        <ele>303.44732666016</ele>
        <time>2018-11-29T10:59:49+0100</time>
      </trkpt>
      <trkpt lat="47.24383" lon="4.96962">
        <ele>303.35342407227</ele>
        <time>2018-11-29T10:59:52+0100</time>
      </trkpt>
      <trkpt lat="47.24386" lon="4.9696">
        <ele>303.26196289062</ele>
        <time>2018-11-29T10:59:55+0100</time>
      </trkpt>
      <trkpt lat="47.24388" lon="4.96957">
        <ele>303.20751953125</ele>
        <time>2018-11-29T10:59:58+0100</time>
      </trkpt>
      <trkpt lat="47.24391" lon="4.96954">
        <ele>303.16772460938</ele>
        <time>2018-11-29T11:00:01+0100</time>
      </trkpt>
      <trkpt lat="47.24394" lon="4.96952">
        <ele>303.13641357422</ele>
        <time>2018-11-29T11:00:04+0100</time>
      </trkpt>
      <trkpt lat="47.24396" lon="4.96949">
        <ele>303.14279174805</ele>
        <time>2018-11-29T11:00:07+0100</time>
      </trkpt>
      <trkpt lat="47.24399" lon="4.96947">
        <ele>303.18276977539</ele>
        <time>2018-11-29T11:00:10+0100</time>
      </trkpt>
      <trkpt lat="47.24403" lon="4.96946">
        <ele>303.23294067383</ele>
        <time>2018-11-29T11:00:13+0100</time>
      </trkpt>
      <trkpt lat="47.24405" lon="4.96945">
        <ele>303.29357910156</ele>
        <time>2018-11-29T11:00:16+0100</time>
      </trkpt>
      <trkpt lat="47.24408" lon="4.96943">
        <ele>303.34356689453</ele>
        <time>2018-11-29T11:00:19+0100</time>
      </trkpt>
      <trkpt lat="47.24412" lon="4.96942">
        <ele>303.37225341797</ele>
        <time>2018-11-29T11:00:22+0100</time>
      </trkpt>
      <trkpt lat="47.24415" lon="4.96941">
        <ele>303.40838623047</ele>
        <time>2018-11-29T11:00:25+0100</time>
      </trkpt>
      <trkpt lat="47.24419" lon="4.9694">
        <ele>303.44647216797</ele>
        <time>2018-11-29T11:00:28+0100</time>
      </trkpt>
      <trkpt lat="47.24422" lon="4.9694">
        <ele>303.46829223633</ele>
        <time>2018-11-29T11:00:31+0100</time>
      </trkpt>
      <trkpt lat="47.24425" lon="4.96939">
        <ele>303.44473266602</ele>
        <time>2018-11-29T11:00:34+0100</time>
      </trkpt>
      <trkpt lat="47.24427" lon="4.9694">
        <ele>303.40060424805</ele>
        <time>2018-11-29T11:00:37+0100</time>
      </trkpt>
      <trkpt lat="47.2443" lon="4.9694">
        <ele>303.28240966797</ele>
        <time>2018-11-29T11:00:40+0100</time>
      </trkpt>
      <trkpt lat="47.24433" lon="4.9694">
        <ele>303.11996459961</ele>
        <time>2018-11-29T11:00:43+0100</time>
      </trkpt>
      <trkpt lat="47.24435" lon="4.96941">
        <ele>302.91598510742</ele>
        <time>2018-11-29T11:00:46+0100</time>
      </trkpt>
      <trkpt lat="47.24438" lon="4.96942">
        <ele>302.65658569336</ele>
        <time>2018-11-29T11:00:49+0100</time>
      </trkpt>
      <trkpt lat="47.2444" lon="4.96942">
        <ele>302.39245605469</ele>
        <time>2018-11-29T11:00:52+0100</time>
      </trkpt>
      <trkpt lat="47.24441" lon="4.96942">
        <ele>302.12551879883</ele>
        <time>2018-11-29T11:00:55+0100</time>
      </trkpt>
      <trkpt lat="47.24444" lon="4.96943">
        <ele>301.8489074707</ele>
        <time>2018-11-29T11:00:58+0100</time>
      </trkpt>
      <trkpt lat="47.24446" lon="4.96945">
        <ele>301.56338500977</ele>
        <time>2018-11-29T11:01:01+0100</time>
      </trkpt>
      <trkpt lat="47.24449" lon="4.96947">
        <ele>301.30313110352</ele>
        <time>2018-11-29T11:01:04+0100</time>
      </trkpt>
      <trkpt lat="47.2445" lon="4.9695">
        <ele>301.03201293945</ele>
        <time>2018-11-29T11:01:07+0100</time>
      </trkpt>
      <trkpt lat="47.24451" lon="4.96952">
        <ele>300.73837280273</ele>
        <time>2018-11-29T11:01:10+0100</time>
      </trkpt>
      <trkpt lat="47.24452" lon="4.96954">
        <ele>300.56533813477</ele>
        <time>2018-11-29T11:01:13+0100</time>
      </trkpt>
      <trkpt lat="47.24452" lon="4.96959">
        <ele>300.45053100586</ele>
        <time>2018-11-29T11:01:16+0100</time>
      </trkpt>
      <trkpt lat="47.24452" lon="4.96962">
        <ele>300.42892456055</ele>
        <time>2018-11-29T11:01:19+0100</time>
      </trkpt>
      <trkpt lat="47.24452" lon="4.96964">
        <ele>300.39852905273</ele>
        <time>2018-11-29T11:01:22+0100</time>
      </trkpt>
      <trkpt lat="47.24451" lon="4.96964">
        <ele>300.3576965332</ele>
        <time>2018-11-29T11:01:25+0100</time>
      </trkpt>
      <trkpt lat="47.24451" lon="4.96965">
        <ele>300.33605957031</ele>
        <time>2018-11-29T11:01:28+0100</time>
      </trkpt>
      <trkpt lat="47.24452" lon="4.9697">
        <ele>300.23806762695</ele>
        <time>2018-11-29T11:01:31+0100</time>
      </trkpt>
      <trkpt lat="47.24452" lon="4.9697">
        <ele>300.12622070312</ele>
        <time>2018-11-29T11:01:34+0100</time>
      </trkpt>
      <trkpt lat="47.24454" lon="4.96971">
        <ele>299.95129394531</ele>
        <time>2018-11-29T11:01:37+0100</time>
      </trkpt>
      <trkpt lat="47.24455" lon="4.96971">
        <ele>299.84048461914</ele>
        <time>2018-11-29T11:01:40+0100</time>
      </trkpt>
      <trkpt lat="47.24457" lon="4.96972">
        <ele>299.82888793945</ele>
        <time>2018-11-29T11:01:43+0100</time>
      </trkpt>
      <trkpt lat="47.2446" lon="4.96971">
        <ele>299.85415649414</ele>
        <time>2018-11-29T11:01:46+0100</time>
      </trkpt>
      <trkpt lat="47.24462" lon="4.96971">
        <ele>299.94549560547</ele>
        <time>2018-11-29T11:01:49+0100</time>
      </trkpt>
      <trkpt lat="47.24464" lon="4.96972">
        <ele>300.05645751953</ele>
        <time>2018-11-29T11:01:52+0100</time>
      </trkpt>
      <trkpt lat="47.24466" lon="4.96972">
        <ele>300.2018737793</ele>
        <time>2018-11-29T11:01:55+0100</time>
      </trkpt>
      <trkpt lat="47.24468" lon="4.96973">
        <ele>300.37997436523</ele>
        <time>2018-11-29T11:01:58+0100</time>
      </trkpt>
      <trkpt lat="47.24471" lon="4.96972">
        <ele>300.64416503906</ele>
        <time>2018-11-29T11:02:01+0100</time>
      </trkpt>
      <trkpt lat="47.24471" lon="4.96971">
        <ele>301.19525146484</ele>
        <time>2018-11-29T11:02:04+0100</time>
      </trkpt>
      <trkpt lat="47.24475" lon="4.96972">
        <ele>301.8473815918</ele>
        <time>2018-11-29T11:02:07+0100</time>
      </trkpt>
      <trkpt lat="47.24478" lon="4.96973">
        <ele>302.38888549805</ele>
        <time>2018-11-29T11:02:10+0100</time>
      </trkpt>
      <trkpt lat="47.24481" lon="4.96973">
        <ele>302.81100463867</ele>
        <time>2018-11-29T11:02:13+0100</time>
      </trkpt>
      <trkpt lat="47.24484" lon="4.96975">
        <ele>303.17477416992</ele>
        <time>2018-11-29T11:02:16+0100</time>
      </trkpt>
      <trkpt lat="47.24487" lon="4.96974">
        <ele>303.49780273438</ele>
        <time>2018-11-29T11:02:19+0100</time>
      </trkpt>
      <trkpt lat="47.2449" lon="4.96974">
        <ele>303.77590942383</ele>
        <time>2018-11-29T11:02:22+0100</time>
      </trkpt>
      <trkpt lat="47.24492" lon="4.96973">
        <ele>304.03927612305</ele>
        <time>2018-11-29T11:02:25+0100</time>
      </trkpt>
      <trkpt lat="47.24495" lon="4.96974">
        <ele>304.29742431641</ele>
        <time>2018-11-29T11:02:28+0100</time>
      </trkpt>
      <trkpt lat="47.24496" lon="4.96974">
        <ele>304.40731811523</ele>
        <time>2018-11-29T11:02:31+0100</time>
      </trkpt>
      <trkpt lat="47.24499" lon="4.96975">
        <ele>304.41976928711</ele>
        <time>2018-11-29T11:02:34+0100</time>
      </trkpt>
      <trkpt lat="47.24503" lon="4.96977">
        <ele>304.42980957031</ele>
        <time>2018-11-29T11:02:37+0100</time>
      </trkpt>
      <trkpt lat="47.24505" lon="4.96979">
        <ele>304.38681030273</ele>
        <time>2018-11-29T11:02:40+0100</time>
      </trkpt>
      <trkpt lat="47.24507" lon="4.9698">
        <ele>304.27459716797</ele>
        <time>2018-11-29T11:02:43+0100</time>
      </trkpt>
      <trkpt lat="47.24512" lon="4.96981">
        <ele>303.99432373047</ele>
        <time>2018-11-29T11:02:46+0100</time>
      </trkpt>
      <trkpt lat="47.24516" lon="4.96982">
        <ele>303.6130065918</ele>
        <time>2018-11-29T11:02:49+0100</time>
      </trkpt>
      <trkpt lat="47.2452" lon="4.96983">
        <ele>303.33642578125</ele>
        <time>2018-11-29T11:02:52+0100</time>
      </trkpt>
      <trkpt lat="47.24522" lon="4.96984">
        <ele>303.14459228516</ele>
        <time>2018-11-29T11:02:55+0100</time>
      </trkpt>
      <trkpt lat="47.24524" lon="4.96987">
        <ele>303.00509643555</ele>
        <time>2018-11-29T11:02:58+0100</time>
      </trkpt>
      <trkpt lat="47.24526" lon="4.96989">
        <ele>302.90051269531</ele>
        <time>2018-11-29T11:03:01+0100</time>
      </trkpt>
      <trkpt lat="47.24529" lon="4.9699">
        <ele>302.84460449219</ele>
        <time>2018-11-29T11:03:04+0100</time>
      </trkpt>
      <trkpt lat="47.24532" lon="4.96991">
        <ele>302.8571472168</ele>
        <time>2018-11-29T11:03:07+0100</time>
      </trkpt>
      <trkpt lat="47.24535" lon="4.96992">
        <ele>302.90621948242</ele>
        <time>2018-11-29T11:03:10+0100</time>
      </trkpt>
      <trkpt lat="47.24538" lon="4.96992">
        <ele>302.99880981445</ele>
        <time>2018-11-29T11:03:13+0100</time>
      </trkpt>
      <trkpt lat="47.2454" lon="4.96993">
        <ele>303.06494140625</ele>
        <time>2018-11-29T11:03:16+0100</time>
      </trkpt>
      <trkpt lat="47.24543" lon="4.96994">
        <ele>303.17211914062</ele>
        <time>2018-11-29T11:03:19+0100</time>
      </trkpt>
      <trkpt lat="47.24545" lon="4.96995">
        <ele>303.33016967773</ele>
        <time>2018-11-29T11:03:22+0100</time>
      </trkpt>
      <trkpt lat="47.24549" lon="4.96996">
        <ele>303.58651733398</ele>
        <time>2018-11-29T11:03:25+0100</time>
      </trkpt>
      <trkpt lat="47.24552" lon="4.96998">
        <ele>303.92242431641</ele>
        <time>2018-11-29T11:03:28+0100</time>
      </trkpt>
      <trkpt lat="47.24557" lon="4.96998">
        <ele>304.21536254883</ele>
        <time>2018-11-29T11:03:31+0100</time>
      </trkpt>
      <trkpt lat="47.24561" lon="4.96999">
        <ele>304.41232299805</ele>
        <time>2018-11-29T11:03:34+0100</time>
      </trkpt>
      <trkpt lat="47.24564" lon="4.96999">
        <ele>304.51013183594</ele>
        <time>2018-11-29T11:03:37+0100</time>
      </trkpt>
      <trkpt lat="47.24566" lon="4.97001">
        <ele>304.55294799805</ele>
        <time>2018-11-29T11:03:40+0100</time>
      </trkpt>
      <trkpt lat="47.24566" lon="4.97">
        <ele>304.57949829102</ele>
        <time>2018-11-29T11:03:43+0100</time>
      </trkpt>
      <trkpt lat="47.2457" lon="4.97">
        <ele>304.69836425781</ele>
        <time>2018-11-29T11:03:46+0100</time>
      </trkpt>
      <trkpt lat="47.24575" lon="4.96996">
        <ele>304.83746337891</ele>
        <time>2018-11-29T11:03:49+0100</time>
      </trkpt>
      <trkpt lat="47.24578" lon="4.96994">
        <ele>304.86511230469</ele>
        <time>2018-11-29T11:03:52+0100</time>
      </trkpt>
      <trkpt lat="47.2458" lon="4.96992">
        <ele>304.92022705078</ele>
        <time>2018-11-29T11:03:55+0100</time>
      </trkpt>
      <trkpt lat="47.24581" lon="4.96989">
        <ele>304.99264526367</ele>
        <time>2018-11-29T11:03:58+0100</time>
      </trkpt>
      <trkpt lat="47.24581" lon="4.96986">
        <ele>304.99160766602</ele>
        <time>2018-11-29T11:04:01+0100</time>
      </trkpt>
      <trkpt lat="47.24582" lon="4.96983">
        <ele>304.96551513672</ele>
        <time>2018-11-29T11:04:04+0100</time>
      </trkpt>
      <trkpt lat="47.24583" lon="4.9698">
        <ele>304.98596191406</ele>
        <time>2018-11-29T11:04:07+0100</time>
      </trkpt>
      <trkpt lat="47.24585" lon="4.96976">
        <ele>305.09130859375</ele>
        <time>2018-11-29T11:04:10+0100</time>
      </trkpt>
      <trkpt lat="47.24587" lon="4.96973">
        <ele>305.20846557617</ele>
        <time>2018-11-29T11:04:13+0100</time>
      </trkpt>
      <trkpt lat="47.24589" lon="4.96969">
        <ele>305.34951782227</ele>
        <time>2018-11-29T11:04:16+0100</time>
      </trkpt>
      <trkpt lat="47.24592" lon="4.96967">
        <ele>305.56118774414</ele>
        <time>2018-11-29T11:04:19+0100</time>
      </trkpt>
      <trkpt lat="47.24592" lon="4.96964">
        <ele>305.8962097168</ele>
        <time>2018-11-29T11:04:22+0100</time>
      </trkpt>
      <trkpt lat="47.24593" lon="4.9696">
        <ele>306.28073120117</ele>
        <time>2018-11-29T11:04:25+0100</time>
      </trkpt>
      <trkpt lat="47.24595" lon="4.96953">
        <ele>306.6149597168</ele>
        <time>2018-11-29T11:04:28+0100</time>
      </trkpt>
      <trkpt lat="47.24595" lon="4.9695">
        <ele>306.80044555664</ele>
        <time>2018-11-29T11:04:31+0100</time>
      </trkpt>
      <trkpt lat="47.24596" lon="4.96946">
        <ele>307.02767944336</ele>
        <time>2018-11-29T11:04:34+0100</time>
      </trkpt>
      <trkpt lat="47.24596" lon="4.96946">
        <ele>307.29937744141</ele>
        <time>2018-11-29T11:04:37+0100</time>
      </trkpt>
      <trkpt lat="47.24597" lon="4.96943">
        <ele>307.65182495117</ele>
        <time>2018-11-29T11:04:40+0100</time>
      </trkpt>
      <trkpt lat="47.24597" lon="4.96944">
        <ele>308.17028808594</ele>
        <time>2018-11-29T11:04:43+0100</time>
      </trkpt>
      <trkpt lat="47.24598" lon="4.96941">
        <ele>308.95251464844</ele>
        <time>2018-11-29T11:04:46+0100</time>
      </trkpt>
      <trkpt lat="47.246" lon="4.96935">
        <ele>309.72784423828</ele>
        <time>2018-11-29T11:04:49+0100</time>
      </trkpt>
      <trkpt lat="47.24601" lon="4.96931">
        <ele>310.48712158203</ele>
        <time>2018-11-29T11:04:52+0100</time>
      </trkpt>
      <trkpt lat="47.24602" lon="4.96927">
        <ele>311.19570922852</ele>
        <time>2018-11-29T11:04:55+0100</time>
      </trkpt>
      <trkpt lat="47.24604" lon="4.96924">
        <ele>311.77673339844</ele>
        <time>2018-11-29T11:04:58+0100</time>
      </trkpt>
      <trkpt lat="47.24605" lon="4.96917">
        <ele>312.24499511719</ele>
        <time>2018-11-29T11:05:01+0100</time>
      </trkpt>
      <trkpt lat="47.24607" lon="4.96914">
        <ele>312.45748901367</ele>
        <time>2018-11-29T11:05:04+0100</time>
      </trkpt>
      <trkpt lat="47.24609" lon="4.96911">
        <ele>312.63491821289</ele>
        <time>2018-11-29T11:05:07+0100</time>
      </trkpt>
      <trkpt lat="47.2461" lon="4.96907">
        <ele>312.90374755859</ele>
        <time>2018-11-29T11:05:10+0100</time>
      </trkpt>
      <trkpt lat="47.24612" lon="4.96904">
        <ele>313.21908569336</ele>
        <time>2018-11-29T11:05:13+0100</time>
      </trkpt>
      <trkpt lat="47.24613" lon="4.96901">
        <ele>313.51760864258</ele>
        <time>2018-11-29T11:05:16+0100</time>
      </trkpt>
      <trkpt lat="47.24615" lon="4.96896">
        <ele>313.75201416016</ele>
        <time>2018-11-29T11:05:19+0100</time>
      </trkpt>
      <trkpt lat="47.24618" lon="4.96891">
        <ele>313.87948608398</ele>
        <time>2018-11-29T11:05:22+0100</time>
      </trkpt>
      <trkpt lat="47.24621" lon="4.96889">
        <ele>313.93249511719</ele>
        <time>2018-11-29T11:05:25+0100</time>
      </trkpt>
      <trkpt lat="47.24624" lon="4.96889">
        <ele>313.96197509766</ele>
        <time>2018-11-29T11:05:28+0100</time>
      </trkpt>
      <trkpt lat="47.24627" lon="4.96889">
        <ele>313.9765625</ele>
        <time>2018-11-29T11:05:31+0100</time>
      </trkpt>
      <trkpt lat="47.2463" lon="4.96887">
        <ele>313.96463012695</ele>
        <time>2018-11-29T11:05:34+0100</time>
      </trkpt>
      <trkpt lat="47.24634" lon="4.96884">
        <ele>313.92199707031</ele>
        <time>2018-11-29T11:05:37+0100</time>
      </trkpt>
      <trkpt lat="47.24637" lon="4.96882">
        <ele>313.82565307617</ele>
        <time>2018-11-29T11:05:40+0100</time>
      </trkpt>
      <trkpt lat="47.2464" lon="4.96881">
        <ele>313.72769165039</ele>
        <time>2018-11-29T11:05:43+0100</time>
      </trkpt>
      <trkpt lat="47.24643" lon="4.96879">
        <ele>313.62887573242</ele>
        <time>2018-11-29T11:05:46+0100</time>
      </trkpt>
      <trkpt lat="47.24646" lon="4.96877">
        <ele>313.55151367188</ele>
        <time>2018-11-29T11:05:49+0100</time>
      </trkpt>
      <trkpt lat="47.24649" lon="4.96877">
        <ele>313.50848388672</ele>
        <time>2018-11-29T11:05:52+0100</time>
      </trkpt>
      <trkpt lat="47.24651" lon="4.96876">
        <ele>313.35784912109</ele>
        <time>2018-11-29T11:05:55+0100</time>
      </trkpt>
      <trkpt lat="47.24654" lon="4.96874">
        <ele>313.13531494141</ele>
        <time>2018-11-29T11:05:58+0100</time>
      </trkpt>
      <trkpt lat="47.24657" lon="4.96873">
        <ele>312.89566040039</ele>
        <time>2018-11-29T11:06:01+0100</time>
      </trkpt>
      <trkpt lat="47.24659" lon="4.96873">
        <ele>312.68832397461</ele>
        <time>2018-11-29T11:06:04+0100</time>
      </trkpt>
      <trkpt lat="47.24662" lon="4.96871">
        <ele>312.53225708008</ele>
        <time>2018-11-29T11:06:07+0100</time>
      </trkpt>
      <trkpt lat="47.24665" lon="4.96869">
        <ele>312.37075805664</ele>
        <time>2018-11-29T11:06:10+0100</time>
      </trkpt>
      <trkpt lat="47.24667" lon="4.96869">
        <ele>312.22351074219</ele>
        <time>2018-11-29T11:06:13+0100</time>
      </trkpt>
      <trkpt lat="47.2467" lon="4.96869">
        <ele>312.06610107422</ele>
        <time>2018-11-29T11:06:16+0100</time>
      </trkpt>
      <trkpt lat="47.24673" lon="4.96869">
        <ele>311.90786743164</ele>
        <time>2018-11-29T11:06:19+0100</time>
      </trkpt>
      <trkpt lat="47.24675" lon="4.96869">
        <ele>311.77221679688</ele>
        <time>2018-11-29T11:06:22+0100</time>
      </trkpt>
      <trkpt lat="47.24679" lon="4.96869">
        <ele>311.57034301758</ele>
        <time>2018-11-29T11:06:25+0100</time>
      </trkpt>
      <trkpt lat="47.24681" lon="4.9687">
        <ele>311.30221557617</ele>
        <time>2018-11-29T11:06:28+0100</time>
      </trkpt>
      <trkpt lat="47.24684" lon="4.96871">
        <ele>311.05368041992</ele>
        <time>2018-11-29T11:06:31+0100</time>
      </trkpt>
      <trkpt lat="47.24686" lon="4.96871">
        <ele>310.86657714844</ele>
        <time>2018-11-29T11:06:34+0100</time>
      </trkpt>
      <trkpt lat="47.24689" lon="4.96872">
        <ele>310.70449829102</ele>
        <time>2018-11-29T11:06:37+0100</time>
      </trkpt>
      <trkpt lat="47.24692" lon="4.96874">
        <ele>310.52932739258</ele>
        <time>2018-11-29T11:06:40+0100</time>
      </trkpt>
      <trkpt lat="47.24695" lon="4.96877">
        <ele>310.3713684082</ele>
        <time>2018-11-29T11:06:43+0100</time>
      </trkpt>
      <trkpt lat="47.24695" lon="4.96877">
        <ele>310.14120483398</ele>
        <time>2018-11-29T11:06:46+0100</time>
      </trkpt>
      <trkpt lat="47.247" lon="4.9688">
        <ele>309.89273071289</ele>
        <time>2018-11-29T11:06:49+0100</time>
      </trkpt>
      <trkpt lat="47.24703" lon="4.96882">
        <ele>309.63717651367</ele>
        <time>2018-11-29T11:06:52+0100</time>
      </trkpt>
      <trkpt lat="47.24704" lon="4.96883">
        <ele>309.35549926758</ele>
        <time>2018-11-29T11:06:55+0100</time>
      </trkpt>
      <trkpt lat="47.24706" lon="4.96887">
        <ele>309.04122924805</ele>
        <time>2018-11-29T11:06:58+0100</time>
      </trkpt>
      <trkpt lat="47.24708" lon="4.96889">
        <ele>308.73034667969</ele>
        <time>2018-11-29T11:07:01+0100</time>
      </trkpt>
      <trkpt lat="47.24708" lon="4.9689">
        <ele>308.43743896484</ele>
        <time>2018-11-29T11:07:04+0100</time>
      </trkpt>
      <trkpt lat="47.24709" lon="4.96891">
        <ele>308.32080078125</ele>
        <time>2018-11-29T11:07:07+0100</time>
      </trkpt>
      <trkpt lat="47.24709" lon="4.96893">
        <ele>308.04415893555</ele>
        <time>2018-11-29T11:07:10+0100</time>
      </trkpt>
      <trkpt lat="47.24709" lon="4.96893">
        <ele>308.03955078125</ele>
        <time>2018-11-29T11:07:13+0100</time>
      </trkpt>
      <trkpt lat="47.2471" lon="4.96894">
        <ele>308.04693603516</ele>
        <time>2018-11-29T11:07:16+0100</time>
      </trkpt>
      <trkpt lat="47.2471" lon="4.96894">
        <ele>308.05633544922</ele>
        <time>2018-11-29T11:07:19+0100</time>
      </trkpt>
      <trkpt lat="47.2471" lon="4.96894">
        <ele>308.06771850586</ele>
        <time>2018-11-29T11:07:22+0100</time>
      </trkpt>
      <trkpt lat="47.2471" lon="4.96894">
        <ele>308.08123779297</ele>
        <time>2018-11-29T11:07:25+0100</time>
      </trkpt>
      <trkpt lat="47.2471" lon="4.96894">
        <ele>308.09133911133</ele>
        <time>2018-11-29T11:07:28+0100</time>
      </trkpt>
      <trkpt lat="47.2471" lon="4.96894">
        <ele>308.09613037109</ele>
        <time>2018-11-29T11:07:31+0100</time>
      </trkpt>
      <trkpt lat="47.2471" lon="4.96894">
        <ele>308.09213256836</ele>
        <time>2018-11-29T11:07:34+0100</time>
      </trkpt>
      <trkpt lat="47.2471" lon="4.96894">
        <ele>308.09237670898</ele>
        <time>2018-11-29T11:07:37+0100</time>
      </trkpt>
      <trkpt lat="47.2471" lon="4.96895">
        <ele>308.09399414062</ele>
        <time>2018-11-29T11:07:40+0100</time>
      </trkpt>
      <trkpt lat="47.24711" lon="4.96895">
        <ele>308.09463500977</ele>
        <time>2018-11-29T11:07:43+0100</time>
      </trkpt>
      <trkpt lat="47.24711" lon="4.96895">
        <ele>308.09213256836</ele>
        <time>2018-11-29T11:07:46+0100</time>
      </trkpt>
      <trkpt lat="47.24711" lon="4.96895">
        <ele>308.09237670898</ele>
        <time>2018-11-29T11:07:49+0100</time>
      </trkpt>
      <trkpt lat="47.2471" lon="4.96896">
        <ele>308.12445068359</ele>
        <time>2018-11-29T11:07:52+0100</time>
      </trkpt>
      <trkpt lat="47.2471" lon="4.96897">
        <ele>308.19985961914</ele>
        <time>2018-11-29T11:07:54+0100</time>
      </trkpt>
      <trkpt lat="47.24711" lon="4.96898">
        <ele>308.31918334961</ele>
        <time>2018-11-29T11:07:57+0100</time>
      </trkpt>
      <trkpt lat="47.24713" lon="4.969">
        <ele>308.4150390625</ele>
        <time>2018-11-29T11:08:00+0100</time>
      </trkpt>
      <trkpt lat="47.24716" lon="4.96902">
        <ele>308.49829101562</ele>
        <time>2018-11-29T11:08:03+0100</time>
      </trkpt>
      <trkpt lat="47.24718" lon="4.96904">
        <ele>308.5373840332</ele>
        <time>2018-11-29T11:08:06+0100</time>
      </trkpt>
      <trkpt lat="47.24722" lon="4.96908">
        <ele>308.58193969727</ele>
        <time>2018-11-29T11:08:09+0100</time>
      </trkpt>
      <trkpt lat="47.24725" lon="4.9691">
        <ele>308.58489990234</ele>
        <time>2018-11-29T11:08:12+0100</time>
      </trkpt>
      <trkpt lat="47.24729" lon="4.96913">
        <ele>308.57055664062</ele>
        <time>2018-11-29T11:08:15+0100</time>
      </trkpt>
      <trkpt lat="47.24731" lon="4.96915">
        <ele>308.5133972168</ele>
        <time>2018-11-29T11:08:18+0100</time>
      </trkpt>
      <trkpt lat="47.24733" lon="4.96917">
        <ele>308.4921875</ele>
        <time>2018-11-29T11:08:21+0100</time>
      </trkpt>
      <trkpt lat="47.24736" lon="4.96919">
        <ele>308.50689697266</ele>
        <time>2018-11-29T11:08:24+0100</time>
      </trkpt>
      <trkpt lat="47.24738" lon="4.9692">
        <ele>308.50701904297</ele>
        <time>2018-11-29T11:08:27+0100</time>
      </trkpt>
      <trkpt lat="47.24742" lon="4.96922">
        <ele>308.48513793945</ele>
        <time>2018-11-29T11:08:30+0100</time>
      </trkpt>
      <trkpt lat="47.24745" lon="4.96924">
        <ele>308.44314575195</ele>
        <time>2018-11-29T11:08:33+0100</time>
      </trkpt>
      <trkpt lat="47.24748" lon="4.96926">
        <ele>308.38946533203</ele>
        <time>2018-11-29T11:08:36+0100</time>
      </trkpt>
      <trkpt lat="47.24752" lon="4.96928">
        <ele>308.32434082031</ele>
        <time>2018-11-29T11:08:39+0100</time>
      </trkpt>
      <trkpt lat="47.24754" lon="4.96929">
        <ele>308.24923706055</ele>
        <time>2018-11-29T11:08:42+0100</time>
      </trkpt>
      <trkpt lat="47.24757" lon="4.96931">
        <ele>308.1139831543</ele>
        <time>2018-11-29T11:08:45+0100</time>
      </trkpt>
      <trkpt lat="47.2476" lon="4.96932">
        <ele>307.92337036133</ele>
        <time>2018-11-29T11:08:48+0100</time>
      </trkpt>
      <trkpt lat="47.24764" lon="4.96933">
        <ele>307.77270507812</ele>
        <time>2018-11-29T11:08:51+0100</time>
      </trkpt>
      <trkpt lat="47.24765" lon="4.96935">
        <ele>307.69219970703</ele>
        <time>2018-11-29T11:08:54+0100</time>
      </trkpt>
      <trkpt lat="47.24768" lon="4.96936">
        <ele>307.689453125</ele>
        <time>2018-11-29T11:08:57+0100</time>
      </trkpt>
      <trkpt lat="47.24771" lon="4.96938">
        <ele>307.72750854492</ele>
        <time>2018-11-29T11:09:00+0100</time>
      </trkpt>
      <trkpt lat="47.24774" lon="4.96939">
        <ele>307.76989746094</ele>
        <time>2018-11-29T11:09:03+0100</time>
      </trkpt>
      <trkpt lat="47.24777" lon="4.96941">
        <ele>307.80514526367</ele>
        <time>2018-11-29T11:09:06+0100</time>
      </trkpt>
      <trkpt lat="47.24779" lon="4.96942">
        <ele>307.93255615234</ele>
        <time>2018-11-29T11:09:09+0100</time>
      </trkpt>
      <trkpt lat="47.24781" lon="4.96942">
        <ele>308.08581542969</ele>
        <time>2018-11-29T11:09:12+0100</time>
      </trkpt>
      <trkpt lat="47.24783" lon="4.96944">
        <ele>308.24572753906</ele>
        <time>2018-11-29T11:09:15+0100</time>
      </trkpt>
      <trkpt lat="47.24786" lon="4.96945">
        <ele>308.36611938477</ele>
        <time>2018-11-29T11:09:18+0100</time>
      </trkpt>
      <trkpt lat="47.24789" lon="4.96947">
        <ele>308.44067382812</ele>
        <time>2018-11-29T11:09:21+0100</time>
      </trkpt>
      <trkpt lat="47.24792" lon="4.96948">
        <ele>308.50354003906</ele>
        <time>2018-11-29T11:09:24+0100</time>
      </trkpt>
      <trkpt lat="47.24794" lon="4.96949">
        <ele>308.56912231445</ele>
        <time>2018-11-29T11:09:27+0100</time>
      </trkpt>
      <trkpt lat="47.24797" lon="4.96951">
        <ele>308.71057128906</ele>
        <time>2018-11-29T11:09:30+0100</time>
      </trkpt>
      <trkpt lat="47.248" lon="4.96953">
        <ele>308.92776489258</ele>
        <time>2018-11-29T11:09:33+0100</time>
      </trkpt>
      <trkpt lat="47.24803" lon="4.96954">
        <ele>309.12176513672</ele>
        <time>2018-11-29T11:09:36+0100</time>
      </trkpt>
      <trkpt lat="47.24805" lon="4.96955">
        <ele>309.32626342773</ele>
        <time>2018-11-29T11:09:39+0100</time>
      </trkpt>
      <trkpt lat="47.24808" lon="4.96956">
        <ele>309.56436157227</ele>
        <time>2018-11-29T11:09:42+0100</time>
      </trkpt>
      <trkpt lat="47.24811" lon="4.96958">
        <ele>309.74862670898</ele>
        <time>2018-11-29T11:09:45+0100</time>
      </trkpt>
      <trkpt lat="47.24814" lon="4.96959">
        <ele>309.90634155273</ele>
        <time>2018-11-29T11:09:48+0100</time>
      </trkpt>
      <trkpt lat="47.24818" lon="4.9696">
        <ele>310.08639526367</ele>
        <time>2018-11-29T11:09:51+0100</time>
      </trkpt>
      <trkpt lat="47.2482" lon="4.96961">
        <ele>310.26470947266</ele>
        <time>2018-11-29T11:09:54+0100</time>
      </trkpt>
      <trkpt lat="47.24821" lon="4.96962">
        <ele>310.42987060547</ele>
        <time>2018-11-29T11:09:57+0100</time>
      </trkpt>
      <trkpt lat="47.24825" lon="4.96964">
        <ele>310.60681152344</ele>
        <time>2018-11-29T11:10:00+0100</time>
      </trkpt>
      <trkpt lat="47.24828" lon="4.96965">
        <ele>310.72100830078</ele>
        <time>2018-11-29T11:10:03+0100</time>
      </trkpt>
      <trkpt lat="47.2483" lon="4.96966">
        <ele>310.7776184082</ele>
        <time>2018-11-29T11:10:06+0100</time>
      </trkpt>
      <trkpt lat="47.24832" lon="4.96968">
        <ele>310.86154174805</ele>
        <time>2018-11-29T11:10:09+0100</time>
      </trkpt>
      <trkpt lat="47.24835" lon="4.9697">
        <ele>310.9518737793</ele>
        <time>2018-11-29T11:10:12+0100</time>
      </trkpt>
      <trkpt lat="47.24838" lon="4.96973">
        <ele>311.06567382812</ele>
        <time>2018-11-29T11:10:15+0100</time>
      </trkpt>
      <trkpt lat="47.24842" lon="4.96976">
        <ele>311.17236328125</ele>
        <time>2018-11-29T11:10:18+0100</time>
      </trkpt>
      <trkpt lat="47.24844" lon="4.96977">
        <ele>311.25482177734</ele>
        <time>2018-11-29T11:10:21+0100</time>
      </trkpt>
      <trkpt lat="47.24847" lon="4.96978">
        <ele>311.30535888672</ele>
        <time>2018-11-29T11:10:24+0100</time>
      </trkpt>
      <trkpt lat="47.2485" lon="4.96981">
        <ele>311.36233520508</ele>
        <time>2018-11-29T11:10:27+0100</time>
      </trkpt>
      <trkpt lat="47.24851" lon="4.96982">
        <ele>311.43231201172</ele>
        <time>2018-11-29T11:10:30+0100</time>
      </trkpt>
      <trkpt lat="47.24854" lon="4.96983">
        <ele>311.4973449707</ele>
        <time>2018-11-29T11:10:33+0100</time>
      </trkpt>
      <trkpt lat="47.24857" lon="4.96986">
        <ele>311.52639770508</ele>
        <time>2018-11-29T11:10:36+0100</time>
      </trkpt>
      <trkpt lat="47.2486" lon="4.96988">
        <ele>311.54275512695</ele>
        <time>2018-11-29T11:10:39+0100</time>
      </trkpt>
      <trkpt lat="47.24864" lon="4.9699">
        <ele>311.62002563477</ele>
        <time>2018-11-29T11:10:42+0100</time>
      </trkpt>
      <trkpt lat="47.24866" lon="4.96992">
        <ele>311.71939086914</ele>
        <time>2018-11-29T11:10:45+0100</time>
      </trkpt>
      <trkpt lat="47.2487" lon="4.96992">
        <ele>311.80889892578</ele>
        <time>2018-11-29T11:10:48+0100</time>
      </trkpt>
      <trkpt lat="47.24873" lon="4.96995">
        <ele>311.91128540039</ele>
        <time>2018-11-29T11:10:51+0100</time>
      </trkpt>
      <trkpt lat="47.24877" lon="4.96997">
        <ele>312.0094909668</ele>
        <time>2018-11-29T11:10:54+0100</time>
      </trkpt>
      <trkpt lat="47.2488" lon="4.96999">
        <ele>312.123046875</ele>
        <time>2018-11-29T11:10:57+0100</time>
      </trkpt>
      <trkpt lat="47.24883" lon="4.97">
        <ele>312.24505615234</ele>
        <time>2018-11-29T11:11:00+0100</time>
      </trkpt>
      <trkpt lat="47.24885" lon="4.97">
        <ele>312.34585571289</ele>
        <time>2018-11-29T11:11:03+0100</time>
      </trkpt>
      <trkpt lat="47.24888" lon="4.97002">
        <ele>312.44024658203</ele>
        <time>2018-11-29T11:11:06+0100</time>
      </trkpt>
      <trkpt lat="47.24891" lon="4.97003">
        <ele>312.52923583984</ele>
        <time>2018-11-29T11:11:09+0100</time>
      </trkpt>
      <trkpt lat="47.24893" lon="4.97005">
        <ele>312.60217285156</ele>
        <time>2018-11-29T11:11:12+0100</time>
      </trkpt>
      <trkpt lat="47.24897" lon="4.97007">
        <ele>312.63302612305</ele>
        <time>2018-11-29T11:11:15+0100</time>
      </trkpt>
      <trkpt lat="47.249" lon="4.97008">
        <ele>312.68594360352</ele>
        <time>2018-11-29T11:11:18+0100</time>
      </trkpt>
      <trkpt lat="47.24903" lon="4.97009">
        <ele>312.75421142578</ele>
        <time>2018-11-29T11:11:21+0100</time>
      </trkpt>
      <trkpt lat="47.24906" lon="4.97011">
        <ele>312.8125</ele>
        <time>2018-11-29T11:11:24+0100</time>
      </trkpt>
      <trkpt lat="47.24909" lon="4.97012">
        <ele>312.91870117188</ele>
        <time>2018-11-29T11:11:27+0100</time>
      </trkpt>
      <trkpt lat="47.24911" lon="4.97014">
        <ele>313.03167724609</ele>
        <time>2018-11-29T11:11:30+0100</time>
      </trkpt>
      <trkpt lat="47.24915" lon="4.97015">
        <ele>313.07870483398</ele>
        <time>2018-11-29T11:11:33+0100</time>
      </trkpt>
      <trkpt lat="47.24918" lon="4.97017">
        <ele>313.0673828125</ele>
        <time>2018-11-29T11:11:36+0100</time>
      </trkpt>
      <trkpt lat="47.24921" lon="4.97019">
        <ele>313.07760620117</ele>
        <time>2018-11-29T11:11:39+0100</time>
      </trkpt>
      <trkpt lat="47.24924" lon="4.9702">
        <ele>313.138671875</ele>
        <time>2018-11-29T11:11:42+0100</time>
      </trkpt>
      <trkpt lat="47.24927" lon="4.97022">
        <ele>313.17709350586</ele>
        <time>2018-11-29T11:11:45+0100</time>
      </trkpt>
      <trkpt lat="47.2493" lon="4.97023">
        <ele>313.22088623047</ele>
        <time>2018-11-29T11:11:48+0100</time>
      </trkpt>
      <trkpt lat="47.24932" lon="4.97024">
        <ele>313.29278564453</ele>
        <time>2018-11-29T11:11:51+0100</time>
      </trkpt>
      <trkpt lat="47.24935" lon="4.97025">
        <ele>313.35235595703</ele>
        <time>2018-11-29T11:11:54+0100</time>
      </trkpt>
      <trkpt lat="47.24938" lon="4.97026">
        <ele>313.4084777832</ele>
        <time>2018-11-29T11:11:57+0100</time>
      </trkpt>
      <trkpt lat="47.24942" lon="4.97027">
        <ele>313.45751953125</ele>
        <time>2018-11-29T11:12:00+0100</time>
      </trkpt>
      <trkpt lat="47.24945" lon="4.97028">
        <ele>313.52041625977</ele>
        <time>2018-11-29T11:12:03+0100</time>
      </trkpt>
      <trkpt lat="47.24948" lon="4.97029">
        <ele>313.57821655273</ele>
        <time>2018-11-29T11:12:06+0100</time>
      </trkpt>
      <trkpt lat="47.24951" lon="4.9703">
        <ele>313.62753295898</ele>
        <time>2018-11-29T11:12:09+0100</time>
      </trkpt>
      <trkpt lat="47.24953" lon="4.97031">
        <ele>313.70886230469</ele>
        <time>2018-11-29T11:12:12+0100</time>
      </trkpt>
      <trkpt lat="47.24957" lon="4.97033">
        <ele>313.84658813477</ele>
        <time>2018-11-29T11:12:15+0100</time>
      </trkpt>
      <trkpt lat="47.24961" lon="4.97034">
        <ele>314.08334350586</ele>
        <time>2018-11-29T11:12:18+0100</time>
      </trkpt>
      <trkpt lat="47.24963" lon="4.97035">
        <ele>314.34957885742</ele>
        <time>2018-11-29T11:12:21+0100</time>
      </trkpt>
      <trkpt lat="47.24965" lon="4.97035">
        <ele>314.5986328125</ele>
        <time>2018-11-29T11:12:24+0100</time>
      </trkpt>
      <trkpt lat="47.24968" lon="4.97036">
        <ele>314.83773803711</ele>
        <time>2018-11-29T11:12:27+0100</time>
      </trkpt>
      <trkpt lat="47.2497" lon="4.97036">
        <ele>315.04077148438</ele>
        <time>2018-11-29T11:12:30+0100</time>
      </trkpt>
      <trkpt lat="47.24975" lon="4.97035">
        <ele>315.29983520508</ele>
        <time>2018-11-29T11:12:33+0100</time>
      </trkpt>
      <trkpt lat="47.24978" lon="4.97036">
        <ele>315.54879760742</ele>
        <time>2018-11-29T11:12:36+0100</time>
      </trkpt>
      <trkpt lat="47.24981" lon="4.97036">
        <ele>315.80499267578</ele>
        <time>2018-11-29T11:12:39+0100</time>
      </trkpt>
      <trkpt lat="47.24984" lon="4.97037">
        <ele>316.04000854492</ele>
        <time>2018-11-29T11:12:42+0100</time>
      </trkpt>
      <trkpt lat="47.24987" lon="4.97036">
        <ele>316.2532043457</ele>
        <time>2018-11-29T11:12:45+0100</time>
      </trkpt>
      <trkpt lat="47.2499" lon="4.97036">
        <ele>316.43048095703</ele>
        <time>2018-11-29T11:12:48+0100</time>
      </trkpt>
      <trkpt lat="47.24993" lon="4.97036">
        <ele>316.63098144531</ele>
        <time>2018-11-29T11:12:51+0100</time>
      </trkpt>
      <trkpt lat="47.24995" lon="4.97036">
        <ele>316.81042480469</ele>
        <time>2018-11-29T11:12:54+0100</time>
      </trkpt>
      <trkpt lat="47.24997" lon="4.97035">
        <ele>317.02178955078</ele>
        <time>2018-11-29T11:12:57+0100</time>
      </trkpt>
      <trkpt lat="47.25001" lon="4.97035">
        <ele>317.24066162109</ele>
        <time>2018-11-29T11:13:00+0100</time>
      </trkpt>
      <trkpt lat="47.25003" lon="4.97034">
        <ele>317.43518066406</ele>
        <time>2018-11-29T11:13:03+0100</time>
      </trkpt>
      <trkpt lat="47.25007" lon="4.97034">
        <ele>317.54702758789</ele>
        <time>2018-11-29T11:13:06+0100</time>
      </trkpt>
      <trkpt lat="47.25008" lon="4.97032">
        <ele>317.57138061523</ele>
        <time>2018-11-29T11:13:09+0100</time>
      </trkpt>
      <trkpt lat="47.25009" lon="4.97027">
        <ele>317.54248046875</ele>
        <time>2018-11-29T11:13:12+0100</time>
      </trkpt>
      <trkpt lat="47.25008" lon="4.97019">
        <ele>317.39505004883</ele>
        <time>2018-11-29T11:13:15+0100</time>
      </trkpt>
      <trkpt lat="47.25008" lon="4.97014">
        <ele>317.23107910156</ele>
        <time>2018-11-29T11:13:18+0100</time>
      </trkpt>
      <trkpt lat="47.25008" lon="4.97011">
        <ele>317.14224243164</ele>
        <time>2018-11-29T11:13:21+0100</time>
      </trkpt>
      <trkpt lat="47.25008" lon="4.97006">
        <ele>317.11245727539</ele>
        <time>2018-11-29T11:13:24+0100</time>
      </trkpt>
      <trkpt lat="47.25008" lon="4.97004">
        <ele>317.10968017578</ele>
        <time>2018-11-29T11:13:27+0100</time>
      </trkpt>
      <trkpt lat="47.25007" lon="4.97001">
        <ele>317.12362670898</ele>
        <time>2018-11-29T11:13:30+0100</time>
      </trkpt>
      <trkpt lat="47.25007" lon="4.96996">
        <ele>317.12261962891</ele>
        <time>2018-11-29T11:13:33+0100</time>
      </trkpt>
      <trkpt lat="47.25006" lon="4.96992">
        <ele>317.1174621582</ele>
        <time>2018-11-29T11:13:36+0100</time>
      </trkpt>
      <trkpt lat="47.25006" lon="4.96988">
        <ele>317.12927246094</ele>
        <time>2018-11-29T11:13:39+0100</time>
      </trkpt>
      <trkpt lat="47.25005" lon="4.96985">
        <ele>317.20343017578</ele>
        <time>2018-11-29T11:13:42+0100</time>
      </trkpt>
      <trkpt lat="47.25005" lon="4.96982">
        <ele>317.33169555664</ele>
        <time>2018-11-29T11:13:45+0100</time>
      </trkpt>
      <trkpt lat="47.25004" lon="4.96978">
        <ele>317.48422241211</ele>
        <time>2018-11-29T11:13:48+0100</time>
      </trkpt>
      <trkpt lat="47.25003" lon="4.96976">
        <ele>317.64987182617</ele>
        <time>2018-11-29T11:13:51+0100</time>
      </trkpt>
      <trkpt lat="47.25003" lon="4.96971">
        <ele>317.83407592773</ele>
        <time>2018-11-29T11:13:54+0100</time>
      </trkpt>
      <trkpt lat="47.25002" lon="4.96969">
        <ele>318.01403808594</ele>
        <time>2018-11-29T11:13:57+0100</time>
      </trkpt>
      <trkpt lat="47.25001" lon="4.96966">
        <ele>318.20184326172</ele>
        <time>2018-11-29T11:14:00+0100</time>
      </trkpt>
      <trkpt lat="47.25" lon="4.96962">
        <ele>318.41680908203</ele>
        <time>2018-11-29T11:14:03+0100</time>
      </trkpt>
      <trkpt lat="47.24999" lon="4.96958">
        <ele>318.64373779297</ele>
        <time>2018-11-29T11:14:06+0100</time>
      </trkpt>
      <trkpt lat="47.25" lon="4.96953">
        <ele>318.89047241211</ele>
        <time>2018-11-29T11:14:09+0100</time>
      </trkpt>
      <trkpt lat="47.25" lon="4.96947">
        <ele>319.13092041016</ele>
        <time>2018-11-29T11:14:12+0100</time>
      </trkpt>
      <trkpt lat="47.24999" lon="4.96942">
        <ele>319.31686401367</ele>
        <time>2018-11-29T11:14:15+0100</time>
      </trkpt>
      <trkpt lat="47.24999" lon="4.9694">
        <ele>319.44393920898</ele>
        <time>2018-11-29T11:14:18+0100</time>
      </trkpt>
      <trkpt lat="47.24999" lon="4.9694">
        <ele>319.56982421875</ele>
        <time>2018-11-29T11:14:21+0100</time>
      </trkpt>
      <trkpt lat="47.24999" lon="4.96934">
        <ele>319.75637817383</ele>
        <time>2018-11-29T11:14:24+0100</time>
      </trkpt>
      <trkpt lat="47.24999" lon="4.96928">
        <ele>319.9508972168</ele>
        <time>2018-11-29T11:14:27+0100</time>
      </trkpt>
      <trkpt lat="47.24999" lon="4.96926">
        <ele>320.15496826172</ele>
        <time>2018-11-29T11:14:30+0100</time>
      </trkpt>
      <trkpt lat="47.24999" lon="4.96922">
        <ele>320.27810668945</ele>
        <time>2018-11-29T11:14:33+0100</time>
      </trkpt>
      <trkpt lat="47.24999" lon="4.96922">
        <ele>320.29452514648</ele>
        <time>2018-11-29T11:14:36+0100</time>
      </trkpt>
      <trkpt lat="47.24999" lon="4.96922">
        <ele>320.31069946289</ele>
        <time>2018-11-29T11:14:39+0100</time>
      </trkpt>
      <trkpt lat="47.24999" lon="4.96922">
        <ele>320.33099365234</ele>
        <time>2018-11-29T11:14:42+0100</time>
      </trkpt>
      <trkpt lat="47.25" lon="4.96922">
        <ele>320.3522644043</ele>
        <time>2018-11-29T11:14:45+0100</time>
      </trkpt>
      <trkpt lat="47.25" lon="4.96922">
        <ele>320.37414550781</ele>
        <time>2018-11-29T11:14:48+0100</time>
      </trkpt>
      <trkpt lat="47.25" lon="4.96921">
        <ele>320.38439941406</ele>
        <time>2018-11-29T11:14:51+0100</time>
      </trkpt>
      <trkpt lat="47.25" lon="4.96921">
        <ele>320.39605712891</ele>
        <time>2018-11-29T11:14:54+0100</time>
      </trkpt>
      <trkpt lat="47.25001" lon="4.96916">
        <ele>320.45678710938</ele>
        <time>2018-11-29T11:14:57+0100</time>
      </trkpt>
      <trkpt lat="47.25001" lon="4.96916">
        <ele>320.4626159668</ele>
        <time>2018-11-29T11:15:00+0100</time>
      </trkpt>
      <trkpt lat="47.25002" lon="4.96916">
        <ele>320.47634887695</ele>
        <time>2018-11-29T11:15:03+0100</time>
      </trkpt>
      <trkpt lat="47.25002" lon="4.96916">
        <ele>320.4983215332</ele>
        <time>2018-11-29T11:15:06+0100</time>
      </trkpt>
      <trkpt lat="47.25002" lon="4.96916">
        <ele>320.51138305664</ele>
        <time>2018-11-29T11:15:09+0100</time>
      </trkpt>
      <trkpt lat="47.25001" lon="4.96916">
        <ele>320.51699829102</ele>
        <time>2018-11-29T11:15:12+0100</time>
      </trkpt>
      <trkpt lat="47.25001" lon="4.96916">
        <ele>320.51223754883</ele>
        <time>2018-11-29T11:15:15+0100</time>
      </trkpt>
      <trkpt lat="47.25001" lon="4.96916">
        <ele>320.50411987305</ele>
        <time>2018-11-29T11:15:18+0100</time>
      </trkpt>
      <trkpt lat="47.25001" lon="4.96916">
        <ele>320.50103759766</ele>
        <time>2018-11-29T11:15:21+0100</time>
      </trkpt>
      <trkpt lat="47.25001" lon="4.96916">
        <ele>320.49569702148</ele>
        <time>2018-11-29T11:15:24+0100</time>
      </trkpt>
      <trkpt lat="47.25001" lon="4.96916">
        <ele>320.48965454102</ele>
        <time>2018-11-29T11:15:27+0100</time>
      </trkpt>
      <trkpt lat="47.25002" lon="4.96916">
        <ele>320.49569702148</ele>
        <time>2018-11-29T11:15:30+0100</time>
      </trkpt>
      <trkpt lat="47.25002" lon="4.96916">
        <ele>320.50985717773</ele>
        <time>2018-11-29T11:15:33+0100</time>
      </trkpt>
      <trkpt lat="47.25002" lon="4.96917">
        <ele>320.5260925293</ele>
        <time>2018-11-29T11:15:36+0100</time>
      </trkpt>
      <trkpt lat="47.25002" lon="4.96917">
        <ele>320.53918457031</ele>
        <time>2018-11-29T11:15:39+0100</time>
      </trkpt>
      <trkpt lat="47.25002" lon="4.96917">
        <ele>320.54690551758</ele>
        <time>2018-11-29T11:15:42+0100</time>
      </trkpt>
      <trkpt lat="47.25002" lon="4.96916">
        <ele>320.56658935547</ele>
        <time>2018-11-29T11:15:45+0100</time>
      </trkpt>
      <trkpt lat="47.24998" lon="4.96914">
        <ele>320.62478637695</ele>
        <time>2018-11-29T11:15:48+0100</time>
      </trkpt>
      <trkpt lat="47.24997" lon="4.96908">
        <ele>320.74584960938</ele>
        <time>2018-11-29T11:15:51+0100</time>
      </trkpt>
      <trkpt lat="47.24997" lon="4.96904">
        <ele>320.89144897461</ele>
        <time>2018-11-29T11:15:54+0100</time>
      </trkpt>
      <trkpt lat="47.24998" lon="4.96901">
        <ele>321.10470581055</ele>
        <time>2018-11-29T11:15:57+0100</time>
      </trkpt>
      <trkpt lat="47.24998" lon="4.96898">
        <ele>321.35806274414</ele>
        <time>2018-11-29T11:16:00+0100</time>
      </trkpt>
      <trkpt lat="47.24998" lon="4.96897">
        <ele>321.38555908203</ele>
        <time>2018-11-29T11:16:03+0100</time>
      </trkpt>
      <trkpt lat="47.24998" lon="4.96897">
        <ele>321.41555786133</ele>
        <time>2018-11-29T11:16:06+0100</time>
      </trkpt>
      <trkpt lat="47.24997" lon="4.96895">
        <ele>321.71774291992</ele>
        <time>2018-11-29T11:16:09+0100</time>
      </trkpt>
      <trkpt lat="47.24994" lon="4.96893">
        <ele>321.91754150391</ele>
        <time>2018-11-29T11:16:12+0100</time>
      </trkpt>
      <trkpt lat="47.24994" lon="4.96894">
        <ele>321.94921875</ele>
        <time>2018-11-29T11:16:15+0100</time>
      </trkpt>
      <trkpt lat="47.24994" lon="4.96894">
        <ele>321.97766113281</ele>
        <time>2018-11-29T11:16:18+0100</time>
      </trkpt>
      <trkpt lat="47.24994" lon="4.96894">
        <ele>322.00598144531</ele>
        <time>2018-11-29T11:16:21+0100</time>
      </trkpt>
      <trkpt lat="47.24994" lon="4.96895">
        <ele>322.02001953125</ele>
        <time>2018-11-29T11:16:24+0100</time>
      </trkpt>
      <trkpt lat="47.24996" lon="4.96896">
        <ele>322.02474975586</ele>
        <time>2018-11-29T11:16:27+0100</time>
      </trkpt>
      <trkpt lat="47.24996" lon="4.96896">
        <ele>322.02676391602</ele>
        <time>2018-11-29T11:16:30+0100</time>
      </trkpt>
      <trkpt lat="47.24996" lon="4.96896">
        <ele>322.02557373047</ele>
        <time>2018-11-29T11:16:33+0100</time>
      </trkpt>
      <trkpt lat="47.24996" lon="4.96895">
        <ele>322.01602172852</ele>
        <time>2018-11-29T11:16:36+0100</time>
      </trkpt>
      <trkpt lat="47.24996" lon="4.96895">
        <ele>321.99502563477</ele>
        <time>2018-11-29T11:16:39+0100</time>
      </trkpt>
      <trkpt lat="47.24995" lon="4.96895">
        <ele>321.89437866211</ele>
        <time>2018-11-29T11:16:42+0100</time>
      </trkpt>
      <trkpt lat="47.24995" lon="4.96896">
        <ele>321.90121459961</ele>
        <time>2018-11-29T11:16:45+0100</time>
      </trkpt>
      <trkpt lat="47.24997" lon="4.96896">
        <ele>322.00970458984</ele>
        <time>2018-11-29T11:16:48+0100</time>
      </trkpt>
      <trkpt lat="47.24996" lon="4.96896">
        <ele>322.03161621094</ele>
        <time>2018-11-29T11:16:51+0100</time>
      </trkpt>
      <trkpt lat="47.24996" lon="4.96895">
        <ele>322.08944702148</ele>
        <time>2018-11-29T11:16:54+0100</time>
      </trkpt>
      <trkpt lat="47.24996" lon="4.96894">
        <ele>322.10552978516</ele>
        <time>2018-11-29T11:16:57+0100</time>
      </trkpt>
      <trkpt lat="47.24997" lon="4.96894">
        <ele>322.10479736328</ele>
        <time>2018-11-29T11:17:00+0100</time>
      </trkpt>
      <trkpt lat="47.24997" lon="4.96893">
        <ele>322.10464477539</ele>
        <time>2018-11-29T11:17:03+0100</time>
      </trkpt>
    </trkseg>
  </trk>
</gpx>